<?xml version='1.0' encoding='UTF-8'?><gpx version="1.1" creator="JPX - https://github.com/jenetics/jpx" xmlns="http://www.topografix.com/GPX/1/1"><trk><trkseg><trkpt lat="40.31865130238032" lon="9.308203297952925"><ele>526.0</ele><time>2026-04-11T07:08:49.999Z</time></trkpt><trkpt lat="40.31855759498594" lon="9.308280995185697"><ele>526.0</ele><time>2026-04-11T07:08:51.999Z</time></trkpt><trkpt lat="40.318456005333545" lon="9.308349250249297"><ele>526.0</ele><time>2026-04-11T07:08:53.999Z</time></trkpt><trkpt lat="40.31835560635568" lon="9.308439099299722"><ele>526.0</ele><time>2026-04-11T07:08:55.999Z</time></trkpt><trkpt lat="40.318244422077754" lon="9.308471397360488"><ele>526.0</ele><time>2026-04-11T07:08:57.999Z</time></trkpt><trkpt lat="40.31813382007656" lon="9.30842579274438"><ele>526.0</ele><time>2026-04-11T07:08:59.999Z</time></trkpt><trkpt lat="40.31803241139663" lon="9.308450910665153"><ele>526.0</ele><time>2026-04-11T07:09:01.999Z</time></trkpt><trkpt lat="40.317998915479166" lon="9.308607835185732"><ele>526.0</ele><time>2026-04-11T07:09:03.999Z</time></trkpt><trkpt lat="40.317980554800066" lon="9.308690075710258"><ele>526.0</ele><time>2026-04-11T07:09:04.999Z</time></trkpt><trkpt lat="40.3179369573466" lon="9.30878860481222"><ele>526.3333333333334</ele><time>2026-04-11T07:09:05.999Z</time></trkpt><trkpt lat="40.31786036847532" lon="9.308810800517975"><ele>526.6666666666667</ele><time>2026-04-11T07:09:06.999Z</time></trkpt><trkpt lat="40.317763632350406" lon="9.308907304267978"><ele>527.0</ele><time>2026-04-11T07:09:08.999Z</time></trkpt><trkpt lat="40.31771064896666" lon="9.308958779728982"><ele>527.3333333333334</ele><time>2026-04-11T07:09:09.999Z</time></trkpt><trkpt lat="40.317648623505704" lon="9.309007839347812"><ele>527.6666666666666</ele><time>2026-04-11T07:09:10.999Z</time></trkpt><trkpt lat="40.3175821340387" lon="9.309044417112062"><ele>528.0</ele><time>2026-04-11T07:09:11.999Z</time></trkpt><trkpt lat="40.31751839023813" lon="9.30908214629337"><ele>528.0</ele><time>2026-04-11T07:09:12.999Z</time></trkpt><trkpt lat="40.317458337385546" lon="9.30911878539323"><ele>528.0</ele><time>2026-04-11T07:09:13.999Z</time></trkpt><trkpt lat="40.31740191411197" lon="9.309160927726724"><ele>528.0</ele><time>2026-04-11T07:09:14.999Z</time></trkpt><trkpt lat="40.31734514297867" lon="9.30920875904722"><ele>528.0</ele><time>2026-04-11T07:09:15.999Z</time></trkpt><trkpt lat="40.31728311898838" lon="9.30924922257155"><ele>528.0</ele><time>2026-04-11T07:09:16.999Z</time></trkpt><trkpt lat="40.3172186915863" lon="9.30928987714195"><ele>528.0</ele><time>2026-04-11T07:09:17.999Z</time></trkpt><trkpt lat="40.31715641668364" lon="9.309332874252286"><ele>528.0</ele><time>2026-04-11T07:09:18.999Z</time></trkpt><trkpt lat="40.317096382279246" lon="9.309360977838026"><ele>526.8333333333334</ele><time>2026-04-11T07:09:19.999Z</time></trkpt><trkpt lat="40.31703247930787" lon="9.309378051782533"><ele>525.6666666666666</ele><time>2026-04-11T07:09:20.999Z</time></trkpt><trkpt lat="40.31692102109847" lon="9.309404148284893"><ele>524.5</ele><time>2026-04-11T07:09:22.999Z</time></trkpt><trkpt lat="40.31686907333029" lon="9.30945642131323"><ele>523.3333333333333</ele><time>2026-04-11T07:09:23.999Z</time></trkpt><trkpt lat="40.31681885142805" lon="9.309539826776636"><ele>522.1666666666666</ele><time>2026-04-11T07:09:24.999Z</time></trkpt><trkpt lat="40.31676044699839" lon="9.309622187971222"><ele>521.0</ele><time>2026-04-11T07:09:25.999Z</time></trkpt><trkpt lat="40.316718511765416" lon="9.309693047778005"><ele>522.5</ele><time>2026-04-11T07:09:26.999Z</time></trkpt><trkpt lat="40.316646911050526" lon="9.309754443262248"><ele>524.0</ele><time>2026-04-11T07:09:27.999Z</time></trkpt><trkpt lat="40.3165933790518" lon="9.309824392428043"><ele>525.5</ele><time>2026-04-11T07:09:28.999Z</time></trkpt><trkpt lat="40.31653616818051" lon="9.309900174418392"><ele>527.0</ele><time>2026-04-11T07:09:29.999Z</time></trkpt><trkpt lat="40.31648189660169" lon="9.309975216070526"><ele>528.5</ele><time>2026-04-11T07:09:30.999Z</time></trkpt><trkpt lat="40.31642654409048" lon="9.310046439243463"><ele>530.0</ele><time>2026-04-11T07:09:31.999Z</time></trkpt><trkpt lat="40.3163716340656" lon="9.310113421869676"><ele>530.0</ele><time>2026-04-11T07:09:32.999Z</time></trkpt><trkpt lat="40.316315063428775" lon="9.31017571881133"><ele>530.0</ele><time>2026-04-11T07:09:33.999Z</time></trkpt><trkpt lat="40.31626219499079" lon="9.310222314112522"><ele>530.0</ele><time>2026-04-11T07:09:34.999Z</time></trkpt><trkpt lat="40.31619557022947" lon="9.310341326873187"><ele>530.0</ele><time>2026-04-11T07:09:35.999Z</time></trkpt><trkpt lat="40.31614420610201" lon="9.310428042769221"><ele>530.0</ele><time>2026-04-11T07:09:36.999Z</time></trkpt><trkpt lat="40.31609851012005" lon="9.310524774166138"><ele>530.0</ele><time>2026-04-11T07:09:37.999Z</time></trkpt><trkpt lat="40.316048711004385" lon="9.310609140224416"><ele>531.1666666666666</ele><time>2026-04-11T07:09:38.999Z</time></trkpt><trkpt lat="40.31599468829898" lon="9.31069134352072"><ele>532.3333333333333</ele><time>2026-04-11T07:09:39.999Z</time></trkpt><trkpt lat="40.315939039925084" lon="9.3107767408597"><ele>533.5</ele><time>2026-04-11T07:09:40.999Z</time></trkpt><trkpt lat="40.31588698817249" lon="9.310860953233757"><ele>534.6666666666666</ele><time>2026-04-11T07:09:41.999Z</time></trkpt><trkpt lat="40.31582871015043" lon="9.310948599993214"><ele>535.8333333333334</ele><time>2026-04-11T07:09:42.999Z</time></trkpt><trkpt lat="40.315780081324675" lon="9.311041322804193"><ele>537.0</ele><time>2026-04-11T07:09:43.999Z</time></trkpt><trkpt lat="40.31573178238919" lon="9.311135369072499"><ele>537.0</ele><time>2026-04-11T07:09:44.999Z</time></trkpt><trkpt lat="40.315686409709784" lon="9.31122590088729"><ele>537.0</ele><time>2026-04-11T07:09:45.999Z</time></trkpt><trkpt lat="40.31565138566655" lon="9.311327309723229"><ele>537.0</ele><time>2026-04-11T07:09:46.999Z</time></trkpt><trkpt lat="40.31562158998373" lon="9.311434421051107"><ele>537.0</ele><time>2026-04-11T07:09:47.999Z</time></trkpt><trkpt lat="40.31560179233808" lon="9.311561390053386"><ele>537.0</ele><time>2026-04-11T07:09:48.999Z</time></trkpt><trkpt lat="40.31561543999418" lon="9.311683151441803"><ele>537.0</ele><time>2026-04-11T07:09:49.999Z</time></trkpt><trkpt lat="40.31562412709725" lon="9.31179250671082"><ele>537.3333333333334</ele><time>2026-04-11T07:09:50.999Z</time></trkpt><trkpt lat="40.31563145868774" lon="9.311902380044208"><ele>537.6666666666666</ele><time>2026-04-11T07:09:51.999Z</time></trkpt><trkpt lat="40.31565171228098" lon="9.312011690447951"><ele>538.0</ele><time>2026-04-11T07:09:52.999Z</time></trkpt><trkpt lat="40.3156843438309" lon="9.312109747829021"><ele>538.3333333333333</ele><time>2026-04-11T07:09:53.999Z</time></trkpt><trkpt lat="40.31573956743019" lon="9.31221197230209"><ele>538.6666666666666</ele><time>2026-04-11T07:09:54.999Z</time></trkpt><trkpt lat="40.31580092869806" lon="9.312315631425017"><ele>539.0</ele><time>2026-04-11T07:09:55.999Z</time></trkpt><trkpt lat="40.31585866364438" lon="9.312416015149898"><ele>539.0</ele><time>2026-04-11T07:09:56.999Z</time></trkpt><trkpt lat="40.315915235763484" lon="9.31251467735867"><ele>539.0</ele><time>2026-04-11T07:09:57.999Z</time></trkpt><trkpt lat="40.31596197723329" lon="9.31260496899703"><ele>539.0</ele><time>2026-04-11T07:09:58.999Z</time></trkpt><trkpt lat="40.31600946117517" lon="9.312695385136758"><ele>539.0</ele><time>2026-04-11T07:09:59.999Z</time></trkpt><trkpt lat="40.31604155398284" lon="9.312771963013216"><ele>539.0</ele><time>2026-04-11T07:10:00.999Z</time></trkpt><trkpt lat="40.316098789136085" lon="9.312898972202257"><ele>539.0</ele><time>2026-04-11T07:10:02.999Z</time></trkpt><trkpt lat="40.31614753438133" lon="9.312993356274179"><ele>538.5</ele><time>2026-04-11T07:10:04.999Z</time></trkpt><trkpt lat="40.316225178138474" lon="9.31307517885102"><ele>538.0</ele><time>2026-04-11T07:11:23.999Z</time></trkpt><trkpt lat="40.316271713396226" lon="9.313132629519142"><ele>537.5</ele><time>2026-04-11T07:11:24.999Z</time></trkpt><trkpt lat="40.316322908874255" lon="9.313203841143478"><ele>537.0</ele><time>2026-04-11T07:11:25.999Z</time></trkpt><trkpt lat="40.3163691475721" lon="9.313274571991261"><ele>536.5</ele><time>2026-04-11T07:11:26.999Z</time></trkpt><trkpt lat="40.31641198606082" lon="9.313365758590132"><ele>536.0</ele><time>2026-04-11T07:11:27.999Z</time></trkpt><trkpt lat="40.31646216898291" lon="9.313450177067898"><ele>536.8333333333333</ele><time>2026-04-11T07:11:28.999Z</time></trkpt><trkpt lat="40.31651016663552" lon="9.313543072652026"><ele>537.6666666666666</ele><time>2026-04-11T07:11:29.999Z</time></trkpt><trkpt lat="40.31656211220511" lon="9.313622608227895"><ele>538.5</ele><time>2026-04-11T07:11:30.999Z</time></trkpt><trkpt lat="40.31661763839692" lon="9.313712846389107"><ele>539.3333333333334</ele><time>2026-04-11T07:11:31.999Z</time></trkpt><trkpt lat="40.31665909293156" lon="9.313807309280744"><ele>540.1666666666667</ele><time>2026-04-11T07:11:32.999Z</time></trkpt><trkpt lat="40.31671540523971" lon="9.313887318574361"><ele>541.0</ele><time>2026-04-11T07:11:33.999Z</time></trkpt><trkpt lat="40.31676645901739" lon="9.31398342450396"><ele>541.0</ele><time>2026-04-11T07:11:34.999Z</time></trkpt><trkpt lat="40.31681038381263" lon="9.314067616081267"><ele>541.0</ele><time>2026-04-11T07:11:35.999Z</time></trkpt><trkpt lat="40.31687106767787" lon="9.314151387893634"><ele>541.0</ele><time>2026-04-11T07:11:36.999Z</time></trkpt><trkpt lat="40.316927990418606" lon="9.31422263782047"><ele>541.0</ele><time>2026-04-11T07:11:37.999Z</time></trkpt><trkpt lat="40.31696764213164" lon="9.314296505144068"><ele>541.0</ele><time>2026-04-11T07:11:38.999Z</time></trkpt><trkpt lat="40.31701148107061" lon="9.314378956076599"><ele>541.0</ele><time>2026-04-11T07:11:39.999Z</time></trkpt><trkpt lat="40.317060295880445" lon="9.314458737187993"><ele>541.0</ele><time>2026-04-11T07:11:40.999Z</time></trkpt><trkpt lat="40.317108869905596" lon="9.31453841727183"><ele>541.0</ele><time>2026-04-11T07:11:41.999Z</time></trkpt><trkpt lat="40.3171610032604" lon="9.314625487842246"><ele>541.0</ele><time>2026-04-11T07:11:42.999Z</time></trkpt><trkpt lat="40.31720813104802" lon="9.31471371012509"><ele>541.0</ele><time>2026-04-11T07:11:43.999Z</time></trkpt><trkpt lat="40.317257040760495" lon="9.314799158836836"><ele>541.0</ele><time>2026-04-11T07:11:44.999Z</time></trkpt><trkpt lat="40.317300032382825" lon="9.314894466005118"><ele>541.0</ele><time>2026-04-11T07:11:45.999Z</time></trkpt><trkpt lat="40.317352335089595" lon="9.314981085899754"><ele>542.6666666666667</ele><time>2026-04-11T07:11:46.999Z</time></trkpt><trkpt lat="40.317407754839486" lon="9.315073095178333"><ele>544.3333333333334</ele><time>2026-04-11T07:11:47.999Z</time></trkpt><trkpt lat="40.31746653228167" lon="9.315161545440503"><ele>546.0</ele><time>2026-04-11T07:11:48.999Z</time></trkpt><trkpt lat="40.317522662197284" lon="9.315245774502674"><ele>547.6666666666666</ele><time>2026-04-11T07:11:49.999Z</time></trkpt><trkpt lat="40.31758452441373" lon="9.315333423277286"><ele>549.3333333333333</ele><time>2026-04-11T07:11:50.999Z</time></trkpt><trkpt lat="40.317650256055124" lon="9.315420795158584"><ele>551.0</ele><time>2026-04-11T07:11:51.999Z</time></trkpt><trkpt lat="40.317720460022784" lon="9.31551101835781"><ele>551.1666666666666</ele><time>2026-04-11T07:11:52.999Z</time></trkpt><trkpt lat="40.31778412030175" lon="9.315590583626138"><ele>551.3333333333333</ele><time>2026-04-11T07:11:53.999Z</time></trkpt><trkpt lat="40.31784242416313" lon="9.315643465455398"><ele>551.5</ele><time>2026-04-11T07:11:54.999Z</time></trkpt><trkpt lat="40.31788532442536" lon="9.315706181419218"><ele>551.6666666666666</ele><time>2026-04-11T07:11:55.999Z</time></trkpt><trkpt lat="40.31796186477742" lon="9.315811338399952"><ele>551.8333333333334</ele><time>2026-04-11T07:11:57.999Z</time></trkpt><trkpt lat="40.31803278828499" lon="9.315882549651958"><ele>552.0</ele><time>2026-04-11T07:11:59.999Z</time></trkpt><trkpt lat="40.31812210793039" lon="9.315996798184448"><ele>552.0</ele><time>2026-04-11T07:12:02.999Z</time></trkpt><trkpt lat="40.3181814506732" lon="9.31606781093232"><ele>552.0</ele><time>2026-04-11T07:12:03.999Z</time></trkpt><trkpt lat="40.318248757317164" lon="9.316148353717393"><ele>552.0</ele><time>2026-04-11T07:12:04.999Z</time></trkpt><trkpt lat="40.31833830916619" lon="9.316253040929496"><ele>552.0</ele><time>2026-04-11T07:12:05.999Z</time></trkpt><trkpt lat="40.31841941706343" lon="9.316347927489058"><ele>552.0</ele><time>2026-04-11T07:12:06.999Z</time></trkpt><trkpt lat="40.3185147714094" lon="9.316458663897377"><ele>551.4</ele><time>2026-04-11T07:12:07.999Z</time></trkpt><trkpt lat="40.318605756761436" lon="9.316562755306013"><ele>550.8000000000001</ele><time>2026-04-11T07:12:08.999Z</time></trkpt><trkpt lat="40.318695693661496" lon="9.316645742853588"><ele>550.2</ele><time>2026-04-11T07:12:09.999Z</time></trkpt><trkpt lat="40.31877175899009" lon="9.31673844148808"><ele>549.6</ele><time>2026-04-11T07:12:10.999Z</time></trkpt><trkpt lat="40.318850534231906" lon="9.316827170823474"><ele>549.0</ele><time>2026-04-11T07:12:11.999Z</time></trkpt><trkpt lat="40.318928725582815" lon="9.31691606691399"><ele>549.0</ele><time>2026-04-11T07:12:12.999Z</time></trkpt><trkpt lat="40.318982471003835" lon="9.317011960656586"><ele>549.0</ele><time>2026-04-11T07:12:13.999Z</time></trkpt><trkpt lat="40.31900324445397" lon="9.317144376750198"><ele>549.0</ele><time>2026-04-11T07:12:14.999Z</time></trkpt><trkpt lat="40.31898311271872" lon="9.317285050879375"><ele>549.0</ele><time>2026-04-11T07:12:15.999Z</time></trkpt><trkpt lat="40.318943945955155" lon="9.317423746038576"><ele>549.0</ele><time>2026-04-11T07:12:16.999Z</time></trkpt><trkpt lat="40.31890261356904" lon="9.317562268732726"><ele>546.8333333333334</ele><time>2026-04-11T07:12:17.999Z</time></trkpt><trkpt lat="40.31885337139196" lon="9.317694014880072"><ele>544.6666666666666</ele><time>2026-04-11T07:12:19Z</time></trkpt><trkpt lat="40.31880841726052" lon="9.3178079119553"><ele>542.5</ele><time>2026-04-11T07:12:20Z</time></trkpt><trkpt lat="40.31876581595324" lon="9.317902428250829"><ele>540.3333333333333</ele><time>2026-04-11T07:12:21Z</time></trkpt><trkpt lat="40.318714203336604" lon="9.317957480477892"><ele>538.1666666666666</ele><time>2026-04-11T07:12:22Z</time></trkpt><trkpt lat="40.31864174192944" lon="9.317983867282893"><ele>536.0</ele><time>2026-04-11T07:12:23Z</time></trkpt><trkpt lat="40.31857931350281" lon="9.318023732377329"><ele>536.0</ele><time>2026-04-11T07:12:24Z</time></trkpt><trkpt lat="40.31855982957428" lon="9.318183530333913"><ele>536.0</ele><time>2026-04-11T07:12:26Z</time></trkpt><trkpt lat="40.31862562719444" lon="9.318246948880072"><ele>536.0</ele><time>2026-04-11T07:12:27Z</time></trkpt><trkpt lat="40.31867213469003" lon="9.318412758416635"><ele>536.0</ele><time>2026-04-11T07:12:29Z</time></trkpt><trkpt lat="40.318680513059306" lon="9.318514455181948"><ele>536.0</ele><time>2026-04-11T07:12:30Z</time></trkpt><trkpt lat="40.318674566273145" lon="9.318618015978657"><ele>536.0</ele><time>2026-04-11T07:12:31Z</time></trkpt><trkpt lat="40.31865451859245" lon="9.318727160820881"><ele>536.0</ele><time>2026-04-11T07:12:32Z</time></trkpt><trkpt lat="40.318651932055744" lon="9.318857303884956"><ele>536.0</ele><time>2026-04-11T07:12:33Z</time></trkpt><trkpt lat="40.31862836546127" lon="9.318969123627808"><ele>536.0</ele><time>2026-04-11T07:12:34Z</time></trkpt><trkpt lat="40.31860289557099" lon="9.319084120803979"><ele>536.0</ele><time>2026-04-11T07:12:35Z</time></trkpt><trkpt lat="40.31855460143153" lon="9.319170684272155"><ele>536.0</ele><time>2026-04-11T07:12:36Z</time></trkpt><trkpt lat="40.31846953498209" lon="9.319199974634765"><ele>537.0</ele><time>2026-04-11T07:12:37Z</time></trkpt><trkpt lat="40.31835725466571" lon="9.319197087318159"><ele>538.0</ele><time>2026-04-11T07:12:38Z</time></trkpt><trkpt lat="40.31826158299273" lon="9.319205496171561"><ele>539.0</ele><time>2026-04-11T07:12:39Z</time></trkpt><trkpt lat="40.31816149221899" lon="9.319235234871751"><ele>540.0</ele><time>2026-04-11T07:12:40Z</time></trkpt><trkpt lat="40.318065266034566" lon="9.319251254000488"><ele>541.0</ele><time>2026-04-11T07:12:41Z</time></trkpt><trkpt lat="40.317971107249875" lon="9.31927006703642"><ele>541.2</ele><time>2026-04-11T07:12:42Z</time></trkpt><trkpt lat="40.31788247506467" lon="9.319278474944904"><ele>541.4000000000001</ele><time>2026-04-11T07:12:43Z</time></trkpt><trkpt lat="40.31779381354105" lon="9.319256181662276"><ele>541.6</ele><time>2026-04-11T07:12:44Z</time></trkpt><trkpt lat="40.31770599566969" lon="9.319223138201588"><ele>541.8000000000001</ele><time>2026-04-11T07:12:45Z</time></trkpt><trkpt lat="40.317618723929876" lon="9.319193753570321"><ele>542.0</ele><time>2026-04-11T07:12:46Z</time></trkpt><trkpt lat="40.3175309250369" lon="9.319172423666075"><ele>542.0</ele><time>2026-04-11T07:12:47Z</time></trkpt><trkpt lat="40.317443368814146" lon="9.319179403512678"><ele>542.0</ele><time>2026-04-11T07:12:48Z</time></trkpt><trkpt lat="40.31736030005175" lon="9.319214940543002"><ele>542.0</ele><time>2026-04-11T07:12:49Z</time></trkpt><trkpt lat="40.31731130246654" lon="9.31933999305034"><ele>542.0</ele><time>2026-04-11T07:12:50Z</time></trkpt><trkpt lat="40.317276231297434" lon="9.319440390252021"><ele>542.0</ele><time>2026-04-11T07:12:51Z</time></trkpt><trkpt lat="40.317231619118495" lon="9.319523742329002"><ele>542.0</ele><time>2026-04-11T07:12:52Z</time></trkpt><trkpt lat="40.3171792802573" lon="9.319601965171037"><ele>542.4</ele><time>2026-04-11T07:12:53Z</time></trkpt><trkpt lat="40.31713843440936" lon="9.319664791247298"><ele>542.8000000000001</ele><time>2026-04-11T07:12:54Z</time></trkpt><trkpt lat="40.317154634543996" lon="9.319751506600268"><ele>543.2</ele><time>2026-04-11T07:13:07Z</time></trkpt><trkpt lat="40.317098944888194" lon="9.31985112190312"><ele>543.6</ele><time>2026-04-11T07:13:09Z</time></trkpt><trkpt lat="40.31724070826733" lon="9.319945918665763"><ele>544.0</ele><time>2026-04-11T07:13:10Z</time></trkpt><trkpt lat="40.31731394056017" lon="9.320019722091304"><ele>544.0</ele><time>2026-04-11T07:13:11Z</time></trkpt><trkpt lat="40.31739775216556" lon="9.320073202053312"><ele>544.0</ele><time>2026-04-11T07:13:12Z</time></trkpt><trkpt lat="40.317491233222235" lon="9.3201398685963"><ele>544.0</ele><time>2026-04-11T07:13:13Z</time></trkpt><trkpt lat="40.31758703419671" lon="9.320208536624447"><ele>544.0</ele><time>2026-04-11T07:13:14Z</time></trkpt><trkpt lat="40.31768688378567" lon="9.320282292439561"><ele>544.0</ele><time>2026-04-11T07:13:15Z</time></trkpt><trkpt lat="40.31778837404019" lon="9.32035728229432"><ele>544.0</ele><time>2026-04-11T07:13:16Z</time></trkpt><trkpt lat="40.31789080872965" lon="9.32043700056633"><ele>544.0</ele><time>2026-04-11T07:13:17Z</time></trkpt><trkpt lat="40.31801142038195" lon="9.32052158445641"><ele>544.0</ele><time>2026-04-11T07:13:18Z</time></trkpt><trkpt lat="40.31812842145054" lon="9.320602209845813"><ele>544.0</ele><time>2026-04-11T07:13:19Z</time></trkpt><trkpt lat="40.3182435145197" lon="9.32068836931011"><ele>544.0</ele><time>2026-04-11T07:13:20Z</time></trkpt><trkpt lat="40.31835258840396" lon="9.320774510154443"><ele>544.0</ele><time>2026-04-11T07:13:21Z</time></trkpt><trkpt lat="40.31846256160454" lon="9.320856688280557"><ele>544.0</ele><time>2026-04-11T07:13:22Z</time></trkpt><trkpt lat="40.31856457923286" lon="9.320939897247309"><ele>544.0</ele><time>2026-04-11T07:13:23Z</time></trkpt><trkpt lat="40.31867152300409" lon="9.321013668359045"><ele>544.0</ele><time>2026-04-11T07:13:24Z</time></trkpt><trkpt lat="40.318774873947746" lon="9.321090987358671"><ele>544.0</ele><time>2026-04-11T07:13:25Z</time></trkpt><trkpt lat="40.318874038475215" lon="9.321165302594522"><ele>544.0</ele><time>2026-04-11T07:13:26Z</time></trkpt><trkpt lat="40.3189775226739" lon="9.321235092444256"><ele>544.0</ele><time>2026-04-11T07:13:27Z</time></trkpt><trkpt lat="40.31907845657457" lon="9.321307875582063"><ele>544.0</ele><time>2026-04-11T07:13:27.999Z</time></trkpt><trkpt lat="40.31916445289847" lon="9.321370337467197"><ele>544.0</ele><time>2026-04-11T07:13:28.999Z</time></trkpt><trkpt lat="40.31923097421683" lon="9.321419666672076"><ele>544.0</ele><time>2026-04-11T07:13:29.999Z</time></trkpt><trkpt lat="40.319289529146694" lon="9.321463155337518"><ele>544.0</ele><time>2026-04-11T07:13:30.999Z</time></trkpt><trkpt lat="40.31936767774796" lon="9.321519683852243"><ele>544.0</ele><time>2026-04-11T07:13:32.999Z</time></trkpt><trkpt lat="40.319424524333336" lon="9.32156278770207"><ele>544.0</ele><time>2026-04-11T07:13:35.999Z</time></trkpt><trkpt lat="40.31949128591854" lon="9.32160917414263"><ele>544.0</ele><time>2026-04-11T07:13:37.999Z</time></trkpt><trkpt lat="40.31956076095041" lon="9.321657696034016"><ele>544.0</ele><time>2026-04-11T07:13:39.999Z</time></trkpt><trkpt lat="40.31961099895984" lon="9.321746531828916"><ele>544.0</ele><time>2026-04-11T07:13:41.999Z</time></trkpt><trkpt lat="40.31960835950814" lon="9.321831047033248"><ele>544.0</ele><time>2026-04-11T07:13:42.999Z</time></trkpt><trkpt lat="40.31958914112698" lon="9.321973324192344"><ele>544.0</ele><time>2026-04-11T07:13:44.999Z</time></trkpt><trkpt lat="40.3195828470519" lon="9.322098671065874"><ele>544.0</ele><time>2026-04-11T07:13:46.999Z</time></trkpt><trkpt lat="40.31958087030653" lon="9.322236953011078"><ele>543.9999999999999</ele><time>2026-04-11T07:13:48.999Z</time></trkpt><trkpt lat="40.319580707209006" lon="9.32232277477116"><ele>544.0</ele><time>2026-04-11T07:13:49.999Z</time></trkpt><trkpt lat="40.31957577860382" lon="9.322406573016863"><ele>544.0</ele><time>2026-04-11T07:13:50.999Z</time></trkpt><trkpt lat="40.31958171627441" lon="9.322508232268513"><ele>544.0</ele><time>2026-04-11T07:13:51.999Z</time></trkpt><trkpt lat="40.31957701436861" lon="9.32259978727721"><ele>544.0</ele><time>2026-04-11T07:13:52.999Z</time></trkpt><trkpt lat="40.31956134539229" lon="9.322696533669449"><ele>543.9999999999999</ele><time>2026-04-11T07:13:53.999Z</time></trkpt><trkpt lat="40.319547448154616" lon="9.322797406457218"><ele>544.0</ele><time>2026-04-11T07:13:54.999Z</time></trkpt><trkpt lat="40.31953322488849" lon="9.32290303170202"><ele>544.0</ele><time>2026-04-11T07:13:55.999Z</time></trkpt><trkpt lat="40.31951704577757" lon="9.322990573865843"><ele>544.0</ele><time>2026-04-11T07:13:56.999Z</time></trkpt><trkpt lat="40.31950546556352" lon="9.323084316578546"><ele>544.0</ele><time>2026-04-11T07:13:57.999Z</time></trkpt><trkpt lat="40.31949558678447" lon="9.323176234929877"><ele>544.0</ele><time>2026-04-11T07:13:58.999Z</time></trkpt><trkpt lat="40.31946381942048" lon="9.323311175577468"><ele>544.0</ele><time>2026-04-11T07:14:00.999Z</time></trkpt><trkpt lat="40.319462655909376" lon="9.32339815558366"><ele>544.0</ele><time>2026-04-11T07:14:01.999Z</time></trkpt><trkpt lat="40.31942906195472" lon="9.323528780626797"><ele>543.6</ele><time>2026-04-11T07:14:03.999Z</time></trkpt><trkpt lat="40.31941242046033" lon="9.323623383913642"><ele>543.2</ele><time>2026-04-11T07:14:05.999Z</time></trkpt><trkpt lat="40.3195495648637" lon="9.323685318420802"><ele>542.8000000000001</ele><time>2026-04-11T07:14:07.999Z</time></trkpt><trkpt lat="40.31965601752016" lon="9.323699437435566"><ele>542.4</ele><time>2026-04-11T07:14:09.999Z</time></trkpt><trkpt lat="40.31976885779837" lon="9.323705054976019"><ele>542.0</ele><time>2026-04-11T07:14:11.999Z</time></trkpt><trkpt lat="40.31983269545246" lon="9.323700105823354"><ele>542.0</ele><time>2026-04-11T07:14:12.999Z</time></trkpt><trkpt lat="40.31989780366783" lon="9.323704778560687"><ele>542.0</ele><time>2026-04-11T07:14:13.999Z</time></trkpt><trkpt lat="40.32001518172794" lon="9.323719091195109"><ele>542.0</ele><time>2026-04-11T07:14:15.999Z</time></trkpt><trkpt lat="40.32007624910784" lon="9.323836701151492"><ele>542.0</ele><time>2026-04-11T07:14:17.999Z</time></trkpt><trkpt lat="40.32008989185953" lon="9.323919717682623"><ele>542.0</ele><time>2026-04-11T07:14:18.999Z</time></trkpt><trkpt lat="40.32010081747668" lon="9.324015666740792"><ele>542.0</ele><time>2026-04-11T07:14:19.999Z</time></trkpt><trkpt lat="40.32011479766909" lon="9.324109773529633"><ele>541.5</ele><time>2026-04-11T07:14:20.999Z</time></trkpt><trkpt lat="40.32012431006514" lon="9.32420707588621"><ele>541.0</ele><time>2026-04-11T07:14:21.999Z</time></trkpt><trkpt lat="40.32013191780704" lon="9.324299850320772"><ele>540.5</ele><time>2026-04-11T07:14:22.999Z</time></trkpt><trkpt lat="40.320138839299126" lon="9.324394256551617"><ele>540.0</ele><time>2026-04-11T07:14:23.999Z</time></trkpt><trkpt lat="40.32014393715611" lon="9.324502353461197"><ele>539.5</ele><time>2026-04-11T07:14:25Z</time></trkpt><trkpt lat="40.32015929969124" lon="9.324611879851682"><ele>539.0</ele><time>2026-04-11T07:14:26Z</time></trkpt><trkpt lat="40.32017316693718" lon="9.324718929427378"><ele>538.6666666666666</ele><time>2026-04-11T07:14:27Z</time></trkpt><trkpt lat="40.32018204265549" lon="9.324834022306206"><ele>538.3333333333333</ele><time>2026-04-11T07:14:28Z</time></trkpt><trkpt lat="40.320181881345654" lon="9.324939722594788"><ele>538.0</ele><time>2026-04-11T07:14:29Z</time></trkpt><trkpt lat="40.32018687260091" lon="9.32504952619221"><ele>537.6666666666666</ele><time>2026-04-11T07:14:30Z</time></trkpt><trkpt lat="40.32020781732887" lon="9.325155234390696"><ele>537.3333333333334</ele><time>2026-04-11T07:14:31Z</time></trkpt><trkpt lat="40.32022803669265" lon="9.325262513515659"><ele>537.0</ele><time>2026-04-11T07:14:32Z</time></trkpt><trkpt lat="40.32023708053574" lon="9.32536838664735"><ele>537.0</ele><time>2026-04-11T07:14:33Z</time></trkpt><trkpt lat="40.32024174869626" lon="9.325455300926176"><ele>537.0</ele><time>2026-04-11T07:14:34Z</time></trkpt><trkpt lat="40.32025565773019" lon="9.325652673936236"><ele>537.0</ele><time>2026-04-11T07:14:36Z</time></trkpt><trkpt lat="40.32026648093413" lon="9.325765379199336"><ele>537.0</ele><time>2026-04-11T07:14:37Z</time></trkpt><trkpt lat="40.32027037869142" lon="9.325869479294205"><ele>537.0</ele><time>2026-04-11T07:14:38Z</time></trkpt><trkpt lat="40.32026864405886" lon="9.325958173419693"><ele>536.6</ele><time>2026-04-11T07:14:39Z</time></trkpt><trkpt lat="40.32025148061044" lon="9.326138992700386"><ele>536.2</ele><time>2026-04-11T07:14:41Z</time></trkpt><trkpt lat="40.32024971660022" lon="9.326232932870722"><ele>535.8</ele><time>2026-04-11T07:14:42Z</time></trkpt><trkpt lat="40.3202544189335" lon="9.326373913555338"><ele>535.4</ele><time>2026-04-11T07:14:44Z</time></trkpt><trkpt lat="40.320270275122176" lon="9.326509058778514"><ele>535.0</ele><time>2026-04-11T07:15:06Z</time></trkpt><trkpt lat="40.32026320562064" lon="9.32665194234727"><ele>535.0</ele><time>2026-04-11T07:15:08Z</time></trkpt><trkpt lat="40.32025819710298" lon="9.326738903565724"><ele>535.0</ele><time>2026-04-11T07:15:09Z</time></trkpt><trkpt lat="40.320252683756664" lon="9.32683972455045"><ele>535.0</ele><time>2026-04-11T07:15:10Z</time></trkpt><trkpt lat="40.320243612071465" lon="9.327024768422422"><ele>535.0</ele><time>2026-04-11T07:15:12Z</time></trkpt><trkpt lat="40.320236941805845" lon="9.327163339440455"><ele>535.0</ele><time>2026-04-11T07:15:13Z</time></trkpt><trkpt lat="40.320244540084744" lon="9.327293351865853"><ele>534.4</ele><time>2026-04-11T07:15:14Z</time></trkpt><trkpt lat="40.32022889384544" lon="9.327424732656802"><ele>533.8</ele><time>2026-04-11T07:15:15Z</time></trkpt><trkpt lat="40.32023147156019" lon="9.327555034243616"><ele>533.2</ele><time>2026-04-11T07:15:16Z</time></trkpt><trkpt lat="40.32021984848114" lon="9.327673125912115"><ele>532.6</ele><time>2026-04-11T07:15:17Z</time></trkpt><trkpt lat="40.3201978915331" lon="9.327801452897571"><ele>532.0</ele><time>2026-04-11T07:15:18Z</time></trkpt><trkpt lat="40.32018188789027" lon="9.327927463878568"><ele>532.0</ele><time>2026-04-11T07:15:19Z</time></trkpt><trkpt lat="40.320171628304536" lon="9.328053304567545"><ele>532.0</ele><time>2026-04-11T07:15:20Z</time></trkpt><trkpt lat="40.32017408603199" lon="9.328170201358239"><ele>532.0</ele><time>2026-04-11T07:15:21Z</time></trkpt><trkpt lat="40.32019224735687" lon="9.328277392327196"><ele>532.0</ele><time>2026-04-11T07:15:22Z</time></trkpt><trkpt lat="40.32021256772195" lon="9.328396675998208"><ele>532.0</ele><time>2026-04-11T07:15:23Z</time></trkpt><trkpt lat="40.32026062148417" lon="9.328539304701408"><ele>531.3333333333334</ele><time>2026-04-11T07:15:24Z</time></trkpt><trkpt lat="40.32030049882395" lon="9.328648411586286"><ele>530.6666666666667</ele><time>2026-04-11T07:15:25Z</time></trkpt><trkpt lat="40.32033327907412" lon="9.328733769942845"><ele>530.0</ele><time>2026-04-11T07:15:26Z</time></trkpt><trkpt lat="40.32038177831747" lon="9.328827515077908"><ele>529.3333333333334</ele><time>2026-04-11T07:15:27Z</time></trkpt><trkpt lat="40.32044063542762" lon="9.328917394753743"><ele>528.6666666666666</ele><time>2026-04-11T07:15:28Z</time></trkpt><trkpt lat="40.320495587806896" lon="9.329017013527091"><ele>528.0</ele><time>2026-04-11T07:15:29Z</time></trkpt><trkpt lat="40.32054676183502" lon="9.329119933324465"><ele>529.1999999999999</ele><time>2026-04-11T07:15:30Z</time></trkpt><trkpt lat="40.320607062004434" lon="9.329220886006649"><ele>530.4</ele><time>2026-04-11T07:15:31Z</time></trkpt><trkpt lat="40.320659564903636" lon="9.329317294651476"><ele>531.5999999999999</ele><time>2026-04-11T07:15:32Z</time></trkpt><trkpt lat="40.32072286962277" lon="9.329416063198202"><ele>532.8</ele><time>2026-04-11T07:15:33Z</time></trkpt><trkpt lat="40.320769516047456" lon="9.329523011384259"><ele>534.0</ele><time>2026-04-11T07:15:34Z</time></trkpt><trkpt lat="40.32081658690353" lon="9.329617728802104"><ele>534.0</ele><time>2026-04-11T07:15:35Z</time></trkpt><trkpt lat="40.320860851110886" lon="9.329686435630375"><ele>534.0</ele><time>2026-04-11T07:15:36Z</time></trkpt><trkpt lat="40.32088827881254" lon="9.329768813427957"><ele>534.0</ele><time>2026-04-11T07:15:37Z</time></trkpt><trkpt lat="40.32092377310207" lon="9.329917483538399"><ele>534.0</ele><time>2026-04-11T07:15:39Z</time></trkpt><trkpt lat="40.32095944705342" lon="9.330056905091512"><ele>534.0</ele><time>2026-04-11T07:15:41Z</time></trkpt><trkpt lat="40.320993045456014" lon="9.330174091074122"><ele>532.2</ele><time>2026-04-11T07:15:43Z</time></trkpt><trkpt lat="40.321011603804166" lon="9.33030273649854"><ele>530.4</ele><time>2026-04-11T07:15:44.999Z</time></trkpt><trkpt lat="40.32098287308012" lon="9.330422270701831"><ele>528.6</ele><time>2026-04-11T07:15:46.999Z</time></trkpt><trkpt lat="40.32092212762118" lon="9.330462677447821"><ele>526.8</ele><time>2026-04-11T07:15:47.999Z</time></trkpt><trkpt lat="40.320818482284" lon="9.330513077748046"><ele>525.0</ele><time>2026-04-11T07:15:49.999Z</time></trkpt><trkpt lat="40.320694902655184" lon="9.330568720494195"><ele>525.0</ele><time>2026-04-11T07:15:51.999Z</time></trkpt><trkpt lat="40.32062348400363" lon="9.330608893627533"><ele>525.0</ele><time>2026-04-11T07:15:52.999Z</time></trkpt><trkpt lat="40.32055364719502" lon="9.330641818469024"><ele>525.0</ele><time>2026-04-11T07:15:53.999Z</time></trkpt><trkpt lat="40.320478758754724" lon="9.330676730310056"><ele>525.0</ele><time>2026-04-11T07:15:54.999Z</time></trkpt><trkpt lat="40.32040467002949" lon="9.330715102313349"><ele>525.0</ele><time>2026-04-11T07:15:55.999Z</time></trkpt><trkpt lat="40.320314702136535" lon="9.33074993246908"><ele>525.0</ele><time>2026-04-11T07:15:56.999Z</time></trkpt><trkpt lat="40.3202416249483" lon="9.330789541319428"><ele>523.5</ele><time>2026-04-11T07:15:57.999Z</time></trkpt><trkpt lat="40.32017140268258" lon="9.330824139552472"><ele>522.0</ele><time>2026-04-11T07:15:58.999Z</time></trkpt><trkpt lat="40.320097534494195" lon="9.330862214147038"><ele>520.5</ele><time>2026-04-11T07:15:59.999Z</time></trkpt><trkpt lat="40.32002936776185" lon="9.330901560036178"><ele>519.0</ele><time>2026-04-11T07:16:00.999Z</time></trkpt><trkpt lat="40.31996343002975" lon="9.330938476311893"><ele>517.5</ele><time>2026-04-11T07:16:01.999Z</time></trkpt><trkpt lat="40.31986137098108" lon="9.331043070393138"><ele>516.0</ele><time>2026-04-11T07:16:03.999Z</time></trkpt><trkpt lat="40.31980931425647" lon="9.331092897604849"><ele>516.0</ele><time>2026-04-11T07:16:04.999Z</time></trkpt><trkpt lat="40.319747113355795" lon="9.331163656458711"><ele>516.0</ele><time>2026-04-11T07:16:05.999Z</time></trkpt><trkpt lat="40.31968986144757" lon="9.331231333590464"><ele>516.0</ele><time>2026-04-11T07:16:06.999Z</time></trkpt><trkpt lat="40.31964457925776" lon="9.331324984565882"><ele>516.0</ele><time>2026-04-11T07:16:07.999Z</time></trkpt><trkpt lat="40.31959326235076" lon="9.331423325993882"><ele>516.0</ele><time>2026-04-11T07:16:08.999Z</time></trkpt><trkpt lat="40.31955432531844" lon="9.33152876838574"><ele>516.0</ele><time>2026-04-11T07:16:09.999Z</time></trkpt><trkpt lat="40.31952238638044" lon="9.331631486562921"><ele>516.2</ele><time>2026-04-11T07:16:10.999Z</time></trkpt><trkpt lat="40.319489317247736" lon="9.331747708335516"><ele>516.4000000000001</ele><time>2026-04-11T07:16:11.999Z</time></trkpt><trkpt lat="40.31946642766178" lon="9.3318725366655"><ele>516.6</ele><time>2026-04-11T07:16:12.999Z</time></trkpt><trkpt lat="40.31943904145182" lon="9.331988869755467"><ele>516.8000000000001</ele><time>2026-04-11T07:16:13.999Z</time></trkpt><trkpt lat="40.319408296728724" lon="9.332102646578367"><ele>517.0</ele><time>2026-04-11T07:16:14.999Z</time></trkpt><trkpt lat="40.31938107665754" lon="9.332211780210336"><ele>517.3333333333334</ele><time>2026-04-11T07:16:15.999Z</time></trkpt><trkpt lat="40.31935071965794" lon="9.332314743526132"><ele>517.6666666666667</ele><time>2026-04-11T07:16:16.999Z</time></trkpt><trkpt lat="40.31932213503843" lon="9.3324170986135"><ele>518.0</ele><time>2026-04-11T07:16:17.999Z</time></trkpt><trkpt lat="40.319296246466635" lon="9.332515589737847"><ele>518.3333333333334</ele><time>2026-04-11T07:16:18.999Z</time></trkpt><trkpt lat="40.31926671795542" lon="9.332617829675133"><ele>518.6666666666666</ele><time>2026-04-11T07:16:19.999Z</time></trkpt><trkpt lat="40.3192389422656" lon="9.33271845249654"><ele>519.0</ele><time>2026-04-11T07:16:20.999Z</time></trkpt><trkpt lat="40.319211827370964" lon="9.332833219720742"><ele>519.0</ele><time>2026-04-11T07:16:21.999Z</time></trkpt><trkpt lat="40.319182121326726" lon="9.332953185105698"><ele>519.0</ele><time>2026-04-11T07:16:22.999Z</time></trkpt><trkpt lat="40.319151519100025" lon="9.333072733195797"><ele>519.0</ele><time>2026-04-11T07:16:23.999Z</time></trkpt><trkpt lat="40.3191190365971" lon="9.333186148670753"><ele>519.0</ele><time>2026-04-11T07:16:24.999Z</time></trkpt><trkpt lat="40.319089479875" lon="9.333291629630077"><ele>519.0</ele><time>2026-04-11T07:16:25.999Z</time></trkpt><trkpt lat="40.319064002510345" lon="9.333386660226777"><ele>519.0</ele><time>2026-04-11T07:16:26.999Z</time></trkpt><trkpt lat="40.31902289202184" lon="9.333540039724651"><ele>519.8</ele><time>2026-04-11T07:16:28.999Z</time></trkpt><trkpt lat="40.31899168496657" lon="9.333672477284805"><ele>520.5999999999999</ele><time>2026-04-11T07:16:31Z</time></trkpt><trkpt lat="40.31896714383944" lon="9.333757870751498"><ele>521.4</ele><time>2026-04-11T07:16:33Z</time></trkpt><trkpt lat="40.31907141481112" lon="9.333841617561607"><ele>522.1999999999999</ele><time>2026-04-11T07:16:34Z</time></trkpt><trkpt lat="40.31915967790939" lon="9.333879382777882"><ele>523.0</ele><time>2026-04-11T07:16:35Z</time></trkpt><trkpt lat="40.31926721554252" lon="9.333891958629085"><ele>524.75</ele><time>2026-04-11T07:16:36Z</time></trkpt><trkpt lat="40.319378863952856" lon="9.333950606952516"><ele>526.5</ele><time>2026-04-11T07:16:37Z</time></trkpt><trkpt lat="40.319494183099124" lon="9.334018700641842"><ele>528.25</ele><time>2026-04-11T07:16:38Z</time></trkpt><trkpt lat="40.31960394065909" lon="9.334070800967766"><ele>530.0</ele><time>2026-04-11T07:16:39Z</time></trkpt><trkpt lat="40.319709919563905" lon="9.334126114770475"><ele>529.8</ele><time>2026-04-11T07:16:40Z</time></trkpt><trkpt lat="40.31979538676375" lon="9.334192316556992"><ele>529.6</ele><time>2026-04-11T07:16:41Z</time></trkpt><trkpt lat="40.319864299571584" lon="9.334244023397638"><ele>529.4</ele><time>2026-04-11T07:16:42Z</time></trkpt><trkpt lat="40.3199839972499" lon="9.334315544686858"><ele>529.2</ele><time>2026-04-11T07:16:44Z</time></trkpt><trkpt lat="40.32005647122355" lon="9.334358211744217"><ele>529.0</ele><time>2026-04-11T07:16:46Z</time></trkpt><trkpt lat="40.32014816967677" lon="9.33441227941926"><ele>529.0</ele><time>2026-04-11T07:16:48Z</time></trkpt><trkpt lat="40.32025033922995" lon="9.334466869202645"><ele>529.0</ele><time>2026-04-11T07:16:49Z</time></trkpt><trkpt lat="40.320347306899365" lon="9.334531773903034"><ele>529.0</ele><time>2026-04-11T07:16:50Z</time></trkpt><trkpt lat="40.3204317459187" lon="9.334566092001676"><ele>529.0</ele><time>2026-04-11T07:16:51Z</time></trkpt><trkpt lat="40.32050751309938" lon="9.33461561011929"><ele>529.0</ele><time>2026-04-11T07:16:52Z</time></trkpt><trkpt lat="40.32057718480913" lon="9.334660598292967"><ele>529.5</ele><time>2026-04-11T07:16:53Z</time></trkpt><trkpt lat="40.320642764811964" lon="9.334709136189058"><ele>530.0</ele><time>2026-04-11T07:16:54Z</time></trkpt><trkpt lat="40.320708401173384" lon="9.334754296536024"><ele>530.5</ele><time>2026-04-11T07:16:55Z</time></trkpt><trkpt lat="40.320769447360846" lon="9.334798017813899"><ele>531.0</ele><time>2026-04-11T07:16:56Z</time></trkpt><trkpt lat="40.320830057506065" lon="9.334837684420334"><ele>531.5</ele><time>2026-04-11T07:16:57Z</time></trkpt><trkpt lat="40.32088896179981" lon="9.334868609947002"><ele>532.0</ele><time>2026-04-11T07:16:58Z</time></trkpt><trkpt lat="40.320999771322256" lon="9.334940005417819"><ele>532.5</ele><time>2026-04-11T07:17:00Z</time></trkpt><trkpt lat="40.32109073216729" lon="9.335012121515867"><ele>533.0</ele><time>2026-04-11T07:17:02Z</time></trkpt><trkpt lat="40.321188430443286" lon="9.33505211018594"><ele>533.5</ele><time>2026-04-11T07:17:04Z</time></trkpt><trkpt lat="40.32118696669735" lon="9.335238302176716"><ele>534.0</ele><time>2026-04-11T07:17:06Z</time></trkpt><trkpt lat="40.321168985999996" lon="9.335382989541566"><ele>534.0</ele><time>2026-04-11T07:17:08Z</time></trkpt><trkpt lat="40.32116022209047" lon="9.33547521195913"><ele>534.0</ele><time>2026-04-11T07:17:09Z</time></trkpt><trkpt lat="40.32116164675529" lon="9.335654507772023"><ele>534.0</ele><time>2026-04-11T07:17:11Z</time></trkpt><trkpt lat="40.321149089310666" lon="9.335748152946946"><ele>534.0</ele><time>2026-04-11T07:17:12Z</time></trkpt><trkpt lat="40.3211373550666" lon="9.335835113405334"><ele>534.0</ele><time>2026-04-11T07:17:13Z</time></trkpt><trkpt lat="40.32104565968812" lon="9.335890840456102"><ele>534.0</ele><time>2026-04-11T07:17:14Z</time></trkpt><trkpt lat="40.321023962100945" lon="9.335984363434502"><ele>535.8</ele><time>2026-04-11T07:17:15Z</time></trkpt><trkpt lat="40.32100060253073" lon="9.336117467959314"><ele>537.5999999999999</ele><time>2026-04-11T07:17:17Z</time></trkpt><trkpt lat="40.32099830492215" lon="9.336256430083921"><ele>539.4</ele><time>2026-04-11T07:17:19Z</time></trkpt><trkpt lat="40.32108449072539" lon="9.336328212690974"><ele>541.1999999999999</ele><time>2026-04-11T07:17:21Z</time></trkpt><trkpt lat="40.3211930543769" lon="9.336330197822548"><ele>543.0</ele><time>2026-04-11T07:17:23Z</time></trkpt><trkpt lat="40.32127623039742" lon="9.336341186425862"><ele>543.0</ele><time>2026-04-11T07:17:25Z</time></trkpt><trkpt lat="40.3213555616557" lon="9.336335544135201"><ele>543.0</ele><time>2026-04-11T07:17:27Z</time></trkpt><trkpt lat="40.321433948219294" lon="9.33634036911678"><ele>543.0</ele><time>2026-04-11T07:17:29Z</time></trkpt><trkpt lat="40.3215290311755" lon="9.336339046229327"><ele>543.0</ele><time>2026-04-11T07:17:31Z</time></trkpt><trkpt lat="40.32162963045388" lon="9.336339021398832"><ele>543.0</ele><time>2026-04-11T07:17:33Z</time></trkpt><trkpt lat="40.32172736880283" lon="9.33630587276581"><ele>543.6666666666666</ele><time>2026-04-11T07:17:35Z</time></trkpt><trkpt lat="40.32182425208511" lon="9.336295152838597"><ele>544.3333333333334</ele><time>2026-04-11T07:17:37Z</time></trkpt><trkpt lat="40.321913824438205" lon="9.336303111163021"><ele>545.0</ele><time>2026-04-11T07:17:40Z</time></trkpt><trkpt lat="40.321936258674306" lon="9.336401180124227"><ele>545.6666666666667</ele><time>2026-04-11T07:17:43Z</time></trkpt><trkpt lat="40.32193723788561" lon="9.336494777490522"><ele>546.3333333333334</ele><time>2026-04-11T07:17:44Z</time></trkpt><trkpt lat="40.32191163274545" lon="9.33661617204138"><ele>547.0</ele><time>2026-04-11T07:17:46Z</time></trkpt><trkpt lat="40.32193125891483" lon="9.336750050520145"><ele>547.0</ele><time>2026-04-11T07:17:48Z</time></trkpt><trkpt lat="40.321963282233284" lon="9.336879086113624"><ele>547.0</ele><time>2026-04-11T07:17:49.999Z</time></trkpt><trkpt lat="40.3220009110183" lon="9.33698006662422"><ele>547.0</ele><time>2026-04-11T07:17:51.999Z</time></trkpt><trkpt lat="40.32208085414782" lon="9.33707882695751"><ele>547.0</ele><time>2026-04-11T07:17:53.999Z</time></trkpt><trkpt lat="40.32215244388167" lon="9.337126337774615"><ele>547.0</ele><time>2026-04-11T07:17:55.999Z</time></trkpt><trkpt lat="40.322225429234294" lon="9.337136736916174"><ele>546.8333333333334</ele><time>2026-04-11T07:17:57.999Z</time></trkpt><trkpt lat="40.32230697283149" lon="9.337113475467689"><ele>546.6666666666667</ele><time>2026-04-11T07:17:59.999Z</time></trkpt><trkpt lat="40.32240402407248" lon="9.337102977965474"><ele>546.5</ele><time>2026-04-11T07:18:01.999Z</time></trkpt><trkpt lat="40.32252055486641" lon="9.337097309624726"><ele>546.3333333333334</ele><time>2026-04-11T07:18:03.999Z</time></trkpt><trkpt lat="40.322586148463145" lon="9.337111691422347"><ele>546.1666666666666</ele><time>2026-04-11T07:18:04.999Z</time></trkpt><trkpt lat="40.322648035809266" lon="9.337146201014527"><ele>546.0</ele><time>2026-04-11T07:18:05.999Z</time></trkpt><trkpt lat="40.32270044891079" lon="9.337204013830819"><ele>544.8571428571429</ele><time>2026-04-11T07:18:06.999Z</time></trkpt><trkpt lat="40.32274650782559" lon="9.337282865352213"><ele>543.7142857142858</ele><time>2026-04-11T07:18:07.999Z</time></trkpt><trkpt lat="40.322777918186766" lon="9.337366563575282"><ele>542.5714285714286</ele><time>2026-04-11T07:18:08.999Z</time></trkpt><trkpt lat="40.32280582078521" lon="9.33744958771681"><ele>541.4285714285714</ele><time>2026-04-11T07:18:09.999Z</time></trkpt><trkpt lat="40.32283019626874" lon="9.337532619375288"><ele>540.2857142857143</ele><time>2026-04-11T07:18:10.999Z</time></trkpt><trkpt lat="40.32285290216598" lon="9.337613647503535"><ele>539.1428571428571</ele><time>2026-04-11T07:18:11.999Z</time></trkpt><trkpt lat="40.32287866648647" lon="9.337695432471797"><ele>538.0</ele><time>2026-04-11T07:18:12.999Z</time></trkpt><trkpt lat="40.32290482479876" lon="9.337782004271322"><ele>538.0</ele><time>2026-04-11T07:18:13.999Z</time></trkpt><trkpt lat="40.322933394768704" lon="9.337863745252164"><ele>538.0</ele><time>2026-04-11T07:18:14.999Z</time></trkpt><trkpt lat="40.32296662855979" lon="9.337939808852033"><ele>538.0</ele><time>2026-04-11T07:18:15.999Z</time></trkpt><trkpt lat="40.323001250504774" lon="9.338023086012193"><ele>538.0</ele><time>2026-04-11T07:18:16.999Z</time></trkpt><trkpt lat="40.323040291721036" lon="9.338088584779474"><ele>538.0</ele><time>2026-04-11T07:18:17.999Z</time></trkpt><trkpt lat="40.32309261018951" lon="9.338147285672004"><ele>538.0</ele><time>2026-04-11T07:18:18.999Z</time></trkpt><trkpt lat="40.32314604530851" lon="9.338199237087766"><ele>538.0</ele><time>2026-04-11T07:18:19.999Z</time></trkpt><trkpt lat="40.32320533252011" lon="9.33824680529778"><ele>536.3333333333334</ele><time>2026-04-11T07:18:20.999Z</time></trkpt><trkpt lat="40.32327463056689" lon="9.33829225254232"><ele>534.6666666666667</ele><time>2026-04-11T07:18:21.999Z</time></trkpt><trkpt lat="40.32335415219561" lon="9.338334951226367"><ele>533.0</ele><time>2026-04-11T07:18:22.999Z</time></trkpt><trkpt lat="40.32342917999519" lon="9.338359253164157"><ele>531.3333333333334</ele><time>2026-04-11T07:18:23.999Z</time></trkpt><trkpt lat="40.323497376251055" lon="9.338394258897752"><ele>529.6666666666666</ele><time>2026-04-11T07:18:24.999Z</time></trkpt><trkpt lat="40.32357525468909" lon="9.338349755817967"><ele>528.0</ele><time>2026-04-11T07:18:25.999Z</time></trkpt><trkpt lat="40.323670377406" lon="9.338311433187537"><ele>528.0</ele><time>2026-04-11T07:18:26.999Z</time></trkpt><trkpt lat="40.32374755375528" lon="9.338262595833159"><ele>528.0</ele><time>2026-04-11T07:18:27.999Z</time></trkpt><trkpt lat="40.32382994595733" lon="9.338199352026477"><ele>528.0</ele><time>2026-04-11T07:18:28.999Z</time></trkpt><trkpt lat="40.323915325562695" lon="9.33813925859599"><ele>528.0</ele><time>2026-04-11T07:18:29.999Z</time></trkpt><trkpt lat="40.324006173695935" lon="9.338077961583625"><ele>528.0</ele><time>2026-04-11T07:18:30.999Z</time></trkpt><trkpt lat="40.324093330454446" lon="9.338015685693152"><ele>528.4</ele><time>2026-04-11T07:18:31.999Z</time></trkpt><trkpt lat="40.32417844816873" lon="9.337967581366042"><ele>528.8</ele><time>2026-04-11T07:18:32.999Z</time></trkpt><trkpt lat="40.32427327048268" lon="9.337962534343225"><ele>529.2</ele><time>2026-04-11T07:18:33.999Z</time></trkpt><trkpt lat="40.32437589251119" lon="9.338010728920887"><ele>529.6</ele><time>2026-04-11T07:18:34.999Z</time></trkpt><trkpt lat="40.32445478774256" lon="9.338116009508626"><ele>530.0</ele><time>2026-04-11T07:18:35.999Z</time></trkpt><trkpt lat="40.32449995683605" lon="9.338265520498714"><ele>530.0</ele><time>2026-04-11T07:18:37Z</time></trkpt><trkpt lat="40.32452833691249" lon="9.338422935114677"><ele>530.0</ele><time>2026-04-11T07:18:38Z</time></trkpt><trkpt lat="40.32455518908948" lon="9.33859054741314"><ele>530.0</ele><time>2026-04-11T07:18:39Z</time></trkpt><trkpt lat="40.32460014632716" lon="9.338749666120396"><ele>530.0</ele><time>2026-04-11T07:18:40Z</time></trkpt><trkpt lat="40.32466648587735" lon="9.338861228663905"><ele>526.0</ele><time>2026-04-11T07:18:41Z</time></trkpt><trkpt lat="40.32476192256444" lon="9.33896433225501"><ele>522.0</ele><time>2026-04-11T07:18:42Z</time></trkpt><trkpt lat="40.32488226021877" lon="9.339032464725928"><ele>518.0</ele><time>2026-04-11T07:18:43Z</time></trkpt><trkpt lat="40.3250200895233" lon="9.339073209122972"><ele>514.0</ele><time>2026-04-11T07:18:44Z</time></trkpt><trkpt lat="40.325172735684404" lon="9.339082034836983"><ele>514.0</ele><time>2026-04-11T07:18:45Z</time></trkpt><trkpt lat="40.32532950906348" lon="9.339056337607728"><ele>514.0</ele><time>2026-04-11T07:18:46Z</time></trkpt><trkpt lat="40.325479059324174" lon="9.339001829756604"><ele>514.0</ele><time>2026-04-11T07:18:47Z</time></trkpt><trkpt lat="40.325624961083285" lon="9.338931954807506"><ele>514.0</ele><time>2026-04-11T07:18:48Z</time></trkpt><trkpt lat="40.32577230268986" lon="9.33891936602794"><ele>514.0</ele><time>2026-04-11T07:18:49Z</time></trkpt><trkpt lat="40.325907545230514" lon="9.338965253356335"><ele>514.0</ele><time>2026-04-11T07:18:50Z</time></trkpt><trkpt lat="40.32603198586314" lon="9.339064058937526"><ele>514.0</ele><time>2026-04-11T07:18:51Z</time></trkpt><trkpt lat="40.32615794271208" lon="9.339180178343808"><ele>514.0</ele><time>2026-04-11T07:18:52Z</time></trkpt><trkpt lat="40.32626965855438" lon="9.339328262698302"><ele>514.0</ele><time>2026-04-11T07:18:53Z</time></trkpt><trkpt lat="40.326380290926195" lon="9.339469352187992"><ele>514.0</ele><time>2026-04-11T07:18:54Z</time></trkpt><trkpt lat="40.32648782133688" lon="9.339610674238275"><ele>509.0</ele><time>2026-04-11T07:18:55Z</time></trkpt><trkpt lat="40.3266101233841" lon="9.339740417741844"><ele>504.0</ele><time>2026-04-11T07:18:56Z</time></trkpt><trkpt lat="40.3267397145182" lon="9.339849487348353"><ele>499.0</ele><time>2026-04-11T07:18:57Z</time></trkpt><trkpt lat="40.32688005849954" lon="9.339915569158638"><ele>499.0</ele><time>2026-04-11T07:18:58Z</time></trkpt><trkpt lat="40.32700101261597" lon="9.340007703443108"><ele>499.0</ele><time>2026-04-11T07:18:59Z</time></trkpt><trkpt lat="40.327113547429214" lon="9.340127194720974"><ele>499.0</ele><time>2026-04-11T07:19:00Z</time></trkpt><trkpt lat="40.32720356865257" lon="9.340247860224613"><ele>499.0</ele><time>2026-04-11T07:19:01Z</time></trkpt><trkpt lat="40.32726796309757" lon="9.34041235208228"><ele>495.0</ele><time>2026-04-11T07:19:02Z</time></trkpt><trkpt lat="40.3273208141919" lon="9.340572846162182"><ele>491.0</ele><time>2026-04-11T07:19:03Z</time></trkpt><trkpt lat="40.32732401190102" lon="9.340746464920295"><ele>487.0</ele><time>2026-04-11T07:19:04Z</time></trkpt><trkpt lat="40.327270167538565" lon="9.340909895167943"><ele>483.0</ele><time>2026-04-11T07:19:05Z</time></trkpt><trkpt lat="40.32714014389327" lon="9.340990005074529"><ele>483.0</ele><time>2026-04-11T07:19:06Z</time></trkpt><trkpt lat="40.32700370695503" lon="9.34106405387057"><ele>483.0</ele><time>2026-04-11T07:19:07Z</time></trkpt><trkpt lat="40.326845483273736" lon="9.341152170852034"><ele>483.0</ele><time>2026-04-11T07:19:08Z</time></trkpt><trkpt lat="40.326690850299684" lon="9.341249763851462"><ele>488.33333333333337</ele><time>2026-04-11T07:19:09Z</time></trkpt><trkpt lat="40.32655388246913" lon="9.341416154406415"><ele>493.6666666666667</ele><time>2026-04-11T07:19:10Z</time></trkpt><trkpt lat="40.32644623733486" lon="9.341614649685752"><ele>499.0</ele><time>2026-04-11T07:19:11Z</time></trkpt><trkpt lat="40.32635856242808" lon="9.341832804824515"><ele>495.33333333333337</ele><time>2026-04-11T07:19:12Z</time></trkpt><trkpt lat="40.32622944423486" lon="9.342012601329076"><ele>491.66666666666663</ele><time>2026-04-11T07:19:13Z</time></trkpt><trkpt lat="40.32605818103338" lon="9.342117209688586"><ele>488.0</ele><time>2026-04-11T07:19:14Z</time></trkpt><trkpt lat="40.32592762623298" lon="9.342258377896584"><ele>488.0</ele><time>2026-04-11T07:19:15Z</time></trkpt><trkpt lat="40.325799210636845" lon="9.34242224205277"><ele>488.0</ele><time>2026-04-11T07:19:16Z</time></trkpt><trkpt lat="40.325671987979405" lon="9.342613126291797"><ele>488.0</ele><time>2026-04-11T07:19:17Z</time></trkpt><trkpt lat="40.32551138594729" lon="9.342711220240378"><ele>478.3333333333333</ele><time>2026-04-11T07:19:18Z</time></trkpt><trkpt lat="40.32533411023868" lon="9.342770875731553"><ele>468.66666666666663</ele><time>2026-04-11T07:19:19Z</time></trkpt><trkpt lat="40.325163831780515" lon="9.342825544241721"><ele>459.0</ele><time>2026-04-11T07:19:20Z</time></trkpt><trkpt lat="40.32498657775887" lon="9.342913950790457"><ele>459.0</ele><time>2026-04-11T07:19:21Z</time></trkpt><trkpt lat="40.32480931385173" lon="9.343002671346186"><ele>459.0</ele><time>2026-04-11T07:19:22Z</time></trkpt><trkpt lat="40.32465750649792" lon="9.343106359135732"><ele>459.0</ele><time>2026-04-11T07:19:23Z</time></trkpt><trkpt lat="40.32452779797434" lon="9.343245348942252"><ele>458.33333333333337</ele><time>2026-04-11T07:19:24Z</time></trkpt><trkpt lat="40.32443466478054" lon="9.343448704872902"><ele>457.6666666666667</ele><time>2026-04-11T07:19:25Z</time></trkpt><trkpt lat="40.324379739250695" lon="9.343675684180338"><ele>457.0</ele><time>2026-04-11T07:19:26Z</time></trkpt><trkpt lat="40.32433095071038" lon="9.343898058389117"><ele>460.0</ele><time>2026-04-11T07:19:27Z</time></trkpt><trkpt lat="40.32425929561638" lon="9.344114772514862"><ele>463.0</ele><time>2026-04-11T07:19:28Z</time></trkpt><trkpt lat="40.32412595436451" lon="9.344294229645874"><ele>466.0</ele><time>2026-04-11T07:19:29Z</time></trkpt><trkpt lat="40.32400716805405" lon="9.344491937429474"><ele>462.33333333333337</ele><time>2026-04-11T07:19:30Z</time></trkpt><trkpt lat="40.323883977604524" lon="9.34467128712128"><ele>458.66666666666663</ele><time>2026-04-11T07:19:31Z</time></trkpt><trkpt lat="40.323768398462015" lon="9.344844724276394"><ele>455.0</ele><time>2026-04-11T07:19:32Z</time></trkpt><trkpt lat="40.32364587634992" lon="9.344992090410754"><ele>455.0</ele><time>2026-04-11T07:19:33Z</time></trkpt><trkpt lat="40.323503950438734" lon="9.345087918876878"><ele>455.0</ele><time>2026-04-11T07:19:34Z</time></trkpt><trkpt lat="40.32333856120863" lon="9.345114075030466"><ele>455.0</ele><time>2026-04-11T07:19:35Z</time></trkpt><trkpt lat="40.32318374444799" lon="9.345169725348272"><ele>457.5</ele><time>2026-04-11T07:19:36Z</time></trkpt><trkpt lat="40.32304396762464" lon="9.345216933672837"><ele>460.0</ele><time>2026-04-11T07:19:37Z</time></trkpt><trkpt lat="40.32291232659293" lon="9.345235276861606"><ele>462.5</ele><time>2026-04-11T07:19:38Z</time></trkpt><trkpt lat="40.322807106053766" lon="9.345214977103383"><ele>465.0</ele><time>2026-04-11T07:19:39Z</time></trkpt><trkpt lat="40.322727821710345" lon="9.345116568871797"><ele>465.0</ele><time>2026-04-11T07:19:40Z</time></trkpt><trkpt lat="40.32264771723232" lon="9.34496740632704"><ele>465.0</ele><time>2026-04-11T07:19:41Z</time></trkpt><trkpt lat="40.32258050220275" lon="9.344768272370167"><ele>465.0</ele><time>2026-04-11T07:19:42Z</time></trkpt><trkpt lat="40.322498188481404" lon="9.34456783587252"><ele>462.33333333333337</ele><time>2026-04-11T07:19:43Z</time></trkpt><trkpt lat="40.32240520774133" lon="9.344360516742988"><ele>459.6666666666667</ele><time>2026-04-11T07:19:44Z</time></trkpt><trkpt lat="40.322327850510476" lon="9.344202145060219"><ele>457.0</ele><time>2026-04-11T07:19:45Z</time></trkpt><trkpt lat="40.3222243867224" lon="9.34406224490094"><ele>457.0</ele><time>2026-04-11T07:19:46Z</time></trkpt><trkpt lat="40.3220732618593" lon="9.34397495071294"><ele>457.0</ele><time>2026-04-11T07:19:47Z</time></trkpt><trkpt lat="40.32188965179532" lon="9.34393033262769"><ele>457.0</ele><time>2026-04-11T07:19:48Z</time></trkpt><trkpt lat="40.32169293903139" lon="9.343925604593162"><ele>447.33333333333337</ele><time>2026-04-11T07:19:49Z</time></trkpt><trkpt lat="40.3214815647885" lon="9.343865772625639"><ele>437.66666666666663</ele><time>2026-04-11T07:19:50Z</time></trkpt><trkpt lat="40.321251915696585" lon="9.343864681120111"><ele>428.0</ele><time>2026-04-11T07:19:51Z</time></trkpt><trkpt lat="40.32103242959078" lon="9.343869732009393"><ele>427.3333333333333</ele><time>2026-04-11T07:19:52Z</time></trkpt><trkpt lat="40.32079694476303" lon="9.34386771257648"><ele>426.66666666666663</ele><time>2026-04-11T07:19:53Z</time></trkpt><trkpt lat="40.32058701772301" lon="9.343871770310487"><ele>426.0</ele><time>2026-04-11T07:19:54Z</time></trkpt><trkpt lat="40.32038473625141" lon="9.343912962319585"><ele>434.5</ele><time>2026-04-11T07:19:55Z</time></trkpt><trkpt lat="40.32017253137963" lon="9.344004155129129"><ele>443.0</ele><time>2026-04-11T07:19:55.999Z</time></trkpt><trkpt lat="40.319965050445916" lon="9.344132903759492"><ele>443.0</ele><time>2026-04-11T07:19:56.999Z</time></trkpt><trkpt lat="40.31976507340199" lon="9.344253803959987"><ele>443.0</ele><time>2026-04-11T07:19:57.999Z</time></trkpt><trkpt lat="40.31955813489076" lon="9.3443468502592"><ele>443.0</ele><time>2026-04-11T07:19:58.999Z</time></trkpt><trkpt lat="40.31934891809677" lon="9.344388818642818"><ele>437.3333333333333</ele><time>2026-04-11T07:19:59.999Z</time></trkpt><trkpt lat="40.3191341847783" lon="9.344413841535005"><ele>431.66666666666663</ele><time>2026-04-11T07:20:00.999Z</time></trkpt><trkpt lat="40.3189337094153" lon="9.344443393721615"><ele>426.0</ele><time>2026-04-11T07:20:01.999Z</time></trkpt><trkpt lat="40.318740799379626" lon="9.344429088359826"><ele>425.33333333333337</ele><time>2026-04-11T07:20:02.999Z</time></trkpt><trkpt lat="40.31855369073435" lon="9.344408766656876"><ele>424.6666666666667</ele><time>2026-04-11T07:20:03.999Z</time></trkpt><trkpt lat="40.318366167041695" lon="9.3443508502342"><ele>424.0</ele><time>2026-04-11T07:20:04.999Z</time></trkpt><trkpt lat="40.318177986562866" lon="9.34425492413634"><ele>426.6666666666667</ele><time>2026-04-11T07:20:05.999Z</time></trkpt><trkpt lat="40.31799882012439" lon="9.344133590172161"><ele>429.33333333333337</ele><time>2026-04-11T07:20:06.999Z</time></trkpt><trkpt lat="40.31783206979228" lon="9.344005131796914"><ele>432.0</ele><time>2026-04-11T07:20:07.999Z</time></trkpt><trkpt lat="40.31768904874094" lon="9.343911736106397"><ele>432.0</ele><time>2026-04-11T07:20:08.999Z</time></trkpt><trkpt lat="40.31757007034322" lon="9.343839417657477"><ele>432.0</ele><time>2026-04-11T07:20:09.999Z</time></trkpt><trkpt lat="40.31743587649555" lon="9.343830074333344"><ele>432.0</ele><time>2026-04-11T07:20:10.999Z</time></trkpt><trkpt lat="40.31727266946128" lon="9.343906197313137"><ele>432.0</ele><time>2026-04-11T07:20:11.999Z</time></trkpt><trkpt lat="40.31708332743166" lon="9.344024948957069"><ele>428.0</ele><time>2026-04-11T07:20:12.999Z</time></trkpt><trkpt lat="40.316864731797025" lon="9.344078493098372"><ele>424.0</ele><time>2026-04-11T07:20:13.999Z</time></trkpt><trkpt lat="40.31663194357757" lon="9.344093454412196"><ele>424.0</ele><time>2026-04-11T07:20:14.999Z</time></trkpt><trkpt lat="40.31641104549583" lon="9.344139381164378"><ele>424.0</ele><time>2026-04-11T07:20:15.999Z</time></trkpt><trkpt lat="40.3161849025916" lon="9.344264491051673"><ele>411.5</ele><time>2026-04-11T07:20:16.999Z</time></trkpt><trkpt lat="40.315963234907386" lon="9.344458189332546"><ele>399.0</ele><time>2026-04-11T07:20:17.999Z</time></trkpt><trkpt lat="40.31574582805237" lon="9.344688380359491"><ele>397.0</ele><time>2026-04-11T07:20:18.999Z</time></trkpt><trkpt lat="40.31553767680906" lon="9.344940875723278"><ele>395.0</ele><time>2026-04-11T07:20:19.999Z</time></trkpt><trkpt lat="40.31533843759941" lon="9.34518096615494"><ele>395.0</ele><time>2026-04-11T07:20:20.999Z</time></trkpt><trkpt lat="40.315154536862956" lon="9.345392691799688"><ele>395.0</ele><time>2026-04-11T07:20:21.999Z</time></trkpt><trkpt lat="40.31498570188254" lon="9.345561369602981"><ele>396.75</ele><time>2026-04-11T07:20:22.999Z</time></trkpt><trkpt lat="40.31486231197855" lon="9.345701747993305"><ele>398.5</ele><time>2026-04-11T07:20:23.999Z</time></trkpt><trkpt lat="40.31474842139466" lon="9.345824526258149"><ele>400.25</ele><time>2026-04-11T07:20:24.999Z</time></trkpt><trkpt lat="40.31464688392277" lon="9.345914454424166"><ele>402.0</ele><time>2026-04-11T07:20:25.999Z</time></trkpt><trkpt lat="40.314527069074785" lon="9.345960543143933"><ele>402.0</ele><time>2026-04-11T07:20:26.999Z</time></trkpt><trkpt lat="40.31441001786915" lon="9.345899084127383"><ele>402.0</ele><time>2026-04-11T07:20:27.999Z</time></trkpt><trkpt lat="40.31428969970827" lon="9.345826382910225"><ele>402.0</ele><time>2026-04-11T07:20:28.999Z</time></trkpt><trkpt lat="40.31417658454673" lon="9.345804756005165"><ele>402.0</ele><time>2026-04-11T07:20:29.999Z</time></trkpt><trkpt lat="40.31402900627275" lon="9.345896515633617"><ele>393.0</ele><time>2026-04-11T07:20:30.999Z</time></trkpt><trkpt lat="40.313888956311224" lon="9.346045228306473"><ele>384.0</ele><time>2026-04-11T07:20:31.999Z</time></trkpt><trkpt lat="40.31372932282104" lon="9.34621682991706"><ele>375.0</ele><time>2026-04-11T07:20:32.999Z</time></trkpt><trkpt lat="40.31355372569632" lon="9.34634844996149"><ele>385.0</ele><time>2026-04-11T07:20:33.999Z</time></trkpt><trkpt lat="40.31339734941846" lon="9.346458840605436"><ele>395.0</ele><time>2026-04-11T07:20:34.999Z</time></trkpt><trkpt lat="40.31325783124021" lon="9.346574955321106"><ele>405.0</ele><time>2026-04-11T07:20:35.999Z</time></trkpt><trkpt lat="40.31313727210342" lon="9.346744237920676"><ele>398.66666666666663</ele><time>2026-04-11T07:20:36.999Z</time></trkpt><trkpt lat="40.31304772586806" lon="9.346964404676129"><ele>392.3333333333333</ele><time>2026-04-11T07:20:37.999Z</time></trkpt><trkpt lat="40.31296194117238" lon="9.347251741481763"><ele>386.0</ele><time>2026-04-11T07:20:38.999Z</time></trkpt><trkpt lat="40.312861214072356" lon="9.347554408727289"><ele>386.0</ele><time>2026-04-11T07:20:39.999Z</time></trkpt><trkpt lat="40.312756978039594" lon="9.347835228144497"><ele>386.0</ele><time>2026-04-11T07:20:40.999Z</time></trkpt><trkpt lat="40.31266148092364" lon="9.348089032083283"><ele>389.66666666666663</ele><time>2026-04-11T07:20:41.999Z</time></trkpt><trkpt lat="40.31258117788059" lon="9.348317965540472"><ele>393.33333333333337</ele><time>2026-04-11T07:20:43Z</time></trkpt><trkpt lat="40.31251771047945" lon="9.348513934963629"><ele>397.0</ele><time>2026-04-11T07:20:44Z</time></trkpt><trkpt lat="40.31246136645134" lon="9.348681533425433"><ele>397.0</ele><time>2026-04-11T07:20:45Z</time></trkpt><trkpt lat="40.312395334115365" lon="9.348805377573896"><ele>397.0</ele><time>2026-04-11T07:20:46Z</time></trkpt><trkpt lat="40.312303653657395" lon="9.348888014325722"><ele>397.0</ele><time>2026-04-11T07:20:47Z</time></trkpt><trkpt lat="40.31220241305011" lon="9.348908728184215"><ele>397.0</ele><time>2026-04-11T07:20:48Z</time></trkpt><trkpt lat="40.312098123618384" lon="9.34886304160381"><ele>397.0</ele><time>2026-04-11T07:20:49Z</time></trkpt><trkpt lat="40.31198260433399" lon="9.348760620646214"><ele>393.0</ele><time>2026-04-11T07:20:50Z</time></trkpt><trkpt lat="40.31186418761654" lon="9.348631885620945"><ele>389.0</ele><time>2026-04-11T07:20:51Z</time></trkpt><trkpt lat="40.31172498756946" lon="9.348549722533324"><ele>385.0</ele><time>2026-04-11T07:20:52Z</time></trkpt><trkpt lat="40.31156887181259" lon="9.348537639340444"><ele>380.33333333333337</ele><time>2026-04-11T07:20:53Z</time></trkpt><trkpt lat="40.311402014754336" lon="9.3485994959866"><ele>375.6666666666667</ele><time>2026-04-11T07:20:54Z</time></trkpt><trkpt lat="40.31122394651031" lon="9.348738975399126"><ele>371.0</ele><time>2026-04-11T07:20:55Z</time></trkpt><trkpt lat="40.31103657568357" lon="9.348852635601594"><ele>371.0</ele><time>2026-04-11T07:20:56Z</time></trkpt><trkpt lat="40.310830321923035" lon="9.348856209075464"><ele>371.0</ele><time>2026-04-11T07:20:57Z</time></trkpt><trkpt lat="40.31065487631829" lon="9.348919090209693"><ele>371.0</ele><time>2026-04-11T07:20:58Z</time></trkpt><trkpt lat="40.31048257469226" lon="9.349035479975678"><ele>371.33333333333337</ele><time>2026-04-11T07:20:59Z</time></trkpt><trkpt lat="40.31030081639503" lon="9.349178412860063"><ele>371.6666666666667</ele><time>2026-04-11T07:21:00Z</time></trkpt><trkpt lat="40.31011975601902" lon="9.34930399983834"><ele>372.0</ele><time>2026-04-11T07:21:01Z</time></trkpt><trkpt lat="40.30994595371125" lon="9.349499262549749"><ele>372.0</ele><time>2026-04-11T07:21:02Z</time></trkpt><trkpt lat="40.30978131861651" lon="9.349642098478094"><ele>372.0</ele><time>2026-04-11T07:21:03Z</time></trkpt><trkpt lat="40.30963529537716" lon="9.349788195216343"><ele>372.0</ele><time>2026-04-11T07:21:04Z</time></trkpt><trkpt lat="40.30951509363067" lon="9.349973726095554"><ele>371.0</ele><time>2026-04-11T07:21:05Z</time></trkpt><trkpt lat="40.30936613666405" lon="9.350121046011752"><ele>370.0</ele><time>2026-04-11T07:21:06Z</time></trkpt><trkpt lat="40.30919406547775" lon="9.350230517426214"><ele>369.0</ele><time>2026-04-11T07:21:07Z</time></trkpt><trkpt lat="40.3090071643108" lon="9.350364577336709"><ele>367.0</ele><time>2026-04-11T07:21:08Z</time></trkpt><trkpt lat="40.30882334509905" lon="9.35049232050969"><ele>365.0</ele><time>2026-04-11T07:21:09Z</time></trkpt><trkpt lat="40.308635084007285" lon="9.35068172056763"><ele>363.0</ele><time>2026-04-11T07:21:10Z</time></trkpt><trkpt lat="40.30845115974099" lon="9.350867350010247"><ele>363.0</ele><time>2026-04-11T07:21:11Z</time></trkpt><trkpt lat="40.30828724652265" lon="9.351031502901517"><ele>363.0</ele><time>2026-04-11T07:21:12Z</time></trkpt><trkpt lat="40.308137242848176" lon="9.351210893540504"><ele>363.0</ele><time>2026-04-11T07:21:13Z</time></trkpt><trkpt lat="40.30800287617324" lon="9.351382612014714"><ele>360.0</ele><time>2026-04-11T07:21:14Z</time></trkpt><trkpt lat="40.30787009068082" lon="9.351548954641071"><ele>357.0</ele><time>2026-04-11T07:21:15Z</time></trkpt><trkpt lat="40.307741050444704" lon="9.351698130809263"><ele>354.0</ele><time>2026-04-11T07:21:16Z</time></trkpt><trkpt lat="40.30761176991456" lon="9.351840174998705"><ele>354.0</ele><time>2026-04-11T07:21:17Z</time></trkpt><trkpt lat="40.30748993790099" lon="9.351978660409555"><ele>354.0</ele><time>2026-04-11T07:21:18Z</time></trkpt><trkpt lat="40.30737140538722" lon="9.352117687605409"><ele>354.0</ele><time>2026-04-11T07:21:19Z</time></trkpt><trkpt lat="40.30726009191874" lon="9.352253248894092"><ele>352.5</ele><time>2026-04-11T07:21:20Z</time></trkpt><trkpt lat="40.307158837583856" lon="9.35239186386"><ele>351.0</ele><time>2026-04-11T07:21:21Z</time></trkpt><trkpt lat="40.307073692388386" lon="9.352532280470532"><ele>349.5</ele><time>2026-04-11T07:21:22Z</time></trkpt><trkpt lat="40.30698767188118" lon="9.352655617285041"><ele>348.0</ele><time>2026-04-11T07:21:23Z</time></trkpt><trkpt lat="40.30689472794453" lon="9.352755204730736"><ele>348.0</ele><time>2026-04-11T07:21:24Z</time></trkpt><trkpt lat="40.30679200364128" lon="9.35282777653898"><ele>348.0</ele><time>2026-04-11T07:21:25Z</time></trkpt><trkpt lat="40.30667998995085" lon="9.352839400035604"><ele>348.0</ele><time>2026-04-11T07:21:26Z</time></trkpt><trkpt lat="40.30656968824919" lon="9.352859371903168"><ele>348.0</ele><time>2026-04-11T07:21:27Z</time></trkpt><trkpt lat="40.306452475504436" lon="9.352890093765307"><ele>349.5</ele><time>2026-04-11T07:21:28Z</time></trkpt><trkpt lat="40.30632507903959" lon="9.35294358302797"><ele>351.0</ele><time>2026-04-11T07:21:29Z</time></trkpt><trkpt lat="40.30619424401817" lon="9.3529721436295"><ele>352.5</ele><time>2026-04-11T07:21:30Z</time></trkpt><trkpt lat="40.30609031528035" lon="9.353021318691278"><ele>354.0</ele><time>2026-04-11T07:21:31Z</time></trkpt><trkpt lat="40.30597572397336" lon="9.353046981221269"><ele>354.0</ele><time>2026-04-11T07:21:32Z</time></trkpt><trkpt lat="40.305871835309844" lon="9.353120250682164"><ele>354.0</ele><time>2026-04-11T07:21:33Z</time></trkpt><trkpt lat="40.30577338203098" lon="9.35318409751802"><ele>354.0</ele><time>2026-04-11T07:21:34Z</time></trkpt><trkpt lat="40.305668825666274" lon="9.353283268096439"><ele>354.0</ele><time>2026-04-11T07:21:35Z</time></trkpt><trkpt lat="40.30556749729903" lon="9.353419667213759"><ele>351.0</ele><time>2026-04-11T07:21:36Z</time></trkpt><trkpt lat="40.30548210231848" lon="9.353564062094451"><ele>348.0</ele><time>2026-04-11T07:21:37Z</time></trkpt><trkpt lat="40.30539410856758" lon="9.353706961974586"><ele>345.0</ele><time>2026-04-11T07:21:38Z</time></trkpt><trkpt lat="40.30529678556399" lon="9.353833676251764"><ele>342.0</ele><time>2026-04-11T07:21:39Z</time></trkpt><trkpt lat="40.305201245618484" lon="9.353945845698416"><ele>342.0</ele><time>2026-04-11T07:21:40Z</time></trkpt><trkpt lat="40.305098276194954" lon="9.35404350695489"><ele>342.0</ele><time>2026-04-11T07:21:41Z</time></trkpt><trkpt lat="40.305002371714316" lon="9.35414580807001"><ele>342.0</ele><time>2026-04-11T07:21:42Z</time></trkpt><trkpt lat="40.30490307088705" lon="9.354233254974147"><ele>342.0</ele><time>2026-04-11T07:21:43Z</time></trkpt><trkpt lat="40.30481170229034" lon="9.354320119856581"><ele>337.75</ele><time>2026-04-11T07:21:44Z</time></trkpt><trkpt lat="40.30472319803838" lon="9.354425150186637"><ele>333.5</ele><time>2026-04-11T07:21:45Z</time></trkpt><trkpt lat="40.304643650168636" lon="9.354558703281253"><ele>329.25</ele><time>2026-04-11T07:21:46Z</time></trkpt><trkpt lat="40.30457680274872" lon="9.354708026764651"><ele>325.0</ele><time>2026-04-11T07:21:47Z</time></trkpt><trkpt lat="40.304521381096464" lon="9.354855872262064"><ele>325.0</ele><time>2026-04-11T07:21:48Z</time></trkpt><trkpt lat="40.30447529468226" lon="9.354993035735701"><ele>325.0</ele><time>2026-04-11T07:21:49Z</time></trkpt><trkpt lat="40.30445896071394" lon="9.355142127524037"><ele>325.0</ele><time>2026-04-11T07:21:50Z</time></trkpt><trkpt lat="40.3044744480534" lon="9.355287161900343"><ele>325.0</ele><time>2026-04-11T07:21:51Z</time></trkpt><trkpt lat="40.304506485364605" lon="9.35543108837949"><ele>326.5</ele><time>2026-04-11T07:21:52Z</time></trkpt><trkpt lat="40.30452308872055" lon="9.35557497426321"><ele>328.0</ele><time>2026-04-11T07:21:53Z</time></trkpt><trkpt lat="40.30448601846445" lon="9.355722312512158"><ele>329.5</ele><time>2026-04-11T07:21:54Z</time></trkpt><trkpt lat="40.30444674869759" lon="9.355882247890891"><ele>331.0</ele><time>2026-04-11T07:21:55Z</time></trkpt><trkpt lat="40.30436094643145" lon="9.356013541069672"><ele>331.0</ele><time>2026-04-11T07:21:56Z</time></trkpt><trkpt lat="40.30424921043773" lon="9.356119626713117"><ele>331.0</ele><time>2026-04-11T07:21:57Z</time></trkpt><trkpt lat="40.30413877931856" lon="9.356228980608966"><ele>331.0</ele><time>2026-04-11T07:21:58Z</time></trkpt><trkpt lat="40.30403827185892" lon="9.356353096547066"><ele>331.0</ele><time>2026-04-11T07:21:59Z</time></trkpt><trkpt lat="40.303959261979884" lon="9.356483866260747"><ele>328.0</ele><time>2026-04-11T07:22:00Z</time></trkpt><trkpt lat="40.30390498039228" lon="9.356623337901242"><ele>325.0</ele><time>2026-04-11T07:22:01Z</time></trkpt><trkpt lat="40.30387064302163" lon="9.356769220433359"><ele>322.0</ele><time>2026-04-11T07:22:02Z</time></trkpt><trkpt lat="40.30386298745726" lon="9.356907193866634"><ele>319.0</ele><time>2026-04-11T07:22:03Z</time></trkpt><trkpt lat="40.30389647128711" lon="9.357065160913574"><ele>322.75</ele><time>2026-04-11T07:22:04Z</time></trkpt><trkpt lat="40.30396032850472" lon="9.357220589882925"><ele>326.5</ele><time>2026-04-11T07:22:05Z</time></trkpt><trkpt lat="40.3040266621242" lon="9.3573764461721"><ele>330.25</ele><time>2026-04-11T07:22:06Z</time></trkpt><trkpt lat="40.30408125526049" lon="9.357520123261347"><ele>334.0</ele><time>2026-04-11T07:22:07Z</time></trkpt><trkpt lat="40.304103920263124" lon="9.357675464133981"><ele>334.0</ele><time>2026-04-11T07:22:08Z</time></trkpt><trkpt lat="40.30407099837346" lon="9.357817263813374"><ele>334.0</ele><time>2026-04-11T07:22:09Z</time></trkpt><trkpt lat="40.30403597596753" lon="9.35795246552806"><ele>334.0</ele><time>2026-04-11T07:22:10Z</time></trkpt><trkpt lat="40.30396354267659" lon="9.358063401204781"><ele>334.0</ele><time>2026-04-11T07:22:11Z</time></trkpt><trkpt lat="40.30389867496844" lon="9.358165112904608"><ele>334.0</ele><time>2026-04-11T07:22:12Z</time></trkpt><trkpt lat="40.30385557991355" lon="9.358275885512708"><ele>333.6</ele><time>2026-04-11T07:22:13Z</time></trkpt><trkpt lat="40.30384377761005" lon="9.358417440522272"><ele>333.2</ele><time>2026-04-11T07:22:14Z</time></trkpt><trkpt lat="40.30388001086415" lon="9.358558109467795"><ele>332.8</ele><time>2026-04-11T07:22:14.999Z</time></trkpt><trkpt lat="40.30394066608561" lon="9.358675980193361"><ele>332.40000000000003</ele><time>2026-04-11T07:22:15.999Z</time></trkpt><trkpt lat="40.30399671605086" lon="9.35877437310517"><ele>332.0</ele><time>2026-04-11T07:22:16.999Z</time></trkpt><trkpt lat="40.304012495968834" lon="9.358907573622385"><ele>332.0</ele><time>2026-04-11T07:22:17.999Z</time></trkpt><trkpt lat="40.303959368480555" lon="9.359049784340689"><ele>332.0</ele><time>2026-04-11T07:22:18.999Z</time></trkpt><trkpt lat="40.30387467314505" lon="9.359167608730088"><ele>332.0</ele><time>2026-04-11T07:22:19.999Z</time></trkpt><trkpt lat="40.303754517810425" lon="9.359226533075963"><ele>332.0</ele><time>2026-04-11T07:22:20.999Z</time></trkpt><trkpt lat="40.30362922756453" lon="9.359259038153189"><ele>327.75</ele><time>2026-04-11T07:22:21.999Z</time></trkpt><trkpt lat="40.30349402253772" lon="9.359266817346734"><ele>323.5</ele><time>2026-04-11T07:22:22.999Z</time></trkpt><trkpt lat="40.30337968487982" lon="9.359330164048762"><ele>319.25</ele><time>2026-04-11T07:22:23.999Z</time></trkpt><trkpt lat="40.30326337653942" lon="9.35938180831614"><ele>315.0</ele><time>2026-04-11T07:22:24.999Z</time></trkpt><trkpt lat="40.303165398966094" lon="9.359443479396523"><ele>313.8</ele><time>2026-04-11T07:22:25.999Z</time></trkpt><trkpt lat="40.30307129184204" lon="9.35953951543627"><ele>312.6</ele><time>2026-04-11T07:22:26.999Z</time></trkpt><trkpt lat="40.303006301359964" lon="9.35965552277805"><ele>311.4</ele><time>2026-04-11T07:22:27.999Z</time></trkpt><trkpt lat="40.30295678480554" lon="9.359775655745976"><ele>310.2</ele><time>2026-04-11T07:22:28.999Z</time></trkpt><trkpt lat="40.302920372461536" lon="9.359886533694606"><ele>309.0</ele><time>2026-04-11T07:22:29.999Z</time></trkpt><trkpt lat="40.302870174044585" lon="9.359964725392476"><ele>309.0</ele><time>2026-04-11T07:22:30.999Z</time></trkpt><trkpt lat="40.302779009698746" lon="9.35996481151139"><ele>309.0</ele><time>2026-04-11T07:22:31.999Z</time></trkpt><trkpt lat="40.30266930186133" lon="9.359946097935017"><ele>309.0</ele><time>2026-04-11T07:22:32.999Z</time></trkpt><trkpt lat="40.302547318966965" lon="9.359926226708366"><ele>309.0</ele><time>2026-04-11T07:22:33.999Z</time></trkpt><trkpt lat="40.30243343730855" lon="9.359919010692941"><ele>309.0</ele><time>2026-04-11T07:22:34.999Z</time></trkpt><trkpt lat="40.30233164909119" lon="9.359904809841801"><ele>306.2</ele><time>2026-04-11T07:22:35.999Z</time></trkpt><trkpt lat="40.30223958081147" lon="9.359903319267357"><ele>303.4</ele><time>2026-04-11T07:22:36.999Z</time></trkpt><trkpt lat="40.30214927568975" lon="9.35992499201562"><ele>300.6</ele><time>2026-04-11T07:22:37.999Z</time></trkpt><trkpt lat="40.302063102867095" lon="9.359994036627917"><ele>297.8</ele><time>2026-04-11T07:22:38.999Z</time></trkpt><trkpt lat="40.30199807034199" lon="9.360109014583943"><ele>295.0</ele><time>2026-04-11T07:22:39.999Z</time></trkpt><trkpt lat="40.301999604006696" lon="9.360266441851849"><ele>295.0</ele><time>2026-04-11T07:22:40.999Z</time></trkpt><trkpt lat="40.30205576601874" lon="9.360416576958473"><ele>295.0</ele><time>2026-04-11T07:22:41.999Z</time></trkpt><trkpt lat="40.30214295136343" lon="9.360516171394432"><ele>295.0</ele><time>2026-04-11T07:22:42.999Z</time></trkpt><trkpt lat="40.30225986228239" lon="9.3605457454245"><ele>295.0</ele><time>2026-04-11T07:22:43.999Z</time></trkpt><trkpt lat="40.30237726025236" lon="9.360576685849871"><ele>297.2</ele><time>2026-04-11T07:22:44.999Z</time></trkpt><trkpt lat="40.30248742996969" lon="9.360615214456594"><ele>299.4</ele><time>2026-04-11T07:22:45.999Z</time></trkpt><trkpt lat="40.302582174750306" lon="9.36067530613268"><ele>301.6</ele><time>2026-04-11T07:22:46.999Z</time></trkpt><trkpt lat="40.30264880520976" lon="9.360774615852822"><ele>303.8</ele><time>2026-04-11T07:22:47.999Z</time></trkpt><trkpt lat="40.30266485188285" lon="9.360921618365715"><ele>306.0</ele><time>2026-04-11T07:22:49Z</time></trkpt><trkpt lat="40.30270140906648" lon="9.361091863696403"><ele>306.0</ele><time>2026-04-11T07:22:50Z</time></trkpt><trkpt lat="40.30272950431351" lon="9.36125489720006"><ele>306.0</ele><time>2026-04-11T07:22:51Z</time></trkpt><trkpt lat="40.30276756980814" lon="9.361430383504988"><ele>306.0</ele><time>2026-04-11T07:22:52Z</time></trkpt><trkpt lat="40.30280602677193" lon="9.361608320945887"><ele>306.0</ele><time>2026-04-11T07:22:53Z</time></trkpt><trkpt lat="40.30283573758071" lon="9.361770182968813"><ele>304.2</ele><time>2026-04-11T07:22:54Z</time></trkpt><trkpt lat="40.302851244169965" lon="9.361896418182889"><ele>302.40000000000003</ele><time>2026-04-11T07:22:55Z</time></trkpt><trkpt lat="40.30283856267787" lon="9.362003537937392"><ele>300.6</ele><time>2026-04-11T07:22:56Z</time></trkpt><trkpt lat="40.30277305434452" lon="9.362087183152711"><ele>298.8</ele><time>2026-04-11T07:22:57Z</time></trkpt><trkpt lat="40.30267361200972" lon="9.362085985371987"><ele>297.0</ele><time>2026-04-11T07:22:58Z</time></trkpt><trkpt lat="40.302581548449375" lon="9.362131519645114"><ele>297.0</ele><time>2026-04-11T07:22:59Z</time></trkpt><trkpt lat="40.30247544058113" lon="9.362156091117612"><ele>297.0</ele><time>2026-04-11T07:23:00Z</time></trkpt><trkpt lat="40.30238417375046" lon="9.362213791339265"><ele>297.0</ele><time>2026-04-11T07:23:01Z</time></trkpt><trkpt lat="40.302323669078966" lon="9.362334621390588"><ele>297.0</ele><time>2026-04-11T07:23:02Z</time></trkpt><trkpt lat="40.30228946951149" lon="9.362467375727928"><ele>297.0</ele><time>2026-04-11T07:23:03Z</time></trkpt><trkpt lat="40.30223166506592" lon="9.362546625228468"><ele>292.0</ele><time>2026-04-11T07:23:04Z</time></trkpt><trkpt lat="40.302101805340826" lon="9.362471165522162"><ele>287.0</ele><time>2026-04-11T07:23:06Z</time></trkpt><trkpt lat="40.30208396448523" lon="9.362347589716588"><ele>282.0</ele><time>2026-04-11T07:23:07Z</time></trkpt><trkpt lat="40.30216523090574" lon="9.361999876600345"><ele>282.0</ele><time>2026-04-11T07:23:09Z</time></trkpt><trkpt lat="40.30220495061526" lon="9.36181716700486"><ele>282.0</ele><time>2026-04-11T07:23:10Z</time></trkpt><trkpt lat="40.30219556207905" lon="9.361692080239507"><ele>282.0</ele><time>2026-04-11T07:23:11Z</time></trkpt><trkpt lat="40.302164738600865" lon="9.361615279402857"><ele>282.0</ele><time>2026-04-11T07:23:12Z</time></trkpt><trkpt lat="40.30202290164193" lon="9.361568106357975"><ele>282.0</ele><time>2026-04-11T07:23:13Z</time></trkpt><trkpt lat="40.30187157657933" lon="9.361558681803604"><ele>282.0</ele><time>2026-04-11T07:23:14Z</time></trkpt><trkpt lat="40.30171040366178" lon="9.361548050079318"><ele>282.0</ele><time>2026-04-11T07:23:15Z</time></trkpt><trkpt lat="40.30156908966461" lon="9.361532817329687"><ele>282.0</ele><time>2026-04-11T07:23:16Z</time></trkpt><trkpt lat="40.30144013660908" lon="9.36154835457822"><ele>282.0</ele><time>2026-04-11T07:23:17Z</time></trkpt><trkpt lat="40.30132139232632" lon="9.361623655960878"><ele>282.0</ele><time>2026-04-11T07:23:18Z</time></trkpt><trkpt lat="40.30121258139486" lon="9.361754674489749"><ele>282.0</ele><time>2026-04-11T07:23:19Z</time></trkpt><trkpt lat="40.30108421290264" lon="9.36182106601772"><ele>281.0</ele><time>2026-04-11T07:23:20Z</time></trkpt><trkpt lat="40.30095515786422" lon="9.361880747525483"><ele>280.0</ele><time>2026-04-11T07:23:21Z</time></trkpt><trkpt lat="40.30083762965761" lon="9.361893237096911"><ele>279.0</ele><time>2026-04-11T07:23:22Z</time></trkpt><trkpt lat="40.30072189540756" lon="9.361860258462846"><ele>278.0</ele><time>2026-04-11T07:23:23Z</time></trkpt><trkpt lat="40.3005954499181" lon="9.361814600075707"><ele>274.5</ele><time>2026-04-11T07:23:24Z</time></trkpt><trkpt lat="40.300471090202116" lon="9.361761051151104"><ele>271.0</ele><time>2026-04-11T07:23:25Z</time></trkpt><trkpt lat="40.30034524584917" lon="9.361691544081674"><ele>267.5</ele><time>2026-04-11T07:23:26Z</time></trkpt><trkpt lat="40.30022779429512" lon="9.361603857522521"><ele>264.0</ele><time>2026-04-11T07:23:27Z</time></trkpt><trkpt lat="40.30013371037965" lon="9.361499792509118"><ele>264.0</ele><time>2026-04-11T07:23:28Z</time></trkpt><trkpt lat="40.30006731583927" lon="9.361377416957534"><ele>264.0</ele><time>2026-04-11T07:23:29Z</time></trkpt><trkpt lat="40.30004182185087" lon="9.361241232097802"><ele>264.0</ele><time>2026-04-11T07:23:30Z</time></trkpt><trkpt lat="40.300027394973434" lon="9.361087548396826"><ele>264.0</ele><time>2026-04-11T07:23:31Z</time></trkpt><trkpt lat="40.30003054645079" lon="9.360930135124976"><ele>264.4</ele><time>2026-04-11T07:23:32Z</time></trkpt><trkpt lat="40.300027556613635" lon="9.360780495298272"><ele>264.79999999999995</ele><time>2026-04-11T07:23:33Z</time></trkpt><trkpt lat="40.30008165248967" lon="9.360670254224946"><ele>265.20000000000005</ele><time>2026-04-11T07:23:34Z</time></trkpt><trkpt lat="40.30012719737276" lon="9.360586926820183"><ele>265.6</ele><time>2026-04-11T07:23:36Z</time></trkpt><trkpt lat="40.30016172653656" lon="9.3604503411352"><ele>266.0</ele><time>2026-04-11T07:26:06Z</time></trkpt><trkpt lat="40.30021726671232" lon="9.360340108642632"><ele>266.6666666666667</ele><time>2026-04-11T07:26:08Z</time></trkpt><trkpt lat="40.30026428182864" lon="9.36022803293757"><ele>267.33333333333337</ele><time>2026-04-11T07:26:10Z</time></trkpt><trkpt lat="40.3002389620991" lon="9.360135419384436"><ele>268.0</ele><time>2026-04-11T07:26:12Z</time></trkpt><trkpt lat="40.30018561035663" lon="9.360072791426326"><ele>268.6666666666667</ele><time>2026-04-11T07:26:15Z</time></trkpt><trkpt lat="40.30008228911321" lon="9.360072227394433"><ele>269.3333333333333</ele><time>2026-04-11T07:26:16.999Z</time></trkpt><trkpt lat="40.300013899430766" lon="9.360125340101472"><ele>270.0</ele><time>2026-04-11T07:26:17.999Z</time></trkpt><trkpt lat="40.29993131024098" lon="9.360182519237409"><ele>270.0</ele><time>2026-04-11T07:26:18.999Z</time></trkpt><trkpt lat="40.299842431583734" lon="9.360235872643065"><ele>270.0</ele><time>2026-04-11T07:26:19.999Z</time></trkpt><trkpt lat="40.299748546009816" lon="9.360282174759725"><ele>270.0</ele><time>2026-04-11T07:26:20.999Z</time></trkpt><trkpt lat="40.29965046726103" lon="9.360340147451074"><ele>270.0</ele><time>2026-04-11T07:26:21.999Z</time></trkpt><trkpt lat="40.299545164901396" lon="9.36039968618976"><ele>270.0</ele><time>2026-04-11T07:26:22.999Z</time></trkpt><trkpt lat="40.29943877715944" lon="9.36046497364944"><ele>267.0</ele><time>2026-04-11T07:26:23.999Z</time></trkpt><trkpt lat="40.29933677294368" lon="9.360524843005685"><ele>264.0</ele><time>2026-04-11T07:26:24.999Z</time></trkpt><trkpt lat="40.299238716241085" lon="9.360582384740619"><ele>261.0</ele><time>2026-04-11T07:26:25.999Z</time></trkpt><trkpt lat="40.2991434100567" lon="9.360635383218323"><ele>258.0</ele><time>2026-04-11T07:26:26.999Z</time></trkpt><trkpt lat="40.299046777928325" lon="9.36068738865924"><ele>255.0</ele><time>2026-04-11T07:26:27.999Z</time></trkpt><trkpt lat="40.29894939512687" lon="9.360741280572773"><ele>252.0</ele><time>2026-04-11T07:26:28.999Z</time></trkpt><trkpt lat="40.2988484198751" lon="9.360796147839029"><ele>249.0</ele><time>2026-04-11T07:26:29.999Z</time></trkpt><trkpt lat="40.298742140884514" lon="9.360849610683125"><ele>246.0</ele><time>2026-04-11T07:26:30.999Z</time></trkpt><trkpt lat="40.29863557684929" lon="9.360906275813063"><ele>243.0</ele><time>2026-04-11T07:26:31.999Z</time></trkpt><trkpt lat="40.2985234613789" lon="9.360955216233544"><ele>243.0</ele><time>2026-04-11T07:26:32.999Z</time></trkpt><trkpt lat="40.298409925179186" lon="9.361002906048267"><ele>243.0</ele><time>2026-04-11T07:26:33.999Z</time></trkpt><trkpt lat="40.29829443656119" lon="9.36105545324924"><ele>243.0</ele><time>2026-04-11T07:26:34.999Z</time></trkpt><trkpt lat="40.29817799261113" lon="9.361104484082308"><ele>243.0</ele><time>2026-04-11T07:26:35.999Z</time></trkpt><trkpt lat="40.29805610041709" lon="9.361146733632511"><ele>240.5</ele><time>2026-04-11T07:26:36.999Z</time></trkpt><trkpt lat="40.29793335575889" lon="9.361183696483867"><ele>238.0</ele><time>2026-04-11T07:26:37.999Z</time></trkpt><trkpt lat="40.297813661078344" lon="9.361214066721555"><ele>235.5</ele><time>2026-04-11T07:26:38.999Z</time></trkpt><trkpt lat="40.29769742016518" lon="9.361238770461853"><ele>233.0</ele><time>2026-04-11T07:26:39.999Z</time></trkpt><trkpt lat="40.29758685044442" lon="9.361259618011045"><ele>233.0</ele><time>2026-04-11T07:26:40.999Z</time></trkpt><trkpt lat="40.29748089692653" lon="9.361281020357753"><ele>233.0</ele><time>2026-04-11T07:26:41.999Z</time></trkpt><trkpt lat="40.29737592889783" lon="9.361300358815985"><ele>233.0</ele><time>2026-04-11T07:26:42.999Z</time></trkpt><trkpt lat="40.29726436051969" lon="9.361326365843905"><ele>233.0</ele><time>2026-04-11T07:26:43.999Z</time></trkpt><trkpt lat="40.29714871401577" lon="9.361358942080141"><ele>233.0</ele><time>2026-04-11T07:26:44.999Z</time></trkpt><trkpt lat="40.29702906641086" lon="9.361401913448795"><ele>231.5</ele><time>2026-04-11T07:26:45.999Z</time></trkpt><trkpt lat="40.29690700945794" lon="9.361451537427502"><ele>230.0</ele><time>2026-04-11T07:26:46.999Z</time></trkpt><trkpt lat="40.296782065123985" lon="9.361504585999281"><ele>228.5</ele><time>2026-04-11T07:26:47.999Z</time></trkpt><trkpt lat="40.29665285432674" lon="9.36155985291926"><ele>227.0</ele><time>2026-04-11T07:26:48.999Z</time></trkpt><trkpt lat="40.29652321435238" lon="9.361625088948774"><ele>225.25</ele><time>2026-04-11T07:26:49.999Z</time></trkpt><trkpt lat="40.29638438870336" lon="9.361673223449536"><ele>223.5</ele><time>2026-04-11T07:26:50.999Z</time></trkpt><trkpt lat="40.29625573012138" lon="9.361766857998422"><ele>221.75</ele><time>2026-04-11T07:26:51.999Z</time></trkpt><trkpt lat="40.29612761941038" lon="9.361845643684207"><ele>220.0</ele><time>2026-04-11T07:26:52.999Z</time></trkpt><trkpt lat="40.296007372528" lon="9.361927219477227"><ele>220.0</ele><time>2026-04-11T07:26:53.999Z</time></trkpt><trkpt lat="40.2958867481648" lon="9.362009594915033"><ele>220.0</ele><time>2026-04-11T07:26:54.999Z</time></trkpt><trkpt lat="40.29576610242092" lon="9.362099261711188"><ele>220.0</ele><time>2026-04-11T07:26:55.999Z</time></trkpt><trkpt lat="40.29563689216186" lon="9.36219882611939"><ele>220.0</ele><time>2026-04-11T07:26:56.999Z</time></trkpt><trkpt lat="40.29550181182764" lon="9.362299082897731"><ele>218.0</ele><time>2026-04-11T07:26:57.999Z</time></trkpt><trkpt lat="40.295366572163545" lon="9.362389395162635"><ele>216.0</ele><time>2026-04-11T07:26:58.999Z</time></trkpt><trkpt lat="40.29522804469182" lon="9.362475350208808"><ele>214.0</ele><time>2026-04-11T07:27:00Z</time></trkpt><trkpt lat="40.29508605889986" lon="9.362548574071056"><ele>214.0</ele><time>2026-04-11T07:27:01Z</time></trkpt><trkpt lat="40.294937208802885" lon="9.362607943510834"><ele>214.0</ele><time>2026-04-11T07:27:02Z</time></trkpt><trkpt lat="40.29478145649569" lon="9.362654421658114"><ele>214.0</ele><time>2026-04-11T07:27:03Z</time></trkpt><trkpt lat="40.29462430852861" lon="9.362689086474456"><ele>210.33333333333331</ele><time>2026-04-11T07:27:04Z</time></trkpt><trkpt lat="40.294469165339336" lon="9.36270821253373"><ele>206.66666666666669</ele><time>2026-04-11T07:27:05Z</time></trkpt><trkpt lat="40.29431495281396" lon="9.362719506982891"><ele>203.0</ele><time>2026-04-11T07:27:06Z</time></trkpt><trkpt lat="40.29416635827466" lon="9.362723488310962"><ele>203.0</ele><time>2026-04-11T07:27:07Z</time></trkpt><trkpt lat="40.294023836087035" lon="9.362727245112731"><ele>203.0</ele><time>2026-04-11T07:27:08Z</time></trkpt><trkpt lat="40.29387884213297" lon="9.362730135372257"><ele>203.0</ele><time>2026-04-11T07:27:09Z</time></trkpt><trkpt lat="40.29373355596451" lon="9.362733174047298"><ele>203.0</ele><time>2026-04-11T07:27:10Z</time></trkpt><trkpt lat="40.29359353276846" lon="9.362735766809193"><ele>203.75</ele><time>2026-04-11T07:27:11Z</time></trkpt><trkpt lat="40.2934645216355" lon="9.362772792579797"><ele>204.5</ele><time>2026-04-11T07:27:12Z</time></trkpt><trkpt lat="40.29335381706635" lon="9.362867376809582"><ele>205.25</ele><time>2026-04-11T07:27:13Z</time></trkpt><trkpt lat="40.29326494228032" lon="9.363009009556517"><ele>206.0</ele><time>2026-04-11T07:27:14Z</time></trkpt><trkpt lat="40.29319619014797" lon="9.363166756668054"><ele>206.0</ele><time>2026-04-11T07:27:15Z</time></trkpt><trkpt lat="40.2931536972307" lon="9.363323347179024"><ele>206.0</ele><time>2026-04-11T07:27:16Z</time></trkpt><trkpt lat="40.293126791287406" lon="9.363489302664464"><ele>206.0</ele><time>2026-04-11T07:27:17Z</time></trkpt><trkpt lat="40.293106472469375" lon="9.363663228571317"><ele>206.0</ele><time>2026-04-11T07:27:18Z</time></trkpt><trkpt lat="40.29308253203244" lon="9.363833334701576"><ele>208.75</ele><time>2026-04-11T07:27:19Z</time></trkpt><trkpt lat="40.2930455979696" lon="9.36399821163907"><ele>211.5</ele><time>2026-04-11T07:27:20Z</time></trkpt><trkpt lat="40.29299175599576" lon="9.364158072416073"><ele>214.25</ele><time>2026-04-11T07:27:21Z</time></trkpt><trkpt lat="40.29292379405659" lon="9.364296653276682"><ele>217.0</ele><time>2026-04-11T07:27:22Z</time></trkpt><trkpt lat="40.29285007566931" lon="9.364428585238432"><ele>217.0</ele><time>2026-04-11T07:27:23Z</time></trkpt><trkpt lat="40.2927608916599" lon="9.364532623046374"><ele>217.0</ele><time>2026-04-11T07:27:24Z</time></trkpt><trkpt lat="40.29266286583528" lon="9.364614314529327"><ele>217.0</ele><time>2026-04-11T07:27:25Z</time></trkpt><trkpt lat="40.29255867484023" lon="9.36469144283438"><ele>217.0</ele><time>2026-04-11T07:27:26Z</time></trkpt><trkpt lat="40.29244900620033" lon="9.364763051624008"><ele>217.0</ele><time>2026-04-11T07:27:27Z</time></trkpt><trkpt lat="40.292334386377945" lon="9.364830941324012"><ele>217.0</ele><time>2026-04-11T07:27:28Z</time></trkpt><trkpt lat="40.29222711349733" lon="9.364897486595343"><ele>217.0</ele><time>2026-04-11T07:27:29Z</time></trkpt><trkpt lat="40.29214031175611" lon="9.36496037497447"><ele>217.0</ele><time>2026-04-11T07:27:30Z</time></trkpt><trkpt lat="40.2920668362841" lon="9.365022992374415"><ele>217.0</ele><time>2026-04-11T07:27:31Z</time></trkpt><trkpt lat="40.29200121039966" lon="9.365082289987399"><ele>218.39999999999998</ele><time>2026-04-11T07:27:32Z</time></trkpt><trkpt lat="40.29191806999596" lon="9.365140268852196"><ele>219.79999999999998</ele><time>2026-04-11T07:27:34Z</time></trkpt><trkpt lat="40.29178700647577" lon="9.365261628374347"><ele>221.2</ele><time>2026-04-11T07:27:59Z</time></trkpt><trkpt lat="40.29173502439632" lon="9.365320432429753"><ele>222.6</ele><time>2026-04-11T07:28:00Z</time></trkpt><trkpt lat="40.291657454079484" lon="9.36540162796847"><ele>224.0</ele><time>2026-04-11T07:28:02Z</time></trkpt><trkpt lat="40.291582106426944" lon="9.365480496866834"><ele>224.66666666666669</ele><time>2026-04-11T07:28:04Z</time></trkpt><trkpt lat="40.2915185410983" lon="9.365549941158479"><ele>225.33333333333331</ele><time>2026-04-11T07:28:06Z</time></trkpt><trkpt lat="40.291471415344255" lon="9.365638197007899"><ele>226.0</ele><time>2026-04-11T07:28:09Z</time></trkpt><trkpt lat="40.2919545306511" lon="9.366025457848584"><ele>225.99999999999997</ele><time>2026-04-11T07:28:12Z</time></trkpt><trkpt lat="40.2919444429389" lon="9.366175303274115"><ele>226.0</ele><time>2026-04-11T07:28:14Z</time></trkpt><trkpt lat="40.29191549409479" lon="9.366282284292918"><ele>226.0</ele><time>2026-04-11T07:28:15.999Z</time></trkpt><trkpt lat="40.2918962073586" lon="9.366376685675547"><ele>226.0</ele><time>2026-04-11T07:28:18.999Z</time></trkpt><trkpt lat="40.29188021110982" lon="9.36647529030024"><ele>225.99999999999997</ele><time>2026-04-11T07:28:20.999Z</time></trkpt><trkpt lat="40.29186358069082" lon="9.366590210734657"><ele>226.0</ele><time>2026-04-11T07:28:22.999Z</time></trkpt><trkpt lat="40.29184778247712" lon="9.366699379337271"><ele>227.20000000000002</ele><time>2026-04-11T07:28:24.999Z</time></trkpt><trkpt lat="40.29181780661691" lon="9.366802545947321"><ele>228.40000000000003</ele><time>2026-04-11T07:28:26.999Z</time></trkpt><trkpt lat="40.291822553565254" lon="9.366936493780472"><ele>229.6</ele><time>2026-04-11T07:28:28.999Z</time></trkpt><trkpt lat="40.29180441130229" lon="9.367066902845616"><ele>230.8</ele><time>2026-04-11T07:28:30.999Z</time></trkpt><trkpt lat="40.291791248334526" lon="9.367206092247088"><ele>232.0</ele><time>2026-04-11T07:28:32.999Z</time></trkpt><trkpt lat="40.29177949386347" lon="9.367330295093783"><ele>233.33333333333331</ele><time>2026-04-11T07:28:34.999Z</time></trkpt><trkpt lat="40.29175579319396" lon="9.367454245447421"><ele>234.66666666666666</ele><time>2026-04-11T07:28:36.999Z</time></trkpt><trkpt lat="40.29173424214876" lon="9.36755531046287"><ele>236.0</ele><time>2026-04-11T07:28:38.999Z</time></trkpt><trkpt lat="40.29174180895753" lon="9.367677653642335"><ele>237.33333333333331</ele><time>2026-04-11T07:28:40.999Z</time></trkpt><trkpt lat="40.29174487548384" lon="9.367771622995491"><ele>238.66666666666666</ele><time>2026-04-11T07:28:44.999Z</time></trkpt><trkpt lat="40.29173408802051" lon="9.367668036129812"><ele>240.0</ele><time>2026-04-11T07:29:26Z</time></trkpt><trkpt lat="40.29173276580319" lon="9.367581018104408"><ele>240.0</ele><time>2026-04-11T07:29:28Z</time></trkpt><trkpt lat="40.29174711153648" lon="9.36749495784598"><ele>240.0</ele><time>2026-04-11T07:29:30Z</time></trkpt><trkpt lat="40.29177001204304" lon="9.36738574584845"><ele>240.0</ele><time>2026-04-11T07:29:33Z</time></trkpt><trkpt lat="40.291795404567026" lon="9.367274869115699"><ele>240.0</ele><time>2026-04-11T07:29:35Z</time></trkpt><trkpt lat="40.291809596901565" lon="9.36719417062726"><ele>240.0</ele><time>2026-04-11T07:29:37Z</time></trkpt><trkpt lat="40.29180347920278" lon="9.367102788918094"><ele>240.0</ele><time>2026-04-11T07:29:39Z</time></trkpt><trkpt lat="40.29179591820812" lon="9.366986994502707"><ele>238.66666666666666</ele><time>2026-04-11T07:29:42Z</time></trkpt><trkpt lat="40.291810481055464" lon="9.366862540050871"><ele>237.33333333333331</ele><time>2026-04-11T07:29:45Z</time></trkpt><trkpt lat="40.291837333004956" lon="9.36677158629852"><ele>236.0</ele><time>2026-04-11T07:29:47Z</time></trkpt><trkpt lat="40.29185391291145" lon="9.366657017307759"><ele>234.66666666666666</ele><time>2026-04-11T07:29:50Z</time></trkpt><trkpt lat="40.29187164778712" lon="9.36653446537927"><ele>233.33333333333331</ele><time>2026-04-11T07:29:53Z</time></trkpt><trkpt lat="40.29188772030333" lon="9.3664309306575"><ele>232.0</ele><time>2026-04-11T07:29:56Z</time></trkpt><trkpt lat="40.29190372863043" lon="9.366333248307722"><ele>230.8</ele><time>2026-04-11T07:30:45.999Z</time></trkpt><trkpt lat="40.2919269265189" lon="9.366237268080903"><ele>229.6</ele><time>2026-04-11T07:30:49.999Z</time></trkpt><trkpt lat="40.291957558182645" lon="9.366118789436516"><ele>228.40000000000003</ele><time>2026-04-11T07:30:52.999Z</time></trkpt><trkpt lat="40.2919867892956" lon="9.365976859928509"><ele>227.20000000000002</ele><time>2026-04-11T07:30:55.999Z</time></trkpt><trkpt lat="40.29199739922485" lon="9.365847853775119"><ele>226.0</ele><time>2026-04-11T07:30:57.999Z</time></trkpt><trkpt lat="40.29199714887317" lon="9.365726837039984"><ele>226.0</ele><time>2026-04-11T07:30:59.999Z</time></trkpt><trkpt lat="40.29199327994337" lon="9.365628228519586"><ele>226.0</ele><time>2026-04-11T07:31:01.999Z</time></trkpt><trkpt lat="40.29198593511021" lon="9.365543359388095"><ele>226.0</ele><time>2026-04-11T07:31:03.999Z</time></trkpt><trkpt lat="40.29225852155209" lon="9.365979065066679"><ele>226.0</ele><time>2026-04-11T07:31:05.999Z</time></trkpt><trkpt lat="40.29217648616353" lon="9.366048555610686"><ele>226.00000000000003</ele><time>2026-04-11T07:31:06.999Z</time></trkpt><trkpt lat="40.292131685611025" lon="9.365975664105749"><ele>226.00000000000003</ele><time>2026-04-11T07:31:08.999Z</time></trkpt><trkpt lat="40.29214973862915" lon="9.365850006217917"><ele>226.0</ele><time>2026-04-11T07:31:11Z</time></trkpt><trkpt lat="40.29214457910825" lon="9.365713514290443"><ele>226.0</ele><time>2026-04-11T07:31:13Z</time></trkpt><trkpt lat="40.29218320972052" lon="9.365614932090708"><ele>225.33333333333331</ele><time>2026-04-11T07:31:14Z</time></trkpt><trkpt lat="40.292178864491355" lon="9.365472825045135"><ele>224.66666666666669</ele><time>2026-04-11T07:31:16Z</time></trkpt><trkpt lat="40.291925380332664" lon="9.365225989358077"><ele>224.0</ele><time>2026-04-11T07:31:18Z</time></trkpt><trkpt lat="40.29181408390041" lon="9.365199393588929"><ele>224.00000000000003</ele><time>2026-04-11T07:31:30Z</time></trkpt><trkpt lat="40.2917507312891" lon="9.365269765735881"><ele>224.0</ele><time>2026-04-11T07:31:31Z</time></trkpt><trkpt lat="40.29168900048894" lon="9.365342874787205"><ele>224.0</ele><time>2026-04-11T07:31:32Z</time></trkpt><trkpt lat="40.29162849909797" lon="9.365407799891969"><ele>224.0</ele><time>2026-04-11T07:31:33Z</time></trkpt><trkpt lat="40.29155805152298" lon="9.365485282546349"><ele>224.00000000000003</ele><time>2026-04-11T07:31:34Z</time></trkpt><trkpt lat="40.29147767827271" lon="9.365573443735281"><ele>224.0</ele><time>2026-04-11T07:31:35Z</time></trkpt><trkpt lat="40.29140179343053" lon="9.365659120552651"><ele>225.0</ele><time>2026-04-11T07:31:36Z</time></trkpt><trkpt lat="40.291335163418054" lon="9.36574720416815"><ele>225.99999999999997</ele><time>2026-04-11T07:31:37Z</time></trkpt><trkpt lat="40.29126688983712" lon="9.365847054072537"><ele>226.99999999999997</ele><time>2026-04-11T07:31:38Z</time></trkpt><trkpt lat="40.291195919753015" lon="9.36594920329942"><ele>228.0</ele><time>2026-04-11T07:31:39Z</time></trkpt><trkpt lat="40.29112630495301" lon="9.366049469191719"><ele>229.0</ele><time>2026-04-11T07:31:40Z</time></trkpt><trkpt lat="40.29106059909719" lon="9.366152885941482"><ele>229.0</ele><time>2026-04-11T07:31:41Z</time></trkpt><trkpt lat="40.290999022660365" lon="9.36625942485681"><ele>228.99999999999997</ele><time>2026-04-11T07:31:42Z</time></trkpt><trkpt lat="40.290939124618866" lon="9.366361347891594"><ele>228.99999999999997</ele><time>2026-04-11T07:31:43Z</time></trkpt><trkpt lat="40.29087797178715" lon="9.366470329426281"><ele>229.0</ele><time>2026-04-11T07:31:44Z</time></trkpt><trkpt lat="40.29082040457114" lon="9.366577658404395"><ele>229.0</ele><time>2026-04-11T07:31:45Z</time></trkpt><trkpt lat="40.29076461651757" lon="9.366689396902453"><ele>229.6</ele><time>2026-04-11T07:31:46Z</time></trkpt><trkpt lat="40.29071319503925" lon="9.36680254204785"><ele>230.2</ele><time>2026-04-11T07:31:47Z</time></trkpt><trkpt lat="40.290662904514186" lon="9.366919619084477"><ele>230.79999999999998</ele><time>2026-04-11T07:31:48Z</time></trkpt><trkpt lat="40.290613764067146" lon="9.367041982019641"><ele>231.39999999999998</ele><time>2026-04-11T07:31:49Z</time></trkpt><trkpt lat="40.290567222421735" lon="9.36716358308008"><ele>232.0</ele><time>2026-04-11T07:31:50Z</time></trkpt><trkpt lat="40.29052185348943" lon="9.367288908258564"><ele>232.8</ele><time>2026-04-11T07:31:51Z</time></trkpt><trkpt lat="40.2904763180164" lon="9.367416363010818"><ele>233.6</ele><time>2026-04-11T07:31:52Z</time></trkpt><trkpt lat="40.290434483781624" lon="9.367549638815037"><ele>234.40000000000003</ele><time>2026-04-11T07:31:53Z</time></trkpt><trkpt lat="40.290392613142046" lon="9.367687566740235"><ele>235.20000000000002</ele><time>2026-04-11T07:31:54Z</time></trkpt><trkpt lat="40.29035227067925" lon="9.367825642532758"><ele>236.0</ele><time>2026-04-11T07:31:55Z</time></trkpt><trkpt lat="40.290315842495716" lon="9.367968471342461"><ele>236.5</ele><time>2026-04-11T07:31:56Z</time></trkpt><trkpt lat="40.290278576442084" lon="9.368111440277893"><ele>237.0</ele><time>2026-04-11T07:31:57Z</time></trkpt><trkpt lat="40.29024018508358" lon="9.368265223850635"><ele>237.5</ele><time>2026-04-11T07:31:58Z</time></trkpt><trkpt lat="40.29020258927632" lon="9.368412162597902"><ele>238.0</ele><time>2026-04-11T07:31:59Z</time></trkpt><trkpt lat="40.29016438736871" lon="9.36856566631359"><ele>238.0</ele><time>2026-04-11T07:32:00Z</time></trkpt><trkpt lat="40.29012618051769" lon="9.368713225815725"><ele>238.0</ele><time>2026-04-11T07:32:01Z</time></trkpt><trkpt lat="40.290088115834884" lon="9.368857470330676"><ele>238.0</ele><time>2026-04-11T07:32:02Z</time></trkpt><trkpt lat="40.290046416150595" lon="9.36900635156146"><ele>238.0</ele><time>2026-04-11T07:32:02.999Z</time></trkpt><trkpt lat="40.29000903501426" lon="9.369148700240132"><ele>238.25</ele><time>2026-04-11T07:32:03.999Z</time></trkpt><trkpt lat="40.289969146184916" lon="9.369298937515278"><ele>238.5</ele><time>2026-04-11T07:32:04.999Z</time></trkpt><trkpt lat="40.28993216517419" lon="9.369443546805023"><ele>238.75</ele><time>2026-04-11T07:32:05.999Z</time></trkpt><trkpt lat="40.289892480395714" lon="9.369594432870427"><ele>239.0</ele><time>2026-04-11T07:32:06.999Z</time></trkpt><trkpt lat="40.28985463232424" lon="9.369741804278483"><ele>239.0</ele><time>2026-04-11T07:32:07.999Z</time></trkpt><trkpt lat="40.28981277608338" lon="9.369893828737972"><ele>239.0</ele><time>2026-04-11T07:32:08.999Z</time></trkpt><trkpt lat="40.289776416462274" lon="9.37004894715838"><ele>239.0</ele><time>2026-04-11T07:32:09.999Z</time></trkpt><trkpt lat="40.289740845019246" lon="9.370200407903948"><ele>239.0</ele><time>2026-04-11T07:32:10.999Z</time></trkpt><trkpt lat="40.289699967168964" lon="9.370359855127967"><ele>238.75</ele><time>2026-04-11T07:32:11.999Z</time></trkpt><trkpt lat="40.28965916404756" lon="9.370517103634484"><ele>238.5</ele><time>2026-04-11T07:32:12.999Z</time></trkpt><trkpt lat="40.28961717667504" lon="9.370673226065257"><ele>238.25</ele><time>2026-04-11T07:32:13.999Z</time></trkpt><trkpt lat="40.28957184788812" lon="9.370836820323687"><ele>238.0</ele><time>2026-04-11T07:32:14.999Z</time></trkpt><trkpt lat="40.28952453912142" lon="9.37099386697233"><ele>237.5</ele><time>2026-04-11T07:32:15.999Z</time></trkpt><trkpt lat="40.289472625184054" lon="9.371145352078926"><ele>237.0</ele><time>2026-04-11T07:32:16.999Z</time></trkpt><trkpt lat="40.289416613232575" lon="9.371292902242216"><ele>236.5</ele><time>2026-04-11T07:32:17.999Z</time></trkpt><trkpt lat="40.28935379312361" lon="9.371433880739774"><ele>236.0</ele><time>2026-04-11T07:32:18.999Z</time></trkpt><trkpt lat="40.28928686857262" lon="9.371570210920689"><ele>235.0</ele><time>2026-04-11T07:32:19.999Z</time></trkpt><trkpt lat="40.28921503521863" lon="9.371702732380601"><ele>234.0</ele><time>2026-04-11T07:32:20.999Z</time></trkpt><trkpt lat="40.289138410738204" lon="9.371829767339715"><ele>233.0</ele><time>2026-04-11T07:32:21.999Z</time></trkpt><trkpt lat="40.28905570740025" lon="9.371949480758994"><ele>232.0</ele><time>2026-04-11T07:32:22.999Z</time></trkpt><trkpt lat="40.28896853336688" lon="9.372061158594597"><ele>231.0</ele><time>2026-04-11T07:32:23.999Z</time></trkpt><trkpt lat="40.28887923846731" lon="9.372167825849978"><ele>230.0</ele><time>2026-04-11T07:32:24.999Z</time></trkpt><trkpt lat="40.28878721764773" lon="9.372271689722151"><ele>229.0</ele><time>2026-04-11T07:32:25.999Z</time></trkpt><trkpt lat="40.28869692138758" lon="9.372373463250993"><ele>228.0</ele><time>2026-04-11T07:32:26.999Z</time></trkpt><trkpt lat="40.288606627446036" lon="9.372477510577966"><ele>227.25</ele><time>2026-04-11T07:32:27.999Z</time></trkpt><trkpt lat="40.28851682978087" lon="9.372579874596317"><ele>226.5</ele><time>2026-04-11T07:32:28.999Z</time></trkpt><trkpt lat="40.28843189800537" lon="9.372683693772574"><ele>225.75</ele><time>2026-04-11T07:32:29.999Z</time></trkpt><trkpt lat="40.288350450679374" lon="9.372791389479204"><ele>225.0</ele><time>2026-04-11T07:32:30.999Z</time></trkpt><trkpt lat="40.28827474776688" lon="9.372906890597532"><ele>223.75</ele><time>2026-04-11T07:32:31.999Z</time></trkpt><trkpt lat="40.28820394575112" lon="9.373028117426706"><ele>222.5</ele><time>2026-04-11T07:32:32.999Z</time></trkpt><trkpt lat="40.288134580691064" lon="9.373150864570645"><ele>221.25</ele><time>2026-04-11T07:32:33.999Z</time></trkpt><trkpt lat="40.28806876105683" lon="9.373278743648411"><ele>220.0</ele><time>2026-04-11T07:32:34.999Z</time></trkpt><trkpt lat="40.28800754837841" lon="9.373412927856057"><ele>220.0</ele><time>2026-04-11T07:32:35.999Z</time></trkpt><trkpt lat="40.28794807641301" lon="9.37355311154342"><ele>220.0</ele><time>2026-04-11T07:32:36.999Z</time></trkpt><trkpt lat="40.28789353369932" lon="9.37369481963774"><ele>220.0</ele><time>2026-04-11T07:32:37.999Z</time></trkpt><trkpt lat="40.287843574961705" lon="9.373844910227433"><ele>220.0</ele><time>2026-04-11T07:32:38.999Z</time></trkpt><trkpt lat="40.287800567047334" lon="9.373999040864526"><ele>219.0</ele><time>2026-04-11T07:32:39.999Z</time></trkpt><trkpt lat="40.28776127276317" lon="9.374159841176187"><ele>218.0</ele><time>2026-04-11T07:32:40.999Z</time></trkpt><trkpt lat="40.28772758239518" lon="9.374322722211883"><ele>217.0</ele><time>2026-04-11T07:32:41.999Z</time></trkpt><trkpt lat="40.28769752978081" lon="9.374489567048725"><ele>216.0</ele><time>2026-04-11T07:32:42.999Z</time></trkpt><trkpt lat="40.2876735799473" lon="9.374661465400134"><ele>215.25</ele><time>2026-04-11T07:32:43.999Z</time></trkpt><trkpt lat="40.28765770685618" lon="9.37483539953887"><ele>214.5</ele><time>2026-04-11T07:32:44.999Z</time></trkpt><trkpt lat="40.287641089334656" lon="9.375009889440518"><ele>213.75</ele><time>2026-04-11T07:32:45.999Z</time></trkpt><trkpt lat="40.28762211544487" lon="9.37519024191062"><ele>213.0</ele><time>2026-04-11T07:32:46.999Z</time></trkpt><trkpt lat="40.28760162590207" lon="9.375371573784081"><ele>212.5</ele><time>2026-04-11T07:32:47.999Z</time></trkpt><trkpt lat="40.28758017854468" lon="9.375551028570497"><ele>212.0</ele><time>2026-04-11T07:32:48.999Z</time></trkpt><trkpt lat="40.28756408867675" lon="9.37572935067893"><ele>211.5</ele><time>2026-04-11T07:32:49.999Z</time></trkpt><trkpt lat="40.28756023637788" lon="9.375911985523823"><ele>211.0</ele><time>2026-04-11T07:32:50.999Z</time></trkpt><trkpt lat="40.28757362809111" lon="9.37609782610568"><ele>211.0</ele><time>2026-04-11T07:32:51.999Z</time></trkpt><trkpt lat="40.28759482541989" lon="9.376280829236359"><ele>211.0</ele><time>2026-04-11T07:32:52.999Z</time></trkpt><trkpt lat="40.287620339719474" lon="9.376462687661322"><ele>211.0</ele><time>2026-04-11T07:32:53.999Z</time></trkpt><trkpt lat="40.2876414951994" lon="9.376646499606133"><ele>211.0</ele><time>2026-04-11T07:32:54.999Z</time></trkpt><trkpt lat="40.28766183325111" lon="9.376837934785017"><ele>209.66666666666666</ele><time>2026-04-11T07:32:55.999Z</time></trkpt><trkpt lat="40.28767913084592" lon="9.377029702757909"><ele>208.33333333333331</ele><time>2026-04-11T07:32:56.999Z</time></trkpt><trkpt lat="40.28769856340838" lon="9.377220291272863"><ele>207.0</ele><time>2026-04-11T07:32:57.999Z</time></trkpt><trkpt lat="40.28772112745375" lon="9.377437471280851"><ele>207.33333333333331</ele><time>2026-04-11T07:32:58.999Z</time></trkpt><trkpt lat="40.28773875268182" lon="9.377639434756603"><ele>207.66666666666666</ele><time>2026-04-11T07:32:59.999Z</time></trkpt><trkpt lat="40.287760407099576" lon="9.37785826166841"><ele>208.0</ele><time>2026-04-11T07:33:00.999Z</time></trkpt><trkpt lat="40.28777616306932" lon="9.378076158281033"><ele>208.0</ele><time>2026-04-11T07:33:01.999Z</time></trkpt><trkpt lat="40.28777780245308" lon="9.37829051157767"><ele>208.0</ele><time>2026-04-11T07:33:02.999Z</time></trkpt><trkpt lat="40.28776396697191" lon="9.378503149108003"><ele>208.0</ele><time>2026-04-11T07:33:03.999Z</time></trkpt><trkpt lat="40.28773943042495" lon="9.378710593085437"><ele>209.0</ele><time>2026-04-11T07:33:04.999Z</time></trkpt><trkpt lat="40.28770781672499" lon="9.378914854193502"><ele>210.0</ele><time>2026-04-11T07:33:05.999Z</time></trkpt><trkpt lat="40.28767023170259" lon="9.379118317764123"><ele>211.0</ele><time>2026-04-11T07:33:06.999Z</time></trkpt><trkpt lat="40.28762501972775" lon="9.37931695644384"><ele>211.0</ele><time>2026-04-11T07:33:07.999Z</time></trkpt><trkpt lat="40.28757833475678" lon="9.379509804821978"><ele>211.0</ele><time>2026-04-11T07:33:08.999Z</time></trkpt><trkpt lat="40.28753431120895" lon="9.379703461706042"><ele>211.0</ele><time>2026-04-11T07:33:09.999Z</time></trkpt><trkpt lat="40.28749384165677" lon="9.379898801276624"><ele>212.0</ele><time>2026-04-11T07:33:10.999Z</time></trkpt><trkpt lat="40.28745501791533" lon="9.380094970785146"><ele>213.0</ele><time>2026-04-11T07:33:11.999Z</time></trkpt><trkpt lat="40.28741998915629" lon="9.380293131511765"><ele>214.0</ele><time>2026-04-11T07:33:12.999Z</time></trkpt><trkpt lat="40.28738419466431" lon="9.380485377926268"><ele>215.33333333333331</ele><time>2026-04-11T07:33:13.999Z</time></trkpt><trkpt lat="40.287349759515756" lon="9.38067588260635"><ele>216.66666666666669</ele><time>2026-04-11T07:33:14.999Z</time></trkpt><trkpt lat="40.287317500842036" lon="9.38087203626851"><ele>218.0</ele><time>2026-04-11T07:33:15.999Z</time></trkpt><trkpt lat="40.28728784231592" lon="9.381069692290817"><ele>218.0</ele><time>2026-04-11T07:33:17Z</time></trkpt><trkpt lat="40.28726203899601" lon="9.3812725589147"><ele>218.0</ele><time>2026-04-11T07:33:18Z</time></trkpt><trkpt lat="40.287237526327765" lon="9.38147635838941"><ele>218.0</ele><time>2026-04-11T07:33:19Z</time></trkpt><trkpt lat="40.28721794453323" lon="9.381684210337491"><ele>219.66666666666669</ele><time>2026-04-11T07:33:20Z</time></trkpt><trkpt lat="40.28719585975499" lon="9.381886087234086"><ele>221.33333333333331</ele><time>2026-04-11T07:33:21Z</time></trkpt><trkpt lat="40.28717692633868" lon="9.382097297383917"><ele>223.0</ele><time>2026-04-11T07:33:22Z</time></trkpt><trkpt lat="40.28716058825632" lon="9.382309237636443"><ele>223.33333333333331</ele><time>2026-04-11T07:33:23Z</time></trkpt><trkpt lat="40.287144969980965" lon="9.382511757960645"><ele>223.66666666666669</ele><time>2026-04-11T07:33:24Z</time></trkpt><trkpt lat="40.28712970882835" lon="9.38271037972575"><ele>224.0</ele><time>2026-04-11T07:33:25Z</time></trkpt><trkpt lat="40.28711625679843" lon="9.382909900160065"><ele>224.0</ele><time>2026-04-11T07:33:26Z</time></trkpt><trkpt lat="40.28710770185648" lon="9.383110111285152"><ele>224.0</ele><time>2026-04-11T07:33:27Z</time></trkpt><trkpt lat="40.287103117822724" lon="9.383308226563114"><ele>224.0</ele><time>2026-04-11T07:33:28Z</time></trkpt><trkpt lat="40.28710111249014" lon="9.38351182724458"><ele>224.0</ele><time>2026-04-11T07:33:29Z</time></trkpt><trkpt lat="40.28710302419345" lon="9.383717885368265"><ele>224.0</ele><time>2026-04-11T07:33:30Z</time></trkpt><trkpt lat="40.28710604917067" lon="9.383925783253279"><ele>224.0</ele><time>2026-04-11T07:33:31Z</time></trkpt><trkpt lat="40.28711269915469" lon="9.384129259399177"><ele>225.0</ele><time>2026-04-11T07:33:32Z</time></trkpt><trkpt lat="40.28712308120875" lon="9.384330082913294"><ele>226.0</ele><time>2026-04-11T07:33:33Z</time></trkpt><trkpt lat="40.28713672492238" lon="9.384532891502156"><ele>227.0</ele><time>2026-04-11T07:33:34Z</time></trkpt><trkpt lat="40.287153618050446" lon="9.384737025996936"><ele>227.33333333333334</ele><time>2026-04-11T07:33:35Z</time></trkpt><trkpt lat="40.2871730300869" lon="9.384938774994882"><ele>227.66666666666669</ele><time>2026-04-11T07:33:36Z</time></trkpt><trkpt lat="40.287192453384215" lon="9.38514160135455"><ele>228.0</ele><time>2026-04-11T07:33:37Z</time></trkpt><trkpt lat="40.28721085321484" lon="9.385343355131944"><ele>228.66666666666669</ele><time>2026-04-11T07:33:38Z</time></trkpt><trkpt lat="40.28723110419623" lon="9.385552521690121"><ele>229.33333333333334</ele><time>2026-04-11T07:33:39Z</time></trkpt><trkpt lat="40.28725270277823" lon="9.38575856835147"><ele>230.0</ele><time>2026-04-11T07:33:40Z</time></trkpt><trkpt lat="40.28727449214803" lon="9.385960720597799"><ele>230.0</ele><time>2026-04-11T07:33:41Z</time></trkpt><trkpt lat="40.28729650686865" lon="9.386165272133887"><ele>230.0</ele><time>2026-04-11T07:33:42Z</time></trkpt><trkpt lat="40.28731855530517" lon="9.386375547395831"><ele>230.0</ele><time>2026-04-11T07:33:43Z</time></trkpt><trkpt lat="40.287339903498726" lon="9.386584810607799"><ele>230.66666666666669</ele><time>2026-04-11T07:33:44Z</time></trkpt><trkpt lat="40.28736178819829" lon="9.38679464760048"><ele>231.33333333333331</ele><time>2026-04-11T07:33:45Z</time></trkpt><trkpt lat="40.28738302485829" lon="9.387005429552774"><ele>232.0</ele><time>2026-04-11T07:33:46Z</time></trkpt><trkpt lat="40.287401180611845" lon="9.387220284815568"><ele>232.33333333333331</ele><time>2026-04-11T07:33:47Z</time></trkpt><trkpt lat="40.287414491361304" lon="9.38743722033359"><ele>232.66666666666669</ele><time>2026-04-11T07:33:48Z</time></trkpt><trkpt lat="40.28741449112085" lon="9.387654404286192"><ele>233.0</ele><time>2026-04-11T07:33:49Z</time></trkpt><trkpt lat="40.2874032425995" lon="9.387871856937753"><ele>233.66666666666669</ele><time>2026-04-11T07:33:50Z</time></trkpt><trkpt lat="40.28738258718724" lon="9.388099140457419"><ele>234.33333333333331</ele><time>2026-04-11T07:33:51Z</time></trkpt><trkpt lat="40.28735054574767" lon="9.388325373657722"><ele>235.0</ele><time>2026-04-11T07:33:52Z</time></trkpt><trkpt lat="40.28730583946555" lon="9.388561177471393"><ele>236.0</ele><time>2026-04-11T07:33:53Z</time></trkpt><trkpt lat="40.28725081192833" lon="9.388799327103465"><ele>237.0</ele><time>2026-04-11T07:33:54Z</time></trkpt><trkpt lat="40.287164821942824" lon="9.389020601968015"><ele>238.0</ele><time>2026-04-11T07:33:55Z</time></trkpt><trkpt lat="40.28711953120172" lon="9.38913762112163"><ele>238.0</ele><time>2026-04-11T07:33:56Z</time></trkpt><trkpt lat="40.287036503830734" lon="9.389322515119673"><ele>238.0</ele><time>2026-04-11T07:33:57Z</time></trkpt><trkpt lat="40.28694536017558" lon="9.38950163011624"><ele>238.0</ele><time>2026-04-11T07:33:58Z</time></trkpt><trkpt lat="40.28685365116327" lon="9.389669035800031"><ele>239.33333333333331</ele><time>2026-04-11T07:33:59Z</time></trkpt><trkpt lat="40.286747021509996" lon="9.389820347670259"><ele>240.66666666666669</ele><time>2026-04-11T07:34:00Z</time></trkpt><trkpt lat="40.28664807205333" lon="9.389974184773065"><ele>242.0</ele><time>2026-04-11T07:34:01Z</time></trkpt><trkpt lat="40.28652173699141" lon="9.390090898142564"><ele>242.33333333333334</ele><time>2026-04-11T07:34:02Z</time></trkpt><trkpt lat="40.286407544479005" lon="9.390223494167438"><ele>242.66666666666669</ele><time>2026-04-11T07:34:03Z</time></trkpt><trkpt lat="40.286274705558185" lon="9.390342633959962"><ele>243.0</ele><time>2026-04-11T07:34:04Z</time></trkpt><trkpt lat="40.28614596287414" lon="9.390454896379483"><ele>244.0</ele><time>2026-04-11T07:34:05Z</time></trkpt><trkpt lat="40.28602576854001" lon="9.390584351675754"><ele>245.0</ele><time>2026-04-11T07:34:06Z</time></trkpt><trkpt lat="40.2859268330548" lon="9.390741755916839"><ele>246.0</ele><time>2026-04-11T07:34:07Z</time></trkpt><trkpt lat="40.285836863612076" lon="9.390908613531987"><ele>246.0</ele><time>2026-04-11T07:34:08Z</time></trkpt><trkpt lat="40.28575560080948" lon="9.391084687848215"><ele>246.0</ele><time>2026-04-11T07:34:09Z</time></trkpt><trkpt lat="40.28567671826887" lon="9.39126945872217"><ele>246.0</ele><time>2026-04-11T07:34:10Z</time></trkpt><trkpt lat="40.28559899416595" lon="9.391458029921889"><ele>246.66666666666669</ele><time>2026-04-11T07:34:11Z</time></trkpt><trkpt lat="40.285518158088095" lon="9.391640956372822"><ele>247.33333333333334</ele><time>2026-04-11T07:34:12Z</time></trkpt><trkpt lat="40.28543332662251" lon="9.391816938128805"><ele>248.0</ele><time>2026-04-11T07:34:12.999Z</time></trkpt><trkpt lat="40.28535083695836" lon="9.391985246219377"><ele>248.0</ele><time>2026-04-11T07:34:13.999Z</time></trkpt><trkpt lat="40.285270548205084" lon="9.39216307942446"><ele>248.0</ele><time>2026-04-11T07:34:14.999Z</time></trkpt><trkpt lat="40.28520125341801" lon="9.392342014532622"><ele>248.0</ele><time>2026-04-11T07:34:15.999Z</time></trkpt><trkpt lat="40.28514379998199" lon="9.39252576221392"><ele>248.75</ele><time>2026-04-11T07:34:16.999Z</time></trkpt><trkpt lat="40.28511434786737" lon="9.392721838015623"><ele>249.5</ele><time>2026-04-11T07:34:17.999Z</time></trkpt><trkpt lat="40.285094134354836" lon="9.392907236927998"><ele>250.25</ele><time>2026-04-11T07:34:18.999Z</time></trkpt><trkpt lat="40.285077922324845" lon="9.393100435804168"><ele>251.0</ele><time>2026-04-11T07:34:19.999Z</time></trkpt><trkpt lat="40.285058280025936" lon="9.393291027484148"><ele>252.66666666666669</ele><time>2026-04-11T07:34:20.999Z</time></trkpt><trkpt lat="40.28503091985602" lon="9.39349476699294"><ele>254.33333333333331</ele><time>2026-04-11T07:34:21.999Z</time></trkpt><trkpt lat="40.284996345250484" lon="9.393698809547107"><ele>256.0</ele><time>2026-04-11T07:34:22.999Z</time></trkpt><trkpt lat="40.284954194849846" lon="9.393902730411487"><ele>258.3333333333333</ele><time>2026-04-11T07:34:23.999Z</time></trkpt><trkpt lat="40.28490905557802" lon="9.3941110062492"><ele>260.6666666666667</ele><time>2026-04-11T07:34:24.999Z</time></trkpt><trkpt lat="40.284861233717336" lon="9.394309960074311"><ele>263.0</ele><time>2026-04-11T07:34:25.999Z</time></trkpt><trkpt lat="40.28480389123745" lon="9.394515721187782"><ele>264.6666666666667</ele><time>2026-04-11T07:34:26.999Z</time></trkpt><trkpt lat="40.28474474863012" lon="9.394708153544736"><ele>266.3333333333333</ele><time>2026-04-11T07:34:27.999Z</time></trkpt><trkpt lat="40.284681623382966" lon="9.394901109114857"><ele>268.0</ele><time>2026-04-11T07:34:28.999Z</time></trkpt><trkpt lat="40.284612603968306" lon="9.395093598723172"><ele>268.0</ele><time>2026-04-11T07:34:29.999Z</time></trkpt><trkpt lat="40.28453936020629" lon="9.39528102528727"><ele>268.0</ele><time>2026-04-11T07:34:30.999Z</time></trkpt><trkpt lat="40.284467875116526" lon="9.39545710560025"><ele>268.0</ele><time>2026-04-11T07:34:31.999Z</time></trkpt><trkpt lat="40.28438674016409" lon="9.395621639001856"><ele>268.0</ele><time>2026-04-11T07:34:32.999Z</time></trkpt><trkpt lat="40.28429675836191" lon="9.395772208981757"><ele>268.0</ele><time>2026-04-11T07:34:33.999Z</time></trkpt><trkpt lat="40.284203757388006" lon="9.395912549861883"><ele>268.0</ele><time>2026-04-11T07:34:34.999Z</time></trkpt><trkpt lat="40.28410763067156" lon="9.396040802671154"><ele>268.0</ele><time>2026-04-11T07:34:35.999Z</time></trkpt><trkpt lat="40.28401645151068" lon="9.39617422479908"><ele>269.25</ele><time>2026-04-11T07:34:36.999Z</time></trkpt><trkpt lat="40.283929498453084" lon="9.396311603569085"><ele>270.5</ele><time>2026-04-11T07:34:37.999Z</time></trkpt><trkpt lat="40.28383696933335" lon="9.396443121681514"><ele>271.75</ele><time>2026-04-11T07:34:38.999Z</time></trkpt><trkpt lat="40.28373889727414" lon="9.396569137511438"><ele>273.0</ele><time>2026-04-11T07:34:39.999Z</time></trkpt><trkpt lat="40.28364644864418" lon="9.396688460181105"><ele>273.0</ele><time>2026-04-11T07:34:40.999Z</time></trkpt><trkpt lat="40.283557286079635" lon="9.396794366421995"><ele>273.0</ele><time>2026-04-11T07:34:41.999Z</time></trkpt><trkpt lat="40.283479307239965" lon="9.396891278545407"><ele>273.0</ele><time>2026-04-11T07:34:42.999Z</time></trkpt><trkpt lat="40.28340632208746" lon="9.39698390708541"><ele>273.0</ele><time>2026-04-11T07:34:43.999Z</time></trkpt><trkpt lat="40.28333572653669" lon="9.397078758074631"><ele>273.0</ele><time>2026-04-11T07:34:44.999Z</time></trkpt><trkpt lat="40.283256695951266" lon="9.397179744416086"><ele>272.25</ele><time>2026-04-11T07:34:45.999Z</time></trkpt><trkpt lat="40.28316955618504" lon="9.397282033627507"><ele>271.5</ele><time>2026-04-11T07:34:46.999Z</time></trkpt><trkpt lat="40.28307457105582" lon="9.397384478629512"><ele>270.75</ele><time>2026-04-11T07:34:47.999Z</time></trkpt><trkpt lat="40.28297702118678" lon="9.397487772994701"><ele>270.0</ele><time>2026-04-11T07:34:48.999Z</time></trkpt><trkpt lat="40.28287767039279" lon="9.39759008949662"><ele>271.75</ele><time>2026-04-11T07:34:49.999Z</time></trkpt><trkpt lat="40.282774435545754" lon="9.397686487799351"><ele>273.5</ele><time>2026-04-11T07:34:50.999Z</time></trkpt><trkpt lat="40.28266984514666" lon="9.397771356434838"><ele>275.25</ele><time>2026-04-11T07:34:51.999Z</time></trkpt><trkpt lat="40.28257047785441" lon="9.397834072177107"><ele>277.0</ele><time>2026-04-11T07:34:52.999Z</time></trkpt><trkpt lat="40.28247627642509" lon="9.397887989929835"><ele>277.0</ele><time>2026-04-11T07:34:53.999Z</time></trkpt><trkpt lat="40.28239085112095" lon="9.397936956993435"><ele>277.0</ele><time>2026-04-11T07:34:54.999Z</time></trkpt><trkpt lat="40.28230462700932" lon="9.39799172138381"><ele>277.0</ele><time>2026-04-11T07:34:55.999Z</time></trkpt><trkpt lat="40.28222245867368" lon="9.39804593920032"><ele>277.0</ele><time>2026-04-11T07:34:56.999Z</time></trkpt><trkpt lat="40.28212584741013" lon="9.398114292214771"><ele>277.0</ele><time>2026-04-11T07:34:57.999Z</time></trkpt><trkpt lat="40.282023425235565" lon="9.398187819387537"><ele>276.8</ele><time>2026-04-11T07:34:58.999Z</time></trkpt><trkpt lat="40.28192520064754" lon="9.398249129142142"><ele>276.6</ele><time>2026-04-11T07:34:59.999Z</time></trkpt><trkpt lat="40.28183439613686" lon="9.398301419427243"><ele>276.40000000000003</ele><time>2026-04-11T07:35:00.999Z</time></trkpt><trkpt lat="40.28174645561814" lon="9.398356748771183"><ele>276.2</ele><time>2026-04-11T07:35:01.999Z</time></trkpt><trkpt lat="40.28165966103494" lon="9.398410139950778"><ele>276.0</ele><time>2026-04-11T07:35:02.999Z</time></trkpt><trkpt lat="40.281567929371924" lon="9.398469557050179"><ele>276.0</ele><time>2026-04-11T07:35:03.999Z</time></trkpt><trkpt lat="40.28147577829768" lon="9.398524669700995"><ele>276.0</ele><time>2026-04-11T07:35:04.999Z</time></trkpt><trkpt lat="40.28138099348017" lon="9.398573059518696"><ele>276.0</ele><time>2026-04-11T07:35:05.999Z</time></trkpt><trkpt lat="40.28128688496452" lon="9.398613249152811"><ele>276.0</ele><time>2026-04-11T07:35:06.999Z</time></trkpt><trkpt lat="40.28118771605036" lon="9.39865814793726"><ele>276.0</ele><time>2026-04-11T07:35:07.999Z</time></trkpt><trkpt lat="40.28109463031442" lon="9.398702466599811"><ele>275.8</ele><time>2026-04-11T07:35:08.999Z</time></trkpt><trkpt lat="40.28100329326934" lon="9.398746139375344"><ele>275.6</ele><time>2026-04-11T07:35:09.999Z</time></trkpt><trkpt lat="40.28091870513092" lon="9.398785118460498"><ele>275.4</ele><time>2026-04-11T07:35:10.999Z</time></trkpt><trkpt lat="40.28082616508088" lon="9.398822624655825"><ele>275.2</ele><time>2026-04-11T07:35:11.999Z</time></trkpt><trkpt lat="40.280755394727834" lon="9.398856498904106"><ele>275.0</ele><time>2026-04-11T07:35:12.999Z</time></trkpt><trkpt lat="40.280669536653434" lon="9.398895119744699"><ele>276.6</ele><time>2026-04-11T07:35:13.999Z</time></trkpt><trkpt lat="40.28058481793197" lon="9.398938738586448"><ele>278.2</ele><time>2026-04-11T07:35:14.999Z</time></trkpt><trkpt lat="40.280502671688375" lon="9.398987187796942"><ele>279.8</ele><time>2026-04-11T07:35:15.999Z</time></trkpt><trkpt lat="40.28042043078805" lon="9.399038717928697"><ele>281.4</ele><time>2026-04-11T07:35:16.999Z</time></trkpt><trkpt lat="40.28033875891945" lon="9.399090367792521"><ele>283.0</ele><time>2026-04-11T07:35:17.999Z</time></trkpt><trkpt lat="40.28025474455309" lon="9.399145801196951"><ele>283.0</ele><time>2026-04-11T07:35:18.999Z</time></trkpt><trkpt lat="40.28017583955213" lon="9.399213591702784"><ele>283.0</ele><time>2026-04-11T07:35:19.999Z</time></trkpt><trkpt lat="40.2800972153775" lon="9.399285101085882"><ele>283.0</ele><time>2026-04-11T07:35:20.999Z</time></trkpt><trkpt lat="40.280019401329746" lon="9.399358882037394"><ele>283.0</ele><time>2026-04-11T07:35:22Z</time></trkpt><trkpt lat="40.2799473591032" lon="9.39943830374771"><ele>283.0</ele><time>2026-04-11T07:35:23Z</time></trkpt><trkpt lat="40.279887344716194" lon="9.399515243719945"><ele>283.0</ele><time>2026-04-11T07:35:24Z</time></trkpt><trkpt lat="40.2798223893735" lon="9.399596810589522"><ele>283.0</ele><time>2026-04-11T07:35:25Z</time></trkpt><trkpt lat="40.279765837308375" lon="9.39966197201166"><ele>283.0</ele><time>2026-04-11T07:35:26Z</time></trkpt><trkpt lat="40.279709315225084" lon="9.39972415411863"><ele>283.0</ele><time>2026-04-11T07:35:27Z</time></trkpt><trkpt lat="40.2796448993216" lon="9.399781889857588"><ele>283.0</ele><time>2026-04-11T07:35:28Z</time></trkpt><trkpt lat="40.27958321158599" lon="9.399841150600329"><ele>283.0</ele><time>2026-04-11T07:35:29Z</time></trkpt><trkpt lat="40.27952472453118" lon="9.39989084332909"><ele>284.0</ele><time>2026-04-11T07:35:30Z</time></trkpt><trkpt lat="40.2794595291541" lon="9.399952439120765"><ele>285.0</ele><time>2026-04-11T07:35:31Z</time></trkpt><trkpt lat="40.27939802175351" lon="9.400016727620796"><ele>286.0</ele><time>2026-04-11T07:35:32Z</time></trkpt><trkpt lat="40.27932365400082" lon="9.400080830961759"><ele>287.0</ele><time>2026-04-11T07:35:33Z</time></trkpt><trkpt lat="40.27923757601806" lon="9.400134419522816"><ele>288.0</ele><time>2026-04-11T07:35:34Z</time></trkpt><trkpt lat="40.279151587587485" lon="9.400192447840606"><ele>289.0</ele><time>2026-04-11T07:35:35Z</time></trkpt><trkpt lat="40.27907190088067" lon="9.400243921211588"><ele>289.0</ele><time>2026-04-11T07:35:36Z</time></trkpt><trkpt lat="40.27899267233452" lon="9.400289061158091"><ele>289.0</ele><time>2026-04-11T07:35:37Z</time></trkpt><trkpt lat="40.27892211633159" lon="9.400333515141424"><ele>289.0</ele><time>2026-04-11T07:35:38Z</time></trkpt><trkpt lat="40.278854787461825" lon="9.400379764226452"><ele>289.0</ele><time>2026-04-11T07:35:39Z</time></trkpt><trkpt lat="40.27878288644123" lon="9.400427892137687"><ele>289.0</ele><time>2026-04-11T07:35:40Z</time></trkpt><trkpt lat="40.27871713226923" lon="9.400469309652816"><ele>289.0</ele><time>2026-04-11T07:35:41Z</time></trkpt><trkpt lat="40.2786459956848" lon="9.400513151048242"><ele>290.16666666666663</ele><time>2026-04-11T07:35:42Z</time></trkpt><trkpt lat="40.278571766363584" lon="9.400559655348545"><ele>291.3333333333333</ele><time>2026-04-11T07:35:43Z</time></trkpt><trkpt lat="40.27849497859158" lon="9.400616350167656"><ele>292.5</ele><time>2026-04-11T07:35:44Z</time></trkpt><trkpt lat="40.27841969080208" lon="9.400678028557323"><ele>293.6666666666667</ele><time>2026-04-11T07:35:45Z</time></trkpt><trkpt lat="40.27834762070262" lon="9.400744972701789"><ele>294.83333333333337</ele><time>2026-04-11T07:35:46Z</time></trkpt><trkpt lat="40.27828036454116" lon="9.400806100526676"><ele>296.0</ele><time>2026-04-11T07:35:47Z</time></trkpt><trkpt lat="40.27822318777138" lon="9.40087560643914"><ele>296.0</ele><time>2026-04-11T07:35:48Z</time></trkpt><trkpt lat="40.27814881119517" lon="9.400937428428714"><ele>296.0</ele><time>2026-04-11T07:35:49Z</time></trkpt><trkpt lat="40.27808241465685" lon="9.401001860562264"><ele>296.0</ele><time>2026-04-11T07:35:50Z</time></trkpt><trkpt lat="40.2780176681961" lon="9.401066162264213"><ele>296.0</ele><time>2026-04-11T07:35:51Z</time></trkpt><trkpt lat="40.27794082588543" lon="9.401119700227472"><ele>296.0</ele><time>2026-04-11T07:35:52Z</time></trkpt><trkpt lat="40.277878578027725" lon="9.401183658133032"><ele>296.0</ele><time>2026-04-11T07:35:53Z</time></trkpt><trkpt lat="40.27780654324985" lon="9.401244423557584"><ele>297.1666666666667</ele><time>2026-04-11T07:35:54Z</time></trkpt><trkpt lat="40.277732200549586" lon="9.401295624203556"><ele>298.33333333333337</ele><time>2026-04-11T07:35:55Z</time></trkpt><trkpt lat="40.27765801532863" lon="9.401349527270758"><ele>299.5</ele><time>2026-04-11T07:35:56Z</time></trkpt><trkpt lat="40.27758397498078" lon="9.40139506858829"><ele>300.6666666666667</ele><time>2026-04-11T07:35:57Z</time></trkpt><trkpt lat="40.27750126017488" lon="9.4014187728345"><ele>301.8333333333333</ele><time>2026-04-11T07:35:58Z</time></trkpt><trkpt lat="40.27743042330979" lon="9.401476783101124"><ele>303.0</ele><time>2026-04-11T07:35:59Z</time></trkpt><trkpt lat="40.277364392173894" lon="9.401507668642465"><ele>303.0</ele><time>2026-04-11T07:36:00Z</time></trkpt><trkpt lat="40.27728379525286" lon="9.401548634635212"><ele>303.0</ele><time>2026-04-11T07:36:02Z</time></trkpt><trkpt lat="40.27720884484754" lon="9.40158660449202"><ele>303.0</ele><time>2026-04-11T07:36:04Z</time></trkpt><trkpt lat="40.277120324475156" lon="9.40163468312765"><ele>303.0</ele><time>2026-04-11T07:36:06Z</time></trkpt><trkpt lat="40.27702298438114" lon="9.401689157533571"><ele>303.0</ele><time>2026-04-11T07:36:08Z</time></trkpt><trkpt lat="40.27691945749852" lon="9.401746717233241"><ele>304.1666666666667</ele><time>2026-04-11T07:36:10Z</time></trkpt><trkpt lat="40.27684902031139" lon="9.401773956722801"><ele>305.3333333333333</ele><time>2026-04-11T07:36:11Z</time></trkpt><trkpt lat="40.27676728575219" lon="9.401812455731399"><ele>306.5</ele><time>2026-04-11T07:36:12Z</time></trkpt><trkpt lat="40.27669744961385" lon="9.401851655642858"><ele>307.66666666666663</ele><time>2026-04-11T07:36:13Z</time></trkpt><trkpt lat="40.27662149299624" lon="9.401887387880782"><ele>308.8333333333333</ele><time>2026-04-11T07:36:14Z</time></trkpt><trkpt lat="40.27653545787246" lon="9.401931373256142"><ele>310.0</ele><time>2026-04-11T07:36:15Z</time></trkpt><trkpt lat="40.27644592258499" lon="9.401985329616618"><ele>311.4</ele><time>2026-04-11T07:36:16Z</time></trkpt><trkpt lat="40.27636058402285" lon="9.402045763933852"><ele>312.8</ele><time>2026-04-11T07:36:17Z</time></trkpt><trkpt lat="40.27629071226572" lon="9.40212357933674"><ele>314.2</ele><time>2026-04-11T07:36:18Z</time></trkpt><trkpt lat="40.27624272052286" lon="9.40223621031957"><ele>315.6</ele><time>2026-04-11T07:36:19Z</time></trkpt><trkpt lat="40.276230613832176" lon="9.40236015793585"><ele>317.0</ele><time>2026-04-11T07:36:19.999Z</time></trkpt><trkpt lat="40.27624040612564" lon="9.402485460266266"><ele>317.0</ele><time>2026-04-11T07:36:20.999Z</time></trkpt><trkpt lat="40.27627209169968" lon="9.402600729298907"><ele>317.0</ele><time>2026-04-11T07:36:21.999Z</time></trkpt><trkpt lat="40.276322515137856" lon="9.402701160507924"><ele>317.0</ele><time>2026-04-11T07:36:22.999Z</time></trkpt><trkpt lat="40.2763824110525" lon="9.402793675484343"><ele>317.0</ele><time>2026-04-11T07:36:23.999Z</time></trkpt><trkpt lat="40.276448778935396" lon="9.402874307866409"><ele>317.0</ele><time>2026-04-11T07:36:24.999Z</time></trkpt><trkpt lat="40.27650176106858" lon="9.40295058514992"><ele>317.0</ele><time>2026-04-11T07:36:25.999Z</time></trkpt><trkpt lat="40.27654855770212" lon="9.403037741596055"><ele>317.0</ele><time>2026-04-11T07:36:26.999Z</time></trkpt><trkpt lat="40.27657967779643" lon="9.403133598563095"><ele>317.0</ele><time>2026-04-11T07:36:27.999Z</time></trkpt><trkpt lat="40.27658907416862" lon="9.403233378498332"><ele>317.0</ele><time>2026-04-11T07:36:28.999Z</time></trkpt><trkpt lat="40.27657007936295" lon="9.403325416711839"><ele>317.0</ele><time>2026-04-11T07:36:29.999Z</time></trkpt><trkpt lat="40.276520851760644" lon="9.403399317797765"><ele>317.0</ele><time>2026-04-11T07:36:30.999Z</time></trkpt><trkpt lat="40.276451018574775" lon="9.403446326623845"><ele>317.0</ele><time>2026-04-11T07:36:31.999Z</time></trkpt><trkpt lat="40.27637397389855" lon="9.403480411175833"><ele>318.6666666666667</ele><time>2026-04-11T07:36:32.999Z</time></trkpt><trkpt lat="40.2762954914735" lon="9.403515518669055"><ele>320.33333333333337</ele><time>2026-04-11T07:36:33.999Z</time></trkpt><trkpt lat="40.27621938677376" lon="9.403550509057425"><ele>322.0</ele><time>2026-04-11T07:36:34.999Z</time></trkpt><trkpt lat="40.27614402799819" lon="9.403593216685222"><ele>323.6666666666667</ele><time>2026-04-11T07:36:35.999Z</time></trkpt><trkpt lat="40.27607078591222" lon="9.403642587943633"><ele>325.3333333333333</ele><time>2026-04-11T07:36:36.999Z</time></trkpt><trkpt lat="40.27600344049644" lon="9.403695296623555"><ele>327.0</ele><time>2026-04-11T07:36:37.999Z</time></trkpt><trkpt lat="40.27592823948637" lon="9.403755437196104"><ele>327.0</ele><time>2026-04-11T07:36:38.999Z</time></trkpt><trkpt lat="40.27586506074546" lon="9.403827968736262"><ele>327.0</ele><time>2026-04-11T07:36:39.999Z</time></trkpt><trkpt lat="40.27579690264265" lon="9.403913009490816"><ele>327.0</ele><time>2026-04-11T07:36:40.999Z</time></trkpt><trkpt lat="40.27573776103864" lon="9.403984168009497"><ele>327.0</ele><time>2026-04-11T07:36:41.999Z</time></trkpt><trkpt lat="40.275671762486645" lon="9.404056779890862"><ele>327.0</ele><time>2026-04-11T07:36:42.999Z</time></trkpt><trkpt lat="40.27560393428989" lon="9.404135054982351"><ele>327.0</ele><time>2026-04-11T07:36:43.999Z</time></trkpt><trkpt lat="40.275535394517895" lon="9.40420626857466"><ele>329.0</ele><time>2026-04-11T07:36:44.999Z</time></trkpt><trkpt lat="40.27545366929551" lon="9.404258852786446"><ele>331.0</ele><time>2026-04-11T07:36:45.999Z</time></trkpt><trkpt lat="40.27536552267973" lon="9.404289761695223"><ele>333.0</ele><time>2026-04-11T07:36:46.999Z</time></trkpt><trkpt lat="40.275274934261965" lon="9.404318672265392"><ele>335.0</ele><time>2026-04-11T07:36:47.999Z</time></trkpt><trkpt lat="40.27519315990725" lon="9.404293744207806"><ele>337.0</ele><time>2026-04-11T07:36:48.999Z</time></trkpt><trkpt lat="40.27511227255102" lon="9.404303364935611"><ele>339.0</ele><time>2026-04-11T07:36:49.999Z</time></trkpt><trkpt lat="40.275040322284305" lon="9.404278745519617"><ele>339.0</ele><time>2026-04-11T07:36:50.999Z</time></trkpt><trkpt lat="40.27496758334995" lon="9.404292784148263"><ele>339.0</ele><time>2026-04-11T07:36:51.999Z</time></trkpt><trkpt lat="40.274901741758974" lon="9.404281847002556"><ele>339.0</ele><time>2026-04-11T07:36:52.999Z</time></trkpt><trkpt lat="40.27482491429195" lon="9.404267657718458"><ele>339.0</ele><time>2026-04-11T07:36:53.999Z</time></trkpt><trkpt lat="40.274739031327" lon="9.404250705176294"><ele>339.0</ele><time>2026-04-11T07:36:54.999Z</time></trkpt><trkpt lat="40.27466889906481" lon="9.404230581052479"><ele>339.0</ele><time>2026-04-11T07:36:55.999Z</time></trkpt><trkpt lat="40.27455796444739" lon="9.404234955893662"><ele>340.3333333333333</ele><time>2026-04-11T07:36:56.999Z</time></trkpt><trkpt lat="40.2744781569758" lon="9.404225225847238"><ele>341.6666666666667</ele><time>2026-04-11T07:36:57.999Z</time></trkpt><trkpt lat="40.274396278933516" lon="9.404215413079921"><ele>343.0</ele><time>2026-04-11T07:36:58.999Z</time></trkpt><trkpt lat="40.27432035063935" lon="9.404226494892658"><ele>344.33333333333337</ele><time>2026-04-11T07:36:59.999Z</time></trkpt><trkpt lat="40.274250054360195" lon="9.404264574046044"><ele>345.6666666666667</ele><time>2026-04-11T07:37:00.999Z</time></trkpt><trkpt lat="40.27418179585246" lon="9.4043223953754"><ele>347.0</ele><time>2026-04-11T07:37:01.999Z</time></trkpt><trkpt lat="40.27412196436824" lon="9.404386970269197"><ele>347.0</ele><time>2026-04-11T07:37:02.999Z</time></trkpt><trkpt lat="40.2740739305232" lon="9.40445036835862"><ele>347.0</ele><time>2026-04-11T07:37:03.999Z</time></trkpt><trkpt lat="40.274030541954026" lon="9.40452327968519"><ele>347.0</ele><time>2026-04-11T07:37:04.999Z</time></trkpt><trkpt lat="40.273985920677326" lon="9.404594719850158"><ele>347.0</ele><time>2026-04-11T07:37:05.999Z</time></trkpt><trkpt lat="40.27390434173732" lon="9.404711569584823"><ele>347.0</ele><time>2026-04-11T07:37:07.999Z</time></trkpt><trkpt lat="40.27384233389936" lon="9.404814375980715"><ele>347.0</ele><time>2026-04-11T07:37:09.999Z</time></trkpt><trkpt lat="40.273816787241074" lon="9.404908171754354"><ele>348.6</ele><time>2026-04-11T07:37:11.999Z</time></trkpt><trkpt lat="40.273778558455994" lon="9.405009916673242"><ele>350.20000000000005</ele><time>2026-04-11T07:37:13.999Z</time></trkpt><trkpt lat="40.27372976254742" lon="9.40510973571323"><ele>351.8</ele><time>2026-04-11T07:37:15.999Z</time></trkpt><trkpt lat="40.27367984246338" lon="9.405209176722158"><ele>353.4</ele><time>2026-04-11T07:37:17.999Z</time></trkpt><trkpt lat="40.27362350535914" lon="9.405309313003775"><ele>355.0</ele><time>2026-04-11T07:37:19.999Z</time></trkpt><trkpt lat="40.27355232914212" lon="9.405388756528785"><ele>355.0</ele><time>2026-04-11T07:37:21.999Z</time></trkpt><trkpt lat="40.27348916234268" lon="9.405476959199829"><ele>355.0</ele><time>2026-04-11T07:37:23.999Z</time></trkpt><trkpt lat="40.27342865924682" lon="9.405579627918907"><ele>355.0</ele><time>2026-04-11T07:37:25.999Z</time></trkpt><trkpt lat="40.27335874513844" lon="9.405672104353986"><ele>355.0</ele><time>2026-04-11T07:37:28Z</time></trkpt><trkpt lat="40.27328113245978" lon="9.40572179880404"><ele>355.0</ele><time>2026-04-11T07:37:30Z</time></trkpt><trkpt lat="40.27320962522904" lon="9.405751722853296"><ele>356.1428571428571</ele><time>2026-04-11T07:37:31Z</time></trkpt><trkpt lat="40.27313825252226" lon="9.405754449151473"><ele>357.2857142857143</ele><time>2026-04-11T07:37:32Z</time></trkpt><trkpt lat="40.27307003958237" lon="9.405765231968852"><ele>358.42857142857144</ele><time>2026-04-11T07:37:33Z</time></trkpt><trkpt lat="40.27300669716133" lon="9.405780435843463"><ele>359.57142857142856</ele><time>2026-04-11T07:37:34Z</time></trkpt><trkpt lat="40.27293117788705" lon="9.405816626350934"><ele>360.7142857142857</ele><time>2026-04-11T07:37:36Z</time></trkpt><trkpt lat="40.272871149766026" lon="9.405870494608413"><ele>361.85714285714283</ele><time>2026-04-11T07:37:37Z</time></trkpt><trkpt lat="40.272811705088564" lon="9.405916295359567"><ele>363.0</ele><time>2026-04-11T07:37:38Z</time></trkpt><trkpt lat="40.27274504883107" lon="9.405934180440456"><ele>363.4</ele><time>2026-04-11T07:37:39Z</time></trkpt><trkpt lat="40.27262159832898" lon="9.405935306505908"><ele>363.79999999999995</ele><time>2026-04-11T07:37:41Z</time></trkpt><trkpt lat="40.272556316120514" lon="9.405914292938935"><ele>364.2</ele><time>2026-04-11T07:37:42Z</time></trkpt><trkpt lat="40.27248606153044" lon="9.405913740124133"><ele>364.6</ele><time>2026-04-11T07:37:43Z</time></trkpt><trkpt lat="40.27242069502495" lon="9.405905092227016"><ele>365.0</ele><time>2026-04-11T07:37:44Z</time></trkpt><trkpt lat="40.27229515431114" lon="9.405891862004784"><ele>366.28571428571433</ele><time>2026-04-11T07:37:46Z</time></trkpt><trkpt lat="40.27223057720663" lon="9.405870448076847"><ele>367.57142857142856</ele><time>2026-04-11T07:37:47Z</time></trkpt><trkpt lat="40.272168765941835" lon="9.405851181090569"><ele>368.8571428571429</ele><time>2026-04-11T07:37:48Z</time></trkpt><trkpt lat="40.27210331221694" lon="9.40582088109725"><ele>370.14285714285717</ele><time>2026-04-11T07:37:49Z</time></trkpt><trkpt lat="40.27204035711046" lon="9.405789855074872"><ele>371.42857142857144</ele><time>2026-04-11T07:37:50Z</time></trkpt><trkpt lat="40.27198166703043" lon="9.405750083706863"><ele>372.7142857142857</ele><time>2026-04-11T07:37:51Z</time></trkpt><trkpt lat="40.27192490244002" lon="9.405707695571998"><ele>374.0</ele><time>2026-04-11T07:37:52Z</time></trkpt><trkpt lat="40.27186744614882" lon="9.405662345415402"><ele>374.0</ele><time>2026-04-11T07:37:53Z</time></trkpt><trkpt lat="40.271767068321175" lon="9.405556261748329"><ele>374.0</ele><time>2026-04-11T07:37:55Z</time></trkpt><trkpt lat="40.27169829044452" lon="9.405518575795115"><ele>374.0</ele><time>2026-04-11T07:37:56Z</time></trkpt><trkpt lat="40.27163746264855" lon="9.405468335884295"><ele>374.0</ele><time>2026-04-11T07:37:57Z</time></trkpt><trkpt lat="40.27158139859217" lon="9.405399902337454"><ele>374.0</ele><time>2026-04-11T07:37:58Z</time></trkpt><trkpt lat="40.271524555397235" lon="9.405351927011754"><ele>374.0</ele><time>2026-04-11T07:37:59Z</time></trkpt><trkpt lat="40.2714650296014" lon="9.405304378214463"><ele>375.0</ele><time>2026-04-11T07:38:00Z</time></trkpt><trkpt lat="40.271404661000375" lon="9.405256782525896"><ele>376.0</ele><time>2026-04-11T07:38:01Z</time></trkpt><trkpt lat="40.27134910731526" lon="9.405214278775642"><ele>377.0</ele><time>2026-04-11T07:38:02Z</time></trkpt><trkpt lat="40.27128752528891" lon="9.405172463821039"><ele>378.0</ele><time>2026-04-11T07:38:03Z</time></trkpt><trkpt lat="40.27120592457413" lon="9.40512185173921"><ele>379.0</ele><time>2026-04-11T07:38:05Z</time></trkpt><trkpt lat="40.27115789665896" lon="9.405036529928976"><ele>380.0</ele><time>2026-04-11T07:38:07Z</time></trkpt><trkpt lat="40.27111631332911" lon="9.404907725131409"><ele>380.0</ele><time>2026-04-11T07:38:09Z</time></trkpt><trkpt lat="40.271092905895316" lon="9.404752593875424"><ele>380.0</ele><time>2026-04-11T07:38:11Z</time></trkpt><trkpt lat="40.27104687654711" lon="9.404611700325098"><ele>380.0</ele><time>2026-04-11T07:38:13Z</time></trkpt><trkpt lat="40.27097369940987" lon="9.4045110919873"><ele>380.0</ele><time>2026-04-11T07:38:15Z</time></trkpt><trkpt lat="40.27087495894827" lon="9.404454806601535"><ele>379.8</ele><time>2026-04-11T07:38:17Z</time></trkpt><trkpt lat="40.270785586675416" lon="9.404411356421248"><ele>379.6</ele><time>2026-04-11T07:38:19Z</time></trkpt><trkpt lat="40.270679872812416" lon="9.404359960681388"><ele>379.4</ele><time>2026-04-11T07:38:21Z</time></trkpt><trkpt lat="40.27057555315811" lon="9.404309459159593"><ele>379.2</ele><time>2026-04-11T07:38:23Z</time></trkpt><trkpt lat="40.2704599155738" lon="9.404275443059998"><ele>379.0</ele><time>2026-04-11T07:38:25Z</time></trkpt><trkpt lat="40.27039847190966" lon="9.404247147219412"><ele>379.00000000000006</ele><time>2026-04-11T07:38:26Z</time></trkpt><trkpt lat="40.27034555597239" lon="9.40418639571912"><ele>379.0</ele><time>2026-04-11T07:38:27Z</time></trkpt><trkpt lat="40.270290520306645" lon="9.404141115058525"><ele>379.0</ele><time>2026-04-11T07:38:28Z</time></trkpt><trkpt lat="40.27026200824035" lon="9.404066943220059"><ele>379.0</ele><time>2026-04-11T07:38:29Z</time></trkpt><trkpt lat="40.27023579302287" lon="9.403982960720478"><ele>379.0</ele><time>2026-04-11T07:38:30Z</time></trkpt><trkpt lat="40.27021583460155" lon="9.403890328160658"><ele>379.00000000000006</ele><time>2026-04-11T07:38:31Z</time></trkpt><trkpt lat="40.27025498702987" lon="9.403800041856035"><ele>379.0</ele><time>2026-04-11T07:38:31.999Z</time></trkpt><trkpt lat="40.27028189252426" lon="9.403703735825319"><ele>379.0</ele><time>2026-04-11T07:38:32.999Z</time></trkpt><trkpt lat="40.270349526297984" lon="9.403647183969278"><ele>379.0</ele><time>2026-04-11T07:38:33.999Z</time></trkpt><trkpt lat="40.2704959155847" lon="9.403582882869213"><ele>379.0</ele><time>2026-04-11T07:38:35.999Z</time></trkpt><trkpt lat="40.2705609727164" lon="9.403547438049179"><ele>379.0</ele><time>2026-04-11T07:38:36.999Z</time></trkpt><trkpt lat="40.27061395383401" lon="9.40348277099299"><ele>379.0</ele><time>2026-04-11T07:38:37.999Z</time></trkpt><trkpt lat="40.27064913307038" lon="9.40339871577708"><ele>379.0</ele><time>2026-04-11T07:38:38.999Z</time></trkpt><trkpt lat="40.27065222266342" lon="9.403302672489097"><ele>379.0</ele><time>2026-04-11T07:38:39.999Z</time></trkpt><trkpt lat="40.270637467578645" lon="9.403207477889504"><ele>379.0</ele><time>2026-04-11T07:38:40.999Z</time></trkpt><trkpt lat="40.270627175254795" lon="9.40309183289959"><ele>379.0</ele><time>2026-04-11T07:38:42.999Z</time></trkpt><trkpt lat="40.27057185102463" lon="9.403007469140686"><ele>379.0</ele><time>2026-04-11T07:38:43.999Z</time></trkpt><trkpt lat="40.27050862378704" lon="9.402963044039039"><ele>379.0</ele><time>2026-04-11T07:38:44.999Z</time></trkpt><trkpt lat="40.27043299540126" lon="9.402966700209888"><ele>379.00000000000006</ele><time>2026-04-11T07:38:45.999Z</time></trkpt><trkpt lat="40.27036820925389" lon="9.40294879335222"><ele>379.0</ele><time>2026-04-11T07:38:46.999Z</time></trkpt><trkpt lat="40.27030670798819" lon="9.40292306396431"><ele>379.0</ele><time>2026-04-11T07:38:47.999Z</time></trkpt><trkpt lat="40.27024566721286" lon="9.40289125105513"><ele>379.0</ele><time>2026-04-11T07:38:48.999Z</time></trkpt><trkpt lat="40.27018673784984" lon="9.402845416322451"><ele>379.0</ele><time>2026-04-11T07:38:49.999Z</time></trkpt><trkpt lat="40.27014505385108" lon="9.402778586028676"><ele>379.00000000000006</ele><time>2026-04-11T07:38:50.999Z</time></trkpt><trkpt lat="40.27012178772443" lon="9.40269043048063"><ele>379.0</ele><time>2026-04-11T07:38:51.999Z</time></trkpt><trkpt lat="40.2701075638573" lon="9.402600736791742"><ele>379.00000000000006</ele><time>2026-04-11T07:38:52.999Z</time></trkpt><trkpt lat="40.27009915896878" lon="9.402516745329034"><ele>379.0</ele><time>2026-04-11T07:38:53.999Z</time></trkpt><trkpt lat="40.27008676355386" lon="9.402430049400925"><ele>379.0</ele><time>2026-04-11T07:38:54.999Z</time></trkpt><trkpt lat="40.270075143337884" lon="9.40234256078633"><ele>379.0</ele><time>2026-04-11T07:38:55.999Z</time></trkpt><trkpt lat="40.270069876505794" lon="9.402252911369828"><ele>379.0</ele><time>2026-04-11T07:38:56.999Z</time></trkpt><trkpt lat="40.270071390432065" lon="9.402165242830277"><ele>379.00000000000006</ele><time>2026-04-11T07:38:57.999Z</time></trkpt><trkpt lat="40.270076966034075" lon="9.40207604587351"><ele>379.0</ele><time>2026-04-11T07:38:58.999Z</time></trkpt><trkpt lat="40.270080621523384" lon="9.40198981791055"><ele>378.28571428571433</ele><time>2026-04-11T07:38:59.999Z</time></trkpt><trkpt lat="40.270081273444" lon="9.401904038249578"><ele>377.57142857142856</ele><time>2026-04-11T07:39:00.999Z</time></trkpt><trkpt lat="40.270081353973744" lon="9.401813076129002"><ele>376.8571428571429</ele><time>2026-04-11T07:39:01.999Z</time></trkpt><trkpt lat="40.27008136349209" lon="9.40172405153138"><ele>376.14285714285717</ele><time>2026-04-11T07:39:02.999Z</time></trkpt><trkpt lat="40.2700676303921" lon="9.401629276724659"><ele>375.42857142857144</ele><time>2026-04-11T07:39:03.999Z</time></trkpt><trkpt lat="40.27004085521072" lon="9.401535817605174"><ele>374.7142857142857</ele><time>2026-04-11T07:39:04.999Z</time></trkpt><trkpt lat="40.27000276867585" lon="9.401451398178219"><ele>374.0</ele><time>2026-04-11T07:39:05.999Z</time></trkpt><trkpt lat="40.2699615525148" lon="9.401368434598092"><ele>373.1666666666667</ele><time>2026-04-11T07:39:06.999Z</time></trkpt><trkpt lat="40.269917417757334" lon="9.401300086165609"><ele>372.33333333333337</ele><time>2026-04-11T07:39:07.999Z</time></trkpt><trkpt lat="40.26982903390464" lon="9.40123904136545"><ele>371.5</ele><time>2026-04-11T07:39:09.999Z</time></trkpt><trkpt lat="40.2697570776936" lon="9.40122884691568"><ele>370.6666666666667</ele><time>2026-04-11T07:39:11.999Z</time></trkpt><trkpt lat="40.26968236288667" lon="9.40120262848895"><ele>369.8333333333333</ele><time>2026-04-11T07:39:14.999Z</time></trkpt><trkpt lat="40.26957544515089" lon="9.401216252311388"><ele>369.0</ele><time>2026-04-11T07:39:17.999Z</time></trkpt><trkpt lat="40.26946783505304" lon="9.40120475395702"><ele>371.1666666666667</ele><time>2026-04-11T07:39:19.999Z</time></trkpt><trkpt lat="40.2693477199521" lon="9.401179264456594"><ele>373.3333333333333</ele><time>2026-04-11T07:39:21.999Z</time></trkpt><trkpt lat="40.26923374502853" lon="9.401127073954148"><ele>375.5</ele><time>2026-04-11T07:39:23.999Z</time></trkpt><trkpt lat="40.26918750561015" lon="9.401067956730632"><ele>377.66666666666663</ele><time>2026-04-11T07:39:24.999Z</time></trkpt><trkpt lat="40.26916096218401" lon="9.40098997093649"><ele>379.8333333333333</ele><time>2026-04-11T07:39:25.999Z</time></trkpt><trkpt lat="40.269145454148386" lon="9.40090276502093"><ele>382.0</ele><time>2026-04-11T07:39:26.999Z</time></trkpt><trkpt lat="40.26912520076348" lon="9.40081680580538"><ele>382.0</ele><time>2026-04-11T07:39:27.999Z</time></trkpt><trkpt lat="40.26910454517559" lon="9.40073347402541"><ele>382.0</ele><time>2026-04-11T07:39:28.999Z</time></trkpt><trkpt lat="40.26908508945221" lon="9.400652217992546"><ele>382.0</ele><time>2026-04-11T07:39:29.999Z</time></trkpt><trkpt lat="40.26907199001135" lon="9.400523447161703"><ele>382.0</ele><time>2026-04-11T07:39:31.999Z</time></trkpt><trkpt lat="40.26904773850467" lon="9.400436039776233"><ele>382.0</ele><time>2026-04-11T07:39:35Z</time></trkpt><trkpt lat="40.26898987448278" lon="9.400371360362294"><ele>382.0</ele><time>2026-04-11T07:39:36Z</time></trkpt><trkpt lat="40.26889599869675" lon="9.400315327310702"><ele>382.0</ele><time>2026-04-11T07:39:38Z</time></trkpt><trkpt lat="40.26877928014725" lon="9.400283637141454"><ele>382.0</ele><time>2026-04-11T07:39:40Z</time></trkpt><trkpt lat="40.26871156810316" lon="9.400265503645054"><ele>382.0</ele><time>2026-04-11T07:39:41Z</time></trkpt><trkpt lat="40.26864370342893" lon="9.400235228916257"><ele>382.0</ele><time>2026-04-11T07:39:42Z</time></trkpt><trkpt lat="40.268572143964626" lon="9.400207638227407"><ele>382.0</ele><time>2026-04-11T07:39:43Z</time></trkpt><trkpt lat="40.268461370694496" lon="9.400211524643696"><ele>382.0</ele><time>2026-04-11T07:39:44Z</time></trkpt><trkpt lat="40.268374324147636" lon="9.400191104549275"><ele>382.0</ele><time>2026-04-11T07:39:45Z</time></trkpt><trkpt lat="40.26828981477095" lon="9.400167984988766"><ele>382.0</ele><time>2026-04-11T07:39:46Z</time></trkpt><trkpt lat="40.26820916457873" lon="9.400150406564613"><ele>382.0</ele><time>2026-04-11T07:39:47Z</time></trkpt><trkpt lat="40.2681306835244" lon="9.400129686899424"><ele>382.0</ele><time>2026-04-11T07:39:48Z</time></trkpt><trkpt lat="40.26804884583046" lon="9.400123866936166"><ele>382.0</ele><time>2026-04-11T07:39:49Z</time></trkpt><trkpt lat="40.267964823377625" lon="9.40012182940221"><ele>382.0</ele><time>2026-04-11T07:39:50Z</time></trkpt><trkpt lat="40.26788027933559" lon="9.400133276266288"><ele>382.20000000000005</ele><time>2026-04-11T07:39:51Z</time></trkpt><trkpt lat="40.26779175036809" lon="9.400145641651708"><ele>382.4</ele><time>2026-04-11T07:39:52Z</time></trkpt><trkpt lat="40.267703645713034" lon="9.400167864757352"><ele>382.6</ele><time>2026-04-11T07:39:53Z</time></trkpt><trkpt lat="40.26761009782649" lon="9.400197293742464"><ele>382.79999999999995</ele><time>2026-04-11T07:39:54Z</time></trkpt><trkpt lat="40.267512924631525" lon="9.400230381861071"><ele>383.0</ele><time>2026-04-11T07:39:55Z</time></trkpt><trkpt lat="40.26742169175325" lon="9.40025701284743"><ele>383.0</ele><time>2026-04-11T07:39:56Z</time></trkpt><trkpt lat="40.26733724022078" lon="9.400283738731916"><ele>383.0</ele><time>2026-04-11T07:39:57Z</time></trkpt><trkpt lat="40.267260809208864" lon="9.400314108032626"><ele>383.0</ele><time>2026-04-11T07:39:58Z</time></trkpt><trkpt lat="40.267177458444465" lon="9.400353193371368"><ele>383.0</ele><time>2026-04-11T07:39:59Z</time></trkpt><trkpt lat="40.267084647324964" lon="9.40040854082024"><ele>383.0</ele><time>2026-04-11T07:40:00Z</time></trkpt><trkpt lat="40.26698866983703" lon="9.400480496634504"><ele>385.2</ele><time>2026-04-11T07:40:01Z</time></trkpt><trkpt lat="40.266894469415476" lon="9.400558518499519"><ele>387.4</ele><time>2026-04-11T07:40:02Z</time></trkpt><trkpt lat="40.26681585144733" lon="9.400649004476852"><ele>389.59999999999997</ele><time>2026-04-11T07:40:03Z</time></trkpt><trkpt lat="40.26674012684756" lon="9.400735664193311"><ele>391.79999999999995</ele><time>2026-04-11T07:40:04Z</time></trkpt><trkpt lat="40.26666848889899" lon="9.400818658180043"><ele>394.0</ele><time>2026-04-11T07:40:05Z</time></trkpt><trkpt lat="40.26659552005315" lon="9.40089666518791"><ele>394.0</ele><time>2026-04-11T07:40:06Z</time></trkpt><trkpt lat="40.26651623887538" lon="9.40097134982389"><ele>394.0</ele><time>2026-04-11T07:40:07Z</time></trkpt><trkpt lat="40.26643981452139" lon="9.401041144191295"><ele>394.0</ele><time>2026-04-11T07:40:08Z</time></trkpt><trkpt lat="40.26634152030746" lon="9.40107116609109"><ele>394.0</ele><time>2026-04-11T07:40:09Z</time></trkpt><trkpt lat="40.26624703567046" lon="9.401090540770172"><ele>394.0</ele><time>2026-04-11T07:40:10Z</time></trkpt><trkpt lat="40.26614343063426" lon="9.40111782964255"><ele>394.83333333333337</ele><time>2026-04-11T07:40:11Z</time></trkpt><trkpt lat="40.266058167794895" lon="9.401138371350665"><ele>395.6666666666667</ele><time>2026-04-11T07:40:12Z</time></trkpt><trkpt lat="40.26598736595991" lon="9.401174083359605"><ele>396.5</ele><time>2026-04-11T07:40:13Z</time></trkpt><trkpt lat="40.26587496962881" lon="9.401174188308728"><ele>397.33333333333337</ele><time>2026-04-11T07:40:15Z</time></trkpt><trkpt lat="40.265782327995865" lon="9.40114661334337"><ele>398.1666666666667</ele><time>2026-04-11T07:40:17Z</time></trkpt><trkpt lat="40.26574093494892" lon="9.401076025457515"><ele>399.0</ele><time>2026-04-11T07:40:18Z</time></trkpt><trkpt lat="40.265685771421424" lon="9.401027514179669"><ele>399.0</ele><time>2026-04-11T07:40:19Z</time></trkpt><trkpt lat="40.265650293629626" lon="9.400936564774874"><ele>399.0</ele><time>2026-04-11T07:40:20Z</time></trkpt><trkpt lat="40.265655794391066" lon="9.400824658085273"><ele>399.0</ele><time>2026-04-11T07:40:21Z</time></trkpt><trkpt lat="40.265668180420775" lon="9.400742059089811"><ele>399.0</ele><time>2026-04-11T07:40:22Z</time></trkpt><trkpt lat="40.265738463607704" lon="9.400624222158143"><ele>399.0</ele><time>2026-04-11T07:40:24Z</time></trkpt><trkpt lat="40.26579223970698" lon="9.40057292498134"><ele>399.0</ele><time>2026-04-11T07:40:25Z</time></trkpt><trkpt lat="40.265842215846455" lon="9.400498685586362"><ele>398.6666666666667</ele><time>2026-04-11T07:40:27Z</time></trkpt><trkpt lat="40.265821772696356" lon="9.400415938006546"><ele>398.33333333333337</ele><time>2026-04-11T07:41:05.999Z</time></trkpt><trkpt lat="40.26576885295527" lon="9.400317571034918"><ele>398.0</ele><time>2026-04-11T07:41:07.999Z</time></trkpt><trkpt lat="40.26567989406849" lon="9.400232706052527"><ele>397.6666666666667</ele><time>2026-04-11T07:41:09.999Z</time></trkpt><trkpt lat="40.265631760091715" lon="9.400177727321056"><ele>397.33333333333337</ele><time>2026-04-11T07:41:10.999Z</time></trkpt><trkpt lat="40.26558870572262" lon="9.400101930913413"><ele>397.0</ele><time>2026-04-11T07:41:11.999Z</time></trkpt><trkpt lat="40.26557077991557" lon="9.400020720803251"><ele>397.0</ele><time>2026-04-11T07:41:12.999Z</time></trkpt><trkpt lat="40.26557150162583" lon="9.39993097702716"><ele>397.0</ele><time>2026-04-11T07:41:13.999Z</time></trkpt><trkpt lat="40.26562159572141" lon="9.399856800084406"><ele>397.0</ele><time>2026-04-11T07:41:14.999Z</time></trkpt><trkpt lat="40.26567435216285" lon="9.399789541591174"><ele>397.0</ele><time>2026-04-11T07:41:15.999Z</time></trkpt><trkpt lat="40.26569229264029" lon="9.399705279683506"><ele>397.0</ele><time>2026-04-11T07:41:16.999Z</time></trkpt><trkpt lat="40.265674038866536" lon="9.399609459616917"><ele>397.0</ele><time>2026-04-11T07:41:17.999Z</time></trkpt><trkpt lat="40.26562785214235" lon="9.399517434219238"><ele>397.0</ele><time>2026-04-11T07:41:18.999Z</time></trkpt><trkpt lat="40.265565364547875" lon="9.399426076136386"><ele>398.50000000000006</ele><time>2026-04-11T07:41:19.999Z</time></trkpt><trkpt lat="40.2655279621456" lon="9.399320418118961"><ele>400.0</ele><time>2026-04-11T07:41:20.999Z</time></trkpt><trkpt lat="40.26550340655995" lon="9.399228482044238"><ele>401.5</ele><time>2026-04-11T07:41:21.999Z</time></trkpt><trkpt lat="40.26550465940258" lon="9.399125737622095"><ele>403.0</ele><time>2026-04-11T07:41:22.999Z</time></trkpt><trkpt lat="40.26551975917519" lon="9.3990258341359"><ele>404.50000000000006</ele><time>2026-04-11T07:41:23.999Z</time></trkpt><trkpt lat="40.26554519849103" lon="9.398920794093982"><ele>406.0</ele><time>2026-04-11T07:41:24.999Z</time></trkpt><trkpt lat="40.26557032187985" lon="9.398810043017138"><ele>406.0</ele><time>2026-04-11T07:41:25.999Z</time></trkpt><trkpt lat="40.265580834205714" lon="9.398689245555135"><ele>406.0</ele><time>2026-04-11T07:41:26.999Z</time></trkpt><trkpt lat="40.265601588024566" lon="9.398568389955418"><ele>406.0</ele><time>2026-04-11T07:41:27.999Z</time></trkpt><trkpt lat="40.265605725208815" lon="9.398444406670604"><ele>406.0</ele><time>2026-04-11T07:41:28.999Z</time></trkpt><trkpt lat="40.26558602455985" lon="9.398336044259713"><ele>406.0</ele><time>2026-04-11T07:41:29.999Z</time></trkpt><trkpt lat="40.265533785595814" lon="9.398250972009157"><ele>406.0</ele><time>2026-04-11T07:41:30.999Z</time></trkpt><trkpt lat="40.265506479665866" lon="9.398160358483118"><ele>406.0</ele><time>2026-04-11T07:41:31.999Z</time></trkpt><trkpt lat="40.265375069031954" lon="9.398197771745483"><ele>406.0</ele><time>2026-04-11T07:41:32.999Z</time></trkpt><trkpt lat="40.26528908313659" lon="9.398241271283078"><ele>406.0</ele><time>2026-04-11T07:41:33.999Z</time></trkpt><trkpt lat="40.26520535461475" lon="9.398305018466282"><ele>406.0</ele><time>2026-04-11T07:41:34.999Z</time></trkpt><trkpt lat="40.26512430748858" lon="9.39839445621738"><ele>406.0</ele><time>2026-04-11T07:41:35.999Z</time></trkpt><trkpt lat="40.26504787346331" lon="9.398483908644154"><ele>406.0</ele><time>2026-04-11T07:41:36.999Z</time></trkpt><trkpt lat="40.264967139483375" lon="9.39856890950063"><ele>406.0</ele><time>2026-04-11T07:41:37.999Z</time></trkpt><trkpt lat="40.26488993140389" lon="9.39865075418437"><ele>406.0</ele><time>2026-04-11T07:41:38.999Z</time></trkpt><trkpt lat="40.2648069982024" lon="9.398726242564873"><ele>406.0</ele><time>2026-04-11T07:41:40Z</time></trkpt><trkpt lat="40.26472939453643" lon="9.398803103351083"><ele>407.0</ele><time>2026-04-11T07:41:41Z</time></trkpt><trkpt lat="40.26465220160896" lon="9.398885923806999"><ele>408.0</ele><time>2026-04-11T07:41:42Z</time></trkpt><trkpt lat="40.2645779498873" lon="9.398964589128685"><ele>409.0</ele><time>2026-04-11T07:41:43Z</time></trkpt><trkpt lat="40.26449893137361" lon="9.399046047621892"><ele>410.0</ele><time>2026-04-11T07:41:44Z</time></trkpt><trkpt lat="40.26441318987095" lon="9.39913537745652"><ele>411.0</ele><time>2026-04-11T07:41:45Z</time></trkpt><trkpt lat="40.2643224497629" lon="9.399230802334126"><ele>411.0</ele><time>2026-04-11T07:41:46Z</time></trkpt><trkpt lat="40.26423531432812" lon="9.399320720818913"><ele>411.0</ele><time>2026-04-11T07:41:47Z</time></trkpt><trkpt lat="40.264143921975574" lon="9.399407468890356"><ele>411.0</ele><time>2026-04-11T07:41:48Z</time></trkpt><trkpt lat="40.26404805931095" lon="9.399490403370772"><ele>411.0</ele><time>2026-04-11T07:41:49Z</time></trkpt><trkpt lat="40.26395247630952" lon="9.399576531000397"><ele>411.4</ele><time>2026-04-11T07:41:50Z</time></trkpt><trkpt lat="40.26386025838094" lon="9.399664588342793"><ele>411.8</ele><time>2026-04-11T07:41:51Z</time></trkpt><trkpt lat="40.263771008185536" lon="9.399759150716852"><ele>412.2</ele><time>2026-04-11T07:41:52Z</time></trkpt><trkpt lat="40.26368360266982" lon="9.399849584407562"><ele>412.59999999999997</ele><time>2026-04-11T07:41:53Z</time></trkpt><trkpt lat="40.26360329149761" lon="9.3999357359665"><ele>413.0</ele><time>2026-04-11T07:41:54Z</time></trkpt><trkpt lat="40.263529624071495" lon="9.40001745023552"><ele>413.0</ele><time>2026-04-11T07:41:55Z</time></trkpt><trkpt lat="40.263466155061096" lon="9.400106699195305"><ele>413.0</ele><time>2026-04-11T07:41:56Z</time></trkpt><trkpt lat="40.263412365434355" lon="9.400210463848499"><ele>413.0</ele><time>2026-04-11T07:41:57Z</time></trkpt><trkpt lat="40.26337368498135" lon="9.400318795416615"><ele>413.0</ele><time>2026-04-11T07:41:58Z</time></trkpt><trkpt lat="40.26335013240776" lon="9.400440889089264"><ele>413.0</ele><time>2026-04-11T07:41:59Z</time></trkpt><trkpt lat="40.26335123601415" lon="9.400571496317296"><ele>414.79999999999995</ele><time>2026-04-11T07:42:00Z</time></trkpt><trkpt lat="40.26336785940255" lon="9.400698729996071"><ele>416.6</ele><time>2026-04-11T07:42:01Z</time></trkpt><trkpt lat="40.263392902432344" lon="9.400821884950206"><ele>418.4</ele><time>2026-04-11T07:42:02Z</time></trkpt><trkpt lat="40.263431349181744" lon="9.400924824239599"><ele>420.20000000000005</ele><time>2026-04-11T07:42:03Z</time></trkpt><trkpt lat="40.263460103014516" lon="9.401033451342924"><ele>422.0</ele><time>2026-04-11T07:42:04Z</time></trkpt><trkpt lat="40.26346467901036" lon="9.401141810590374"><ele>421.99999999999994</ele><time>2026-04-11T07:42:05Z</time></trkpt><trkpt lat="40.26344655105809" lon="9.401240999834314"><ele>422.0</ele><time>2026-04-11T07:42:06Z</time></trkpt><trkpt lat="40.26339354630002" lon="9.401320823237178"><ele>422.0</ele><time>2026-04-11T07:42:07Z</time></trkpt><trkpt lat="40.26330196189605" lon="9.401332126514188"><ele>422.0</ele><time>2026-04-11T07:42:08Z</time></trkpt><trkpt lat="40.26322509848027" lon="9.401363347726459"><ele>421.99999999999994</ele><time>2026-04-11T07:42:09Z</time></trkpt><trkpt lat="40.26314013609952" lon="9.401377725817309"><ele>422.0</ele><time>2026-04-11T07:42:10Z</time></trkpt><trkpt lat="40.26306278840238" lon="9.401430985995978"><ele>421.0</ele><time>2026-04-11T07:42:11Z</time></trkpt><trkpt lat="40.26299100956783" lon="9.401514740563771"><ele>420.0</ele><time>2026-04-11T07:42:12Z</time></trkpt><trkpt lat="40.26292765916271" lon="9.401610915651702"><ele>419.0</ele><time>2026-04-11T07:42:13Z</time></trkpt><trkpt lat="40.26286444130592" lon="9.401713726774215"><ele>418.0</ele><time>2026-04-11T07:42:14Z</time></trkpt><trkpt lat="40.26281635683374" lon="9.40181998206178"><ele>417.0</ele><time>2026-04-11T07:42:15Z</time></trkpt><trkpt lat="40.262796959986126" lon="9.401941836190716"><ele>417.0</ele><time>2026-04-11T07:42:16Z</time></trkpt><trkpt lat="40.262823099212206" lon="9.402060748829024"><ele>417.0</ele><time>2026-04-11T07:42:17Z</time></trkpt><trkpt lat="40.26287922330951" lon="9.402168502219718"><ele>417.0</ele><time>2026-04-11T07:42:18Z</time></trkpt><trkpt lat="40.26295399299488" lon="9.402258286257904"><ele>417.0</ele><time>2026-04-11T07:42:19Z</time></trkpt><trkpt lat="40.26302173045518" lon="9.402347062756688"><ele>417.0</ele><time>2026-04-11T07:42:20Z</time></trkpt><trkpt lat="40.26304869720822" lon="9.402440934783169"><ele>418.6666666666667</ele><time>2026-04-11T07:42:21Z</time></trkpt><trkpt lat="40.26303093242878" lon="9.402537853095167"><ele>420.33333333333337</ele><time>2026-04-11T07:42:22Z</time></trkpt><trkpt lat="40.262981624513934" lon="9.402621411485585"><ele>422.0</ele><time>2026-04-11T07:42:23Z</time></trkpt><trkpt lat="40.26290653507414" lon="9.402665645032354"><ele>423.6666666666667</ele><time>2026-04-11T07:42:24Z</time></trkpt><trkpt lat="40.26281706262867" lon="9.402681895250403"><ele>425.33333333333337</ele><time>2026-04-11T07:42:25Z</time></trkpt><trkpt lat="40.26273141170117" lon="9.402722404728678"><ele>427.0</ele><time>2026-04-11T07:42:26Z</time></trkpt><trkpt lat="40.262654942427616" lon="9.402798971948338"><ele>427.0</ele><time>2026-04-11T07:42:27Z</time></trkpt><trkpt lat="40.262582658072226" lon="9.40287823746945"><ele>427.00000000000006</ele><time>2026-04-11T07:42:28Z</time></trkpt><trkpt lat="40.262511686299334" lon="9.402948863765461"><ele>427.00000000000006</ele><time>2026-04-11T07:42:29Z</time></trkpt><trkpt lat="40.26242659803377" lon="9.403001770801586"><ele>427.0</ele><time>2026-04-11T07:42:30Z</time></trkpt><trkpt lat="40.26233984141785" lon="9.40305592833076"><ele>427.0</ele><time>2026-04-11T07:42:31Z</time></trkpt><trkpt lat="40.26224788682988" lon="9.403098340644018"><ele>427.8</ele><time>2026-04-11T07:42:32Z</time></trkpt><trkpt lat="40.26215446542416" lon="9.403124426845526"><ele>428.6</ele><time>2026-04-11T07:42:33Z</time></trkpt><trkpt lat="40.26205740087708" lon="9.403090420743961"><ele>429.40000000000003</ele><time>2026-04-11T07:42:34Z</time></trkpt><trkpt lat="40.261970331415384" lon="9.40304972330266"><ele>430.20000000000005</ele><time>2026-04-11T07:42:35Z</time></trkpt><trkpt lat="40.26187916920005" lon="9.403011927915403"><ele>431.0</ele><time>2026-04-11T07:42:36Z</time></trkpt><trkpt lat="40.261795819401605" lon="9.40294181923267"><ele>431.0</ele><time>2026-04-11T07:42:37Z</time></trkpt><trkpt lat="40.26172190543985" lon="9.402856696702104"><ele>431.0</ele><time>2026-04-11T07:42:38Z</time></trkpt><trkpt lat="40.26164189619966" lon="9.402788165711659"><ele>431.0</ele><time>2026-04-11T07:42:39Z</time></trkpt><trkpt lat="40.26156142919173" lon="9.402721324128985"><ele>431.0</ele><time>2026-04-11T07:42:40Z</time></trkpt><trkpt lat="40.26147111064019" lon="9.402673010242705"><ele>431.0</ele><time>2026-04-11T07:42:41Z</time></trkpt><trkpt lat="40.261392795633185" lon="9.40260766548084"><ele>431.20000000000005</ele><time>2026-04-11T07:42:42Z</time></trkpt><trkpt lat="40.261293702441655" lon="9.402635726686514"><ele>431.40000000000003</ele><time>2026-04-11T07:42:43Z</time></trkpt><trkpt lat="40.26120007754004" lon="9.402682473011904"><ele>431.6</ele><time>2026-04-11T07:42:44Z</time></trkpt><trkpt lat="40.26110813902593" lon="9.40274805201427"><ele>431.8</ele><time>2026-04-11T07:42:45Z</time></trkpt><trkpt lat="40.261023457632525" lon="9.40280410525148"><ele>432.0</ele><time>2026-04-11T07:42:46Z</time></trkpt><trkpt lat="40.26093156323378" lon="9.402851189124256"><ele>432.0</ele><time>2026-04-11T07:42:47Z</time></trkpt><trkpt lat="40.260836505184415" lon="9.402883367174395"><ele>432.0</ele><time>2026-04-11T07:42:48Z</time></trkpt><trkpt lat="40.260744929760875" lon="9.402891140449082"><ele>432.0</ele><time>2026-04-11T07:42:49Z</time></trkpt><trkpt lat="40.26065673913837" lon="9.402855535209019"><ele>432.0</ele><time>2026-04-11T07:42:50Z</time></trkpt><trkpt lat="40.260575204314996" lon="9.402830581632918"><ele>432.0</ele><time>2026-04-11T07:42:51Z</time></trkpt><trkpt lat="40.26049401520043" lon="9.40280721673465"><ele>432.0</ele><time>2026-04-11T07:42:52Z</time></trkpt><trkpt lat="40.26041084949543" lon="9.402804316337978"><ele>432.0</ele><time>2026-04-11T07:42:53Z</time></trkpt><trkpt lat="40.26033299191018" lon="9.4028102054262"><ele>432.0</ele><time>2026-04-11T07:42:54Z</time></trkpt><trkpt lat="40.26026182517086" lon="9.402847639071604"><ele>432.0</ele><time>2026-04-11T07:42:55Z</time></trkpt><trkpt lat="40.260203974050164" lon="9.40292191511518"><ele>432.0</ele><time>2026-04-11T07:42:56Z</time></trkpt><trkpt lat="40.26016007437603" lon="9.403023095811026"><ele>432.0</ele><time>2026-04-11T07:42:57Z</time></trkpt><trkpt lat="40.26011647092608" lon="9.403145362758622"><ele>432.0</ele><time>2026-04-11T07:42:58Z</time></trkpt><trkpt lat="40.260069892871456" lon="9.403251421727127"><ele>434.0</ele><time>2026-04-11T07:42:58.999Z</time></trkpt><trkpt lat="40.260006051750224" lon="9.403318127436409"><ele>436.0</ele><time>2026-04-11T07:42:59.999Z</time></trkpt><trkpt lat="40.25993098834077" lon="9.403339659657375"><ele>438.0</ele><time>2026-04-11T07:43:00.999Z</time></trkpt><trkpt lat="40.25985772600396" lon="9.403315145622935"><ele>440.0</ele><time>2026-04-11T07:43:01.999Z</time></trkpt><trkpt lat="40.25979580985644" lon="9.403261234697185"><ele>442.0</ele><time>2026-04-11T07:43:02.999Z</time></trkpt><trkpt lat="40.2597298004093" lon="9.403195893344298"><ele>444.0</ele><time>2026-04-11T07:43:03.999Z</time></trkpt><trkpt lat="40.25965562303671" lon="9.403132088964831"><ele>445.4</ele><time>2026-04-11T07:43:04.999Z</time></trkpt><trkpt lat="40.25957491887257" lon="9.403069170346718"><ele>446.79999999999995</ele><time>2026-04-11T07:43:05.999Z</time></trkpt><trkpt lat="40.25949213756661" lon="9.402996648385676"><ele>448.20000000000005</ele><time>2026-04-11T07:43:06.999Z</time></trkpt><trkpt lat="40.25940576602921" lon="9.402930191859879"><ele>449.6</ele><time>2026-04-11T07:43:07.999Z</time></trkpt><trkpt lat="40.2593084783185" lon="9.402882633631963"><ele>451.0</ele><time>2026-04-11T07:43:08.999Z</time></trkpt><trkpt lat="40.25921316516623" lon="9.402859550852673"><ele>450.20000000000005</ele><time>2026-04-11T07:43:09.999Z</time></trkpt><trkpt lat="40.25911377491975" lon="9.402848926369987"><ele>449.40000000000003</ele><time>2026-04-11T07:43:10.999Z</time></trkpt><trkpt lat="40.25901257745164" lon="9.402834905804932"><ele>448.6</ele><time>2026-04-11T07:43:11.999Z</time></trkpt><trkpt lat="40.25891565761243" lon="9.402801634081163"><ele>447.8</ele><time>2026-04-11T07:43:12.999Z</time></trkpt><trkpt lat="40.25882256088861" lon="9.402754956565943"><ele>447.0</ele><time>2026-04-11T07:43:13.999Z</time></trkpt><trkpt lat="40.25873330987462" lon="9.402698911055282"><ele>447.0</ele><time>2026-04-11T07:43:14.999Z</time></trkpt><trkpt lat="40.25864470136891" lon="9.402646540082689"><ele>447.00000000000006</ele><time>2026-04-11T07:43:15.999Z</time></trkpt><trkpt lat="40.258551677454584" lon="9.402608421857243"><ele>447.00000000000006</ele><time>2026-04-11T07:43:16.999Z</time></trkpt><trkpt lat="40.25845898874227" lon="9.402575956800998"><ele>447.0</ele><time>2026-04-11T07:43:17.999Z</time></trkpt><trkpt lat="40.25836776948497" lon="9.402542619525857"><ele>447.0</ele><time>2026-04-11T07:43:18.999Z</time></trkpt><trkpt lat="40.25827626404009" lon="9.402521217319727"><ele>447.0</ele><time>2026-04-11T07:43:19.999Z</time></trkpt><trkpt lat="40.25818801412925" lon="9.402521773556625"><ele>447.00000000000006</ele><time>2026-04-11T07:43:20.999Z</time></trkpt><trkpt lat="40.25810084087495" lon="9.402549102913497"><ele>447.00000000000006</ele><time>2026-04-11T07:43:21.999Z</time></trkpt><trkpt lat="40.2580157673703" lon="9.402599421670656"><ele>447.0</ele><time>2026-04-11T07:43:22.999Z</time></trkpt><trkpt lat="40.25793275949785" lon="9.402663858638434"><ele>447.0</ele><time>2026-04-11T07:43:23.999Z</time></trkpt><trkpt lat="40.25785452267913" lon="9.40272928099974"><ele>447.40000000000003</ele><time>2026-04-11T07:43:24.999Z</time></trkpt><trkpt lat="40.25779127892469" lon="9.402809380093194"><ele>447.80000000000007</ele><time>2026-04-11T07:43:25.999Z</time></trkpt><trkpt lat="40.25774913839551" lon="9.402911351737304"><ele>448.2</ele><time>2026-04-11T07:43:26.999Z</time></trkpt><trkpt lat="40.25773386542476" lon="9.403033591090013"><ele>448.6</ele><time>2026-04-11T07:43:27.999Z</time></trkpt><trkpt lat="40.257749220105396" lon="9.403155095445504"><ele>449.0</ele><time>2026-04-11T07:43:28.999Z</time></trkpt><trkpt lat="40.257786394274156" lon="9.403257022693722"><ele>449.0</ele><time>2026-04-11T07:43:29.999Z</time></trkpt><trkpt lat="40.257848500628455" lon="9.403346880740209"><ele>449.0</ele><time>2026-04-11T07:43:30.999Z</time></trkpt><trkpt lat="40.2578880679982" lon="9.403459048197549"><ele>449.0</ele><time>2026-04-11T07:43:31.999Z</time></trkpt><trkpt lat="40.257935962009704" lon="9.403560215419645"><ele>449.0</ele><time>2026-04-11T07:43:32.999Z</time></trkpt><trkpt lat="40.257998973919115" lon="9.403645179891269"><ele>449.0</ele><time>2026-04-11T07:43:33.999Z</time></trkpt><trkpt lat="40.258027507661474" lon="9.403762475132481"><ele>450.8333333333333</ele><time>2026-04-11T07:43:34.999Z</time></trkpt><trkpt lat="40.25803966658945" lon="9.403882612293089"><ele>452.66666666666663</ele><time>2026-04-11T07:43:35.999Z</time></trkpt><trkpt lat="40.25802795811877" lon="9.404005580424062"><ele>454.5</ele><time>2026-04-11T07:43:36.999Z</time></trkpt><trkpt lat="40.25800334453638" lon="9.404119509243502"><ele>456.33333333333337</ele><time>2026-04-11T07:43:37.999Z</time></trkpt><trkpt lat="40.25797878105974" lon="9.404219766974792"><ele>458.1666666666667</ele><time>2026-04-11T07:43:38.999Z</time></trkpt><trkpt lat="40.25795087449281" lon="9.404316200214486"><ele>460.0</ele><time>2026-04-11T07:43:39.999Z</time></trkpt><trkpt lat="40.25792196346451" lon="9.404410559582375"><ele>460.00000000000006</ele><time>2026-04-11T07:43:40.999Z</time></trkpt><trkpt lat="40.2578884193844" lon="9.404486972469467"><ele>460.0</ele><time>2026-04-11T07:43:41.999Z</time></trkpt><trkpt lat="40.25778620151363" lon="9.404569146642864"><ele>460.0</ele><time>2026-04-11T07:43:43.999Z</time></trkpt><trkpt lat="40.257717273869126" lon="9.404578736661858"><ele>460.0</ele><time>2026-04-11T07:43:45Z</time></trkpt><trkpt lat="40.25764966397449" lon="9.404564821622762"><ele>460.00000000000006</ele><time>2026-04-11T07:43:46Z</time></trkpt><trkpt lat="40.25760327013552" lon="9.404495729232567"><ele>460.0</ele><time>2026-04-11T07:43:47Z</time></trkpt><trkpt lat="40.25754738710165" lon="9.40444672046684"><ele>460.00000000000006</ele><time>2026-04-11T07:43:48Z</time></trkpt><trkpt lat="40.25750628902072" lon="9.404367297294513"><ele>460.0</ele><time>2026-04-11T07:43:49Z</time></trkpt><trkpt lat="40.25746351441469" lon="9.40428357785824"><ele>460.0</ele><time>2026-04-11T07:43:50Z</time></trkpt><trkpt lat="40.25742155886266" lon="9.40419538503421"><ele>460.0</ele><time>2026-04-11T07:43:51Z</time></trkpt><trkpt lat="40.25738098742159" lon="9.404114574225241"><ele>460.00000000000006</ele><time>2026-04-11T07:43:52Z</time></trkpt><trkpt lat="40.25731062391859" lon="9.403985991856194"><ele>460.0</ele><time>2026-04-11T07:43:54Z</time></trkpt><trkpt lat="40.25727201943189" lon="9.40392032669371"><ele>458.50000000000006</ele><time>2026-04-11T07:43:55Z</time></trkpt><trkpt lat="40.257228138074176" lon="9.403857911447352"><ele>457.0</ele><time>2026-04-11T07:43:56Z</time></trkpt><trkpt lat="40.25717984729945" lon="9.40379466071922"><ele>455.5</ele><time>2026-04-11T07:43:57Z</time></trkpt><trkpt lat="40.25709278735807" lon="9.403696365227066"><ele>454.0</ele><time>2026-04-11T07:43:59Z</time></trkpt><trkpt lat="40.257014561673984" lon="9.403627298595405"><ele>452.50000000000006</ele><time>2026-04-11T07:44:01Z</time></trkpt><trkpt lat="40.256928437727495" lon="9.403568881676348"><ele>451.0</ele><time>2026-04-11T07:44:03Z</time></trkpt><trkpt lat="40.25683699426032" lon="9.403551928066573"><ele>451.0</ele><time>2026-04-11T07:44:05Z</time></trkpt><trkpt lat="40.25674631750253" lon="9.403567108724598"><ele>451.0</ele><time>2026-04-11T07:44:07Z</time></trkpt><trkpt lat="40.25666125640972" lon="9.403611753072092"><ele>451.0</ele><time>2026-04-11T07:44:09Z</time></trkpt><trkpt lat="40.256579705266205" lon="9.403676812719622"><ele>451.0</ele><time>2026-04-11T07:44:11Z</time></trkpt><trkpt lat="40.25648584665973" lon="9.40374913775541"><ele>451.0</ele><time>2026-04-11T07:44:13Z</time></trkpt><trkpt lat="40.2563817822813" lon="9.40381964883316"><ele>454.83333333333337</ele><time>2026-04-11T07:44:15Z</time></trkpt><trkpt lat="40.25626568948566" lon="9.403888276603562"><ele>458.6666666666667</ele><time>2026-04-11T07:44:17Z</time></trkpt><trkpt lat="40.25620031383379" lon="9.403920278098026"><ele>462.5</ele><time>2026-04-11T07:44:18Z</time></trkpt><trkpt lat="40.256125089182085" lon="9.40393395989265"><ele>466.33333333333337</ele><time>2026-04-11T07:44:19Z</time></trkpt><trkpt lat="40.25605804012251" lon="9.403941431047183"><ele>470.1666666666667</ele><time>2026-04-11T07:44:20Z</time></trkpt><trkpt lat="40.25598883307812" lon="9.403944719247866"><ele>474.0</ele><time>2026-04-11T07:44:21Z</time></trkpt><trkpt lat="40.25591931798644" lon="9.403943974123854"><ele>474.0</ele><time>2026-04-11T07:44:22Z</time></trkpt><trkpt lat="40.25584971490912" lon="9.403942982060535"><ele>474.0</ele><time>2026-04-11T07:44:23Z</time></trkpt><trkpt lat="40.25578101922668" lon="9.403941261119396"><ele>474.0</ele><time>2026-04-11T07:44:24Z</time></trkpt><trkpt lat="40.25571758698746" lon="9.40391869921553"><ele>474.0</ele><time>2026-04-11T07:44:25Z</time></trkpt><trkpt lat="40.25566522766917" lon="9.403865664039188"><ele>474.0</ele><time>2026-04-11T07:44:26Z</time></trkpt><trkpt lat="40.25565811353063" lon="9.403777772988777"><ele>474.0</ele><time>2026-04-11T07:44:27Z</time></trkpt><trkpt lat="40.25569388328548" lon="9.403628103832244"><ele>473.8333333333333</ele><time>2026-04-11T07:44:29Z</time></trkpt><trkpt lat="40.25571400953917" lon="9.403535504401765"><ele>473.66666666666663</ele><time>2026-04-11T07:44:30Z</time></trkpt><trkpt lat="40.2557378367449" lon="9.403428933684252"><ele>473.5</ele><time>2026-04-11T07:44:31Z</time></trkpt><trkpt lat="40.25573582700099" lon="9.403320254003317"><ele>473.3333333333333</ele><time>2026-04-11T07:44:32Z</time></trkpt><trkpt lat="40.255712490342454" lon="9.403221596728438"><ele>473.16666666666663</ele><time>2026-04-11T07:44:33Z</time></trkpt><trkpt lat="40.25565112315098" lon="9.40314099593451"><ele>473.0</ele><time>2026-04-11T07:44:34Z</time></trkpt><trkpt lat="40.25556868888067" lon="9.40308424408047"><ele>472.99999999999994</ele><time>2026-04-11T07:44:35Z</time></trkpt><trkpt lat="40.255477318589115" lon="9.403071404682125"><ele>473.0</ele><time>2026-04-11T07:44:36Z</time></trkpt><trkpt lat="40.25538983655707" lon="9.403097683758054"><ele>473.0</ele><time>2026-04-11T07:44:37Z</time></trkpt><trkpt lat="40.25530713342541" lon="9.403145539096105"><ele>473.0</ele><time>2026-04-11T07:44:38Z</time></trkpt><trkpt lat="40.25523520547201" lon="9.403184578464886"><ele>472.99999999999994</ele><time>2026-04-11T07:44:39Z</time></trkpt><trkpt lat="40.25515841819084" lon="9.403228386193458"><ele>473.0</ele><time>2026-04-11T07:44:42Z</time></trkpt><trkpt lat="40.25510365376871" lon="9.403273205738222"><ele>473.0</ele><time>2026-04-11T07:44:44Z</time></trkpt><trkpt lat="40.25499249807547" lon="9.403303294634028"><ele>472.99999999999994</ele><time>2026-04-11T07:44:46Z</time></trkpt><trkpt lat="40.25490274921555" lon="9.40326682340347"><ele>472.99999999999994</ele><time>2026-04-11T07:44:48Z</time></trkpt><trkpt lat="40.254882644681395" lon="9.403153844914314"><ele>473.0</ele><time>2026-04-11T07:44:50Z</time></trkpt><trkpt lat="40.25477609765416" lon="9.403128549092452"><ele>473.0</ele><time>2026-04-11T07:44:54Z</time></trkpt><trkpt lat="40.254713255579844" lon="9.403193225421441"><ele>472.99999999999994</ele><time>2026-04-11T07:44:57Z</time></trkpt><trkpt lat="40.254739687194224" lon="9.403288375232487"><ele>473.0</ele><time>2026-04-11T07:44:59Z</time></trkpt><trkpt lat="40.254790753222366" lon="9.403400435212895"><ele>473.0</ele><time>2026-04-11T07:45:01Z</time></trkpt><trkpt lat="40.254857984379775" lon="9.403464073658531"><ele>473.0</ele><time>2026-04-11T07:45:04Z</time></trkpt><trkpt lat="40.254799154726776" lon="9.403405038421019"><ele>472.99999999999994</ele><time>2026-04-11T07:45:58Z</time></trkpt><trkpt lat="40.25473640777433" lon="9.403324496032523"><ele>473.0</ele><time>2026-04-11T07:46:01Z</time></trkpt><trkpt lat="40.2547263049444" lon="9.403227251248897"><ele>473.0</ele><time>2026-04-11T07:46:03Z</time></trkpt><trkpt lat="40.25471485148478" lon="9.403142880529089"><ele>472.99999999999994</ele><time>2026-04-11T07:46:06Z</time></trkpt><trkpt lat="40.25471939230548" lon="9.403300036819829"><ele>472.99999999999994</ele><time>2026-04-11T07:46:09Z</time></trkpt><trkpt lat="40.254824660310916" lon="9.403408632980145"><ele>473.0</ele><time>2026-04-11T07:46:12Z</time></trkpt><trkpt lat="40.25487978961785" lon="9.403488789407044"><ele>473.0</ele><time>2026-04-11T07:46:13Z</time></trkpt><trkpt lat="40.254976699245404" lon="9.403555700586034"><ele>473.0</ele><time>2026-04-11T07:46:15Z</time></trkpt><trkpt lat="40.255254842288714" lon="9.403179231289213"><ele>473.0</ele><time>2026-04-11T07:46:17Z</time></trkpt><trkpt lat="40.25532834963403" lon="9.403147408058025"><ele>473.0</ele><time>2026-04-11T07:46:18Z</time></trkpt><trkpt lat="40.255389153214004" lon="9.403125513777757"><ele>472.99999999999994</ele><time>2026-04-11T07:46:19Z</time></trkpt><trkpt lat="40.25550305313559" lon="9.40310258475591"><ele>472.99999999999994</ele><time>2026-04-11T07:46:21Z</time></trkpt><trkpt lat="40.255609987613575" lon="9.403144468863292"><ele>473.0</ele><time>2026-04-11T07:46:23Z</time></trkpt><trkpt lat="40.25568398946688" lon="9.403270537065902"><ele>473.0</ele><time>2026-04-11T07:46:25Z</time></trkpt><trkpt lat="40.25571124509057" lon="9.403420012086489"><ele>473.2</ele><time>2026-04-11T07:46:27Z</time></trkpt><trkpt lat="40.25567288109636" lon="9.403581953617378"><ele>473.4</ele><time>2026-04-11T07:46:29Z</time></trkpt><trkpt lat="40.255645738347255" lon="9.403667406416938"><ele>473.59999999999997</ele><time>2026-04-11T07:46:30Z</time></trkpt><trkpt lat="40.255632229487134" lon="9.40375087947619"><ele>473.79999999999995</ele><time>2026-04-11T07:46:31Z</time></trkpt><trkpt lat="40.255661800522944" lon="9.403885857836125"><ele>474.0</ele><time>2026-04-11T07:46:33Z</time></trkpt><trkpt lat="40.2557711440728" lon="9.403958702925681"><ele>473.99999999999994</ele><time>2026-04-11T07:46:35Z</time></trkpt><trkpt lat="40.255839195527045" lon="9.40396854819739"><ele>474.0</ele><time>2026-04-11T07:46:36Z</time></trkpt><trkpt lat="40.25591386271905" lon="9.403968583558708"><ele>473.99999999999994</ele><time>2026-04-11T07:46:37Z</time></trkpt><trkpt lat="40.25598963171728" lon="9.403964766526112"><ele>473.99999999999994</ele><time>2026-04-11T07:46:38Z</time></trkpt><trkpt lat="40.256062940766384" lon="9.40395680960729"><ele>474.0</ele><time>2026-04-11T07:46:39Z</time></trkpt><trkpt lat="40.25613941401635" lon="9.403947111838736"><ele>473.99999999999994</ele><time>2026-04-11T07:46:40Z</time></trkpt><trkpt lat="40.25621716388755" lon="9.40393139091607"><ele>473.99999999999994</ele><time>2026-04-11T07:46:41Z</time></trkpt><trkpt lat="40.25629336163962" lon="9.403901584671445"><ele>474.0</ele><time>2026-04-11T07:46:42Z</time></trkpt><trkpt lat="40.25636577317679" lon="9.403855394682088"><ele>474.0</ele><time>2026-04-11T07:46:43Z</time></trkpt><trkpt lat="40.256437226064726" lon="9.403804787825962"><ele>474.0</ele><time>2026-04-11T07:46:44Z</time></trkpt><trkpt lat="40.256507041363626" lon="9.403754229543354"><ele>474.0</ele><time>2026-04-11T07:46:45Z</time></trkpt><trkpt lat="40.25658122548364" lon="9.403702089264968"><ele>474.0</ele><time>2026-04-11T07:46:46Z</time></trkpt><trkpt lat="40.2566511349671" lon="9.403660014313905"><ele>474.0</ele><time>2026-04-11T07:46:46.999Z</time></trkpt><trkpt lat="40.25671430164311" lon="9.403623495725464"><ele>470.1666666666667</ele><time>2026-04-11T07:46:47.999Z</time></trkpt><trkpt lat="40.256834222777556" lon="9.403581097160522"><ele>466.33333333333337</ele><time>2026-04-11T07:46:49.999Z</time></trkpt><trkpt lat="40.256898925218046" lon="9.403607966195663"><ele>462.5</ele><time>2026-04-11T07:46:50.999Z</time></trkpt><trkpt lat="40.25699687153429" lon="9.40365361486253"><ele>458.6666666666667</ele><time>2026-04-11T07:46:52.999Z</time></trkpt><trkpt lat="40.25704334709314" lon="9.40371065270601"><ele>454.83333333333337</ele><time>2026-04-11T07:47:01.999Z</time></trkpt><trkpt lat="40.25709817205028" lon="9.403755963485983"><ele>451.0</ele><time>2026-04-11T07:47:04.999Z</time></trkpt><trkpt lat="40.25718481437546" lon="9.403825600719085"><ele>452.8</ele><time>2026-04-11T07:47:06.999Z</time></trkpt><trkpt lat="40.257255448132014" lon="9.40393383740389"><ele>454.6</ele><time>2026-04-11T07:47:08.999Z</time></trkpt><trkpt lat="40.257331922728135" lon="9.404045297332956"><ele>456.4</ele><time>2026-04-11T07:47:10.999Z</time></trkpt><trkpt lat="40.25739032191286" lon="9.404171421726067"><ele>458.2</ele><time>2026-04-11T07:47:12.999Z</time></trkpt><trkpt lat="40.25742545626815" lon="9.40425910490909"><ele>460.0</ele><time>2026-04-11T07:47:14.999Z</time></trkpt><trkpt lat="40.25737885346668" lon="9.404162852758956"><ele>460.0</ele><time>2026-04-11T07:47:23.999Z</time></trkpt><trkpt lat="40.25730877439247" lon="9.404028051751329"><ele>460.0</ele><time>2026-04-11T07:47:25.999Z</time></trkpt><trkpt lat="40.25726938891459" lon="9.403962254549413"><ele>460.0</ele><time>2026-04-11T07:47:26.999Z</time></trkpt><trkpt lat="40.25719469700945" lon="9.403854097782887"><ele>460.0</ele><time>2026-04-11T07:47:28.999Z</time></trkpt><trkpt lat="40.257147727951555" lon="9.40376499307445"><ele>460.0</ele><time>2026-04-11T07:47:29.999Z</time></trkpt><trkpt lat="40.25708307948451" lon="9.403723626232663"><ele>458.50000000000006</ele><time>2026-04-11T07:47:31.999Z</time></trkpt><trkpt lat="40.257020703558965" lon="9.403711728837873"><ele>457.0</ele><time>2026-04-11T07:47:33.999Z</time></trkpt><trkpt lat="40.256948846765795" lon="9.403682063820165"><ele>455.5</ele><time>2026-04-11T07:47:35.999Z</time></trkpt><trkpt lat="40.256859172161214" lon="9.403655254452499"><ele>454.0</ele><time>2026-04-11T07:47:37.999Z</time></trkpt><trkpt lat="40.25677087546005" lon="9.403690538014644"><ele>452.50000000000006</ele><time>2026-04-11T07:47:39.999Z</time></trkpt><trkpt lat="40.25671404610067" lon="9.403770957376675"><ele>451.0</ele><time>2026-04-11T07:47:41.999Z</time></trkpt><trkpt lat="40.256682869028985" lon="9.403853396590947"><ele>454.33333333333337</ele><time>2026-04-11T07:47:43.999Z</time></trkpt><trkpt lat="40.256705683609354" lon="9.403930309122174"><ele>457.6666666666667</ele><time>2026-04-11T07:47:45.999Z</time></trkpt><trkpt lat="40.25676410582322" lon="9.403970273689591"><ele>461.0</ele><time>2026-04-11T07:47:47.999Z</time></trkpt><trkpt lat="40.25684204788335" lon="9.403934008504077"><ele>464.33333333333337</ele><time>2026-04-11T07:47:49.999Z</time></trkpt><trkpt lat="40.2569401519302" lon="9.403959730961597"><ele>467.6666666666667</ele><time>2026-04-11T07:47:51.999Z</time></trkpt><trkpt lat="40.257014561946704" lon="9.40404603169194"><ele>471.0</ele><time>2026-04-11T07:47:53.999Z</time></trkpt><trkpt lat="40.25718858585977" lon="9.403922651960828"><ele>471.0</ele><time>2026-04-11T07:47:54.999Z</time></trkpt><trkpt lat="40.25725059021634" lon="9.404018957465006"><ele>471.0</ele><time>2026-04-11T07:47:57Z</time></trkpt><trkpt lat="40.25731062602072" lon="9.404124018229332"><ele>471.0</ele><time>2026-04-11T07:48:00Z</time></trkpt><trkpt lat="40.257354471025515" lon="9.404214144084598"><ele>471.0</ele><time>2026-04-11T07:48:02Z</time></trkpt><trkpt lat="40.257299932632456" lon="9.404104847601293"><ele>471.0</ele><time>2026-04-11T07:51:18Z</time></trkpt><trkpt lat="40.2572279000345" lon="9.403981354641807"><ele>471.0</ele><time>2026-04-11T07:51:21Z</time></trkpt><trkpt lat="40.25716873021125" lon="9.40389303652634"><ele>471.0</ele><time>2026-04-11T07:51:23Z</time></trkpt><trkpt lat="40.25710182839016" lon="9.4038066159003"><ele>471.0</ele><time>2026-04-11T07:51:25Z</time></trkpt><trkpt lat="40.2570138736228" lon="9.40372541665277"><ele>471.0</ele><time>2026-04-11T07:51:27Z</time></trkpt><trkpt lat="40.256914870417944" lon="9.403660703465624"><ele>471.0</ele><time>2026-04-11T07:51:29Z</time></trkpt><trkpt lat="40.25683165910767" lon="9.4036385832808"><ele>467.6666666666667</ele><time>2026-04-11T07:51:31Z</time></trkpt><trkpt lat="40.2567000508676" lon="9.403678419214936"><ele>464.33333333333337</ele><time>2026-04-11T07:51:33Z</time></trkpt><trkpt lat="40.256648408396536" lon="9.403743931466538"><ele>461.0</ele><time>2026-04-11T07:51:36Z</time></trkpt><trkpt lat="40.256709227898234" lon="9.403705898247093"><ele>457.6666666666667</ele><time>2026-04-11T07:51:39Z</time></trkpt><trkpt lat="40.25678678003232" lon="9.403675148795955"><ele>454.33333333333337</ele><time>2026-04-11T07:51:41.999Z</time></trkpt><trkpt lat="40.25685832310912" lon="9.403647071534381"><ele>451.0</ele><time>2026-04-11T07:51:44.999Z</time></trkpt><trkpt lat="40.25693061620103" lon="9.403670349637599"><ele>451.0</ele><time>2026-04-11T07:51:48.999Z</time></trkpt><trkpt lat="40.257009871343996" lon="9.403706216109322"><ele>451.0</ele><time>2026-04-11T07:51:52.999Z</time></trkpt><trkpt lat="40.25707636968571" lon="9.403748050600283"><ele>451.0</ele><time>2026-04-11T07:51:54.999Z</time></trkpt><trkpt lat="40.25719063168056" lon="9.40383625302203"><ele>451.0</ele><time>2026-04-11T07:51:56.999Z</time></trkpt><trkpt lat="40.2572492397673" lon="9.403907461348588"><ele>451.0</ele><time>2026-04-11T07:51:57.999Z</time></trkpt><trkpt lat="40.25731502011334" lon="9.404011319980597"><ele>452.8</ele><time>2026-04-11T07:51:58.999Z</time></trkpt><trkpt lat="40.25737984527043" lon="9.40412496794304"><ele>454.6</ele><time>2026-04-11T07:51:59.999Z</time></trkpt><trkpt lat="40.25742893725747" lon="9.40423633628955"><ele>456.4</ele><time>2026-04-11T07:52:00.999Z</time></trkpt><trkpt lat="40.25747805119588" lon="9.404352465701656"><ele>458.2</ele><time>2026-04-11T07:52:01.999Z</time></trkpt><trkpt lat="40.25753200452623" lon="9.404441803065703"><ele>460.0</ele><time>2026-04-11T07:52:02.999Z</time></trkpt><trkpt lat="40.25758628608699" lon="9.404520127402808"><ele>460.00000000000006</ele><time>2026-04-11T07:52:03.999Z</time></trkpt><trkpt lat="40.25764703405219" lon="9.404587436488246"><ele>460.0</ele><time>2026-04-11T07:52:04.999Z</time></trkpt><trkpt lat="40.25771032742159" lon="9.404613888802368"><ele>460.0</ele><time>2026-04-11T07:52:05.999Z</time></trkpt><trkpt lat="40.25781636610544" lon="9.404602019706232"><ele>460.0</ele><time>2026-04-11T07:52:08Z</time></trkpt><trkpt lat="40.2578816814415" lon="9.404643900631436"><ele>460.00000000000006</ele><time>2026-04-11T07:53:10Z</time></trkpt><trkpt lat="40.257961987683686" lon="9.404675151602435"><ele>460.0</ele><time>2026-04-11T07:53:13Z</time></trkpt><trkpt lat="40.25804920825298" lon="9.404622947234383"><ele>460.00000000000006</ele><time>2026-04-11T07:53:16Z</time></trkpt><trkpt lat="40.25810476600044" lon="9.404584106249324"><ele>460.0</ele><time>2026-04-11T07:53:18Z</time></trkpt><trkpt lat="40.25817490476916" lon="9.404587901121921"><ele>460.0</ele><time>2026-04-11T07:53:20Z</time></trkpt><trkpt lat="40.25825427727606" lon="9.40458712636216"><ele>460.0</ele><time>2026-04-11T07:53:23Z</time></trkpt><trkpt lat="40.25833579277894" lon="9.404625650133658"><ele>460.00000000000006</ele><time>2026-04-11T07:53:25Z</time></trkpt><trkpt lat="40.25843792687836" lon="9.404675386546135"><ele>460.0</ele><time>2026-04-11T07:53:28Z</time></trkpt><trkpt lat="40.25849810207088" lon="9.404742777788599"><ele>461.33333333333337</ele><time>2026-04-11T07:53:30Z</time></trkpt><trkpt lat="40.258498216974594" lon="9.404840495410825"><ele>462.6666666666667</ele><time>2026-04-11T07:53:33Z</time></trkpt><trkpt lat="40.25843760292832" lon="9.404913644625221"><ele>464.0</ele><time>2026-04-11T07:53:35Z</time></trkpt><trkpt lat="40.2583802574031" lon="9.40500781684054"><ele>465.33333333333337</ele><time>2026-04-11T07:53:37Z</time></trkpt><trkpt lat="40.25834293204203" lon="9.405115043245267"><ele>466.6666666666667</ele><time>2026-04-11T07:53:39Z</time></trkpt><trkpt lat="40.25833176657599" lon="9.405213923775651"><ele>468.0</ele><time>2026-04-11T07:53:41Z</time></trkpt><trkpt lat="40.25835510452752" lon="9.405317897006599"><ele>468.0</ele><time>2026-04-11T07:53:44Z</time></trkpt><trkpt lat="40.25842155907834" lon="9.405386576828825"><ele>468.0</ele><time>2026-04-11T07:53:46Z</time></trkpt><trkpt lat="40.258479248193744" lon="9.405469836382037"><ele>468.0</ele><time>2026-04-11T07:53:47.999Z</time></trkpt><trkpt lat="40.25851212486744" lon="9.405568916212413"><ele>468.0</ele><time>2026-04-11T07:53:49.999Z</time></trkpt><trkpt lat="40.25850643614088" lon="9.405654957724114"><ele>468.0</ele><time>2026-04-11T07:53:51.999Z</time></trkpt><trkpt lat="40.258486302385364" lon="9.405757497650633"><ele>468.0</ele><time>2026-04-11T07:53:53.999Z</time></trkpt><trkpt lat="40.258455402926835" lon="9.405863406683705"><ele>470.0</ele><time>2026-04-11T07:53:55.999Z</time></trkpt><trkpt lat="40.25841705466621" lon="9.405968525407117"><ele>472.0</ele><time>2026-04-11T07:53:57.999Z</time></trkpt><trkpt lat="40.25837578836436" lon="9.40607547081502"><ele>474.0</ele><time>2026-04-11T07:53:59.999Z</time></trkpt><trkpt lat="40.25834701236801" lon="9.406151504431767"><ele>476.0</ele><time>2026-04-11T07:54:01.999Z</time></trkpt><trkpt lat="40.258329633302125" lon="9.406240320986681"><ele>478.0</ele><time>2026-04-11T07:54:03.999Z</time></trkpt><trkpt lat="40.25832644054651" lon="9.40633816263383"><ele>480.0</ele><time>2026-04-11T07:54:07.999Z</time></trkpt><trkpt lat="40.25834058239346" lon="9.406439990781168"><ele>481.3333333333333</ele><time>2026-04-11T07:54:09.999Z</time></trkpt><trkpt lat="40.25834553527577" lon="9.40652655882483"><ele>482.66666666666663</ele><time>2026-04-11T07:54:26Z</time></trkpt><trkpt lat="40.25834668998226" lon="9.406629796235865"><ele>484.0</ele><time>2026-04-11T07:54:28Z</time></trkpt><trkpt lat="40.25834877571409" lon="9.406743763501929"><ele>485.3333333333333</ele><time>2026-04-11T07:54:30Z</time></trkpt><trkpt lat="40.2583382858865" lon="9.406857890987528"><ele>486.66666666666663</ele><time>2026-04-11T07:54:32Z</time></trkpt><trkpt lat="40.25834587281911" lon="9.406963860601392"><ele>488.0</ele><time>2026-04-11T07:54:34Z</time></trkpt><trkpt lat="40.258354946933736" lon="9.407057286363251"><ele>490.2</ele><time>2026-04-11T07:54:36Z</time></trkpt><trkpt lat="40.25832336748789" lon="9.407179184268092"><ele>492.4</ele><time>2026-04-11T07:54:38Z</time></trkpt><trkpt lat="40.25834812533736" lon="9.40731867354014"><ele>494.59999999999997</ele><time>2026-04-11T07:55:08Z</time></trkpt><trkpt lat="40.25836568225562" lon="9.407434779840221"><ele>496.79999999999995</ele><time>2026-04-11T07:55:10Z</time></trkpt><trkpt lat="40.258387646051304" lon="9.40755262864208"><ele>499.0</ele><time>2026-04-11T07:55:12Z</time></trkpt><trkpt lat="40.258398853102136" lon="9.407642157471326"><ele>499.00000000000006</ele><time>2026-04-11T07:55:15Z</time></trkpt><trkpt lat="40.25844542376159" lon="9.407737973529672"><ele>499.0</ele><time>2026-04-11T07:55:25Z</time></trkpt><trkpt lat="40.258509946168225" lon="9.407707915622847"><ele>499.0</ele><time>2026-04-11T07:55:46Z</time></trkpt><trkpt lat="40.258539185071434" lon="9.407614008510393"><ele>499.0</ele><time>2026-04-11T07:56:01.999Z</time></trkpt><trkpt lat="40.258607872161505" lon="9.40753780496656"><ele>499.00000000000006</ele><time>2026-04-11T07:56:04.999Z</time></trkpt><trkpt lat="40.258646496575736" lon="9.40745927024604"><ele>499.0</ele><time>2026-04-11T07:56:06.999Z</time></trkpt><trkpt lat="40.258609146894116" lon="9.407543583363445"><ele>499.00000000000006</ele><time>2026-04-11T07:57:01Z</time></trkpt><trkpt lat="40.25856334401597" lon="9.40764466000911"><ele>499.0</ele><time>2026-04-11T07:57:05Z</time></trkpt><trkpt lat="40.25851936119358" lon="9.407726570338413"><ele>499.0</ele><time>2026-04-11T07:57:11Z</time></trkpt><trkpt lat="40.258456847994466" lon="9.407748111084674"><ele>499.0</ele><time>2026-04-11T07:57:16Z</time></trkpt><trkpt lat="40.258390393059805" lon="9.40767438917746"><ele>499.00000000000006</ele><time>2026-04-11T07:57:20Z</time></trkpt><trkpt lat="40.2584222084708" lon="9.407565808174104"><ele>499.0</ele><time>2026-04-11T07:57:22Z</time></trkpt><trkpt lat="40.25839452109046" lon="9.407452642038532"><ele>499.00000000000006</ele><time>2026-04-11T07:57:25Z</time></trkpt><trkpt lat="40.258375138989805" lon="9.407366215558346"><ele>499.0</ele><time>2026-04-11T07:57:27Z</time></trkpt><trkpt lat="40.25836020098205" lon="9.407284510809955"><ele>499.0</ele><time>2026-04-11T07:57:29Z</time></trkpt><trkpt lat="40.25835365174022" lon="9.407190048942654"><ele>499.0</ele><time>2026-04-11T07:57:31Z</time></trkpt><trkpt lat="40.25836942815283" lon="9.407069557403268"><ele>499.00000000000006</ele><time>2026-04-11T07:57:34Z</time></trkpt><trkpt lat="40.258377974796794" lon="9.406979013167284"><ele>499.0</ele><time>2026-04-11T07:57:36Z</time></trkpt><trkpt lat="40.258378171884765" lon="9.40686515355138"><ele>497.1666666666667</ele><time>2026-04-11T07:57:39Z</time></trkpt><trkpt lat="40.258372250118796" lon="9.40675632491846"><ele>495.33333333333337</ele><time>2026-04-11T07:57:42Z</time></trkpt><trkpt lat="40.25834960269165" lon="9.406634555236264"><ele>493.5</ele><time>2026-04-11T07:57:45Z</time></trkpt><trkpt lat="40.25834729834451" lon="9.4065126168328"><ele>491.66666666666663</ele><time>2026-04-11T07:57:48Z</time></trkpt><trkpt lat="40.25834412136698" lon="9.406417574924307"><ele>489.8333333333333</ele><time>2026-04-11T07:57:51Z</time></trkpt><trkpt lat="40.25834792586578" lon="9.406334535336693"><ele>488.0</ele><time>2026-04-11T07:57:53Z</time></trkpt><trkpt lat="40.258359759456745" lon="9.406238177832465"><ele>486.66666666666663</ele><time>2026-04-11T07:57:57.999Z</time></trkpt><trkpt lat="40.25839674420964" lon="9.406123747520349"><ele>485.3333333333333</ele><time>2026-04-11T07:58:07.999Z</time></trkpt><trkpt lat="40.258429059001244" lon="9.406024880988232"><ele>484.0</ele><time>2026-04-11T07:58:09.999Z</time></trkpt><trkpt lat="40.25846312656015" lon="9.405920651710227"><ele>482.66666666666663</ele><time>2026-04-11T07:58:11.999Z</time></trkpt><trkpt lat="40.258493213424316" lon="9.40582604244174"><ele>481.3333333333333</ele><time>2026-04-11T07:58:13.999Z</time></trkpt><trkpt lat="40.258515287043586" lon="9.405743986598042"><ele>480.0</ele><time>2026-04-11T07:58:15.999Z</time></trkpt><trkpt lat="40.258537359121064" lon="9.405631935565209"><ele>480.0</ele><time>2026-04-11T07:58:18.999Z</time></trkpt><trkpt lat="40.25852089186552" lon="9.405499689868018"><ele>480.0</ele><time>2026-04-11T07:58:21.999Z</time></trkpt><trkpt lat="40.25849021628012" lon="9.405425431361344"><ele>480.0</ele><time>2026-04-11T07:58:23.999Z</time></trkpt><trkpt lat="40.25842255968801" lon="9.4053697252158"><ele>480.0</ele><time>2026-04-11T07:58:26Z</time></trkpt><trkpt lat="40.25837214404507" lon="9.40531215771573"><ele>480.0</ele><time>2026-04-11T07:58:28Z</time></trkpt><trkpt lat="40.25835626403438" lon="9.405205590317246"><ele>480.0</ele><time>2026-04-11T07:58:31Z</time></trkpt><trkpt lat="40.25837707592047" lon="9.405118979496628"><ele>478.0</ele><time>2026-04-11T07:58:35Z</time></trkpt><trkpt lat="40.258413064376704" lon="9.405046721388738"><ele>476.0</ele><time>2026-04-11T07:58:37Z</time></trkpt><trkpt lat="40.25845365644377" lon="9.404976919259104"><ele>474.0</ele><time>2026-04-11T07:58:39Z</time></trkpt><trkpt lat="40.258498994510425" lon="9.40489199579738"><ele>472.0</ele><time>2026-04-11T07:58:41Z</time></trkpt><trkpt lat="40.25851694909714" lon="9.404792674257006"><ele>470.0</ele><time>2026-04-11T07:58:45Z</time></trkpt><trkpt lat="40.25853415240458" lon="9.404708843042332"><ele>468.0</ele><time>2026-04-11T07:58:50Z</time></trkpt><trkpt lat="40.25843904537797" lon="9.40464350641388"><ele>468.5714285714286</ele><time>2026-04-11T07:58:51Z</time></trkpt><trkpt lat="40.25836130906986" lon="9.40459354626495"><ele>469.1428571428572</ele><time>2026-04-11T07:58:54Z</time></trkpt><trkpt lat="40.25827614963484" lon="9.404559161132447"><ele>469.7142857142857</ele><time>2026-04-11T07:58:57Z</time></trkpt><trkpt lat="40.258211223484466" lon="9.404559254149977"><ele>470.28571428571433</ele><time>2026-04-11T07:58:59Z</time></trkpt><trkpt lat="40.25814593646456" lon="9.40454546829698"><ele>470.8571428571429</ele><time>2026-04-11T07:59:01Z</time></trkpt><trkpt lat="40.2580964777752" lon="9.404599715898545"><ele>471.42857142857144</ele><time>2026-04-11T07:59:03Z</time></trkpt><trkpt lat="40.2580416583073" lon="9.404644019312766"><ele>472.0</ele><time>2026-04-11T07:59:05Z</time></trkpt><trkpt lat="40.25795910288206" lon="9.404682125786003"><ele>469.6</ele><time>2026-04-11T07:59:08Z</time></trkpt><trkpt lat="40.257853076339934" lon="9.40461675440234"><ele>467.20000000000005</ele><time>2026-04-11T07:59:14Z</time></trkpt><trkpt lat="40.257853794905294" lon="9.40452920916776"><ele>464.8</ele><time>2026-04-11T07:59:16Z</time></trkpt><trkpt lat="40.25791809880246" lon="9.404463902733253"><ele>462.4</ele><time>2026-04-11T07:59:17Z</time></trkpt><trkpt lat="40.2579578497388" lon="9.40439625427031"><ele>460.0</ele><time>2026-04-11T07:59:18Z</time></trkpt><trkpt lat="40.25800045435367" lon="9.40423216694583"><ele>460.00000000000006</ele><time>2026-04-11T07:59:20Z</time></trkpt><trkpt lat="40.25802916906706" lon="9.40412842869758"><ele>460.0</ele><time>2026-04-11T07:59:21Z</time></trkpt><trkpt lat="40.258042264190024" lon="9.404017382281184"><ele>460.0</ele><time>2026-04-11T07:59:22Z</time></trkpt><trkpt lat="40.25806404511485" lon="9.403925695968638"><ele>460.0</ele><time>2026-04-11T07:59:23Z</time></trkpt><trkpt lat="40.25806529273215" lon="9.403821220835875"><ele>460.00000000000006</ele><time>2026-04-11T07:59:24Z</time></trkpt><trkpt lat="40.25804258494919" lon="9.403720157413023"><ele>460.0</ele><time>2026-04-11T07:59:25Z</time></trkpt><trkpt lat="40.25800209499972" lon="9.403614548310332"><ele>458.1666666666667</ele><time>2026-04-11T07:59:26Z</time></trkpt><trkpt lat="40.2579487760831" lon="9.403510614988626"><ele>456.33333333333337</ele><time>2026-04-11T07:59:27Z</time></trkpt><trkpt lat="40.257900238488" lon="9.4034132012522"><ele>454.5</ele><time>2026-04-11T07:59:28Z</time></trkpt><trkpt lat="40.25785005027283" lon="9.403321075990407"><ele>452.66666666666663</ele><time>2026-04-11T07:59:29Z</time></trkpt><trkpt lat="40.25780097613792" lon="9.403224560701538"><ele>450.8333333333333</ele><time>2026-04-11T07:59:30Z</time></trkpt><trkpt lat="40.257772008999595" lon="9.403137054665665"><ele>449.0</ele><time>2026-04-11T07:59:31Z</time></trkpt><trkpt lat="40.257755843928116" lon="9.403042437737236"><ele>447.3333333333333</ele><time>2026-04-11T07:59:32Z</time></trkpt><trkpt lat="40.257755003995335" lon="9.402936858736746"><ele>445.66666666666663</ele><time>2026-04-11T07:59:33Z</time></trkpt><trkpt lat="40.25781634282294" lon="9.40285168439645"><ele>444.0</ele><time>2026-04-11T07:59:34Z</time></trkpt><trkpt lat="40.25786286532503" lon="9.402769787584113"><ele>442.33333333333337</ele><time>2026-04-11T07:59:35Z</time></trkpt><trkpt lat="40.257933409392336" lon="9.402724384604038"><ele>440.6666666666667</ele><time>2026-04-11T07:59:36Z</time></trkpt><trkpt lat="40.25801338201906" lon="9.402660880163475"><ele>439.0</ele><time>2026-04-11T07:59:37Z</time></trkpt><trkpt lat="40.25808685992647" lon="9.402610819382518"><ele>440.6</ele><time>2026-04-11T07:59:38Z</time></trkpt><trkpt lat="40.25817084514485" lon="9.402567791644373"><ele>442.2</ele><time>2026-04-11T07:59:39Z</time></trkpt><trkpt lat="40.25825617788239" lon="9.402556414398372"><ele>443.80000000000007</ele><time>2026-04-11T07:59:40Z</time></trkpt><trkpt lat="40.2583431002471" lon="9.40254207445515"><ele>445.40000000000003</ele><time>2026-04-11T07:59:41Z</time></trkpt><trkpt lat="40.25842786484728" lon="9.402615490856983"><ele>447.0</ele><time>2026-04-11T07:59:42Z</time></trkpt><trkpt lat="40.25853000055247" lon="9.402651403468544"><ele>447.0</ele><time>2026-04-11T07:59:43Z</time></trkpt><trkpt lat="40.25861026938037" lon="9.402678936925321"><ele>447.00000000000006</ele><time>2026-04-11T07:59:44Z</time></trkpt><trkpt lat="40.25870291635036" lon="9.402692093356233"><ele>447.00000000000006</ele><time>2026-04-11T07:59:45Z</time></trkpt><trkpt lat="40.258786035841716" lon="9.402739524022715"><ele>447.0</ele><time>2026-04-11T07:59:46Z</time></trkpt><trkpt lat="40.25886472010262" lon="9.402809239741385"><ele>447.0</ele><time>2026-04-11T07:59:47Z</time></trkpt><trkpt lat="40.25895293503968" lon="9.402852486277322"><ele>447.6666666666667</ele><time>2026-04-11T07:59:48Z</time></trkpt><trkpt lat="40.25905095515557" lon="9.402861098319258"><ele>448.33333333333337</ele><time>2026-04-11T07:59:49Z</time></trkpt><trkpt lat="40.259136613807705" lon="9.402889900428525"><ele>449.0</ele><time>2026-04-11T07:59:50Z</time></trkpt><trkpt lat="40.25922266702453" lon="9.402905357959558"><ele>449.6666666666667</ele><time>2026-04-11T07:59:51Z</time></trkpt><trkpt lat="40.25929797749393" lon="9.402924072979092"><ele>450.33333333333337</ele><time>2026-04-11T07:59:52Z</time></trkpt><trkpt lat="40.25936377825396" lon="9.402954554952284"><ele>451.0</ele><time>2026-04-11T07:59:53Z</time></trkpt><trkpt lat="40.25943311569644" lon="9.403001838378128"><ele>451.0</ele><time>2026-04-11T07:59:54Z</time></trkpt><trkpt lat="40.25950702099183" lon="9.403059003916072"><ele>451.0</ele><time>2026-04-11T07:59:54.999Z</time></trkpt><trkpt lat="40.259587376300594" lon="9.403103867784774"><ele>451.0</ele><time>2026-04-11T07:59:55.999Z</time></trkpt><trkpt lat="40.259669486395" lon="9.403166962248756"><ele>451.0</ele><time>2026-04-11T07:59:56.999Z</time></trkpt><trkpt lat="40.25973658589696" lon="9.403248947505409"><ele>451.0</ele><time>2026-04-11T07:59:57.999Z</time></trkpt><trkpt lat="40.25982555550917" lon="9.403293911542493"><ele>449.83333333333337</ele><time>2026-04-11T07:59:58.999Z</time></trkpt><trkpt lat="40.25990192269135" lon="9.403348360115483"><ele>448.6666666666667</ele><time>2026-04-11T07:59:59.999Z</time></trkpt><trkpt lat="40.25996912908092" lon="9.403362393291342"><ele>447.5</ele><time>2026-04-11T08:00:00.999Z</time></trkpt><trkpt lat="40.26003538655395" lon="9.403364253215225"><ele>446.33333333333337</ele><time>2026-04-11T08:00:01.999Z</time></trkpt><trkpt lat="40.260096654452816" lon="9.403306652121767"><ele>445.1666666666667</ele><time>2026-04-11T08:00:02.999Z</time></trkpt><trkpt lat="40.26012727991774" lon="9.403196701315743"><ele>444.0</ele><time>2026-04-11T08:00:03.999Z</time></trkpt><trkpt lat="40.260156231922146" lon="9.403104784020185"><ele>444.0</ele><time>2026-04-11T08:00:04.999Z</time></trkpt><trkpt lat="40.26019703253379" lon="9.403032511352338"><ele>444.0</ele><time>2026-04-11T08:00:05.999Z</time></trkpt><trkpt lat="40.260230128888374" lon="9.402960404466016"><ele>444.0</ele><time>2026-04-11T08:00:06.999Z</time></trkpt><trkpt lat="40.26031611909844" lon="9.402840345279078"><ele>444.0</ele><time>2026-04-11T08:00:08.999Z</time></trkpt><trkpt lat="40.260375245943244" lon="9.402788034554469"><ele>444.0</ele><time>2026-04-11T08:00:09.999Z</time></trkpt><trkpt lat="40.26045420550554" lon="9.402835145488009"><ele>444.0</ele><time>2026-04-11T08:00:10.999Z</time></trkpt><trkpt lat="40.26052751315518" lon="9.40286085360372"><ele>443.6</ele><time>2026-04-11T08:00:11.999Z</time></trkpt><trkpt lat="40.260598789310606" lon="9.402883316827547"><ele>443.2</ele><time>2026-04-11T08:00:12.999Z</time></trkpt><trkpt lat="40.2606930896097" lon="9.4029072042998"><ele>442.80000000000007</ele><time>2026-04-11T08:00:14.999Z</time></trkpt><trkpt lat="40.260712579788915" lon="9.403019955876392"><ele>442.40000000000003</ele><time>2026-04-11T08:00:17.999Z</time></trkpt><trkpt lat="40.260810977435234" lon="9.403068883254244"><ele>442.0</ele><time>2026-04-11T08:00:19.999Z</time></trkpt><trkpt lat="40.260905436364716" lon="9.403155803876562"><ele>442.0</ele><time>2026-04-11T08:00:21.999Z</time></trkpt><trkpt lat="40.26099002766127" lon="9.403236760467818"><ele>442.00000000000006</ele><time>2026-04-11T08:00:23.999Z</time></trkpt><trkpt lat="40.26103390888814" lon="9.403339563366588"><ele>442.00000000000006</ele><time>2026-04-11T08:00:25.999Z</time></trkpt><trkpt lat="40.26104406591442" lon="9.40345445559319"><ele>442.0</ele><time>2026-04-11T08:00:27.999Z</time></trkpt><trkpt lat="40.2610027997295" lon="9.403586284634471"><ele>442.0</ele><time>2026-04-11T08:00:29.999Z</time></trkpt><trkpt lat="40.260962099507225" lon="9.40371009897925"><ele>442.00000000000006</ele><time>2026-04-11T08:00:32Z</time></trkpt><trkpt lat="40.260953672174615" lon="9.403824932615189"><ele>442.0</ele><time>2026-04-11T08:00:34Z</time></trkpt><trkpt lat="40.2609542600837" lon="9.40391225979796"><ele>442.0</ele><time>2026-04-11T08:00:38Z</time></trkpt><trkpt lat="40.26096731972437" lon="9.404005128533607"><ele>442.0</ele><time>2026-04-11T08:00:43Z</time></trkpt><trkpt lat="40.261104430533635" lon="9.40397402209119"><ele>442.00000000000006</ele><time>2026-04-11T08:00:44Z</time></trkpt><trkpt lat="40.26118120212583" lon="9.403981184263422"><ele>442.0</ele><time>2026-04-11T08:00:46Z</time></trkpt><trkpt lat="40.261266556001026" lon="9.4039964374079"><ele>442.40000000000003</ele><time>2026-04-11T08:00:48Z</time></trkpt><trkpt lat="40.261354511414716" lon="9.404004600428753"><ele>442.80000000000007</ele><time>2026-04-11T08:00:50Z</time></trkpt><trkpt lat="40.261445736726785" lon="9.404011573273003"><ele>443.2</ele><time>2026-04-11T08:00:52Z</time></trkpt><trkpt lat="40.2615355448057" lon="9.404014906627776"><ele>443.6</ele><time>2026-04-11T08:00:54Z</time></trkpt><trkpt lat="40.26162777759855" lon="9.404043009923333"><ele>444.0</ele><time>2026-04-11T08:00:56Z</time></trkpt><trkpt lat="40.26171885447279" lon="9.40409199883326"><ele>444.0</ele><time>2026-04-11T08:00:59Z</time></trkpt><trkpt lat="40.26178723306496" lon="9.404137929147128"><ele>444.0</ele><time>2026-04-11T08:01:02Z</time></trkpt><trkpt lat="40.2618723078132" lon="9.40420709125203"><ele>444.0</ele><time>2026-04-11T08:01:18Z</time></trkpt><trkpt lat="40.26194168631815" lon="9.404266801260198"><ele>444.0</ele><time>2026-04-11T08:01:20Z</time></trkpt><trkpt lat="40.26200397756225" lon="9.404358529449"><ele>444.0</ele><time>2026-04-11T08:01:22Z</time></trkpt><trkpt lat="40.262048015672555" lon="9.404449480885392"><ele>444.0</ele><time>2026-04-11T08:01:24Z</time></trkpt><trkpt lat="40.26209343437279" lon="9.404551495344675"><ele>445.4</ele><time>2026-04-11T08:01:27Z</time></trkpt><trkpt lat="40.26213153418845" lon="9.404666350226108"><ele>446.79999999999995</ele><time>2026-04-11T08:01:29Z</time></trkpt><trkpt lat="40.2621902854593" lon="9.40476139797388"><ele>448.20000000000005</ele><time>2026-04-11T08:01:32Z</time></trkpt><trkpt lat="40.26224862839748" lon="9.404858354319797"><ele>449.6</ele><time>2026-04-11T08:01:34Z</time></trkpt><trkpt lat="40.262302590168055" lon="9.404972016770666"><ele>451.0</ele><time>2026-04-11T08:01:36Z</time></trkpt><trkpt lat="40.26236531161925" lon="9.405037491330333"><ele>451.0</ele><time>2026-04-11T08:01:38Z</time></trkpt><trkpt lat="40.26244608308717" lon="9.40510213189917"><ele>451.0</ele><time>2026-04-11T08:01:40Z</time></trkpt><trkpt lat="40.262508305153865" lon="9.405167206055058"><ele>451.0</ele><time>2026-04-11T08:01:42Z</time></trkpt><trkpt lat="40.2625838881742" lon="9.405200171451632"><ele>451.0</ele><time>2026-04-11T08:01:44Z</time></trkpt><trkpt lat="40.262684628420494" lon="9.405207845453782"><ele>451.0</ele><time>2026-04-11T08:01:46Z</time></trkpt><trkpt lat="40.26278688592279" lon="9.405182036014095"><ele>451.0</ele><time>2026-04-11T08:01:48Z</time></trkpt><trkpt lat="40.26287272975529" lon="9.405211599861806"><ele>451.0</ele><time>2026-04-11T08:01:50Z</time></trkpt><trkpt lat="40.262967580873514" lon="9.405226317869765"><ele>451.0</ele><time>2026-04-11T08:01:52.999Z</time></trkpt><trkpt lat="40.26304996599182" lon="9.405194544302796"><ele>451.0</ele><time>2026-04-11T08:01:54.999Z</time></trkpt><trkpt lat="40.26314708841313" lon="9.40510845192228"><ele>451.0</ele><time>2026-04-11T08:01:56.999Z</time></trkpt><trkpt lat="40.263203577248056" lon="9.404980879201352"><ele>451.1666666666667</ele><time>2026-04-11T08:01:58.999Z</time></trkpt><trkpt lat="40.26324615775233" lon="9.404883239494996"><ele>451.33333333333337</ele><time>2026-04-11T08:02:00.999Z</time></trkpt><trkpt lat="40.26328321269211" lon="9.404802000551541"><ele>451.5</ele><time>2026-04-11T08:02:02.999Z</time></trkpt><trkpt lat="40.26334027434677" lon="9.404735875354662"><ele>451.66666666666663</ele><time>2026-04-11T08:02:05.999Z</time></trkpt><trkpt lat="40.26340781137431" lon="9.404671743776898"><ele>451.8333333333333</ele><time>2026-04-11T08:02:07.999Z</time></trkpt><trkpt lat="40.263482755611236" lon="9.404706674582654"><ele>452.0</ele><time>2026-04-11T08:02:09.999Z</time></trkpt><trkpt lat="40.263603627487804" lon="9.404702342279474"><ele>451.99999999999994</ele><time>2026-04-11T08:02:11.999Z</time></trkpt><trkpt lat="40.26367941319478" lon="9.404690887791244"><ele>452.0</ele><time>2026-04-11T08:02:12.999Z</time></trkpt><trkpt lat="40.2637523749256" lon="9.404656526030267"><ele>452.0</ele><time>2026-04-11T08:02:13.999Z</time></trkpt><trkpt lat="40.263824731146634" lon="9.40464910155893"><ele>452.0</ele><time>2026-04-11T08:02:14.999Z</time></trkpt><trkpt lat="40.26394279584039" lon="9.404622658850355"><ele>451.99999999999994</ele><time>2026-04-11T08:02:16.999Z</time></trkpt><trkpt lat="40.264041721686915" lon="9.4045857593302"><ele>452.0</ele><time>2026-04-11T08:02:18.999Z</time></trkpt><trkpt lat="40.26414298560919" lon="9.404553759682486"><ele>450.66666666666663</ele><time>2026-04-11T08:02:20.999Z</time></trkpt><trkpt lat="40.26423124729229" lon="9.404562745465482"><ele>449.3333333333333</ele><time>2026-04-11T08:02:22.999Z</time></trkpt><trkpt lat="40.264325795428746" lon="9.404556479858067"><ele>448.0</ele><time>2026-04-11T08:02:26.999Z</time></trkpt><trkpt lat="40.26439430593589" lon="9.404484443720072"><ele>446.66666666666663</ele><time>2026-04-11T08:02:27.999Z</time></trkpt><trkpt lat="40.26446181155069" lon="9.404454709316505"><ele>445.3333333333333</ele><time>2026-04-11T08:02:28.999Z</time></trkpt><trkpt lat="40.26451577599997" lon="9.404408204339731"><ele>444.0</ele><time>2026-04-11T08:02:29.999Z</time></trkpt><trkpt lat="40.26460365376822" lon="9.404326782446857"><ele>444.0</ele><time>2026-04-11T08:02:31.999Z</time></trkpt><trkpt lat="40.264687067923106" lon="9.40426406796135"><ele>444.0</ele><time>2026-04-11T08:02:33.999Z</time></trkpt><trkpt lat="40.264789884059134" lon="9.404324300792066"><ele>444.0</ele><time>2026-04-11T08:02:35.999Z</time></trkpt><trkpt lat="40.26489437905779" lon="9.404371091326128"><ele>444.0</ele><time>2026-04-11T08:02:38Z</time></trkpt><trkpt lat="40.26495900719619" lon="9.404399291496928"><ele>444.0</ele><time>2026-04-11T08:02:39Z</time></trkpt><trkpt lat="40.26506865414012" lon="9.404448603650152"><ele>444.3333333333333</ele><time>2026-04-11T08:02:41Z</time></trkpt><trkpt lat="40.26513149116248" lon="9.404476457078529"><ele>444.66666666666663</ele><time>2026-04-11T08:02:42Z</time></trkpt><trkpt lat="40.26519535428484" lon="9.404505643796284"><ele>445.0</ele><time>2026-04-11T08:02:43Z</time></trkpt><trkpt lat="40.265271584333625" lon="9.404546044714868"><ele>445.3333333333333</ele><time>2026-04-11T08:02:44Z</time></trkpt><trkpt lat="40.26538791243157" lon="9.404614137782879"><ele>445.66666666666663</ele><time>2026-04-11T08:02:46Z</time></trkpt><trkpt lat="40.26543992184947" lon="9.404667494913866"><ele>446.0</ele><time>2026-04-11T08:02:47Z</time></trkpt><trkpt lat="40.26549127288344" lon="9.404738734539121"><ele>446.7142857142857</ele><time>2026-04-11T08:02:48Z</time></trkpt><trkpt lat="40.265557402349145" lon="9.40478480717965"><ele>447.42857142857144</ele><time>2026-04-11T08:02:49Z</time></trkpt><trkpt lat="40.265605889223714" lon="9.40485231657752"><ele>448.1428571428571</ele><time>2026-04-11T08:02:50Z</time></trkpt><trkpt lat="40.26566231476722" lon="9.404911703032168"><ele>448.8571428571429</ele><time>2026-04-11T08:02:51Z</time></trkpt><trkpt lat="40.26571925942293" lon="9.404964490136377"><ele>449.5714285714286</ele><time>2026-04-11T08:02:52Z</time></trkpt><trkpt lat="40.26577666684959" lon="9.40500934619587"><ele>450.2857142857143</ele><time>2026-04-11T08:02:53Z</time></trkpt><trkpt lat="40.265820044112516" lon="9.405083593248772"><ele>451.0</ele><time>2026-04-11T08:02:54Z</time></trkpt><trkpt lat="40.26589672577295" lon="9.405218915868849"><ele>449.57142857142856</ele><time>2026-04-11T08:02:56Z</time></trkpt><trkpt lat="40.26593647075052" lon="9.405294486588245"><ele>448.14285714285717</ele><time>2026-04-11T08:02:57Z</time></trkpt><trkpt lat="40.26595157167205" lon="9.405393902781539"><ele>446.7142857142857</ele><time>2026-04-11T08:02:58Z</time></trkpt><trkpt lat="40.26597486023681" lon="9.405476862337535"><ele>445.2857142857143</ele><time>2026-04-11T08:02:59Z</time></trkpt><trkpt lat="40.26601002110835" lon="9.405578168345274"><ele>443.8571428571429</ele><time>2026-04-11T08:03:00Z</time></trkpt><trkpt lat="40.26604761001429" lon="9.405661801828794"><ele>442.42857142857144</ele><time>2026-04-11T08:03:01Z</time></trkpt><trkpt lat="40.266088578597234" lon="9.40574150144816"><ele>441.0</ele><time>2026-04-11T08:03:02Z</time></trkpt><trkpt lat="40.266130716724646" lon="9.405814605998776"><ele>440.6666666666667</ele><time>2026-04-11T08:03:03Z</time></trkpt><trkpt lat="40.26617185167077" lon="9.405882581183953"><ele>440.33333333333337</ele><time>2026-04-11T08:03:04Z</time></trkpt><trkpt lat="40.266243583619556" lon="9.40596571614752"><ele>440.0</ele><time>2026-04-11T08:03:06Z</time></trkpt><trkpt lat="40.26629213403182" lon="9.406049043631382"><ele>439.6666666666667</ele><time>2026-04-11T08:03:08Z</time></trkpt><trkpt lat="40.2663736043344" lon="9.406143520547223"><ele>439.33333333333337</ele><time>2026-04-11T08:03:10Z</time></trkpt><trkpt lat="40.26638448117002" lon="9.406238088986395"><ele>439.0</ele><time>2026-04-11T08:03:11Z</time></trkpt><trkpt lat="40.26640057027118" lon="9.406338476621006"><ele>438.79999999999995</ele><time>2026-04-11T08:03:12Z</time></trkpt><trkpt lat="40.266420638853674" lon="9.406447164506405"><ele>438.59999999999997</ele><time>2026-04-11T08:03:13Z</time></trkpt><trkpt lat="40.2664492107003" lon="9.406559531353642"><ele>438.4</ele><time>2026-04-11T08:03:14Z</time></trkpt><trkpt lat="40.26647992908343" lon="9.40667203178321"><ele>438.2</ele><time>2026-04-11T08:03:15Z</time></trkpt><trkpt lat="40.26650527288218" lon="9.406788161149006"><ele>438.0</ele><time>2026-04-11T08:03:16Z</time></trkpt><trkpt lat="40.26652765138287" lon="9.406911045941236"><ele>436.79999999999995</ele><time>2026-04-11T08:03:17Z</time></trkpt><trkpt lat="40.2665477004386" lon="9.407040999048462"><ele>435.59999999999997</ele><time>2026-04-11T08:03:18Z</time></trkpt><trkpt lat="40.26656280673635" lon="9.407176682924101"><ele>434.40000000000003</ele><time>2026-04-11T08:03:19Z</time></trkpt><trkpt lat="40.26657151005805" lon="9.40731694129932"><ele>433.20000000000005</ele><time>2026-04-11T08:03:20Z</time></trkpt><trkpt lat="40.266567900034005" lon="9.407453489239238"><ele>432.0</ele><time>2026-04-11T08:03:21Z</time></trkpt><trkpt lat="40.26655906346262" lon="9.407574815312193"><ele>432.0</ele><time>2026-04-11T08:03:22Z</time></trkpt><trkpt lat="40.266548887157576" lon="9.407688896602666"><ele>432.0</ele><time>2026-04-11T08:03:23Z</time></trkpt><trkpt lat="40.26653657809377" lon="9.407801297487678"><ele>432.0</ele><time>2026-04-11T08:03:24Z</time></trkpt><trkpt lat="40.26652497541944" lon="9.407913831314335"><ele>432.0</ele><time>2026-04-11T08:03:25Z</time></trkpt><trkpt lat="40.26652236080105" lon="9.408033311495947"><ele>432.0</ele><time>2026-04-11T08:03:26Z</time></trkpt><trkpt lat="40.266533074715184" lon="9.408147830682807"><ele>432.0</ele><time>2026-04-11T08:03:27Z</time></trkpt><trkpt lat="40.26657784714334" lon="9.40824337356808"><ele>432.40000000000003</ele><time>2026-04-11T08:03:28Z</time></trkpt><trkpt lat="40.26665516799614" lon="9.40832059471437"><ele>432.80000000000007</ele><time>2026-04-11T08:03:29Z</time></trkpt><trkpt lat="40.266742590519456" lon="9.408394477912664"><ele>433.2</ele><time>2026-04-11T08:03:30Z</time></trkpt><trkpt lat="40.26683723625586" lon="9.408478272191793"><ele>433.6</ele><time>2026-04-11T08:03:31Z</time></trkpt><trkpt lat="40.266942167275175" lon="9.408552713588199"><ele>434.0</ele><time>2026-04-11T08:03:32Z</time></trkpt><trkpt lat="40.26704111778136" lon="9.40862973928524"><ele>434.0</ele><time>2026-04-11T08:03:33Z</time></trkpt><trkpt lat="40.26717313954937" lon="9.408652173734248"><ele>434.0</ele><time>2026-04-11T08:03:34Z</time></trkpt><trkpt lat="40.26730259220404" lon="9.408677298068627"><ele>434.0</ele><time>2026-04-11T08:03:35Z</time></trkpt><trkpt lat="40.26742908962903" lon="9.408696312032484"><ele>434.0</ele><time>2026-04-11T08:03:36Z</time></trkpt><trkpt lat="40.26757364978655" lon="9.408720265339337"><ele>432.75</ele><time>2026-04-11T08:03:37Z</time></trkpt><trkpt lat="40.26770615789611" lon="9.408764359945788"><ele>431.5</ele><time>2026-04-11T08:03:38Z</time></trkpt><trkpt lat="40.26782639304757" lon="9.408786129393361"><ele>430.25</ele><time>2026-04-11T08:03:39Z</time></trkpt><trkpt lat="40.267937088064095" lon="9.408807607520828"><ele>429.0</ele><time>2026-04-11T08:03:40Z</time></trkpt><trkpt lat="40.26804712773001" lon="9.408828958235349"><ele>431.4</ele><time>2026-04-11T08:03:41Z</time></trkpt><trkpt lat="40.26816154219639" lon="9.408834480955484"><ele>433.79999999999995</ele><time>2026-04-11T08:03:42Z</time></trkpt><trkpt lat="40.268268434606334" lon="9.408838825050582"><ele>436.20000000000005</ele><time>2026-04-11T08:03:43Z</time></trkpt><trkpt lat="40.26837304461223" lon="9.408842967554227"><ele>438.6</ele><time>2026-04-11T08:03:44Z</time></trkpt><trkpt lat="40.268477706355064" lon="9.40882630135303"><ele>441.0</ele><time>2026-04-11T08:03:45Z</time></trkpt><trkpt lat="40.26857734950671" lon="9.408853058161192"><ele>441.0</ele><time>2026-04-11T08:03:46Z</time></trkpt><trkpt lat="40.26867504580319" lon="9.408893144073867"><ele>441.0</ele><time>2026-04-11T08:03:47Z</time></trkpt><trkpt lat="40.268764992003" lon="9.40894907353557"><ele>441.0</ele><time>2026-04-11T08:03:48Z</time></trkpt><trkpt lat="40.2688526359691" lon="9.409026259531375"><ele>441.0</ele><time>2026-04-11T08:03:49Z</time></trkpt><trkpt lat="40.26894285915071" lon="9.40911895994178"><ele>441.0</ele><time>2026-04-11T08:03:50Z</time></trkpt><trkpt lat="40.26902814174386" lon="9.409212141799811"><ele>441.8333333333333</ele><time>2026-04-11T08:03:51Z</time></trkpt><trkpt lat="40.26910485520723" lon="9.409300874010167"><ele>442.66666666666663</ele><time>2026-04-11T08:03:52Z</time></trkpt><trkpt lat="40.26917217777398" lon="9.409379622474663"><ele>443.5</ele><time>2026-04-11T08:03:53Z</time></trkpt><trkpt lat="40.26922851245064" lon="9.409450572194105"><ele>444.3333333333333</ele><time>2026-04-11T08:03:54Z</time></trkpt><trkpt lat="40.269275539742345" lon="9.409512285588153"><ele>445.16666666666663</ele><time>2026-04-11T08:03:55Z</time></trkpt><trkpt lat="40.26931777045153" lon="9.409605851652334"><ele>446.0</ele><time>2026-04-11T08:03:57Z</time></trkpt><trkpt lat="40.2692420360108" lon="9.409757852481915"><ele>446.0</ele><time>2026-04-11T08:03:58.999Z</time></trkpt><trkpt lat="40.269168337564224" lon="9.409878209630456"><ele>446.0</ele><time>2026-04-11T08:04:00.999Z</time></trkpt><trkpt lat="40.26911096314515" lon="9.409940336800334"><ele>446.0</ele><time>2026-04-11T08:04:01.999Z</time></trkpt><trkpt lat="40.26907568224484" lon="9.410060836907778"><ele>446.0</ele><time>2026-04-11T08:04:03.999Z</time></trkpt><trkpt lat="40.269038740778164" lon="9.410223957174006"><ele>446.0</ele><time>2026-04-11T08:04:05.999Z</time></trkpt><trkpt lat="40.26900928580189" lon="9.410304880609639"><ele>445.99999999999994</ele><time>2026-04-11T08:04:06.999Z</time></trkpt><trkpt lat="40.26898200315458" lon="9.410380572128648"><ele>446.0</ele><time>2026-04-11T08:04:07.999Z</time></trkpt><trkpt lat="40.26896497399781" lon="9.410464492051691"><ele>446.0</ele><time>2026-04-11T08:04:08.999Z</time></trkpt><trkpt lat="40.26892889242834" lon="9.410532343939817"><ele>446.0</ele><time>2026-04-11T08:04:09.999Z</time></trkpt><trkpt lat="40.26889074264383" lon="9.410601050634286"><ele>445.99999999999994</ele><time>2026-04-11T08:04:10.999Z</time></trkpt><trkpt lat="40.26883313809293" lon="9.410751771561834"><ele>446.0</ele><time>2026-04-11T08:04:12.999Z</time></trkpt><trkpt lat="40.26879024837606" lon="9.410818176205845"><ele>448.66666666666663</ele><time>2026-04-11T08:04:13.999Z</time></trkpt><trkpt lat="40.268728527869214" lon="9.410880861964092"><ele>451.3333333333333</ele><time>2026-04-11T08:04:14.999Z</time></trkpt><trkpt lat="40.26868794793964" lon="9.410967260299223"><ele>454.0</ele><time>2026-04-11T08:04:15.999Z</time></trkpt><trkpt lat="40.2686296569653" lon="9.411026167998157"><ele>456.66666666666663</ele><time>2026-04-11T08:04:16.999Z</time></trkpt><trkpt lat="40.26851968937791" lon="9.411122510689047"><ele>459.3333333333333</ele><time>2026-04-11T08:04:18.999Z</time></trkpt><trkpt lat="40.26845629560714" lon="9.411145654930817"><ele>462.0</ele><time>2026-04-11T08:04:19.999Z</time></trkpt><trkpt lat="40.268380600651575" lon="9.411139751546665"><ele>462.0</ele><time>2026-04-11T08:04:20.999Z</time></trkpt><trkpt lat="40.26830348531807" lon="9.411115329259705"><ele>462.0</ele><time>2026-04-11T08:04:21.999Z</time></trkpt><trkpt lat="40.268235880708055" lon="9.411132748137158"><ele>462.0</ele><time>2026-04-11T08:04:22.999Z</time></trkpt><trkpt lat="40.26815106160569" lon="9.411227821916937"><ele>462.0</ele><time>2026-04-11T08:04:24.999Z</time></trkpt><trkpt lat="40.2681320444825" lon="9.41132093391453"><ele>462.0</ele><time>2026-04-11T08:04:25.999Z</time></trkpt><trkpt lat="40.268129530535234" lon="9.41142677058935"><ele>462.0</ele><time>2026-04-11T08:04:26.999Z</time></trkpt><trkpt lat="40.2681165481241" lon="9.411523275996304"><ele>465.20000000000005</ele><time>2026-04-11T08:04:27.999Z</time></trkpt><trkpt lat="40.26808696592799" lon="9.41160016675459"><ele>468.40000000000003</ele><time>2026-04-11T08:04:28.999Z</time></trkpt><trkpt lat="40.267986270800094" lon="9.411604440130105"><ele>471.59999999999997</ele><time>2026-04-11T08:04:30.999Z</time></trkpt><trkpt lat="40.26788743401854" lon="9.411496046583753"><ele>474.79999999999995</ele><time>2026-04-11T08:04:32.999Z</time></trkpt><trkpt lat="40.26782290924744" lon="9.411459241650304"><ele>478.0</ele><time>2026-04-11T08:04:33.999Z</time></trkpt><trkpt lat="40.267748662734355" lon="9.411391482067819"><ele>478.0</ele><time>2026-04-11T08:04:34.999Z</time></trkpt><trkpt lat="40.26767045871803" lon="9.411329221088486"><ele>477.99999999999994</ele><time>2026-04-11T08:04:35.999Z</time></trkpt><trkpt lat="40.26758024767094" lon="9.4112664841665"><ele>477.99999999999994</ele><time>2026-04-11T08:04:36.999Z</time></trkpt><trkpt lat="40.26748471887059" lon="9.411203297928786"><ele>478.0</ele><time>2026-04-11T08:04:37.999Z</time></trkpt><trkpt lat="40.267391727694445" lon="9.4111466139386"><ele>478.0</ele><time>2026-04-11T08:04:38.999Z</time></trkpt><trkpt lat="40.26731969863922" lon="9.411104113922507"><ele>477.00000000000006</ele><time>2026-04-11T08:04:39.999Z</time></trkpt><trkpt lat="40.26725881242647" lon="9.411069780989681"><ele>476.0</ele><time>2026-04-11T08:04:40.999Z</time></trkpt><trkpt lat="40.26716274663116" lon="9.411063620254422"><ele>475.0</ele><time>2026-04-11T08:04:43Z</time></trkpt><trkpt lat="40.267100095377785" lon="9.41116440819308"><ele>474.0</ele><time>2026-04-11T08:04:45Z</time></trkpt><trkpt lat="40.26708355191917" lon="9.411271396691388"><ele>473.00000000000006</ele><time>2026-04-11T08:04:47Z</time></trkpt><trkpt lat="40.2671180487818" lon="9.411359514927527"><ele>472.0</ele><time>2026-04-11T08:04:49Z</time></trkpt><trkpt lat="40.267221648161296" lon="9.411456630790447"><ele>473.00000000000006</ele><time>2026-04-11T08:04:51Z</time></trkpt><trkpt lat="40.26727727892391" lon="9.411509801680227"><ele>474.0</ele><time>2026-04-11T08:04:52Z</time></trkpt><trkpt lat="40.267367418325335" lon="9.411576730094328"><ele>475.0</ele><time>2026-04-11T08:04:54Z</time></trkpt><trkpt lat="40.26742983557844" lon="9.411633589497129"><ele>476.0</ele><time>2026-04-11T08:04:55Z</time></trkpt><trkpt lat="40.26747777160388" lon="9.411713760695287"><ele>477.00000000000006</ele><time>2026-04-11T08:04:56Z</time></trkpt><trkpt lat="40.26754417125197" lon="9.411780831235014"><ele>478.0</ele><time>2026-04-11T08:04:57Z</time></trkpt><trkpt lat="40.26761949023531" lon="9.411851722024373"><ele>478.00000000000006</ele><time>2026-04-11T08:04:58Z</time></trkpt><trkpt lat="40.26767972766899" lon="9.411923509058019"><ele>478.0</ele><time>2026-04-11T08:04:59Z</time></trkpt><trkpt lat="40.26772802495593" lon="9.411998700762027"><ele>478.00000000000006</ele><time>2026-04-11T08:05:00Z</time></trkpt><trkpt lat="40.26777349004809" lon="9.412073957213222"><ele>478.00000000000006</ele><time>2026-04-11T08:05:01Z</time></trkpt><trkpt lat="40.26782128409686" lon="9.412158313635233"><ele>478.0</ele><time>2026-04-11T08:05:02Z</time></trkpt><trkpt lat="40.267855106356556" lon="9.412232196484661"><ele>478.00000000000006</ele><time>2026-04-11T08:05:03Z</time></trkpt><trkpt lat="40.26788991771709" lon="9.412307353401683"><ele>478.00000000000006</ele><time>2026-04-11T08:05:04Z</time></trkpt><trkpt lat="40.26791874632253" lon="9.412385420855912"><ele>481.2</ele><time>2026-04-11T08:05:05Z</time></trkpt><trkpt lat="40.26794999746495" lon="9.412470129399438"><ele>484.4</ele><time>2026-04-11T08:05:06Z</time></trkpt><trkpt lat="40.267962754356994" lon="9.412561111025395"><ele>487.59999999999997</ele><time>2026-04-11T08:05:07Z</time></trkpt><trkpt lat="40.26792365209491" lon="9.412746135003937"><ele>490.79999999999995</ele><time>2026-04-11T08:05:09Z</time></trkpt><trkpt lat="40.26782365723976" lon="9.412788759841822"><ele>494.0</ele><time>2026-04-11T08:05:11Z</time></trkpt><trkpt lat="40.26770001671222" lon="9.41279322840471"><ele>493.99999999999994</ele><time>2026-04-11T08:05:13Z</time></trkpt><trkpt lat="40.2676222883918" lon="9.412784280579775"><ele>494.0</ele><time>2026-04-11T08:05:14Z</time></trkpt><trkpt lat="40.2675457556934" lon="9.412782574164968"><ele>494.0</ele><time>2026-04-11T08:05:15Z</time></trkpt><trkpt lat="40.26745110167871" lon="9.412780580177799"><ele>494.0</ele><time>2026-04-11T08:05:16Z</time></trkpt><trkpt lat="40.267367909709506" lon="9.412778386305385"><ele>493.99999999999994</ele><time>2026-04-11T08:05:17Z</time></trkpt><trkpt lat="40.267285114537" lon="9.412781671885433"><ele>494.0</ele><time>2026-04-11T08:05:18Z</time></trkpt><trkpt lat="40.2671856544568" lon="9.412831946388266"><ele>495.49999999999994</ele><time>2026-04-11T08:05:20Z</time></trkpt><trkpt lat="40.26714000787597" lon="9.412965528917294"><ele>497.0</ele><time>2026-04-11T08:05:22Z</time></trkpt><trkpt lat="40.2671508409948" lon="9.413050980460858"><ele>498.5</ele><time>2026-04-11T08:05:23Z</time></trkpt><trkpt lat="40.26718083929956" lon="9.413130296308843"><ele>500.0</ele><time>2026-04-11T08:05:24Z</time></trkpt><trkpt lat="40.2672407704745" lon="9.413212491090032"><ele>501.49999999999994</ele><time>2026-04-11T08:05:25Z</time></trkpt><trkpt lat="40.267309675908486" lon="9.413289778989723"><ele>503.0</ele><time>2026-04-11T08:05:26Z</time></trkpt><trkpt lat="40.26738189638101" lon="9.41337065026584"><ele>503.66666666666663</ele><time>2026-04-11T08:05:27Z</time></trkpt><trkpt lat="40.267437317991515" lon="9.413449104883375"><ele>504.3333333333333</ele><time>2026-04-11T08:05:28Z</time></trkpt><trkpt lat="40.267501174601534" lon="9.413535476570422"><ele>505.0</ele><time>2026-04-11T08:05:29Z</time></trkpt><trkpt lat="40.267559191431076" lon="9.413605463507562"><ele>505.66666666666663</ele><time>2026-04-11T08:05:30Z</time></trkpt><trkpt lat="40.267600249393915" lon="9.413669683252373"><ele>506.3333333333333</ele><time>2026-04-11T08:05:31Z</time></trkpt><trkpt lat="40.26759932656846" lon="9.413801032461123"><ele>507.0</ele><time>2026-04-11T08:05:33Z</time></trkpt><trkpt lat="40.26748482377559" lon="9.413834949166331"><ele>507.0</ele><time>2026-04-11T08:05:35Z</time></trkpt><trkpt lat="40.267410578704975" lon="9.413807410648387"><ele>507.0</ele><time>2026-04-11T08:05:36Z</time></trkpt><trkpt lat="40.26733924314851" lon="9.413770125235741"><ele>507.0</ele><time>2026-04-11T08:05:37Z</time></trkpt><trkpt lat="40.26725364815599" lon="9.413740818314297"><ele>507.0</ele><time>2026-04-11T08:05:38Z</time></trkpt><trkpt lat="40.26715598205025" lon="9.413752477462218"><ele>507.0</ele><time>2026-04-11T08:05:39Z</time></trkpt><trkpt lat="40.2670504140597" lon="9.41378350244402"><ele>507.0</ele><time>2026-04-11T08:05:40Z</time></trkpt><trkpt lat="40.26696523637133" lon="9.413803558440323"><ele>508.3333333333333</ele><time>2026-04-11T08:05:41Z</time></trkpt><trkpt lat="40.26689801879689" lon="9.413820979334673"><ele>509.66666666666663</ele><time>2026-04-11T08:05:42Z</time></trkpt><trkpt lat="40.26684186947601" lon="9.413859782914649"><ele>511.0</ele><time>2026-04-11T08:05:43Z</time></trkpt><trkpt lat="40.26681452176772" lon="9.4139809128189"><ele>512.3333333333333</ele><time>2026-04-11T08:05:45Z</time></trkpt><trkpt lat="40.266826634817626" lon="9.414065866971384"><ele>513.6666666666666</ele><time>2026-04-11T08:05:46Z</time></trkpt><trkpt lat="40.26694669830811" lon="9.414119964324021"><ele>515.0</ele><time>2026-04-11T08:05:48Z</time></trkpt><trkpt lat="40.267009997687" lon="9.414165141934918"><ele>516.3333333333333</ele><time>2026-04-11T08:05:49Z</time></trkpt><trkpt lat="40.26707709605989" lon="9.414208653336045"><ele>517.6666666666666</ele><time>2026-04-11T08:05:50Z</time></trkpt><trkpt lat="40.267158976002854" lon="9.414272642698995"><ele>519.0</ele><time>2026-04-11T08:05:51Z</time></trkpt><trkpt lat="40.26722824896864" lon="9.414323279002732"><ele>520.3333333333334</ele><time>2026-04-11T08:05:52Z</time></trkpt><trkpt lat="40.26726124091216" lon="9.414400500949093"><ele>521.6666666666667</ele><time>2026-04-11T08:05:53Z</time></trkpt><trkpt lat="40.26731575615247" lon="9.414470717619032"><ele>523.0</ele><time>2026-04-11T08:05:55Z</time></trkpt><trkpt lat="40.26739357858938" lon="9.41454608579441"><ele>524.8</ele><time>2026-04-11T08:05:58Z</time></trkpt><trkpt lat="40.26736568366403" lon="9.414675402035721"><ele>526.5999999999999</ele><time>2026-04-11T08:06:00Z</time></trkpt><trkpt lat="40.26724458255009" lon="9.414693596965819"><ele>528.4000000000001</ele><time>2026-04-11T08:06:02Z</time></trkpt><trkpt lat="40.26718322029805" lon="9.414666294077492"><ele>530.2</ele><time>2026-04-11T08:06:03Z</time></trkpt><trkpt lat="40.26711857873465" lon="9.414629820573726"><ele>532.0</ele><time>2026-04-11T08:06:04Z</time></trkpt><trkpt lat="40.2670092787238" lon="9.414597701287388"><ele>535.4</ele><time>2026-04-11T08:06:06Z</time></trkpt><trkpt lat="40.26695570715172" lon="9.414693961289377"><ele>538.8000000000001</ele><time>2026-04-11T08:06:08Z</time></trkpt><trkpt lat="40.26696669661907" lon="9.41477831632819"><ele>542.2</ele><time>2026-04-11T08:06:09Z</time></trkpt><trkpt lat="40.26708129490777" lon="9.414916539555438"><ele>545.6</ele><time>2026-04-11T08:06:11Z</time></trkpt><trkpt lat="40.26714927893083" lon="9.414983677603464"><ele>549.0</ele><time>2026-04-11T08:06:12Z</time></trkpt><trkpt lat="40.2671977381564" lon="9.415045479642858"><ele>549.0</ele><time>2026-04-11T08:06:13Z</time></trkpt><trkpt lat="40.26725124047715" lon="9.415097367195091"><ele>549.0</ele><time>2026-04-11T08:06:14Z</time></trkpt><trkpt lat="40.267281661019524" lon="9.415226220207733"><ele>549.0</ele><time>2026-04-11T08:06:16Z</time></trkpt><trkpt lat="40.267233464455664" lon="9.41533579403974"><ele>549.0</ele><time>2026-04-11T08:06:18Z</time></trkpt><trkpt lat="40.26711366171501" lon="9.415343153336755"><ele>549.0</ele><time>2026-04-11T08:06:20Z</time></trkpt><trkpt lat="40.26702993149258" lon="9.415308753996039"><ele>549.0</ele><time>2026-04-11T08:06:21Z</time></trkpt><trkpt lat="40.26695577659249" lon="9.41527756482193"><ele>549.0</ele><time>2026-04-11T08:06:22Z</time></trkpt><trkpt lat="40.26684796739371" lon="9.41523866425359"><ele>549.0</ele><time>2026-04-11T08:06:23Z</time></trkpt><trkpt lat="40.266747656796014" lon="9.41520419386218"><ele>549.0</ele><time>2026-04-11T08:06:24Z</time></trkpt><trkpt lat="40.26667170831524" lon="9.415169789909362"><ele>549.0</ele><time>2026-04-11T08:06:24.999Z</time></trkpt><trkpt lat="40.2665540343018" lon="9.415137574948599"><ele>549.0</ele><time>2026-04-11T08:06:26.999Z</time></trkpt><trkpt lat="40.26648511732114" lon="9.415235370320232"><ele>549.0</ele><time>2026-04-11T08:06:28.999Z</time></trkpt><trkpt lat="40.26648560129174" lon="9.415367234510684"><ele>549.0</ele><time>2026-04-11T08:06:30.999Z</time></trkpt><trkpt lat="40.26654683714927" lon="9.415427059609259"><ele>549.0</ele><time>2026-04-11T08:06:31.999Z</time></trkpt><trkpt lat="40.26664804635884" lon="9.41547566361934"><ele>549.0</ele><time>2026-04-11T08:06:32.999Z</time></trkpt><trkpt lat="40.266731870661665" lon="9.415518368130192"><ele>551.5</ele><time>2026-04-11T08:06:33.999Z</time></trkpt><trkpt lat="40.26682733949023" lon="9.41557875167525"><ele>554.0</ele><time>2026-04-11T08:06:34.999Z</time></trkpt><trkpt lat="40.26690533163687" lon="9.415650308346446"><ele>556.5</ele><time>2026-04-11T08:06:35.999Z</time></trkpt><trkpt lat="40.26697033192045" lon="9.415747889859157"><ele>559.0</ele><time>2026-04-11T08:06:36.999Z</time></trkpt><trkpt lat="40.2670074142715" lon="9.415834599872316"><ele>561.5</ele><time>2026-04-11T08:06:37.999Z</time></trkpt><trkpt lat="40.26701883111263" lon="9.415921410407245"><ele>564.0</ele><time>2026-04-11T08:06:38.999Z</time></trkpt><trkpt lat="40.266980584127" lon="9.416056015794911"><ele>564.0</ele><time>2026-04-11T08:06:40.999Z</time></trkpt><trkpt lat="40.26687956308691" lon="9.41608600723668"><ele>564.0</ele><time>2026-04-11T08:06:42.999Z</time></trkpt><trkpt lat="40.266813623191915" lon="9.416079063632337"><ele>564.0</ele><time>2026-04-11T08:06:43.999Z</time></trkpt><trkpt lat="40.266751116786565" lon="9.416043494404075"><ele>564.0</ele><time>2026-04-11T08:06:44.999Z</time></trkpt><trkpt lat="40.26669006946708" lon="9.415994420336876"><ele>564.0</ele><time>2026-04-11T08:06:45.999Z</time></trkpt><trkpt lat="40.26660857076992" lon="9.415961506915643"><ele>564.0</ele><time>2026-04-11T08:06:46.999Z</time></trkpt><trkpt lat="40.26650771064784" lon="9.415953172705644"><ele>568.6666666666666</ele><time>2026-04-11T08:06:47.999Z</time></trkpt><trkpt lat="40.26644426689008" lon="9.415954295175693"><ele>573.3333333333334</ele><time>2026-04-11T08:06:49Z</time></trkpt><trkpt lat="40.26637328665158" lon="9.415954043635223"><ele>578.0</ele><time>2026-04-11T08:06:50Z</time></trkpt><trkpt lat="40.266277946502335" lon="9.41596964026469"><ele>582.6666666666667</ele><time>2026-04-11T08:06:52Z</time></trkpt><trkpt lat="40.26621569070894" lon="9.416049187672737"><ele>587.3333333333334</ele><time>2026-04-11T08:06:54Z</time></trkpt><trkpt lat="40.26623301131891" lon="9.416159619314"><ele>592.0</ele><time>2026-04-11T08:06:56Z</time></trkpt><trkpt lat="40.26634697256999" lon="9.416234453013681"><ele>592.0</ele><time>2026-04-11T08:06:58Z</time></trkpt><trkpt lat="40.26642356299086" lon="9.41627847747789"><ele>592.0</ele><time>2026-04-11T08:06:59Z</time></trkpt><trkpt lat="40.26648614425319" lon="9.41631650549476"><ele>592.0</ele><time>2026-04-11T08:07:00Z</time></trkpt><trkpt lat="40.266539995649026" lon="9.416379786641283"><ele>592.0</ele><time>2026-04-11T08:07:01Z</time></trkpt><trkpt lat="40.266586852107984" lon="9.416457815976065"><ele>592.0</ele><time>2026-04-11T08:07:02Z</time></trkpt><trkpt lat="40.2666494324451" lon="9.416593590338161"><ele>592.0</ele><time>2026-04-11T08:07:04Z</time></trkpt><trkpt lat="40.2666538816871" lon="9.416727724094073"><ele>590.0</ele><time>2026-04-11T08:07:06Z</time></trkpt><trkpt lat="40.26660570956919" lon="9.416821527829796"><ele>588.0</ele><time>2026-04-11T08:07:08Z</time></trkpt><trkpt lat="40.266529919591264" lon="9.416786313681493"><ele>586.0</ele><time>2026-04-11T08:07:09Z</time></trkpt><trkpt lat="40.26641708976879" lon="9.416681645178096"><ele>584.0</ele><time>2026-04-11T08:07:11Z</time></trkpt><trkpt lat="40.266356225500324" lon="9.41664642263059"><ele>582.0</ele><time>2026-04-11T08:07:12Z</time></trkpt><trkpt lat="40.26624520514274" lon="9.416624644115297"><ele>586.4</ele><time>2026-04-11T08:07:14Z</time></trkpt><trkpt lat="40.266161038128395" lon="9.416674699011345"><ele>590.8000000000001</ele><time>2026-04-11T08:07:16Z</time></trkpt><trkpt lat="40.26612666649103" lon="9.416805284405031"><ele>595.2</ele><time>2026-04-11T08:07:18Z</time></trkpt><trkpt lat="40.26612465946813" lon="9.416892580596574"><ele>599.6</ele><time>2026-04-11T08:07:19Z</time></trkpt><trkpt lat="40.2661922422032" lon="9.41696971925707"><ele>604.0</ele><time>2026-04-11T08:07:20Z</time></trkpt><trkpt lat="40.26624471326075" lon="9.417086217086291"><ele>604.2</ele><time>2026-04-11T08:07:21Z</time></trkpt><trkpt lat="40.26632187605" lon="9.417201661019096"><ele>604.4</ele><time>2026-04-11T08:07:22Z</time></trkpt><trkpt lat="40.26640617124171" lon="9.417296320726782"><ele>604.6</ele><time>2026-04-11T08:07:23Z</time></trkpt><trkpt lat="40.266488159534035" lon="9.41736111194991"><ele>604.8</ele><time>2026-04-11T08:07:24Z</time></trkpt><trkpt lat="40.266516302042" lon="9.41747143863317"><ele>605.0</ele><time>2026-04-11T08:07:26Z</time></trkpt><trkpt lat="40.2664246477788" lon="9.417539356494771"><ele>607.3333333333333</ele><time>2026-04-11T08:07:28Z</time></trkpt><trkpt lat="40.26636415536688" lon="9.417514744054282"><ele>609.6666666666666</ele><time>2026-04-11T08:07:29Z</time></trkpt><trkpt lat="40.26628987822509" lon="9.417472025261034"><ele>612.0</ele><time>2026-04-11T08:07:30Z</time></trkpt><trkpt lat="40.26620669159598" lon="9.417416661448442"><ele>614.3333333333334</ele><time>2026-04-11T08:07:31Z</time></trkpt><trkpt lat="40.26612867482275" lon="9.417372205690453"><ele>616.6666666666667</ele><time>2026-04-11T08:07:32Z</time></trkpt><trkpt lat="40.26604313867872" lon="9.417415929245895"><ele>619.0</ele><time>2026-04-11T08:07:34Z</time></trkpt><trkpt lat="40.266074380554436" lon="9.417565282804764"><ele>619.0</ele><time>2026-04-11T08:07:36Z</time></trkpt><trkpt lat="40.26613313483751" lon="9.417641987843059"><ele>619.0</ele><time>2026-04-11T08:07:37Z</time></trkpt><trkpt lat="40.26624066288396" lon="9.417696077775584"><ele>619.0</ele><time>2026-04-11T08:07:38Z</time></trkpt><trkpt lat="40.266318845685234" lon="9.417771149858924"><ele>619.0</ele><time>2026-04-11T08:07:39Z</time></trkpt><trkpt lat="40.266343240276576" lon="9.417874890009614"><ele>619.0</ele><time>2026-04-11T08:07:41Z</time></trkpt><trkpt lat="40.26622125318329" lon="9.417915657386866"><ele>619.0</ele><time>2026-04-11T08:07:43Z</time></trkpt><trkpt lat="40.26614993834953" lon="9.417882892743915"><ele>619.0</ele><time>2026-04-11T08:07:44Z</time></trkpt><trkpt lat="40.26604631978531" lon="9.417836812731794"><ele>619.0</ele><time>2026-04-11T08:07:45Z</time></trkpt><trkpt lat="40.265926524737466" lon="9.417796728769169"><ele>619.0</ele><time>2026-04-11T08:07:46Z</time></trkpt><trkpt lat="40.26584130897457" lon="9.417753610656016"><ele>619.0</ele><time>2026-04-11T08:07:47Z</time></trkpt><trkpt lat="40.265776763965626" lon="9.417748960216915"><ele>619.0</ele><time>2026-04-11T08:07:49Z</time></trkpt><trkpt lat="40.26571652857419" lon="9.41786542398609"><ele>619.0</ele><time>2026-04-11T08:07:51Z</time></trkpt><trkpt lat="40.26574387393254" lon="9.417946703361082"><ele>619.0</ele><time>2026-04-11T08:07:52Z</time></trkpt><trkpt lat="40.26581720058498" lon="9.418038989892839"><ele>619.0</ele><time>2026-04-11T08:07:53Z</time></trkpt><trkpt lat="40.26590223989483" lon="9.41809939542906"><ele>619.0</ele><time>2026-04-11T08:07:54Z</time></trkpt><trkpt lat="40.26599545352318" lon="9.41815921007119"><ele>622.4</ele><time>2026-04-11T08:07:55Z</time></trkpt><trkpt lat="40.26607458820459" lon="9.418199139473568"><ele>625.8</ele><time>2026-04-11T08:07:56Z</time></trkpt><trkpt lat="40.26615166347159" lon="9.418249459203619"><ele>629.2</ele><time>2026-04-11T08:07:58Z</time></trkpt><trkpt lat="40.26608233410225" lon="9.41834735581935"><ele>632.6</ele><time>2026-04-11T08:08:00Z</time></trkpt><trkpt lat="40.26601891586814" lon="9.418354938076586"><ele>636.0</ele><time>2026-04-11T08:08:01Z</time></trkpt><trkpt lat="40.26583131223928" lon="9.418294784303512"><ele>636.0</ele><time>2026-04-11T08:08:03Z</time></trkpt><trkpt lat="40.26574792152339" lon="9.418236243661294"><ele>636.0</ele><time>2026-04-11T08:08:04Z</time></trkpt><trkpt lat="40.265679562652224" lon="9.418171986488812"><ele>636.0</ele><time>2026-04-11T08:08:05Z</time></trkpt><trkpt lat="40.265593803961096" lon="9.418135428313413"><ele>636.0</ele><time>2026-04-11T08:08:07Z</time></trkpt><trkpt lat="40.26555461189055" lon="9.418250244353633"><ele>636.0</ele><time>2026-04-11T08:08:09Z</time></trkpt><trkpt lat="40.26555044098278" lon="9.41833328778915"><ele>636.0</ele><time>2026-04-11T08:08:10Z</time></trkpt><trkpt lat="40.26561906918691" lon="9.418414198317627"><ele>636.0</ele><time>2026-04-11T08:08:11Z</time></trkpt><trkpt lat="40.26567508495164" lon="9.418488871957917"><ele>636.0</ele><time>2026-04-11T08:08:12Z</time></trkpt><trkpt lat="40.2657318507026" lon="9.418543955629124"><ele>636.0</ele><time>2026-04-11T08:08:13Z</time></trkpt><trkpt lat="40.26579078464697" lon="9.418600050064489"><ele>636.0</ele><time>2026-04-11T08:08:14Z</time></trkpt><trkpt lat="40.26585830927812" lon="9.418660330069015"><ele>636.0</ele><time>2026-04-11T08:08:15Z</time></trkpt><trkpt lat="40.26595293012281" lon="9.418732206154758"><ele>636.0</ele><time>2026-04-11T08:08:17Z</time></trkpt><trkpt lat="40.26593263531421" lon="9.418845750902705"><ele>636.0</ele><time>2026-04-11T08:08:20Z</time></trkpt><trkpt lat="40.26581115350856" lon="9.418791616958437"><ele>636.0</ele><time>2026-04-11T08:08:22Z</time></trkpt><trkpt lat="40.265688797600845" lon="9.418707846646281"><ele>636.0</ele><time>2026-04-11T08:08:24Z</time></trkpt><trkpt lat="40.26559116656732" lon="9.418654598467874"><ele>636.0</ele><time>2026-04-11T08:08:25Z</time></trkpt><trkpt lat="40.2655111027394" lon="9.418634684355013"><ele>639.8333333333334</ele><time>2026-04-11T08:08:26Z</time></trkpt><trkpt lat="40.265434851491825" lon="9.418630002167685"><ele>643.6666666666666</ele><time>2026-04-11T08:08:27Z</time></trkpt><trkpt lat="40.26534795042841" lon="9.41862648897063"><ele>647.5</ele><time>2026-04-11T08:08:28Z</time></trkpt><trkpt lat="40.26526995820011" lon="9.418625166186516"><ele>651.3333333333333</ele><time>2026-04-11T08:08:29Z</time></trkpt><trkpt lat="40.265207250317076" lon="9.41859960710796"><ele>655.1666666666666</ele><time>2026-04-11T08:08:30Z</time></trkpt><trkpt lat="40.26512331014647" lon="9.418601976050363"><ele>659.0</ele><time>2026-04-11T08:08:31Z</time></trkpt><trkpt lat="40.265053869052295" lon="9.418587891599831"><ele>659.0</ele><time>2026-04-11T08:08:32Z</time></trkpt><trkpt lat="40.264998223940104" lon="9.418524371394499"><ele>659.0</ele><time>2026-04-11T08:08:33Z</time></trkpt><trkpt lat="40.26494027639863" lon="9.418465103634135"><ele>659.0</ele><time>2026-04-11T08:08:34Z</time></trkpt><trkpt lat="40.26491947475497" lon="9.41836425796161"><ele>659.0</ele><time>2026-04-11T08:08:35Z</time></trkpt><trkpt lat="40.264874950634336" lon="9.418282051655694"><ele>659.0</ele><time>2026-04-11T08:08:36Z</time></trkpt><trkpt lat="40.26483206146046" lon="9.418208796096263"><ele>659.0</ele><time>2026-04-11T08:08:37Z</time></trkpt><trkpt lat="40.264798077942295" lon="9.41813220648521"><ele>659.0</ele><time>2026-04-11T08:08:38Z</time></trkpt><trkpt lat="40.26477049903119" lon="9.418051986939902"><ele>659.0</ele><time>2026-04-11T08:08:39Z</time></trkpt><trkpt lat="40.2647401734782" lon="9.417974791418048"><ele>659.0</ele><time>2026-04-11T08:08:40Z</time></trkpt><trkpt lat="40.264714658994116" lon="9.417897157561654"><ele>659.0</ele><time>2026-04-11T08:08:41Z</time></trkpt><trkpt lat="40.26474312127591" lon="9.417740657727057"><ele>659.0</ele><time>2026-04-11T08:08:43Z</time></trkpt><trkpt lat="40.26476322501383" lon="9.417650423032702"><ele>659.0</ele><time>2026-04-11T08:08:44Z</time></trkpt><trkpt lat="40.26478347094075" lon="9.417541711836087"><ele>659.0</ele><time>2026-04-11T08:08:45Z</time></trkpt><trkpt lat="40.26480463471185" lon="9.417437998714465"><ele>659.0</ele><time>2026-04-11T08:08:46Z</time></trkpt><trkpt lat="40.26482699951062" lon="9.41732834258889"><ele>659.0</ele><time>2026-04-11T08:08:47Z</time></trkpt><trkpt lat="40.26484280506054" lon="9.417246771050173"><ele>659.0</ele><time>2026-04-11T08:08:48Z</time></trkpt><trkpt lat="40.26484963923784" lon="9.41716158530426"><ele>659.0</ele><time>2026-04-11T08:08:49Z</time></trkpt><trkpt lat="40.26485067284675" lon="9.41706963009367"><ele>659.0</ele><time>2026-04-11T08:08:50Z</time></trkpt><trkpt lat="40.26480769140156" lon="9.416960066021"><ele>659.0</ele><time>2026-04-11T08:08:52Z</time></trkpt><trkpt lat="40.264782457689286" lon="9.416840720681611"><ele>662.8000000000001</ele><time>2026-04-11T08:08:54Z</time></trkpt><trkpt lat="40.26475191853736" lon="9.416722791325558"><ele>666.6</ele><time>2026-04-11T08:08:56.001Z</time></trkpt><trkpt lat="40.26467796545559" lon="9.416618057820491"><ele>670.4</ele><time>2026-04-11T08:08:58.001Z</time></trkpt><trkpt lat="40.264578889957605" lon="9.416570746278671"><ele>674.2</ele><time>2026-04-11T08:09:00.001Z</time></trkpt><trkpt lat="40.264509275693044" lon="9.41655793944774"><ele>678.0</ele><time>2026-04-11T08:09:03.001Z</time></trkpt><trkpt lat="40.26441798773975" lon="9.41653703786715"><ele>678.0</ele><time>2026-04-11T08:09:15.001Z</time></trkpt><trkpt lat="40.26432659220384" lon="9.416518777979459"><ele>678.0</ele><time>2026-04-11T08:09:16.001Z</time></trkpt><trkpt lat="40.26421695176929" lon="9.416487877163224"><ele>678.0</ele><time>2026-04-11T08:09:18.001Z</time></trkpt><trkpt lat="40.264153207780616" lon="9.416484024674423"><ele>678.0</ele><time>2026-04-11T08:09:19.001Z</time></trkpt><trkpt lat="40.26407426774287" lon="9.416489612083272"><ele>678.0</ele><time>2026-04-11T08:09:20.001Z</time></trkpt><trkpt lat="40.264012075373564" lon="9.416515765586585"><ele>678.0</ele><time>2026-04-11T08:09:21.001Z</time></trkpt><trkpt lat="40.26394660776522" lon="9.416571580305169"><ele>680.8333333333334</ele><time>2026-04-11T08:09:22.001Z</time></trkpt><trkpt lat="40.26388460079395" lon="9.416643866387211"><ele>683.6666666666666</ele><time>2026-04-11T08:09:23.001Z</time></trkpt><trkpt lat="40.263790306585534" lon="9.416742529580967"><ele>686.5</ele><time>2026-04-11T08:09:25.001Z</time></trkpt><trkpt lat="40.26370527870922" lon="9.416824005982471"><ele>689.3333333333333</ele><time>2026-04-11T08:09:27.001Z</time></trkpt><trkpt lat="40.26365241936162" lon="9.416876732472073"><ele>692.1666666666666</ele><time>2026-04-11T08:09:29.001Z</time></trkpt><trkpt lat="40.263589015127664" lon="9.416907548050327"><ele>695.0</ele><time>2026-04-11T08:09:33Z</time></trkpt><trkpt lat="40.26354109884784" lon="9.416975868945132"><ele>695.0</ele><time>2026-04-11T08:09:36Z</time></trkpt><trkpt lat="40.26346275768666" lon="9.416886151676676"><ele>695.0</ele><time>2026-04-11T08:09:37Z</time></trkpt><trkpt lat="40.26338185043517" lon="9.416842849332863"><ele>695.0</ele><time>2026-04-11T08:09:39Z</time></trkpt><trkpt lat="40.26331803977475" lon="9.416820104705499"><ele>695.0</ele><time>2026-04-11T08:09:40Z</time></trkpt><trkpt lat="40.26324433022297" lon="9.416774315302343"><ele>695.0</ele><time>2026-04-11T08:09:42Z</time></trkpt><trkpt lat="40.26314112572838" lon="9.416754163190529"><ele>695.0</ele><time>2026-04-11T08:09:44Z</time></trkpt><trkpt lat="40.26303877370145" lon="9.416803994553696"><ele>697.25</ele><time>2026-04-11T08:09:46Z</time></trkpt><trkpt lat="40.262909677626695" lon="9.416853362125815"><ele>699.5</ele><time>2026-04-11T08:09:48Z</time></trkpt><trkpt lat="40.26283679426863" lon="9.416869391985593"><ele>701.75</ele><time>2026-04-11T08:09:49Z</time></trkpt><trkpt lat="40.26271955966116" lon="9.41680673770768"><ele>704.0</ele><time>2026-04-11T08:09:51Z</time></trkpt><trkpt lat="40.26260688788441" lon="9.416715211756168"><ele>704.0</ele><time>2026-04-11T08:09:53Z</time></trkpt><trkpt lat="40.26250656324327" lon="9.41661521893391"><ele>704.0</ele><time>2026-04-11T08:09:55Z</time></trkpt><trkpt lat="40.26241799965158" lon="9.416534502899687"><ele>704.0</ele><time>2026-04-11T08:09:57Z</time></trkpt><trkpt lat="40.26236567673703" lon="9.416460935239744"><ele>704.0</ele><time>2026-04-11T08:09:59Z</time></trkpt><trkpt lat="40.26228428777588" lon="9.416344857322892"><ele>704.0</ele><time>2026-04-11T08:10:02Z</time></trkpt><trkpt lat="40.2622307349491" lon="9.416268099877145"><ele>703.3333333333333</ele><time>2026-04-11T08:10:03Z</time></trkpt><trkpt lat="40.26219260051139" lon="9.416184908826686"><ele>702.6666666666666</ele><time>2026-04-11T08:10:04Z</time></trkpt><trkpt lat="40.26213902518446" lon="9.41609977697422"><ele>702.0</ele><time>2026-04-11T08:10:05Z</time></trkpt><trkpt lat="40.26207033719171" lon="9.416021575033424"><ele>701.3333333333334</ele><time>2026-04-11T08:10:06Z</time></trkpt><trkpt lat="40.26200702099133" lon="9.415966800054077"><ele>700.6666666666667</ele><time>2026-04-11T08:10:07Z</time></trkpt><trkpt lat="40.26193313918326" lon="9.415931108528527"><ele>700.0</ele><time>2026-04-11T08:10:08Z</time></trkpt><trkpt lat="40.26183488200283" lon="9.415875420102235"><ele>700.0</ele><time>2026-04-11T08:10:10Z</time></trkpt><trkpt lat="40.261768163694974" lon="9.4159181806738"><ele>700.0</ele><time>2026-04-11T08:10:11Z</time></trkpt><trkpt lat="40.261684558607506" lon="9.416077216815715"><ele>700.0</ele><time>2026-04-11T08:10:13Z</time></trkpt><trkpt lat="40.26164603367" lon="9.416181572456663"><ele>700.0</ele><time>2026-04-11T08:10:14Z</time></trkpt><trkpt lat="40.26158976550903" lon="9.416257400655246"><ele>700.0</ele><time>2026-04-11T08:10:15Z</time></trkpt><trkpt lat="40.26155457297109" lon="9.416348210223532"><ele>703.0</ele><time>2026-04-11T08:10:16Z</time></trkpt><trkpt lat="40.26149777878613" lon="9.416411588013377"><ele>706.0</ele><time>2026-04-11T08:10:17Z</time></trkpt><trkpt lat="40.261439924090986" lon="9.416458115667474"><ele>709.0</ele><time>2026-04-11T08:10:18Z</time></trkpt><trkpt lat="40.26132411185922" lon="9.416467883739102"><ele>712.0</ele><time>2026-04-11T08:10:20Z</time></trkpt><trkpt lat="40.261239422519544" lon="9.416386016677535"><ele>715.0</ele><time>2026-04-11T08:10:22Z</time></trkpt><trkpt lat="40.261132678061784" lon="9.416256851574113"><ele>715.0</ele><time>2026-04-11T08:10:24Z</time></trkpt><trkpt lat="40.26106579997232" lon="9.416178793270115"><ele>715.0</ele><time>2026-04-11T08:10:25Z</time></trkpt><trkpt lat="40.26099910074701" lon="9.416141729223849"><ele>715.0</ele><time>2026-04-11T08:10:26Z</time></trkpt><trkpt lat="40.26091669898106" lon="9.416109613571958"><ele>715.0</ele><time>2026-04-11T08:10:27Z</time></trkpt><trkpt lat="40.26081889466407" lon="9.41615266982211"><ele>715.0</ele><time>2026-04-11T08:10:29Z</time></trkpt><trkpt lat="40.26077876867263" lon="9.416313569620018"><ele>718.5</ele><time>2026-04-11T08:10:31Z</time></trkpt><trkpt lat="40.260760093726006" lon="9.416433256125126"><ele>722.0</ele><time>2026-04-11T08:10:32Z</time></trkpt><trkpt lat="40.260720201130695" lon="9.41653463288074"><ele>725.5</ele><time>2026-04-11T08:10:33Z</time></trkpt><trkpt lat="40.260671549833354" lon="9.416611904680062"><ele>729.0</ele><time>2026-04-11T08:10:34Z</time></trkpt><trkpt lat="40.26062627043735" lon="9.416684796489758"><ele>732.5</ele><time>2026-04-11T08:10:35Z</time></trkpt><trkpt lat="40.260573294749705" lon="9.416759422137936"><ele>736.0</ele><time>2026-04-11T08:10:36Z</time></trkpt><trkpt lat="40.26051444838009" lon="9.416827768903197"><ele>736.5999999999999</ele><time>2026-04-11T08:10:37Z</time></trkpt><trkpt lat="40.260453009604674" lon="9.416898032004136"><ele>737.2</ele><time>2026-04-11T08:10:38Z</time></trkpt><trkpt lat="40.260375669523256" lon="9.416974389533125"><ele>737.8</ele><time>2026-04-11T08:10:40Z</time></trkpt><trkpt lat="40.2602688009069" lon="9.417013493481742"><ele>738.4000000000001</ele><time>2026-04-11T08:10:42Z</time></trkpt><trkpt lat="40.26015536705685" lon="9.417007768338259"><ele>739.0</ele><time>2026-04-11T08:10:44Z</time></trkpt><trkpt lat="40.26006606611844" lon="9.416917524933202"><ele>739.0</ele><time>2026-04-11T08:10:46Z</time></trkpt><trkpt lat="40.26000390555916" lon="9.416872684773924"><ele>739.0</ele><time>2026-04-11T08:10:47Z</time></trkpt><trkpt lat="40.259911680042904" lon="9.41680954765307"><ele>739.0</ele><time>2026-04-11T08:10:49Z</time></trkpt><trkpt lat="40.25984966696334" lon="9.416746213300668"><ele>739.0</ele><time>2026-04-11T08:10:51Z</time></trkpt><trkpt lat="40.25977242111358" lon="9.416698213335506"><ele>739.0</ele><time>2026-04-11T08:10:53Z</time></trkpt><trkpt lat="40.25968922033115" lon="9.416732758664736"><ele>739.0</ele><time>2026-04-11T08:10:55Z</time></trkpt><trkpt lat="40.259621163260476" lon="9.416773277306769"><ele>736.2</ele><time>2026-04-11T08:10:57Z</time></trkpt><trkpt lat="40.259513908868314" lon="9.41685395338801"><ele>733.4000000000001</ele><time>2026-04-11T08:10:59Z</time></trkpt><trkpt lat="40.259460495910545" lon="9.416908126005197"><ele>730.6</ele><time>2026-04-11T08:11:00Z</time></trkpt><trkpt lat="40.2593781754102" lon="9.416992987754202"><ele>727.8</ele><time>2026-04-11T08:11:02.001Z</time></trkpt><trkpt lat="40.25929590891673" lon="9.417115766686766"><ele>725.0</ele><time>2026-04-11T08:11:04.001Z</time></trkpt><trkpt lat="40.25924703081427" lon="9.417173107013923"><ele>729.5714285714286</ele><time>2026-04-11T08:11:05.001Z</time></trkpt><trkpt lat="40.25919203184347" lon="9.417220903822685"><ele>734.1428571428571</ele><time>2026-04-11T08:11:06.001Z</time></trkpt><trkpt lat="40.25913160617575" lon="9.417246734719024"><ele>738.7142857142858</ele><time>2026-04-11T08:11:07.001Z</time></trkpt><trkpt lat="40.25906217371243" lon="9.417221281876309"><ele>743.2857142857142</ele><time>2026-04-11T08:11:08.001Z</time></trkpt><trkpt lat="40.25899208157004" lon="9.417225879039666"><ele>747.8571428571428</ele><time>2026-04-11T08:11:09.001Z</time></trkpt><trkpt lat="40.25892203071939" lon="9.417206179860996"><ele>752.4285714285714</ele><time>2026-04-11T08:11:10.001Z</time></trkpt><trkpt lat="40.25883391489714" lon="9.417186858706266"><ele>757.0</ele><time>2026-04-11T08:11:12.001Z</time></trkpt><trkpt lat="40.25873317956272" lon="9.417159635322381"><ele>753.0</ele><time>2026-04-11T08:11:14.001Z</time></trkpt><trkpt lat="40.25861033603174" lon="9.417103962378688"><ele>749.0</ele><time>2026-04-11T08:11:16.001Z</time></trkpt><trkpt lat="40.258536647827945" lon="9.417090298854358"><ele>745.0</ele><time>2026-04-11T08:11:17.001Z</time></trkpt><trkpt lat="40.25846569304933" lon="9.417103897507081"><ele>741.0</ele><time>2026-04-11T08:11:18.001Z</time></trkpt><trkpt lat="40.258400115253195" lon="9.417129654294495"><ele>737.0</ele><time>2026-04-11T08:11:19.001Z</time></trkpt><trkpt lat="40.25831825827878" lon="9.417141372036792"><ele>733.0</ele><time>2026-04-11T08:11:20.001Z</time></trkpt><trkpt lat="40.25823810953272" lon="9.417128675865515"><ele>733.0</ele><time>2026-04-11T08:11:21.001Z</time></trkpt><trkpt lat="40.25816830679685" lon="9.417085380134408"><ele>733.0</ele><time>2026-04-11T08:11:22.001Z</time></trkpt><trkpt lat="40.25811096394083" lon="9.417031024765"><ele>733.0</ele><time>2026-04-11T08:11:23.001Z</time></trkpt><trkpt lat="40.258056882788786" lon="9.416975016715183"><ele>733.0</ele><time>2026-04-11T08:11:24.001Z</time></trkpt><trkpt lat="40.257997787028096" lon="9.416913079195607"><ele>733.0</ele><time>2026-04-11T08:11:25.001Z</time></trkpt><trkpt lat="40.257976997219714" lon="9.41682550762048"><ele>733.0</ele><time>2026-04-11T08:11:26.001Z</time></trkpt><trkpt lat="40.257976546462636" lon="9.416698126658371"><ele>736.8</ele><time>2026-04-11T08:11:28.001Z</time></trkpt><trkpt lat="40.25795397672025" lon="9.416564963463227"><ele>740.5999999999999</ele><time>2026-04-11T08:11:30.001Z</time></trkpt><trkpt lat="40.25793885748535" lon="9.41643259532119"><ele>744.4000000000001</ele><time>2026-04-11T08:11:32.001Z</time></trkpt><trkpt lat="40.25791418620245" lon="9.416263992935038"><ele>748.2</ele><time>2026-04-11T08:11:34.001Z</time></trkpt><trkpt lat="40.25788536611159" lon="9.416122840441297"><ele>752.0</ele><time>2026-04-11T08:11:36.001Z</time></trkpt><trkpt lat="40.25786458776805" lon="9.416040958041565"><ele>752.0</ele><time>2026-04-11T08:11:37.001Z</time></trkpt><trkpt lat="40.2578389937535" lon="9.41595621377455"><ele>752.0</ele><time>2026-04-11T08:11:38Z</time></trkpt><trkpt lat="40.257781412123286" lon="9.415822856807601"><ele>752.0</ele><time>2026-04-11T08:11:40Z</time></trkpt><trkpt lat="40.2577416332172" lon="9.415749555517715"><ele>752.0</ele><time>2026-04-11T08:11:41Z</time></trkpt><trkpt lat="40.25769586490431" lon="9.415687868104245"><ele>752.0</ele><time>2026-04-11T08:11:42Z</time></trkpt><trkpt lat="40.257623933695605" lon="9.415613359344494"><ele>752.0</ele><time>2026-04-11T08:11:44Z</time></trkpt><trkpt lat="40.257524559551996" lon="9.41559021904906"><ele>752.0</ele><time>2026-04-11T08:11:46Z</time></trkpt><trkpt lat="40.25742988732545" lon="9.415594755941584"><ele>752.0</ele><time>2026-04-11T08:11:48Z</time></trkpt><trkpt lat="40.257339804105285" lon="9.415593936573881"><ele>752.0</ele><time>2026-04-11T08:11:50Z</time></trkpt><trkpt lat="40.25723670790984" lon="9.41557990230358"><ele>752.0</ele><time>2026-04-11T08:11:52Z</time></trkpt><trkpt lat="40.2571673922973" lon="9.415499999004968"><ele>752.0</ele><time>2026-04-11T08:11:54Z</time></trkpt><trkpt lat="40.257125469345866" lon="9.415367504701612"><ele>750.2</ele><time>2026-04-11T08:11:56Z</time></trkpt><trkpt lat="40.25707374609625" lon="9.415261083230499"><ele>748.4000000000001</ele><time>2026-04-11T08:11:58Z</time></trkpt><trkpt lat="40.2570008965579" lon="9.415162357127711"><ele>746.5999999999999</ele><time>2026-04-11T08:12:00Z</time></trkpt><trkpt lat="40.25691014689675" lon="9.415061933923242"><ele>744.8</ele><time>2026-04-11T08:12:02Z</time></trkpt><trkpt lat="40.256853741890495" lon="9.415016399935832"><ele>743.0</ele><time>2026-04-11T08:12:03Z</time></trkpt><trkpt lat="40.25674355474471" lon="9.414932461898804"><ele>743.0</ele><time>2026-04-11T08:12:05Z</time></trkpt><trkpt lat="40.25662811246752" lon="9.414862212002433"><ele>743.0</ele><time>2026-04-11T08:12:07Z</time></trkpt><trkpt lat="40.25657094405901" lon="9.414824584276744"><ele>743.0</ele><time>2026-04-11T08:12:08Z</time></trkpt><trkpt lat="40.256508910674725" lon="9.414788473047151"><ele>743.0</ele><time>2026-04-11T08:12:09Z</time></trkpt><trkpt lat="40.256442744247984" lon="9.414758827044214"><ele>743.0</ele><time>2026-04-11T08:12:10Z</time></trkpt><trkpt lat="40.25637763663656" lon="9.414739402989067"><ele>743.0</ele><time>2026-04-11T08:12:11Z</time></trkpt><trkpt lat="40.2563050047742" lon="9.41472772507385"><ele>743.8333333333333</ele><time>2026-04-11T08:12:12Z</time></trkpt><trkpt lat="40.256235533315945" lon="9.414707230686185"><ele>744.6666666666666</ele><time>2026-04-11T08:12:13Z</time></trkpt><trkpt lat="40.25617006716585" lon="9.414678309028623"><ele>745.5</ele><time>2026-04-11T08:12:14Z</time></trkpt><trkpt lat="40.25608222538445" lon="9.414587697497284"><ele>746.3333333333334</ele><time>2026-04-11T08:12:16Z</time></trkpt><trkpt lat="40.25604359754832" lon="9.414489924890905"><ele>747.1666666666667</ele><time>2026-04-11T08:12:18Z</time></trkpt><trkpt lat="40.255978291615214" lon="9.414431225023515"><ele>748.0</ele><time>2026-04-11T08:12:20Z</time></trkpt><trkpt lat="40.25590560583088" lon="9.41445207692118"><ele>748.0</ele><time>2026-04-11T08:12:22Z</time></trkpt><trkpt lat="40.25583815886653" lon="9.414554063034593"><ele>748.0</ele><time>2026-04-11T08:12:24Z</time></trkpt><trkpt lat="40.25579055304929" lon="9.414684340719544"><ele>748.0</ele><time>2026-04-11T08:12:26Z</time></trkpt><trkpt lat="40.25570389785064" lon="9.414746708603127"><ele>748.0</ele><time>2026-04-11T08:12:28Z</time></trkpt><trkpt lat="40.255609445938966" lon="9.414775728145605"><ele>748.0</ele><time>2026-04-11T08:12:30Z</time></trkpt><trkpt lat="40.25552452276365" lon="9.41479118585336"><ele>750.1666666666667</ele><time>2026-04-11T08:12:32Z</time></trkpt><trkpt lat="40.255399381806036" lon="9.414798024668897"><ele>752.3333333333334</ele><time>2026-04-11T08:12:34Z</time></trkpt><trkpt lat="40.25532864217929" lon="9.414815512613647"><ele>754.5</ele><time>2026-04-11T08:12:35Z</time></trkpt><trkpt lat="40.25525343077728" lon="9.41480880635398"><ele>756.6666666666666</ele><time>2026-04-11T08:12:36Z</time></trkpt><trkpt lat="40.25518088102453" lon="9.414841177170638"><ele>758.8333333333333</ele><time>2026-04-11T08:12:37Z</time></trkpt><trkpt lat="40.255110299609896" lon="9.414838111378058"><ele>761.0</ele><time>2026-04-11T08:12:38Z</time></trkpt><trkpt lat="40.255028461801096" lon="9.414830673116587"><ele>761.0</ele><time>2026-04-11T08:12:39Z</time></trkpt><trkpt lat="40.254959933978476" lon="9.414814058925911"><ele>761.0</ele><time>2026-04-11T08:12:40Z</time></trkpt><trkpt lat="40.25490031571464" lon="9.414780418393029"><ele>761.0</ele><time>2026-04-11T08:12:41Z</time></trkpt><trkpt lat="40.25486037675833" lon="9.41471192062672"><ele>761.0</ele><time>2026-04-11T08:12:42Z</time></trkpt><trkpt lat="40.254774747417265" lon="9.414619748129985"><ele>761.0</ele><time>2026-04-11T08:12:44Z</time></trkpt><trkpt lat="40.254694989260656" lon="9.414535497549252"><ele>761.0</ele><time>2026-04-11T08:12:46Z</time></trkpt><trkpt lat="40.25460496041251" lon="9.414438619972092"><ele>758.5</ele><time>2026-04-11T08:12:48Z</time></trkpt><trkpt lat="40.25455421088753" lon="9.414380569021517"><ele>756.0</ele><time>2026-04-11T08:12:49Z</time></trkpt><trkpt lat="40.254499462550186" lon="9.414319595870188"><ele>753.5</ele><time>2026-04-11T08:12:50Z</time></trkpt><trkpt lat="40.254443811601405" lon="9.414265156291098"><ele>751.0</ele><time>2026-04-11T08:12:51Z</time></trkpt><trkpt lat="40.2543471774026" lon="9.414206288447701"><ele>748.5</ele><time>2026-04-11T08:12:53Z</time></trkpt><trkpt lat="40.25423592471654" lon="9.414186440085247"><ele>746.0</ele><time>2026-04-11T08:12:55Z</time></trkpt><trkpt lat="40.25417064365623" lon="9.414204339692498"><ele>746.0</ele><time>2026-04-11T08:12:56Z</time></trkpt><trkpt lat="40.2540581162047" lon="9.414258189705473"><ele>746.0</ele><time>2026-04-11T08:12:58Z</time></trkpt><trkpt lat="40.25398549500172" lon="9.414253870263739"><ele>746.0</ele><time>2026-04-11T08:12:59Z</time></trkpt><trkpt lat="40.25391739505294" lon="9.414216379972315"><ele>746.0</ele><time>2026-04-11T08:13:00Z</time></trkpt><trkpt lat="40.253844098147326" lon="9.41421599150782"><ele>746.0</ele><time>2026-04-11T08:13:01Z</time></trkpt><trkpt lat="40.2537697533418" lon="9.414184771034323"><ele>746.0</ele><time>2026-04-11T08:13:02Z</time></trkpt><trkpt lat="40.25370738733692" lon="9.414145005890996"><ele>749.8571428571429</ele><time>2026-04-11T08:13:03Z</time></trkpt><trkpt lat="40.253648192714735" lon="9.414104886345166"><ele>753.7142857142858</ele><time>2026-04-11T08:13:04Z</time></trkpt><trkpt lat="40.25358514399866" lon="9.414082372852588"><ele>757.5714285714286</ele><time>2026-04-11T08:13:05Z</time></trkpt><trkpt lat="40.253511657925344" lon="9.41408378762225"><ele>761.4285714285714</ele><time>2026-04-11T08:13:06Z</time></trkpt><trkpt lat="40.25344228159007" lon="9.414098229282414"><ele>765.2857142857142</ele><time>2026-04-11T08:13:07.001Z</time></trkpt><trkpt lat="40.253367470453924" lon="9.41408358402755"><ele>769.1428571428571</ele><time>2026-04-11T08:13:08.001Z</time></trkpt><trkpt lat="40.25329685053308" lon="9.414049395586918"><ele>773.0</ele><time>2026-04-11T08:13:09.001Z</time></trkpt><trkpt lat="40.25326170400217" lon="9.413974692110353"><ele>773.0</ele><time>2026-04-11T08:13:10.001Z</time></trkpt><trkpt lat="40.25319982830714" lon="9.413903668988207"><ele>773.0</ele><time>2026-04-11T08:13:12.001Z</time></trkpt><trkpt lat="40.25313599155004" lon="9.413852125564011"><ele>773.0</ele><time>2026-04-11T08:13:15.001Z</time></trkpt><trkpt lat="40.25305498199739" lon="9.413938088670301"><ele>773.0</ele><time>2026-04-11T08:13:17.001Z</time></trkpt><trkpt lat="40.25310114680154" lon="9.414072306859387"><ele>773.0</ele><time>2026-04-11T08:13:19.001Z</time></trkpt><trkpt lat="40.25317205882425" lon="9.414197856748373"><ele>773.0000000000001</ele><time>2026-04-11T08:13:21.001Z</time></trkpt><trkpt lat="40.25324875777524" lon="9.41426366894403"><ele>773.0</ele><time>2026-04-11T08:13:23.001Z</time></trkpt><trkpt lat="40.25330169720024" lon="9.414314264081892"><ele>773.0</ele><time>2026-04-11T08:13:25.001Z</time></trkpt><trkpt lat="40.25336163105803" lon="9.414342195783425"><ele>773.0</ele><time>2026-04-11T08:15:10Z</time></trkpt><trkpt lat="40.25343178259273" lon="9.414386229178758"><ele>773.0000000000001</ele><time>2026-04-11T08:15:12Z</time></trkpt><trkpt lat="40.253517602282656" lon="9.414383943490728"><ele>773.0</ele><time>2026-04-11T08:15:14.001Z</time></trkpt><trkpt lat="40.25355839816369" lon="9.414468948141453"><ele>773.0</ele><time>2026-04-11T08:15:17.001Z</time></trkpt><trkpt lat="40.25341065414714" lon="9.414479650763639"><ele>773.0</ele><time>2026-04-11T08:15:22.001Z</time></trkpt><trkpt lat="40.253330972214464" lon="9.41445481149585"><ele>773.0</ele><time>2026-04-11T08:15:24.001Z</time></trkpt><trkpt lat="40.25324203117467" lon="9.414463368265903"><ele>773.0</ele><time>2026-04-11T08:15:26.001Z</time></trkpt><trkpt lat="40.253140006908964" lon="9.41445006516275"><ele>773.0</ele><time>2026-04-11T08:15:28.001Z</time></trkpt><trkpt lat="40.25306047362544" lon="9.414398613442561"><ele>780.0000000000001</ele><time>2026-04-11T08:15:30.001Z</time></trkpt><trkpt lat="40.252970447215404" lon="9.41432160280273"><ele>787.0</ele><time>2026-04-11T08:15:33.001Z</time></trkpt><trkpt lat="40.252899638578754" lon="9.414245452349483"><ele>794.0</ele><time>2026-04-11T08:15:35.001Z</time></trkpt><trkpt lat="40.25283693375436" lon="9.414154219843327"><ele>801.0</ele><time>2026-04-11T08:15:37.001Z</time></trkpt><trkpt lat="40.25278073564147" lon="9.414068570154596"><ele>808.0000000000001</ele><time>2026-04-11T08:15:39.001Z</time></trkpt><trkpt lat="40.2527338226292" lon="9.414005526730302"><ele>815.0</ele><time>2026-04-11T08:15:40.001Z</time></trkpt><trkpt lat="40.25267829234339" lon="9.41391132117774"><ele>815.0000000000001</ele><time>2026-04-11T08:15:42.001Z</time></trkpt><trkpt lat="40.25264781881654" lon="9.413836243045994"><ele>815.0</ele><time>2026-04-11T08:15:44.001Z</time></trkpt><trkpt lat="40.25262455013076" lon="9.41375467342224"><ele>815.0</ele><time>2026-04-11T08:15:45.001Z</time></trkpt><trkpt lat="40.25257622788853" lon="9.41361828032911"><ele>815.0</ele><time>2026-04-11T08:15:47.001Z</time></trkpt><trkpt lat="40.25257977746341" lon="9.41350561324934"><ele>815.0000000000001</ele><time>2026-04-11T08:15:49.001Z</time></trkpt><trkpt lat="40.252600379837716" lon="9.413404587396473"><ele>815.0</ele><time>2026-04-11T08:15:51.001Z</time></trkpt><trkpt lat="40.252612012288886" lon="9.413320034919636"><ele>812.6</ele><time>2026-04-11T08:15:52.001Z</time></trkpt><trkpt lat="40.252629852907916" lon="9.413172279545789"><ele>810.2</ele><time>2026-04-11T08:15:54.001Z</time></trkpt><trkpt lat="40.252624801592894" lon="9.413023779262371"><ele>807.8</ele><time>2026-04-11T08:15:56.001Z</time></trkpt><trkpt lat="40.25261000472531" lon="9.412934840279616"><ele>805.4</ele><time>2026-04-11T08:15:57.001Z</time></trkpt><trkpt lat="40.25254435717288" lon="9.41281134006557"><ele>803.0</ele><time>2026-04-11T08:15:59.001Z</time></trkpt><trkpt lat="40.25247808577016" lon="9.41278133148432"><ele>800.8</ele><time>2026-04-11T08:16:00.001Z</time></trkpt><trkpt lat="40.25237589915384" lon="9.412773638346513"><ele>798.5999999999999</ele><time>2026-04-11T08:16:02.001Z</time></trkpt><trkpt lat="40.25227131218797" lon="9.412767896687336"><ele>796.4000000000001</ele><time>2026-04-11T08:16:04Z</time></trkpt><trkpt lat="40.252169161881014" lon="9.412796156625157"><ele>794.2</ele><time>2026-04-11T08:16:06Z</time></trkpt><trkpt lat="40.25206047044434" lon="9.412846091541974"><ele>792.0</ele><time>2026-04-11T08:16:08Z</time></trkpt><trkpt lat="40.25196796914192" lon="9.412887391418657"><ele>792.0</ele><time>2026-04-11T08:16:10Z</time></trkpt><trkpt lat="40.25187236174745" lon="9.41293871288807"><ele>792.0</ele><time>2026-04-11T08:16:12Z</time></trkpt><trkpt lat="40.25178197636167" lon="9.412991024463599"><ele>792.0</ele><time>2026-04-11T08:16:14Z</time></trkpt><trkpt lat="40.25171349374166" lon="9.413099701104118"><ele>792.0</ele><time>2026-04-11T08:16:16Z</time></trkpt><trkpt lat="40.25168752689494" lon="9.413177763623407"><ele>792.0</ele><time>2026-04-11T08:16:17Z</time></trkpt><trkpt lat="40.251681592108184" lon="9.413288118518043"><ele>795.6</ele><time>2026-04-11T08:16:19Z</time></trkpt><trkpt lat="40.251669652126964" lon="9.41343725517945"><ele>799.2</ele><time>2026-04-11T08:16:21Z</time></trkpt><trkpt lat="40.25163110123894" lon="9.413553688624345"><ele>802.8</ele><time>2026-04-11T08:16:23Z</time></trkpt><trkpt lat="40.25159144956815" lon="9.413678300002653"><ele>806.4</ele><time>2026-04-11T08:16:25Z</time></trkpt><trkpt lat="40.25151338624325" lon="9.41380312293395"><ele>810.0</ele><time>2026-04-11T08:16:27Z</time></trkpt><trkpt lat="40.2514450256266" lon="9.413869520555346"><ele>811.0</ele><time>2026-04-11T08:16:28Z</time></trkpt><trkpt lat="40.251358751707336" lon="9.41395220140137"><ele>812.0</ele><time>2026-04-11T08:16:30Z</time></trkpt><trkpt lat="40.251264483410566" lon="9.414036381933222"><ele>813.0</ele><time>2026-04-11T08:16:32Z</time></trkpt><trkpt lat="40.25118687383834" lon="9.414093828447884"><ele>814.0</ele><time>2026-04-11T08:16:34Z</time></trkpt><trkpt lat="40.251090913522376" lon="9.41412621253013"><ele>815.0</ele><time>2026-04-11T08:16:36Z</time></trkpt><trkpt lat="40.25103312043074" lon="9.414221990959794"><ele>815.0</ele><time>2026-04-11T08:16:39Z</time></trkpt><trkpt lat="40.251059755132" lon="9.414310805016044"><ele>815.0</ele><time>2026-04-11T08:16:41Z</time></trkpt><trkpt lat="40.25117897500559" lon="9.414288160601515"><ele>815.0</ele><time>2026-04-11T08:16:43Z</time></trkpt><trkpt lat="40.25126326199634" lon="9.414248387156896"><ele>815.0</ele><time>2026-04-11T08:16:45Z</time></trkpt><trkpt lat="40.25136731254098" lon="9.414199140020889"><ele>815.0</ele><time>2026-04-11T08:16:47Z</time></trkpt><trkpt lat="40.25144813879201" lon="9.414169256826112"><ele>818.0000000000001</ele><time>2026-04-11T08:16:49Z</time></trkpt><trkpt lat="40.251511762548084" lon="9.414148594323107"><ele>821.0</ele><time>2026-04-11T08:16:51Z</time></trkpt><trkpt lat="40.25162187142138" lon="9.414119932411532"><ele>824.0</ele><time>2026-04-11T08:16:53Z</time></trkpt><trkpt lat="40.251686786155055" lon="9.414118370206499"><ele>827.0</ele><time>2026-04-11T08:16:55Z</time></trkpt><trkpt lat="40.25176452800491" lon="9.41414350708811"><ele>830.0000000000001</ele><time>2026-04-11T08:16:57Z</time></trkpt><trkpt lat="40.2518136155312" lon="9.414257333723288"><ele>833.0</ele><time>2026-04-11T08:16:59Z</time></trkpt><trkpt lat="40.25185663355216" lon="9.414360591055372"><ele>833.0</ele><time>2026-04-11T08:17:01Z</time></trkpt><trkpt lat="40.25192245919136" lon="9.414448947685"><ele>833.0</ele><time>2026-04-11T08:17:03Z</time></trkpt><trkpt lat="40.251967086100244" lon="9.414567880045613"><ele>833.0</ele><time>2026-04-11T08:17:05Z</time></trkpt><trkpt lat="40.252009436200694" lon="9.414666110635759"><ele>833.0</ele><time>2026-04-11T08:17:07Z</time></trkpt><trkpt lat="40.252065741931695" lon="9.414749390939352"><ele>833.0</ele><time>2026-04-11T08:17:09Z</time></trkpt><trkpt lat="40.25211086602247" lon="9.414859910253362"><ele>835.0</ele><time>2026-04-11T08:17:11Z</time></trkpt><trkpt lat="40.25219208081652" lon="9.414965192835513"><ele>837.0</ele><time>2026-04-11T08:17:13Z</time></trkpt><trkpt lat="40.25224534034489" lon="9.415050743254247"><ele>839.0</ele><time>2026-04-11T08:17:15Z</time></trkpt><trkpt lat="40.252308330679526" lon="9.41511031408028"><ele>841.0</ele><time>2026-04-11T08:17:16Z</time></trkpt><trkpt lat="40.252401443048875" lon="9.415201940108336"><ele>843.0</ele><time>2026-04-11T08:17:18Z</time></trkpt><trkpt lat="40.252433001912785" lon="9.415315543120418"><ele>843.0</ele><time>2026-04-11T08:17:20.001Z</time></trkpt><trkpt lat="40.252458799327336" lon="9.415435954349356"><ele>843.0</ele><time>2026-04-11T08:17:22.001Z</time></trkpt><trkpt lat="40.2525049621712" lon="9.415570352563556"><ele>843.0</ele><time>2026-04-11T08:17:24.001Z</time></trkpt><trkpt lat="40.25257609521716" lon="9.415711641906103"><ele>843.0</ele><time>2026-04-11T08:17:26.001Z</time></trkpt><trkpt lat="40.252621788743575" lon="9.41577672001747"><ele>843.0</ele><time>2026-04-11T08:17:27.001Z</time></trkpt><trkpt lat="40.25268108118092" lon="9.415842142346099"><ele>847.3333333333334</ele><time>2026-04-11T08:17:28.001Z</time></trkpt><trkpt lat="40.252729980479025" lon="9.415901298355335"><ele>851.6666666666667</ele><time>2026-04-11T08:17:29.001Z</time></trkpt><trkpt lat="40.25278133761756" lon="9.415954942397216"><ele>856.0</ele><time>2026-04-11T08:17:30.001Z</time></trkpt><trkpt lat="40.25287478646314" lon="9.41603574105395"><ele>860.3333333333334</ele><time>2026-04-11T08:17:32.001Z</time></trkpt><trkpt lat="40.25293583456855" lon="9.416080759136332"><ele>864.6666666666667</ele><time>2026-04-11T08:17:33.001Z</time></trkpt><trkpt lat="40.25299433274384" lon="9.416116820916134"><ele>869.0</ele><time>2026-04-11T08:17:34.001Z</time></trkpt><trkpt lat="40.253062836898906" lon="9.416155843637933"><ele>871.0</ele><time>2026-04-11T08:17:35.001Z</time></trkpt><trkpt lat="40.253163443476566" lon="9.416211187445418"><ele>873.0000000000001</ele><time>2026-04-11T08:17:37.001Z</time></trkpt><trkpt lat="40.253229481273706" lon="9.416247515200345"><ele>875.0000000000001</ele><time>2026-04-11T08:17:38.001Z</time></trkpt><trkpt lat="40.2533184083881" lon="9.416306905462113"><ele>877.0</ele><time>2026-04-11T08:17:40.001Z</time></trkpt><trkpt lat="40.25340785949304" lon="9.416364911654902"><ele>879.0</ele><time>2026-04-11T08:17:42.001Z</time></trkpt><trkpt lat="40.253507838982635" lon="9.416419222373515"><ele>879.0</ele><time>2026-04-11T08:17:44.001Z</time></trkpt><trkpt lat="40.25361478176171" lon="9.416443145486348"><ele>879.0000000000001</ele><time>2026-04-11T08:17:46.001Z</time></trkpt><trkpt lat="40.25369256335193" lon="9.41642667961373"><ele>879.0000000000001</ele><time>2026-04-11T08:17:47.001Z</time></trkpt><trkpt lat="40.2538091083835" lon="9.416400194083995"><ele>879.0</ele><time>2026-04-11T08:17:49.001Z</time></trkpt><trkpt lat="40.253888464092284" lon="9.416433464246568"><ele>879.0</ele><time>2026-04-11T08:17:51.001Z</time></trkpt><trkpt lat="40.25396511265866" lon="9.416506794574197"><ele>875.8000000000001</ele><time>2026-04-11T08:17:53Z</time></trkpt><trkpt lat="40.25400695571832" lon="9.416570502210254"><ele>872.6000000000001</ele><time>2026-04-11T08:17:54Z</time></trkpt><trkpt lat="40.254061065696575" lon="9.416702615134847"><ele>869.4</ele><time>2026-04-11T08:17:56Z</time></trkpt><trkpt lat="40.25408716436428" lon="9.416820410385181"><ele>866.2</ele><time>2026-04-11T08:17:58Z</time></trkpt><trkpt lat="40.254117306457026" lon="9.416957907243884"><ele>863.0</ele><time>2026-04-11T08:18:00Z</time></trkpt><trkpt lat="40.25414428364527" lon="9.41704092801141"><ele>863.0000000000001</ele><time>2026-04-11T08:18:01Z</time></trkpt><trkpt lat="40.25418767168097" lon="9.417113545266776"><ele>863.0</ele><time>2026-04-11T08:18:02Z</time></trkpt><trkpt lat="40.254255971023795" lon="9.417174038153993"><ele>863.0</ele><time>2026-04-11T08:18:03Z</time></trkpt><trkpt lat="40.25432847516849" lon="9.417201239671924"><ele>863.0</ele><time>2026-04-11T08:18:04Z</time></trkpt><trkpt lat="40.25440121128746" lon="9.417212325596717"><ele>863.0000000000001</ele><time>2026-04-11T08:18:05Z</time></trkpt><trkpt lat="40.25453663294406" lon="9.417194770894298"><ele>863.0</ele><time>2026-04-11T08:18:07Z</time></trkpt><trkpt lat="40.25460877320755" lon="9.41717081984495"><ele>863.0</ele><time>2026-04-11T08:18:08Z</time></trkpt><trkpt lat="40.254668544059456" lon="9.417119151975676"><ele>863.0</ele><time>2026-04-11T08:18:09Z</time></trkpt><trkpt lat="40.25479866278004" lon="9.41707450188963"><ele>863.0</ele><time>2026-04-11T08:18:11Z</time></trkpt><trkpt lat="40.254864044171825" lon="9.417083437689397"><ele>863.0</ele><time>2026-04-11T08:18:12Z</time></trkpt><trkpt lat="40.25495208032472" lon="9.417114173789047"><ele>863.0</ele><time>2026-04-11T08:18:14Z</time></trkpt><trkpt lat="40.25503540745259" lon="9.41716324517177"><ele>866.0000000000001</ele><time>2026-04-11T08:18:16Z</time></trkpt><trkpt lat="40.2551181970706" lon="9.417237761650751"><ele>869.0</ele><time>2026-04-11T08:18:18Z</time></trkpt><trkpt lat="40.255171954728226" lon="9.417322367711868"><ele>872.0</ele><time>2026-04-11T08:18:20Z</time></trkpt><trkpt lat="40.25520244152797" lon="9.41740655942955"><ele>875.0</ele><time>2026-04-11T08:18:22Z</time></trkpt><trkpt lat="40.25518624371373" lon="9.417498419330867"><ele>878.0000000000001</ele><time>2026-04-11T08:18:24Z</time></trkpt><trkpt lat="40.25515887988249" lon="9.417589850093396"><ele>881.0</ele><time>2026-04-11T08:18:26Z</time></trkpt><trkpt lat="40.25508306414879" lon="9.417620624440135"><ele>881.0</ele><time>2026-04-11T08:18:28Z</time></trkpt><trkpt lat="40.25497674159448" lon="9.41764462324462"><ele>880.9999999999999</ele><time>2026-04-11T08:18:30Z</time></trkpt><trkpt lat="40.254905464820524" lon="9.41767745705203"><ele>880.9999999999999</ele><time>2026-04-11T08:18:32Z</time></trkpt><trkpt lat="40.25480678436118" lon="9.417700534819543"><ele>881.0</ele><time>2026-04-11T08:18:34Z</time></trkpt><trkpt lat="40.25469749917412" lon="9.417689177204977"><ele>881.0</ele><time>2026-04-11T08:18:36Z</time></trkpt><trkpt lat="40.254588378795226" lon="9.417717800885034"><ele>881.0</ele><time>2026-04-11T08:18:38Z</time></trkpt><trkpt lat="40.25453423717249" lon="9.417773428870433"><ele>880.9999999999999</ele><time>2026-04-11T08:18:40Z</time></trkpt><trkpt lat="40.2545263603173" lon="9.417898303061616"><ele>880.9999999999999</ele><time>2026-04-11T08:18:42Z</time></trkpt><trkpt lat="40.25459701456279" lon="9.417937544822918"><ele>881.0</ele><time>2026-04-11T08:18:43Z</time></trkpt><trkpt lat="40.25469159874818" lon="9.417956279702246"><ele>881.0</ele><time>2026-04-11T08:18:45Z</time></trkpt><trkpt lat="40.25480450479167" lon="9.417928262444514"><ele>881.0000000000001</ele><time>2026-04-11T08:18:47Z</time></trkpt><trkpt lat="40.25488730675484" lon="9.417934567426"><ele>881.0</ele><time>2026-04-11T08:18:49Z</time></trkpt><trkpt lat="40.25495426251273" lon="9.417978381213363"><ele>881.0</ele><time>2026-04-11T08:18:51Z</time></trkpt><trkpt lat="40.25496825654974" lon="9.418090113265722"><ele>881.0</ele><time>2026-04-11T08:18:53Z</time></trkpt><trkpt lat="40.25489124312726" lon="9.418148676427045"><ele>881.0000000000001</ele><time>2026-04-11T08:18:55Z</time></trkpt><trkpt lat="40.25481500489011" lon="9.418130024413276"><ele>881.0</ele><time>2026-04-11T08:18:57Z</time></trkpt><trkpt lat="40.25467211696966" lon="9.418128520960508"><ele>887.5000000000001</ele><time>2026-04-11T08:18:59Z</time></trkpt><trkpt lat="40.25456078116702" lon="9.418149246975947"><ele>894.0</ele><time>2026-04-11T08:19:01Z</time></trkpt><trkpt lat="40.25449148040046" lon="9.418157507085407"><ele>900.5</ele><time>2026-04-11T08:19:02Z</time></trkpt><trkpt lat="40.2544145361356" lon="9.418156104628515"><ele>907.0</ele><time>2026-04-11T08:19:03Z</time></trkpt><trkpt lat="40.25433774451544" lon="9.418151338801882"><ele>913.5000000000001</ele><time>2026-04-11T08:19:04Z</time></trkpt><trkpt lat="40.254272443137374" lon="9.418124691535994"><ele>920.0</ele><time>2026-04-11T08:19:05Z</time></trkpt><trkpt lat="40.25414946488795" lon="9.41811170878768"><ele>920.0000000000001</ele><time>2026-04-11T08:19:07Z</time></trkpt><trkpt lat="40.25405293645615" lon="9.418112872324695"><ele>920.0</ele><time>2026-04-11T08:19:09Z</time></trkpt><trkpt lat="40.25401487929489" lon="9.41818682887893"><ele>920.0</ele><time>2026-04-11T08:19:11Z</time></trkpt><trkpt lat="40.254097869522866" lon="9.418273478670846"><ele>920.0</ele><time>2026-04-11T08:19:13Z</time></trkpt><trkpt lat="40.25417124470579" lon="9.418286240958478"><ele>920.0000000000001</ele><time>2026-04-11T08:19:14Z</time></trkpt><trkpt lat="40.25424610406322" lon="9.418336408509592"><ele>920.0</ele><time>2026-04-11T08:19:15Z</time></trkpt><trkpt lat="40.25431099875824" lon="9.418369950811792"><ele>920.0000000000001</ele><time>2026-04-11T08:19:16Z</time></trkpt><trkpt lat="40.254372477072444" lon="9.418402789837051"><ele>920.0</ele><time>2026-04-11T08:19:17Z</time></trkpt><trkpt lat="40.25443603061659" lon="9.418440301994831"><ele>920.0</ele><time>2026-04-11T08:19:18Z</time></trkpt><trkpt lat="40.2545085100798" lon="9.418469351439317"><ele>920.0</ele><time>2026-04-11T08:19:19Z</time></trkpt><trkpt lat="40.254569486647625" lon="9.418520525495257"><ele>920.0000000000001</ele><time>2026-04-11T08:19:20Z</time></trkpt><trkpt lat="40.25471632486289" lon="9.4186001408127"><ele>920.0</ele><time>2026-04-11T08:19:22Z</time></trkpt><trkpt lat="40.25480725014321" lon="9.418642859158041"><ele>918.8333333333334</ele><time>2026-04-11T08:19:23Z</time></trkpt><trkpt lat="40.25488902457445" lon="9.418660007003057"><ele>917.6666666666667</ele><time>2026-04-11T08:19:24Z</time></trkpt><trkpt lat="40.254956641441915" lon="9.418664929864175"><ele>916.5</ele><time>2026-04-11T08:19:25.001Z</time></trkpt><trkpt lat="40.25505909967796" lon="9.418669443958928"><ele>915.3333333333333</ele><time>2026-04-11T08:19:27.001Z</time></trkpt><trkpt lat="40.25513528489942" lon="9.41866366045678"><ele>914.1666666666666</ele><time>2026-04-11T08:19:41.001Z</time></trkpt><trkpt lat="40.25524864865695" lon="9.418693212267495"><ele>913.0</ele><time>2026-04-11T08:19:43.001Z</time></trkpt><trkpt lat="40.25531514730464" lon="9.418725282436812"><ele>919.2</ele><time>2026-04-11T08:19:45.001Z</time></trkpt><trkpt lat="40.25533527821801" lon="9.418832606513487"><ele>925.4</ele><time>2026-04-11T08:19:47Z</time></trkpt><trkpt lat="40.25523795932148" lon="9.418869957156115"><ele>931.6000000000001</ele><time>2026-04-11T08:19:49Z</time></trkpt><trkpt lat="40.255097212690835" lon="9.418871754690068"><ele>937.8000000000001</ele><time>2026-04-11T08:19:51Z</time></trkpt><trkpt lat="40.255023539299785" lon="9.418899614792057"><ele>944.0</ele><time>2026-04-11T08:19:52Z</time></trkpt><trkpt lat="40.25493267800212" lon="9.418913112448708"><ele>944.0</ele><time>2026-04-11T08:19:53Z</time></trkpt><trkpt lat="40.25486073854646" lon="9.41890898006716"><ele>944.0</ele><time>2026-04-11T08:19:54Z</time></trkpt><trkpt lat="40.254792814344896" lon="9.41891389371755"><ele>944.0</ele><time>2026-04-11T08:19:55Z</time></trkpt><trkpt lat="40.254720551103176" lon="9.418928884817804"><ele>944.0</ele><time>2026-04-11T08:19:56Z</time></trkpt><trkpt lat="40.254656893047986" lon="9.418960896868638"><ele>944.0</ele><time>2026-04-11T08:19:57Z</time></trkpt><trkpt lat="40.25461152246665" lon="9.419018299062337"><ele>944.0</ele><time>2026-04-11T08:19:59Z</time></trkpt><trkpt lat="40.25462672835963" lon="9.41913144832399"><ele>944.0</ele><time>2026-04-11T08:20:00Z</time></trkpt><trkpt lat="40.25477663850084" lon="9.419171828990615"><ele>944.0</ele><time>2026-04-11T08:20:02Z</time></trkpt><trkpt lat="40.25489223500341" lon="9.419187993461957"><ele>944.0000000000001</ele><time>2026-04-11T08:20:04Z</time></trkpt><trkpt lat="40.25498027800226" lon="9.419226979255603"><ele>944.0000000000001</ele><time>2026-04-11T08:20:06Z</time></trkpt><trkpt lat="40.2550402083995" lon="9.419270388980182"><ele>944.0</ele><time>2026-04-11T08:20:09Z</time></trkpt><trkpt lat="40.25492678011467" lon="9.41936514833483"><ele>944.0</ele><time>2026-04-11T08:20:11Z</time></trkpt><trkpt lat="40.25485645500547" lon="9.419360167461916"><ele>946.8333333333334</ele><time>2026-04-11T08:20:12Z</time></trkpt><trkpt lat="40.25473727196544" lon="9.419341470088876"><ele>949.6666666666667</ele><time>2026-04-11T08:20:14Z</time></trkpt><trkpt lat="40.254671274258" lon="9.41933872066101"><ele>952.5</ele><time>2026-04-11T08:20:15Z</time></trkpt><trkpt lat="40.254590691403436" lon="9.419325353862401"><ele>955.3333333333333</ele><time>2026-04-11T08:20:16Z</time></trkpt><trkpt lat="40.254510204235864" lon="9.419317473617257"><ele>958.1666666666666</ele><time>2026-04-11T08:20:17Z</time></trkpt><trkpt lat="40.25443163937859" lon="9.419312420274991"><ele>961.0</ele><time>2026-04-11T08:20:18Z</time></trkpt><trkpt lat="40.25436056474899" lon="9.419301912300861"><ele>960.9999999999999</ele><time>2026-04-11T08:20:19Z</time></trkpt><trkpt lat="40.254289235521085" lon="9.419277662922756"><ele>961.0</ele><time>2026-04-11T08:20:20Z</time></trkpt><trkpt lat="40.25420790048163" lon="9.419241600887391"><ele>961.0</ele><time>2026-04-11T08:20:21Z</time></trkpt><trkpt lat="40.25413627485438" lon="9.419207114404268"><ele>961.0</ele><time>2026-04-11T08:20:22Z</time></trkpt><trkpt lat="40.2540631296047" lon="9.41919032293827"><ele>960.9999999999999</ele><time>2026-04-11T08:20:23Z</time></trkpt><trkpt lat="40.25400005732445" lon="9.419129420167582"><ele>961.0</ele><time>2026-04-11T08:20:24Z</time></trkpt><trkpt lat="40.25388966158055" lon="9.41901726482846"><ele>957.8</ele><time>2026-04-11T08:20:26Z</time></trkpt><trkpt lat="40.25382789084261" lon="9.41894782882194"><ele>954.5999999999999</ele><time>2026-04-11T08:20:27Z</time></trkpt><trkpt lat="40.25375477092823" lon="9.418867914171742"><ele>951.4</ele><time>2026-04-11T08:20:28Z</time></trkpt><trkpt lat="40.253691673159224" lon="9.418809922211269"><ele>948.2</ele><time>2026-04-11T08:20:29Z</time></trkpt><trkpt lat="40.2535872495301" lon="9.418768202288597"><ele>945.0</ele><time>2026-04-11T08:20:31Z</time></trkpt><trkpt lat="40.25350441521578" lon="9.418821615242745"><ele>950.5</ele><time>2026-04-11T08:20:33Z</time></trkpt><trkpt lat="40.25349636429823" lon="9.418917149521972"><ele>956.0</ele><time>2026-04-11T08:20:34Z</time></trkpt><trkpt lat="40.25355062628821" lon="9.418990529603539"><ele>961.5</ele><time>2026-04-11T08:20:35Z</time></trkpt><trkpt lat="40.253593120063826" lon="9.419063926786272"><ele>967.0</ele><time>2026-04-11T08:20:36Z</time></trkpt><trkpt lat="40.253638277045745" lon="9.419138339553573"><ele>972.5</ele><time>2026-04-11T08:20:37Z</time></trkpt><trkpt lat="40.25369520595335" lon="9.419237576002871"><ele>978.0</ele><time>2026-04-11T08:20:38Z</time></trkpt><trkpt lat="40.25375157540212" lon="9.419341371480428"><ele>978.0</ele><time>2026-04-11T08:20:39Z</time></trkpt><trkpt lat="40.25379680803256" lon="9.419424714359211"><ele>978.0</ele><time>2026-04-11T08:20:40Z</time></trkpt><trkpt lat="40.25384554982498" lon="9.419512357471005"><ele>978.0</ele><time>2026-04-11T08:20:41Z</time></trkpt><trkpt lat="40.25389727811859" lon="9.419600249409335"><ele>978.0</ele><time>2026-04-11T08:20:42Z</time></trkpt><trkpt lat="40.25394832406397" lon="9.419664199702414"><ele>978.0</ele><time>2026-04-11T08:20:43Z</time></trkpt><trkpt lat="40.2540031274821" lon="9.419748819379807"><ele>978.0</ele><time>2026-04-11T08:20:44Z</time></trkpt><trkpt lat="40.25405923083503" lon="9.419817682247224"><ele>979.2</ele><time>2026-04-11T08:20:45Z</time></trkpt><trkpt lat="40.254133904109175" lon="9.419906000137116"><ele>980.4</ele><time>2026-04-11T08:20:46Z</time></trkpt><trkpt lat="40.25419641481631" lon="9.419976536270301"><ele>981.6000000000001</ele><time>2026-04-11T08:20:47Z</time></trkpt><trkpt lat="40.254265916994065" lon="9.420039515667028"><ele>982.8000000000001</ele><time>2026-04-11T08:20:48Z</time></trkpt><trkpt lat="40.254323183624784" lon="9.420088207197017"><ele>984.0</ele><time>2026-04-11T08:20:49Z</time></trkpt><trkpt lat="40.254449546425434" lon="9.420192489069787"><ele>984.0</ele><time>2026-04-11T08:20:51Z</time></trkpt><trkpt lat="40.2545196738959" lon="9.420231753745751"><ele>984.0</ele><time>2026-04-11T08:20:52Z</time></trkpt><trkpt lat="40.25459216779225" lon="9.420272821698703"><ele>984.0</ele><time>2026-04-11T08:20:53Z</time></trkpt><trkpt lat="40.25466418541272" lon="9.420298841032395"><ele>984.0</ele><time>2026-04-11T08:20:54Z</time></trkpt><trkpt lat="40.25473210556993" lon="9.420351846808293"><ele>984.0</ele><time>2026-04-11T08:20:55Z</time></trkpt><trkpt lat="40.2547998795686" lon="9.42040343036422"><ele>984.0</ele><time>2026-04-11T08:20:56Z</time></trkpt><trkpt lat="40.25486559325972" lon="9.420454175868713"><ele>985.857142857143</ele><time>2026-04-11T08:20:57Z</time></trkpt><trkpt lat="40.254931832479464" lon="9.420504460604661"><ele>987.7142857142858</ele><time>2026-04-11T08:20:58Z</time></trkpt><trkpt lat="40.254992244539345" lon="9.420563808122704"><ele>989.5714285714286</ele><time>2026-04-11T08:20:59Z</time></trkpt><trkpt lat="40.25505387323745" lon="9.420610305888408"><ele>991.4285714285714</ele><time>2026-04-11T08:21:00Z</time></trkpt><trkpt lat="40.255111425548115" lon="9.42065422450513"><ele>993.2857142857142</ele><time>2026-04-11T08:21:01Z</time></trkpt><trkpt lat="40.25517235028685" lon="9.420700928487136"><ele>995.142857142857</ele><time>2026-04-11T08:21:02Z</time></trkpt><trkpt lat="40.25523027941122" lon="9.420745489861117"><ele>996.9999999999999</ele><time>2026-04-11T08:21:03Z</time></trkpt><trkpt lat="40.255325104820315" lon="9.420813460052743"><ele>997.0</ele><time>2026-04-11T08:21:05Z</time></trkpt><trkpt lat="40.2554034847458" lon="9.420873342761128"><ele>997.0</ele><time>2026-04-11T08:21:07Z</time></trkpt><trkpt lat="40.25550031234585" lon="9.42094547161196"><ele>997.0</ele><time>2026-04-11T08:21:09Z</time></trkpt><trkpt lat="40.2555653384224" lon="9.42103183924438"><ele>997.0</ele><time>2026-04-11T08:21:13Z</time></trkpt><trkpt lat="40.2556362194235" lon="9.42109671629738"><ele>997.0</ele><time>2026-04-11T08:21:15Z</time></trkpt><trkpt lat="40.25574286081065" lon="9.42115079731878"><ele>997.9999999999999</ele><time>2026-04-11T08:21:17.999Z</time></trkpt><trkpt lat="40.25582935882943" lon="9.421162101559519"><ele>999.0</ele><time>2026-04-11T08:21:19.999Z</time></trkpt><trkpt lat="40.255921575795085" lon="9.421161797333225"><ele>1000.0</ele><time>2026-04-11T08:21:21.999Z</time></trkpt><trkpt lat="40.25600390275015" lon="9.421155709130552"><ele>1001.0</ele><time>2026-04-11T08:21:23.999Z</time></trkpt><trkpt lat="40.25607565120728" lon="9.42115040321997"><ele>1001.9999999999999</ele><time>2026-04-11T08:21:25.999Z</time></trkpt><trkpt lat="40.256140786435" lon="9.421141128802889"><ele>1003.0</ele><time>2026-04-11T08:21:27.999Z</time></trkpt><trkpt lat="40.256210418639164" lon="9.421140501739494"><ele>1002.9999999999999</ele><time>2026-04-11T08:21:31.001Z</time></trkpt><trkpt lat="40.25627615623647" lon="9.42115900543357"><ele>1003.0</ele><time>2026-04-11T08:21:34.001Z</time></trkpt><trkpt lat="40.25625136431769" lon="9.421280541934527"><ele>1003.0</ele><time>2026-04-11T08:21:37.001Z</time></trkpt><trkpt lat="40.256186822354415" lon="9.421342500123567"><ele>1003.0</ele><time>2026-04-11T08:21:39.001Z</time></trkpt><trkpt lat="40.25613348583611" lon="9.421386997652275"><ele>1002.9999999999999</ele><time>2026-04-11T08:21:41.001Z</time></trkpt><trkpt lat="40.25608419326192" lon="9.421441280822322"><ele>1003.0</ele><time>2026-04-11T08:21:43.001Z</time></trkpt><trkpt lat="40.256087170726246" lon="9.421770388847358"><ele>1006.5</ele><time>2026-04-11T08:21:46.001Z</time></trkpt><trkpt lat="40.25623637438624" lon="9.421632265645213"><ele>1010.0</ele><time>2026-04-11T08:21:47Z</time></trkpt><trkpt lat="40.256304296081076" lon="9.421621112325546"><ele>1013.5</ele><time>2026-04-11T08:21:48Z</time></trkpt><trkpt lat="40.25642644677062" lon="9.421606471292563"><ele>1017.0</ele><time>2026-04-11T08:21:50Z</time></trkpt><trkpt lat="40.256530300482915" lon="9.421611451433835"><ele>1017.4000000000001</ele><time>2026-04-11T08:21:52Z</time></trkpt><trkpt lat="40.256637991140686" lon="9.42161727156813"><ele>1017.8000000000001</ele><time>2026-04-11T08:21:54Z</time></trkpt><trkpt lat="40.256737348422554" lon="9.421622641330007"><ele>1018.2</ele><time>2026-04-11T08:21:56Z</time></trkpt><trkpt lat="40.25680154035812" lon="9.421626110525903"><ele>1018.6</ele><time>2026-04-11T08:21:57Z</time></trkpt><trkpt lat="40.25690216679366" lon="9.421630507420215"><ele>1019.0</ele><time>2026-04-11T08:21:59Z</time></trkpt><trkpt lat="40.25698532507091" lon="9.421665216868286"><ele>1019.0</ele><time>2026-04-11T08:22:01Z</time></trkpt><trkpt lat="40.25704034157682" lon="9.421714924030395"><ele>1019.0000000000001</ele><time>2026-04-11T08:22:05Z</time></trkpt><trkpt lat="40.25700339430673" lon="9.421798474993558"><ele>1019.0000000000001</ele><time>2026-04-11T08:22:09Z</time></trkpt><trkpt lat="40.25691333942434" lon="9.421887638272551"><ele>1019.0</ele><time>2026-04-11T08:22:11Z</time></trkpt><trkpt lat="40.2568294558192" lon="9.421969323498763"><ele>1019.0</ele><time>2026-04-11T08:22:13Z</time></trkpt><trkpt lat="40.256725162544" lon="9.422051722966962"><ele>1019.0</ele><time>2026-04-11T08:22:15Z</time></trkpt><trkpt lat="40.25667660607994" lon="9.422108293936672"><ele>1019.0000000000001</ele><time>2026-04-11T08:22:16Z</time></trkpt><trkpt lat="40.256622747374095" lon="9.422164917108393"><ele>1019.0000000000001</ele><time>2026-04-11T08:22:17Z</time></trkpt><trkpt lat="40.25651474952394" lon="9.422248262034577"><ele>1019.0</ele><time>2026-04-11T08:22:19Z</time></trkpt><trkpt lat="40.25639403765661" lon="9.42231020655336"><ele>1019.0</ele><time>2026-04-11T08:22:21Z</time></trkpt><trkpt lat="40.2563142904124" lon="9.422383025609593"><ele>1023.0000000000001</ele><time>2026-04-11T08:22:23Z</time></trkpt><trkpt lat="40.256237111907886" lon="9.422426769262936"><ele>1027.0</ele><time>2026-04-11T08:22:25Z</time></trkpt><trkpt lat="40.256172842590445" lon="9.422474346808206"><ele>1031.0</ele><time>2026-04-11T08:22:26Z</time></trkpt><trkpt lat="40.25607103886894" lon="9.422487896067068"><ele>1035.0</ele><time>2026-04-11T08:22:28Z</time></trkpt><trkpt lat="40.256005401547554" lon="9.422494656421811"><ele>1039.0</ele><time>2026-04-11T08:22:29Z</time></trkpt><trkpt lat="40.25591394561649" lon="9.422500229518183"><ele>1043.0</ele><time>2026-04-11T08:22:31Z</time></trkpt><trkpt lat="40.25580269930737" lon="9.42247060578845"><ele>1043.0</ele><time>2026-04-11T08:22:33Z</time></trkpt><trkpt lat="40.25570114765645" lon="9.4224029769968"><ele>1043.0</ele><time>2026-04-11T08:22:35Z</time></trkpt><trkpt lat="40.255631805644086" lon="9.422385004389785"><ele>1043.0</ele><time>2026-04-11T08:22:37Z</time></trkpt><trkpt lat="40.255567097059014" lon="9.422466039314312"><ele>1043.0</ele><time>2026-04-11T08:22:40Z</time></trkpt><trkpt lat="40.255604364420954" lon="9.422570257864999"><ele>1043.0</ele><time>2026-04-11T08:22:42Z</time></trkpt><trkpt lat="40.25568043206964" lon="9.42264567868669"><ele>1043.0</ele><time>2026-04-11T08:22:44Z</time></trkpt><trkpt lat="40.25575610085004" lon="9.422703540711861"><ele>1043.0</ele><time>2026-04-11T08:22:46Z</time></trkpt><trkpt lat="40.2558248054623" lon="9.422765804449684"><ele>1043.0</ele><time>2026-04-11T08:22:48Z</time></trkpt><trkpt lat="40.255917517776915" lon="9.422855409134144"><ele>1043.0</ele><time>2026-04-11T08:22:50Z</time></trkpt><trkpt lat="40.255983079725205" lon="9.422921488483068"><ele>1043.0</ele><time>2026-04-11T08:22:52Z</time></trkpt><trkpt lat="40.2560999476033" lon="9.422964851439568"><ele>1046.5</ele><time>2026-04-11T08:22:54Z</time></trkpt><trkpt lat="40.256189308479286" lon="9.423030127374"><ele>1050.0</ele><time>2026-04-11T08:22:56Z</time></trkpt><trkpt lat="40.256261908307074" lon="9.423071741841497"><ele>1053.5</ele><time>2026-04-11T08:22:58Z</time></trkpt><trkpt lat="40.25633632759383" lon="9.423082518265476"><ele>1057.0</ele><time>2026-04-11T08:25:10Z</time></trkpt><trkpt lat="40.25640319254069" lon="9.423117801356097"><ele>1060.5</ele><time>2026-04-11T08:25:12Z</time></trkpt><trkpt lat="40.256476811156915" lon="9.423167188699669"><ele>1064.0</ele><time>2026-04-11T08:25:13.999Z</time></trkpt><trkpt lat="40.25656294252832" lon="9.423212145361225"><ele>1064.0</ele><time>2026-04-11T08:25:15.999Z</time></trkpt><trkpt lat="40.25664627392762" lon="9.423286739479837"><ele>1064.0</ele><time>2026-04-11T08:25:17.999Z</time></trkpt><trkpt lat="40.25675947705815" lon="9.423335356165516"><ele>1064.0</ele><time>2026-04-11T08:25:19.999Z</time></trkpt><trkpt lat="40.25687135024521" lon="9.42338430042775"><ele>1064.0</ele><time>2026-04-11T08:25:21.999Z</time></trkpt><trkpt lat="40.25693292452204" lon="9.423403360759586"><ele>1064.0</ele><time>2026-04-11T08:25:22.999Z</time></trkpt><trkpt lat="40.257033624088464" lon="9.423429418150636"><ele>1064.0</ele><time>2026-04-11T08:25:24.999Z</time></trkpt><trkpt lat="40.25712215735783" lon="9.423452544859233"><ele>1064.0</ele><time>2026-04-11T08:25:26.999Z</time></trkpt><trkpt lat="40.25722881890059" lon="9.42347157210345"><ele>1064.0</ele><time>2026-04-11T08:25:28.999Z</time></trkpt><trkpt lat="40.25732339403805" lon="9.423483395873792"><ele>1064.0</ele><time>2026-04-11T08:25:30.999Z</time></trkpt><trkpt lat="40.257426228004434" lon="9.423531466110903"><ele>1064.0</ele><time>2026-04-11T08:25:32.999Z</time></trkpt><trkpt lat="40.25751334727847" lon="9.423552771111252"><ele>1064.8333333333335</ele><time>2026-04-11T08:25:34.999Z</time></trkpt><trkpt lat="40.25759394859464" lon="9.423569055640593"><ele>1065.6666666666667</ele><time>2026-04-11T08:25:36.999Z</time></trkpt><trkpt lat="40.257672572407586" lon="9.423590955980576"><ele>1066.5</ele><time>2026-04-11T08:25:38.999Z</time></trkpt><trkpt lat="40.257733994182054" lon="9.423613578283623"><ele>1067.3333333333333</ele><time>2026-04-11T08:25:39.999Z</time></trkpt><trkpt lat="40.25782148862564" lon="9.423665908720638"><ele>1068.1666666666665</ele><time>2026-04-11T08:25:42Z</time></trkpt><trkpt lat="40.257899251955926" lon="9.423706477075633"><ele>1069.0</ele><time>2026-04-11T08:25:44Z</time></trkpt><trkpt lat="40.25796404719131" lon="9.423758205864917"><ele>1069.0</ele><time>2026-04-11T08:25:46Z</time></trkpt><trkpt lat="40.25806102331062" lon="9.423799482081964"><ele>1069.0</ele><time>2026-04-11T08:25:48Z</time></trkpt><trkpt lat="40.258131291901556" lon="9.423869838012203"><ele>1069.0</ele><time>2026-04-11T08:25:50Z</time></trkpt><trkpt lat="40.25820966464401" lon="9.423906305822404"><ele>1069.0</ele><time>2026-04-11T08:25:52Z</time></trkpt><trkpt lat="40.258303023956955" lon="9.42394418925352"><ele>1069.0</ele><time>2026-04-11T08:25:54Z</time></trkpt><trkpt lat="40.25839644760422" lon="9.42397802485586"><ele>1075.0</ele><time>2026-04-11T08:25:56Z</time></trkpt><trkpt lat="40.25846320125269" lon="9.424001820776057"><ele>1081.0</ele><time>2026-04-11T08:25:58Z</time></trkpt><trkpt lat="40.25852329026736" lon="9.42403832664241"><ele>1087.0</ele><time>2026-04-11T08:26:02Z</time></trkpt><trkpt lat="40.258424964805286" lon="9.42409160947355"><ele>1093.0</ele><time>2026-04-11T08:26:08Z</time></trkpt><trkpt lat="40.25836185654436" lon="9.424071430032106"><ele>1099.0</ele><time>2026-04-11T08:26:09Z</time></trkpt><trkpt lat="40.258268734066014" lon="9.424035854755822"><ele>1105.0</ele><time>2026-04-11T08:26:11Z</time></trkpt><trkpt lat="40.25818745251704" lon="9.424045127543767"><ele>1104.6666666666665</ele><time>2026-04-11T08:26:13Z</time></trkpt><trkpt lat="40.25811178650419" lon="9.424048421690863"><ele>1104.3333333333333</ele><time>2026-04-11T08:26:15Z</time></trkpt><trkpt lat="40.25801324286765" lon="9.424062152916514"><ele>1104.0</ele><time>2026-04-11T08:26:18Z</time></trkpt><trkpt lat="40.25794076794451" lon="9.42406570979482"><ele>1103.6666666666667</ele><time>2026-04-11T08:26:20Z</time></trkpt><trkpt lat="40.25785829483301" lon="9.424082133359976"><ele>1103.3333333333335</ele><time>2026-04-11T08:26:23Z</time></trkpt><trkpt lat="40.25777660544558" lon="9.42408407535681"><ele>1103.0</ele><time>2026-04-11T08:26:25Z</time></trkpt><trkpt lat="40.25770533708063" lon="9.424097667108668"><ele>1103.0</ele><time>2026-04-11T08:26:27Z</time></trkpt><trkpt lat="40.25762009577226" lon="9.424111700194068"><ele>1103.0</ele><time>2026-04-11T08:26:29Z</time></trkpt><trkpt lat="40.25753128676072" lon="9.42413098470154"><ele>1103.0</ele><time>2026-04-11T08:26:32Z</time></trkpt><trkpt lat="40.25744823802451" lon="9.42417509984647"><ele>1103.0</ele><time>2026-04-11T08:26:34Z</time></trkpt><trkpt lat="40.25739848461359" lon="9.424246866753332"><ele>1103.0</ele><time>2026-04-11T08:26:36Z</time></trkpt><trkpt lat="40.257425615223354" lon="9.424349996181851"><ele>1103.0</ele><time>2026-04-11T08:26:38Z</time></trkpt><trkpt lat="40.25749664497286" lon="9.424391548227211"><ele>1103.0</ele><time>2026-04-11T08:26:40Z</time></trkpt><trkpt lat="40.257581181466364" lon="9.42436907724409"><ele>1103.0</ele><time>2026-04-11T08:26:42Z</time></trkpt><trkpt lat="40.2576594332433" lon="9.42437898479003"><ele>1103.0</ele><time>2026-04-11T08:26:44Z</time></trkpt><trkpt lat="40.257752854317616" lon="9.424386745754303"><ele>1103.0</ele><time>2026-04-11T08:26:46Z</time></trkpt><trkpt lat="40.25782945142772" lon="9.424394497569583"><ele>1103.0</ele><time>2026-04-11T08:26:48Z</time></trkpt><trkpt lat="40.25791224079507" lon="9.424402876045184"><ele>1103.0</ele><time>2026-04-11T08:26:50Z</time></trkpt><trkpt lat="40.257999458096535" lon="9.424418427612343"><ele>1103.0</ele><time>2026-04-11T08:26:52Z</time></trkpt><trkpt lat="40.258075383808304" lon="9.42445933072611"><ele>1103.0</ele><time>2026-04-11T08:26:54Z</time></trkpt><trkpt lat="40.25817839344922" lon="9.42445104251673"><ele>1103.0</ele><time>2026-04-11T08:26:56Z</time></trkpt><trkpt lat="40.25827273885054" lon="9.424451042511343"><ele>1103.0</ele><time>2026-04-11T08:26:58Z</time></trkpt><trkpt lat="40.25837068465321" lon="9.424454408091211"><ele>1103.0</ele><time>2026-04-11T08:27:00Z</time></trkpt><trkpt lat="40.25845398344616" lon="9.42446256169638"><ele>1103.3333333333335</ele><time>2026-04-11T08:27:02Z</time></trkpt><trkpt lat="40.25853679868697" lon="9.42448952938919"><ele>1103.6666666666667</ele><time>2026-04-11T08:27:04Z</time></trkpt><trkpt lat="40.25861729391764" lon="9.424523842879532"><ele>1104.0</ele><time>2026-04-11T08:27:06Z</time></trkpt><trkpt lat="40.25867968487097" lon="9.42457457852106"><ele>1104.3333333333333</ele><time>2026-04-11T08:27:08Z</time></trkpt><trkpt lat="40.25874307575296" lon="9.42460578493367"><ele>1104.6666666666665</ele><time>2026-04-11T08:27:10Z</time></trkpt><trkpt lat="40.25882622327225" lon="9.424652344416135"><ele>1105.0</ele><time>2026-04-11T08:27:12Z</time></trkpt><trkpt lat="40.25889752383323" lon="9.424687773365317"><ele>1112.6666666666665</ele><time>2026-04-11T08:27:14Z</time></trkpt><trkpt lat="40.25898539580224" lon="9.424684781510898"><ele>1120.3333333333333</ele><time>2026-04-11T08:27:16Z</time></trkpt><trkpt lat="40.25906626648239" lon="9.424703998472305"><ele>1128.0</ele><time>2026-04-11T08:27:18Z</time></trkpt><trkpt lat="40.259065831748586" lon="9.424824750608009"><ele>1135.6666666666667</ele><time>2026-04-11T08:27:23.999Z</time></trkpt><trkpt lat="40.25897928796509" lon="9.424791955693088"><ele>1143.3333333333335</ele><time>2026-04-11T08:27:25.999Z</time></trkpt><trkpt lat="40.258895387504054" lon="9.424775265248376"><ele>1151.0</ele><time>2026-04-11T08:27:27.999Z</time></trkpt><trkpt lat="40.258801763024636" lon="9.424797519359679"><ele>1151.3333333333335</ele><time>2026-04-11T08:27:29.999Z</time></trkpt><trkpt lat="40.258717422563585" lon="9.424798948446814"><ele>1151.6666666666667</ele><time>2026-04-11T08:27:31.999Z</time></trkpt><trkpt lat="40.258629290682464" lon="9.42481540789156"><ele>1152.0</ele><time>2026-04-11T08:27:33.999Z</time></trkpt><trkpt lat="40.25853159143522" lon="9.424818180705117"><ele>1152.3333333333333</ele><time>2026-04-11T08:27:35.999Z</time></trkpt><trkpt lat="40.258444254163734" lon="9.42484184034367"><ele>1152.6666666666665</ele><time>2026-04-11T08:27:37.999Z</time></trkpt><trkpt lat="40.25837005222206" lon="9.424860067881474"><ele>1153.0</ele><time>2026-04-11T08:27:39.999Z</time></trkpt><trkpt lat="40.258293091393874" lon="9.42489426269435"><ele>1153.0</ele><time>2026-04-11T08:27:41.999Z</time></trkpt><trkpt lat="40.258208401881966" lon="9.424917877584301"><ele>1153.0</ele><time>2026-04-11T08:27:43.999Z</time></trkpt><trkpt lat="40.25811079252858" lon="9.424936463570537"><ele>1153.0</ele><time>2026-04-11T08:27:45.999Z</time></trkpt><trkpt lat="40.258022434877404" lon="9.424947418410996"><ele>1153.0</ele><time>2026-04-11T08:27:48Z</time></trkpt><trkpt lat="40.25791996044684" lon="9.42495643193915"><ele>1153.0</ele><time>2026-04-11T08:27:50Z</time></trkpt><trkpt lat="40.257827546553024" lon="9.424980902179346"><ele>1154.0</ele><time>2026-04-11T08:27:52Z</time></trkpt><trkpt lat="40.25772813805919" lon="9.425031832592337"><ele>1155.0</ele><time>2026-04-11T08:27:54Z</time></trkpt><trkpt lat="40.257634627200446" lon="9.425044912238322"><ele>1156.0</ele><time>2026-04-11T08:27:56Z</time></trkpt><trkpt lat="40.25755108129908" lon="9.425050695068018"><ele>1157.0</ele><time>2026-04-11T08:27:58Z</time></trkpt><trkpt lat="40.25749121696021" lon="9.42508025426641"><ele>1158.0</ele><time>2026-04-11T08:28:00Z</time></trkpt><trkpt lat="40.257474583119574" lon="9.425166077316776"><ele>1159.0</ele><time>2026-04-11T08:28:04Z</time></trkpt><trkpt lat="40.25756452956526" lon="9.425233579674584"><ele>1159.0</ele><time>2026-04-11T08:28:06Z</time></trkpt><trkpt lat="40.257632139819236" lon="9.425227906028724"><ele>1159.0</ele><time>2026-04-11T08:28:07Z</time></trkpt><trkpt lat="40.25769919464284" lon="9.425220096430202"><ele>1159.0</ele><time>2026-04-11T08:28:09Z</time></trkpt><trkpt lat="40.25779311334699" lon="9.425210637121227"><ele>1159.0</ele><time>2026-04-11T08:28:11Z</time></trkpt><trkpt lat="40.25790880226268" lon="9.425206011664223"><ele>1159.0</ele><time>2026-04-11T08:28:13Z</time></trkpt><trkpt lat="40.25799201434508" lon="9.425205100329643"><ele>1159.0</ele><time>2026-04-11T08:28:14Z</time></trkpt><trkpt lat="40.25806454941103" lon="9.425191237983203"><ele>1158.0</ele><time>2026-04-11T08:28:16Z</time></trkpt><trkpt lat="40.258149907284526" lon="9.425214960022974"><ele>1157.0</ele><time>2026-04-11T08:28:18Z</time></trkpt><trkpt lat="40.25824164566942" lon="9.425224214692946"><ele>1156.0</ele><time>2026-04-11T08:28:20Z</time></trkpt><trkpt lat="40.258338502892485" lon="9.42523989740766"><ele>1155.0</ele><time>2026-04-11T08:28:22Z</time></trkpt><trkpt lat="40.258402930553" lon="9.425229322827347"><ele>1154.0</ele><time>2026-04-11T08:28:23Z</time></trkpt><trkpt lat="40.258491503864086" lon="9.425202391091"><ele>1153.0</ele><time>2026-04-11T08:28:25Z</time></trkpt><trkpt lat="40.25857481064248" lon="9.425188271487814"><ele>1153.0</ele><time>2026-04-11T08:28:28Z</time></trkpt><trkpt lat="40.25859156368813" lon="9.425289145008845"><ele>1153.0</ele><time>2026-04-11T08:28:31Z</time></trkpt><trkpt lat="40.25848436588162" lon="9.425327853198796"><ele>1153.0</ele><time>2026-04-11T08:28:34Z</time></trkpt><trkpt lat="40.25842172353577" lon="9.425316648904719"><ele>1153.0</ele><time>2026-04-11T08:28:36Z</time></trkpt><trkpt lat="40.258328327044296" lon="9.425329337845337"><ele>1153.0</ele><time>2026-04-11T08:28:38Z</time></trkpt><trkpt lat="40.25823997891028" lon="9.425353359667108"><ele>1153.0</ele><time>2026-04-11T08:28:40Z</time></trkpt><trkpt lat="40.25816160996475" lon="9.42538620126722"><ele>1154.2</ele><time>2026-04-11T08:28:42Z</time></trkpt><trkpt lat="40.258061016054235" lon="9.4253934381011"><ele>1155.4</ele><time>2026-04-11T08:28:44Z</time></trkpt><trkpt lat="40.25795710017122" lon="9.42541709995353"><ele>1156.6000000000001</ele><time>2026-04-11T08:28:46Z</time></trkpt><trkpt lat="40.25786754371058" lon="9.42544825637227"><ele>1157.8</ele><time>2026-04-11T08:28:48Z</time></trkpt><trkpt lat="40.25777219967762" lon="9.425482086111984"><ele>1159.0</ele><time>2026-04-11T08:28:50Z</time></trkpt><trkpt lat="40.2577092579401" lon="9.42551840843855"><ele>1159.0</ele><time>2026-04-11T08:28:52Z</time></trkpt><trkpt lat="40.25778145489428" lon="9.425527312700133"><ele>1159.0</ele><time>2026-04-11T08:51:33.999Z</time></trkpt><trkpt lat="40.25784609040274" lon="9.4254086741114"><ele>1159.0</ele><time>2026-04-11T08:52:22.999Z</time></trkpt><trkpt lat="40.257789252801565" lon="9.425537613748354"><ele>1159.0</ele><time>2026-04-11T08:52:25.999Z</time></trkpt><trkpt lat="40.257851908910865" lon="9.425486456804407"><ele>1159.0</ele><time>2026-04-11T08:54:58.999Z</time></trkpt><trkpt lat="40.257918884272165" lon="9.42547182061507"><ele>1159.0</ele><time>2026-04-11T08:55:02.999Z</time></trkpt><trkpt lat="40.25801923253929" lon="9.42543140461869"><ele>1159.0</ele><time>2026-04-11T08:55:07Z</time></trkpt><trkpt lat="40.25809578913346" lon="9.425398969180156"><ele>1159.0</ele><time>2026-04-11T08:55:10Z</time></trkpt><trkpt lat="40.25818576932053" lon="9.425378073979703"><ele>1159.0</ele><time>2026-04-11T08:55:13Z</time></trkpt><trkpt lat="40.25827444920152" lon="9.425355383802362"><ele>1159.0</ele><time>2026-04-11T08:55:16Z</time></trkpt><trkpt lat="40.258363036477355" lon="9.425338893893493"><ele>1159.0</ele><time>2026-04-11T08:55:19Z</time></trkpt><trkpt lat="40.25844868107424" lon="9.425365501003787"><ele>1159.0</ele><time>2026-04-11T08:55:22Z</time></trkpt><trkpt lat="40.25853550539928" lon="9.425363672387261"><ele>1158.0</ele><time>2026-04-11T08:55:25Z</time></trkpt><trkpt lat="40.25861613140155" lon="9.425337121110873"><ele>1157.0</ele><time>2026-04-11T08:55:28Z</time></trkpt><trkpt lat="40.25861455764254" lon="9.425217985383588"><ele>1156.0</ele><time>2026-04-11T08:55:29Z</time></trkpt><trkpt lat="40.25851646379879" lon="9.42514705920667"><ele>1155.0</ele><time>2026-04-11T08:55:32Z</time></trkpt><trkpt lat="40.25844087384619" lon="9.425178114101877"><ele>1154.0</ele><time>2026-04-11T08:55:34Z</time></trkpt><trkpt lat="40.258363977067866" lon="9.425183747519615"><ele>1153.0</ele><time>2026-04-11T08:55:37Z</time></trkpt><trkpt lat="40.2582780265836" lon="9.42518943512012"><ele>1153.0</ele><time>2026-04-11T08:55:39.999Z</time></trkpt><trkpt lat="40.258203715299366" lon="9.425180424320862"><ele>1153.0</ele><time>2026-04-11T08:55:42.999Z</time></trkpt><trkpt lat="40.25811913218384" lon="9.425167840145097"><ele>1153.0</ele><time>2026-04-11T08:55:45.999Z</time></trkpt><trkpt lat="40.25803333260012" lon="9.425161797795099"><ele>1153.0</ele><time>2026-04-11T08:55:48.999Z</time></trkpt><trkpt lat="40.25796413672186" lon="9.425161919407412"><ele>1153.0</ele><time>2026-04-11T08:55:51.999Z</time></trkpt><trkpt lat="40.257867385879294" lon="9.425177969275461"><ele>1153.0</ele><time>2026-04-11T08:55:54.999Z</time></trkpt><trkpt lat="40.257797537191585" lon="9.425188041231285"><ele>1154.0</ele><time>2026-04-11T08:55:57.999Z</time></trkpt><trkpt lat="40.25773374323165" lon="9.425172415215615"><ele>1155.0</ele><time>2026-04-11T08:55:59.999Z</time></trkpt><trkpt lat="40.257660394397796" lon="9.42518095784976"><ele>1156.0</ele><time>2026-04-11T08:56:02.999Z</time></trkpt><trkpt lat="40.257580379314255" lon="9.425207044406816"><ele>1157.0</ele><time>2026-04-11T08:56:05.999Z</time></trkpt><trkpt lat="40.25750997724773" lon="9.425179151052214"><ele>1158.0</ele><time>2026-04-11T08:56:08.999Z</time></trkpt><trkpt lat="40.25750612043358" lon="9.42509280397341"><ele>1159.0</ele><time>2026-04-11T08:56:12.999Z</time></trkpt><trkpt lat="40.25759424487381" lon="9.425071706124568"><ele>1159.0</ele><time>2026-04-11T08:56:15.999Z</time></trkpt><trkpt lat="40.25768257860332" lon="9.425074088602097"><ele>1159.0</ele><time>2026-04-11T08:56:18.999Z</time></trkpt><trkpt lat="40.257757579635914" lon="9.42503785334045"><ele>1159.0</ele><time>2026-04-11T08:56:21.999Z</time></trkpt><trkpt lat="40.2578367978805" lon="9.42500533386636"><ele>1159.0</ele><time>2026-04-11T08:56:24.999Z</time></trkpt><trkpt lat="40.25792043016348" lon="9.4249964072571"><ele>1159.0</ele><time>2026-04-11T08:56:27.999Z</time></trkpt><trkpt lat="40.258022106315536" lon="9.424962877278986"><ele>1159.0</ele><time>2026-04-11T08:56:30.999Z</time></trkpt><trkpt lat="40.258099525662885" lon="9.424953426192085"><ele>1158.0</ele><time>2026-04-11T08:56:34.999Z</time></trkpt><trkpt lat="40.25817157931953" lon="9.424951030619493"><ele>1157.0</ele><time>2026-04-11T08:56:36.999Z</time></trkpt><trkpt lat="40.25825004847661" lon="9.424929466068788"><ele>1156.0</ele><time>2026-04-11T08:56:39.999Z</time></trkpt><trkpt lat="40.25833402025863" lon="9.424908293628539"><ele>1155.0</ele><time>2026-04-11T08:56:42.999Z</time></trkpt><trkpt lat="40.25841466062999" lon="9.424893358157368"><ele>1154.0</ele><time>2026-04-11T08:56:45.999Z</time></trkpt><trkpt lat="40.25850234261065" lon="9.424862671990983"><ele>1153.0</ele><time>2026-04-11T08:56:48.999Z</time></trkpt><trkpt lat="40.25858363853414" lon="9.424842834969724"><ele>1153.0</ele><time>2026-04-11T08:56:51.999Z</time></trkpt><trkpt lat="40.25866606385946" lon="9.424842808543833"><ele>1153.0</ele><time>2026-04-11T08:56:54.999Z</time></trkpt><trkpt lat="40.25875225462079" lon="9.4248449448631"><ele>1153.0</ele><time>2026-04-11T08:56:57.999Z</time></trkpt><trkpt lat="40.25884285948839" lon="9.424842612762518"><ele>1153.0</ele><time>2026-04-11T08:57:00.999Z</time></trkpt><trkpt lat="40.25891521060036" lon="9.424823278671749"><ele>1153.0</ele><time>2026-04-11T08:57:03.999Z</time></trkpt><trkpt lat="40.258993284518525" lon="9.424841650365027"><ele>1153.0</ele><time>2026-04-11T08:57:06.999Z</time></trkpt><trkpt lat="40.259070256923195" lon="9.424858239178958"><ele>1153.0</ele><time>2026-04-11T08:57:09.998Z</time></trkpt><trkpt lat="40.259161630568464" lon="9.424747596666116"><ele>1153.0</ele><time>2026-04-11T08:57:16Z</time></trkpt><trkpt lat="40.25904068758912" lon="9.424653693776659"><ele>1153.0</ele><time>2026-04-11T08:57:20Z</time></trkpt><trkpt lat="40.25894384653336" lon="9.424648945639847"><ele>1153.0</ele><time>2026-04-11T08:57:24Z</time></trkpt><trkpt lat="40.25888073803858" lon="9.424634382811442"><ele>1153.0</ele><time>2026-04-11T08:57:27Z</time></trkpt><trkpt lat="40.25881508367897" lon="9.42459475872128"><ele>1145.0</ele><time>2026-04-11T08:57:30Z</time></trkpt><trkpt lat="40.25875428733976" lon="9.424564829218948"><ele>1137.0</ele><time>2026-04-11T08:57:32Z</time></trkpt><trkpt lat="40.25869453137873" lon="9.424535412243305"><ele>1129.0</ele><time>2026-04-11T08:57:34Z</time></trkpt><trkpt lat="40.25862447959564" lon="9.424502558890765"><ele>1121.0</ele><time>2026-04-11T08:57:36Z</time></trkpt><trkpt lat="40.258533549012945" lon="9.424463059419235"><ele>1113.0</ele><time>2026-04-11T08:57:39Z</time></trkpt><trkpt lat="40.25847088287999" lon="9.424435837569876"><ele>1105.0</ele><time>2026-04-11T08:57:41Z</time></trkpt><trkpt lat="40.25837733996409" lon="9.424412704262462"><ele>1105.0</ele><time>2026-04-11T08:57:44Z</time></trkpt><trkpt lat="40.2583005492025" lon="9.424407189013667"><ele>1105.0</ele><time>2026-04-11T08:57:46Z</time></trkpt><trkpt lat="40.25821681239685" lon="9.42442563951426"><ele>1105.0</ele><time>2026-04-11T08:57:48.999Z</time></trkpt><trkpt lat="40.25815387551058" lon="9.42441576534206"><ele>1105.0</ele><time>2026-04-11T08:57:50.999Z</time></trkpt><trkpt lat="40.25807391003163" lon="9.424403142786103"><ele>1105.0</ele><time>2026-04-11T08:57:53.999Z</time></trkpt><trkpt lat="40.25797228490189" lon="9.424378100435657"><ele>1105.0</ele><time>2026-04-11T08:57:56.999Z</time></trkpt><trkpt lat="40.25786749092403" lon="9.424351632145122"><ele>1104.6666666666665</ele><time>2026-04-11T08:58:00.999Z</time></trkpt><trkpt lat="40.25780110815286" lon="9.42434779100781"><ele>1104.3333333333333</ele><time>2026-04-11T08:58:02.999Z</time></trkpt><trkpt lat="40.25771310797039" lon="9.424345182166357"><ele>1104.0</ele><time>2026-04-11T08:58:05.999Z</time></trkpt><trkpt lat="40.257634216658026" lon="9.424323339515544"><ele>1103.6666666666667</ele><time>2026-04-11T08:58:08.999Z</time></trkpt><trkpt lat="40.25756970108677" lon="9.424324570014127"><ele>1103.3333333333335</ele><time>2026-04-11T08:58:10.999Z</time></trkpt><trkpt lat="40.25748049515502" lon="9.424337844191742"><ele>1103.0</ele><time>2026-04-11T08:58:13.999Z</time></trkpt><trkpt lat="40.25741463758221" lon="9.424278588351239"><ele>1103.0000000000002</ele><time>2026-04-11T08:58:16.999Z</time></trkpt><trkpt lat="40.25745295512998" lon="9.424212402384992"><ele>1103.0</ele><time>2026-04-11T08:58:18.999Z</time></trkpt><trkpt lat="40.25752535064748" lon="9.42418411430477"><ele>1103.0</ele><time>2026-04-11T08:58:21.999Z</time></trkpt><trkpt lat="40.25760580441186" lon="9.424143059163772"><ele>1103.0</ele><time>2026-04-11T08:58:24.999Z</time></trkpt><trkpt lat="40.257670696577684" lon="9.424142032798263"><ele>1103.0</ele><time>2026-04-11T08:58:26.999Z</time></trkpt><trkpt lat="40.25773535202443" lon="9.424126476313186"><ele>1103.0000000000002</ele><time>2026-04-11T08:58:28.999Z</time></trkpt><trkpt lat="40.25780853304707" lon="9.424129348476242"><ele>1103.0</ele><time>2026-04-11T08:58:30.999Z</time></trkpt><trkpt lat="40.25787831902255" lon="9.424115569502769"><ele>1103.0</ele><time>2026-04-11T08:58:32.999Z</time></trkpt><trkpt lat="40.25795355542468" lon="9.42408548731852"><ele>1103.0</ele><time>2026-04-11T08:58:35.999Z</time></trkpt><trkpt lat="40.25801945248046" lon="9.424071988866976"><ele>1103.0</ele><time>2026-04-11T08:58:37.999Z</time></trkpt><trkpt lat="40.25810927043338" lon="9.42406496144091"><ele>1103.0</ele><time>2026-04-11T08:58:40.999Z</time></trkpt><trkpt lat="40.25820952209559" lon="9.424074142594305"><ele>1103.0</ele><time>2026-04-11T08:58:43.999Z</time></trkpt><trkpt lat="40.25827590787081" lon="9.424080652168952"><ele>1103.0</ele><time>2026-04-11T08:58:45.999Z</time></trkpt><trkpt lat="40.258343277134756" lon="9.424097887714113"><ele>1103.3333333333335</ele><time>2026-04-11T08:58:47.999Z</time></trkpt><trkpt lat="40.25840953927179" lon="9.424111284798482"><ele>1103.6666666666667</ele><time>2026-04-11T08:58:49.999Z</time></trkpt><trkpt lat="40.25848264363014" lon="9.424123874547284"><ele>1104.0</ele><time>2026-04-11T08:58:51.999Z</time></trkpt><trkpt lat="40.25854546677583" lon="9.424091606198294"><ele>1104.3333333333333</ele><time>2026-04-11T08:58:53.999Z</time></trkpt><trkpt lat="40.25854114609926" lon="9.423967037763664"><ele>1104.6666666666665</ele><time>2026-04-11T08:58:56.999Z</time></trkpt><trkpt lat="40.25845836441858" lon="9.423933554252272"><ele>1105.0</ele><time>2026-04-11T08:58:58.999Z</time></trkpt><trkpt lat="40.25838702749916" lon="9.423942967494543"><ele>1105.0</ele><time>2026-04-11T08:59:00.999Z</time></trkpt><trkpt lat="40.25830804640102" lon="9.423898845081448"><ele>1105.0</ele><time>2026-04-11T08:59:03.999Z</time></trkpt><trkpt lat="40.25822786023648" lon="9.423880999858325"><ele>1105.0</ele><time>2026-04-11T08:59:06.999Z</time></trkpt><trkpt lat="40.25815798555733" lon="9.423829320131246"><ele>1105.0</ele><time>2026-04-11T08:59:09.999Z</time></trkpt><trkpt lat="40.258074485829184" lon="9.423806069040666"><ele>1105.0</ele><time>2026-04-11T08:59:12.999Z</time></trkpt><trkpt lat="40.258009606272175" lon="9.423756906986604"><ele>1105.0</ele><time>2026-04-11T08:59:14.999Z</time></trkpt><trkpt lat="40.25794476892191" lon="9.423723575185011"><ele>1099.0</ele><time>2026-04-11T08:59:17Z</time></trkpt><trkpt lat="40.25787164001208" lon="9.423656334335867"><ele>1093.0</ele><time>2026-04-11T08:59:20Z</time></trkpt><trkpt lat="40.25779126455806" lon="9.423600634440056"><ele>1087.0</ele><time>2026-04-11T08:59:23Z</time></trkpt><trkpt lat="40.25770333478757" lon="9.423576277241025"><ele>1081.0</ele><time>2026-04-11T08:59:26Z</time></trkpt><trkpt lat="40.25762999856017" lon="9.423545723025525"><ele>1075.0</ele><time>2026-04-11T08:59:28Z</time></trkpt><trkpt lat="40.25755379757079" lon="9.423535373321343"><ele>1069.0</ele><time>2026-04-11T08:59:31Z</time></trkpt><trkpt lat="40.257488216075764" lon="9.42350770427503"><ele>1069.0</ele><time>2026-04-11T08:59:33Z</time></trkpt><trkpt lat="40.25739631218108" lon="9.423475289912375"><ele>1069.0</ele><time>2026-04-11T08:59:36Z</time></trkpt><trkpt lat="40.25732462363936" lon="9.423469989457276"><ele>1069.0</ele><time>2026-04-11T08:59:38Z</time></trkpt><trkpt lat="40.25723845568507" lon="9.423439044042468"><ele>1069.0</ele><time>2026-04-11T08:59:41Z</time></trkpt><trkpt lat="40.257166132042094" lon="9.423420514256073"><ele>1069.0</ele><time>2026-04-11T08:59:43Z</time></trkpt><trkpt lat="40.25705970605148" lon="9.423411759174172"><ele>1069.0</ele><time>2026-04-11T08:59:46Z</time></trkpt><trkpt lat="40.25699795865952" lon="9.423373268143893"><ele>1068.1666666666665</ele><time>2026-04-11T08:59:47Z</time></trkpt><trkpt lat="40.25690636978481" lon="9.4233652547013"><ele>1067.3333333333333</ele><time>2026-04-11T08:59:50Z</time></trkpt><trkpt lat="40.25683315913517" lon="9.42331348619158"><ele>1066.5</ele><time>2026-04-11T08:59:53Z</time></trkpt><trkpt lat="40.25674454394504" lon="9.423290863098416"><ele>1065.6666666666667</ele><time>2026-04-11T08:59:55Z</time></trkpt><trkpt lat="40.256683787104315" lon="9.423262053808063"><ele>1064.8333333333335</ele><time>2026-04-11T08:59:57Z</time></trkpt><trkpt lat="40.256621635978306" lon="9.423233549426072"><ele>1064.0</ele><time>2026-04-11T08:59:58.999Z</time></trkpt><trkpt lat="40.2565544465951" lon="9.423200927149553"><ele>1064.0</ele><time>2026-04-11T09:00:00.999Z</time></trkpt><trkpt lat="40.25649235954643" lon="9.423170781970157"><ele>1064.0</ele><time>2026-04-11T09:00:02.999Z</time></trkpt><trkpt lat="40.2564310839477" lon="9.423134014837197"><ele>1064.0</ele><time>2026-04-11T09:00:04.999Z</time></trkpt><trkpt lat="40.25637432309735" lon="9.423096747503479"><ele>1064.0</ele><time>2026-04-11T09:00:06.999Z</time></trkpt><trkpt lat="40.256308036563176" lon="9.423053054510769"><ele>1064.0</ele><time>2026-04-11T09:00:08.999Z</time></trkpt><trkpt lat="40.25625041019958" lon="9.423016131851192"><ele>1064.0</ele><time>2026-04-11T09:00:10.999Z</time></trkpt><trkpt lat="40.2561714243704" lon="9.422973368252604"><ele>1064.0</ele><time>2026-04-11T09:00:13.999Z</time></trkpt><trkpt lat="40.256110118003" lon="9.422945219902694"><ele>1061.0</ele><time>2026-04-11T09:00:15.999Z</time></trkpt><trkpt lat="40.25603519058442" lon="9.422904978401215"><ele>1058.0</ele><time>2026-04-11T09:00:18.999Z</time></trkpt><trkpt lat="40.255978952225156" lon="9.42286160490357"><ele>1055.0</ele><time>2026-04-11T09:00:20.999Z</time></trkpt><trkpt lat="40.255914336725375" lon="9.422813781324322"><ele>1052.0</ele><time>2026-04-11T09:00:22.999Z</time></trkpt><trkpt lat="40.25585674283336" lon="9.422744472245956"><ele>1049.0</ele><time>2026-04-11T09:00:25.999Z</time></trkpt><trkpt lat="40.255801111252765" lon="9.422689483583493"><ele>1046.0</ele><time>2026-04-11T09:00:27.999Z</time></trkpt><trkpt lat="40.25573746352013" lon="9.422651133683352"><ele>1043.0</ele><time>2026-04-11T09:00:29.999Z</time></trkpt><trkpt lat="40.255657535459235" lon="9.422586369270515"><ele>1043.0</ele><time>2026-04-11T09:00:32.999Z</time></trkpt><trkpt lat="40.25560898514764" lon="9.422532240210481"><ele>1043.0</ele><time>2026-04-11T09:00:34.999Z</time></trkpt><trkpt lat="40.25564091278906" lon="9.422429443712053"><ele>1043.0</ele><time>2026-04-11T09:00:39.999Z</time></trkpt><trkpt lat="40.25570162824141" lon="9.422478773804679"><ele>1043.0</ele><time>2026-04-11T09:00:42.999Z</time></trkpt><trkpt lat="40.25576465671087" lon="9.42250732132984"><ele>1043.0</ele><time>2026-04-11T09:00:44.999Z</time></trkpt><trkpt lat="40.2558243027535" lon="9.42253433717384"><ele>1043.0</ele><time>2026-04-11T09:00:46.999Z</time></trkpt><trkpt lat="40.255893949784884" lon="9.422552178316062"><ele>1043.0</ele><time>2026-04-11T09:00:48.999Z</time></trkpt><trkpt lat="40.25598003882098" lon="9.422564632577002"><ele>1043.0</ele><time>2026-04-11T09:00:51.999Z</time></trkpt><trkpt lat="40.256046230156414" lon="9.422562123255883"><ele>1043.0</ele><time>2026-04-11T09:00:53.999Z</time></trkpt><trkpt lat="40.25614417859196" lon="9.422543997675984"><ele>1043.0</ele><time>2026-04-11T09:00:56.999Z</time></trkpt><trkpt lat="40.25620770166799" lon="9.422519232780452"><ele>1043.0</ele><time>2026-04-11T09:00:58.999Z</time></trkpt><trkpt lat="40.256296001327414" lon="9.422467130752816"><ele>1043.0</ele><time>2026-04-11T09:01:01.999Z</time></trkpt><trkpt lat="40.25636909478779" lon="9.42241152371413"><ele>1043.0</ele><time>2026-04-11T09:01:04.999Z</time></trkpt><trkpt lat="40.25642834870062" lon="9.422364847114654"><ele>1042.1666666666667</ele><time>2026-04-11T09:01:06.999Z</time></trkpt><trkpt lat="40.25650335137407" lon="9.42228161788393"><ele>1041.3333333333335</ele><time>2026-04-11T09:01:09.999Z</time></trkpt><trkpt lat="40.25657840473305" lon="9.422217705840428"><ele>1040.5</ele><time>2026-04-11T09:01:12.999Z</time></trkpt><trkpt lat="40.25665119273172" lon="9.42217295435498"><ele>1039.6666666666667</ele><time>2026-04-11T09:01:15.999Z</time></trkpt><trkpt lat="40.25671002183732" lon="9.422122734142672"><ele>1038.8333333333333</ele><time>2026-04-11T09:01:17.999Z</time></trkpt><trkpt lat="40.256770306793584" lon="9.42205563601319"><ele>1038.0</ele><time>2026-04-11T09:01:20.999Z</time></trkpt><trkpt lat="40.256825397951836" lon="9.422011981870009"><ele>1035.2857142857142</ele><time>2026-04-11T09:01:23Z</time></trkpt><trkpt lat="40.25687984583307" lon="9.421960574714294"><ele>1032.5714285714284</ele><time>2026-04-11T09:01:26Z</time></trkpt><trkpt lat="40.256931237039126" lon="9.421912053469761"><ele>1029.857142857143</ele><time>2026-04-11T09:01:28Z</time></trkpt><trkpt lat="40.25699939963669" lon="9.4218432467185"><ele>1027.142857142857</ele><time>2026-04-11T09:01:31Z</time></trkpt><trkpt lat="40.257037215661605" lon="9.421774697286116"><ele>1024.4285714285716</ele><time>2026-04-11T09:01:33Z</time></trkpt><trkpt lat="40.25707988796332" lon="9.421709829379529"><ele>1021.7142857142858</ele><time>2026-04-11T09:01:35Z</time></trkpt><trkpt lat="40.2570066317175" lon="9.421619507720061"><ele>1019.0000000000001</ele><time>2026-04-11T09:01:38Z</time></trkpt><trkpt lat="40.25694016524347" lon="9.421595089312245"><ele>1019.0000000000001</ele><time>2026-04-11T09:01:40Z</time></trkpt><trkpt lat="40.25687362989514" lon="9.421582706890241"><ele>1019.0</ele><time>2026-04-11T09:01:42Z</time></trkpt><trkpt lat="40.25679170696164" lon="9.421581676908762"><ele>1019.0</ele><time>2026-04-11T09:01:45Z</time></trkpt><trkpt lat="40.25670798360616" lon="9.421593683153164"><ele>1019.0</ele><time>2026-04-11T09:01:48Z</time></trkpt><trkpt lat="40.2566186612501" lon="9.4215674168762"><ele>1019.0000000000001</ele><time>2026-04-11T09:01:51Z</time></trkpt><trkpt lat="40.256553750983215" lon="9.421567036522989"><ele>1019.0</ele><time>2026-04-11T09:01:53Z</time></trkpt><trkpt lat="40.256470154615805" lon="9.421567671398423"><ele>1018.6</ele><time>2026-04-11T09:01:55Z</time></trkpt><trkpt lat="40.25640436424738" lon="9.421564930862859"><ele>1018.2</ele><time>2026-04-11T09:01:57Z</time></trkpt><trkpt lat="40.256341506225205" lon="9.421571587302564"><ele>1017.8000000000001</ele><time>2026-04-11T09:01:59Z</time></trkpt><trkpt lat="40.25627419230867" lon="9.421581029813586"><ele>1017.4000000000001</ele><time>2026-04-11T09:02:01Z</time></trkpt><trkpt lat="40.2561934083482" lon="9.42160168772842"><ele>1017.0</ele><time>2026-04-11T09:02:03.999Z</time></trkpt><trkpt lat="40.25595442416888" lon="9.42158165981398"><ele>1017.0</ele><time>2026-04-11T09:02:06.999Z</time></trkpt><trkpt lat="40.2559414288006" lon="9.42149458866418"><ele>1017.0</ele><time>2026-04-11T09:02:08.999Z</time></trkpt><trkpt lat="40.256148460493684" lon="9.421401519129303"><ele>1017.0</ele><time>2026-04-11T09:02:09.999Z</time></trkpt><trkpt lat="40.25620828261774" lon="9.421361520734191"><ele>1017.0</ele><time>2026-04-11T09:02:11.999Z</time></trkpt><trkpt lat="40.256260931593204" lon="9.421301311439738"><ele>1017.0</ele><time>2026-04-11T09:02:13.999Z</time></trkpt><trkpt lat="40.25631334283969" lon="9.421218899510738"><ele>1014.2</ele><time>2026-04-11T09:02:16.999Z</time></trkpt><trkpt lat="40.25630029822596" lon="9.421090634694762"><ele>1011.4000000000001</ele><time>2026-04-11T09:02:18.999Z</time></trkpt><trkpt lat="40.25619325524743" lon="9.421074886913393"><ele>1008.5999999999999</ele><time>2026-04-11T09:02:20.999Z</time></trkpt><trkpt lat="40.25611883759495" lon="9.421113477820297"><ele>1005.8</ele><time>2026-04-11T09:02:23.999Z</time></trkpt><trkpt lat="40.25604286988834" lon="9.421108508274573"><ele>1003.0</ele><time>2026-04-11T09:02:25.999Z</time></trkpt><trkpt lat="40.25594685884711" lon="9.421102932441952"><ele>1002.9999999999999</ele><time>2026-04-11T09:02:28.999Z</time></trkpt><trkpt lat="40.255862617960034" lon="9.421107908092845"><ele>1003.0</ele><time>2026-04-11T09:02:31.999Z</time></trkpt><trkpt lat="40.25579455618022" lon="9.421104881951312"><ele>1003.0</ele><time>2026-04-11T09:02:33.999Z</time></trkpt><trkpt lat="40.255714377351154" lon="9.42108074934648"><ele>1003.0</ele><time>2026-04-11T09:02:36.999Z</time></trkpt><trkpt lat="40.255642592599294" lon="9.421033203791747"><ele>1002.9999999999999</ele><time>2026-04-11T09:02:39.999Z</time></trkpt><trkpt lat="40.25557672895474" lon="9.420977442757145"><ele>1003.0</ele><time>2026-04-11T09:02:41.999Z</time></trkpt><trkpt lat="40.2555070969919" lon="9.420935101890663"><ele>1002.1428571428571</ele><time>2026-04-11T09:02:43.999Z</time></trkpt><trkpt lat="40.2554409470636" lon="9.420850110987894"><ele>1001.2857142857142</ele><time>2026-04-11T09:02:46.999Z</time></trkpt><trkpt lat="40.25538920471335" lon="9.420789643985719"><ele>1000.4285714285713</ele><time>2026-04-11T09:02:48.999Z</time></trkpt><trkpt lat="40.25532908739473" lon="9.420752102916556"><ele>999.5714285714284</ele><time>2026-04-11T09:02:50.999Z</time></trkpt><trkpt lat="40.25526532957309" lon="9.420711100882198"><ele>998.7142857142857</ele><time>2026-04-11T09:02:52.999Z</time></trkpt><trkpt lat="40.25519700032271" lon="9.42067640608141"><ele>997.8571428571427</ele><time>2026-04-11T09:02:54.999Z</time></trkpt><trkpt lat="40.25513166698693" lon="9.420624129964798"><ele>996.9999999999999</ele><time>2026-04-11T09:02:56.999Z</time></trkpt><trkpt lat="40.255071969292196" lon="9.420576724870175"><ele>996.9999999999999</ele><time>2026-04-11T09:02:58.999Z</time></trkpt><trkpt lat="40.255016900879895" lon="9.420530692883526"><ele>997.0</ele><time>2026-04-11T09:03:00.999Z</time></trkpt><trkpt lat="40.254953123743256" lon="9.420483018612758"><ele>997.0</ele><time>2026-04-11T09:03:02.999Z</time></trkpt><trkpt lat="40.254869656130204" lon="9.420420389938318"><ele>997.0</ele><time>2026-04-11T09:03:04.999Z</time></trkpt><trkpt lat="40.25481148382625" lon="9.420376869149958"><ele>996.9999999999999</ele><time>2026-04-11T09:03:05.999Z</time></trkpt><trkpt lat="40.254736982356086" lon="9.420329501226767"><ele>997.0</ele><time>2026-04-11T09:03:06.999Z</time></trkpt><trkpt lat="40.254669673862104" lon="9.420290023466507"><ele>994.8333333333333</ele><time>2026-04-11T09:03:07.999Z</time></trkpt><trkpt lat="40.25459916943101" lon="9.420232849717184"><ele>992.6666666666666</ele><time>2026-04-11T09:03:08.999Z</time></trkpt><trkpt lat="40.25453512886139" lon="9.420196143649484"><ele>990.5</ele><time>2026-04-11T09:03:09.999Z</time></trkpt><trkpt lat="40.25446652539572" lon="9.420163898630472"><ele>988.3333333333333</ele><time>2026-04-11T09:03:10.999Z</time></trkpt><trkpt lat="40.254387003773395" lon="9.4201238898938"><ele>986.1666666666666</ele><time>2026-04-11T09:03:11.999Z</time></trkpt><trkpt lat="40.25432787202512" lon="9.420062424893013"><ele>984.0</ele><time>2026-04-11T09:03:12.999Z</time></trkpt><trkpt lat="40.254268353715574" lon="9.420004369484094"><ele>984.0</ele><time>2026-04-11T09:03:13.999Z</time></trkpt><trkpt lat="40.254211905055406" lon="9.419949440130289"><ele>984.0</ele><time>2026-04-11T09:03:14.999Z</time></trkpt><trkpt lat="40.25415406599457" lon="9.419900320534033"><ele>984.0</ele><time>2026-04-11T09:03:15.999Z</time></trkpt><trkpt lat="40.254070710536325" lon="9.41978987885358"><ele>984.0</ele><time>2026-04-11T09:03:17.999Z</time></trkpt><trkpt lat="40.25402175666966" lon="9.41973144696881"><ele>984.0</ele><time>2026-04-11T09:03:18.999Z</time></trkpt><trkpt lat="40.25397958388628" lon="9.419660342613636"><ele>984.0</ele><time>2026-04-11T09:03:19.999Z</time></trkpt><trkpt lat="40.25393956894591" lon="9.419585111547313"><ele>983.0</ele><time>2026-04-11T09:03:20.999Z</time></trkpt><trkpt lat="40.25390533878584" lon="9.419505620679406"><ele>982.0</ele><time>2026-04-11T09:03:21.999Z</time></trkpt><trkpt lat="40.25385685251987" lon="9.41944014955388"><ele>981.0</ele><time>2026-04-11T09:03:22.999Z</time></trkpt><trkpt lat="40.25382276609333" lon="9.419341327931985"><ele>980.0</ele><time>2026-04-11T09:03:23.999Z</time></trkpt><trkpt lat="40.253764977803584" lon="9.419271633331304"><ele>979.0</ele><time>2026-04-11T09:03:24.999Z</time></trkpt><trkpt lat="40.25371959374959" lon="9.419198875641245"><ele>978.0</ele><time>2026-04-11T09:03:25.999Z</time></trkpt><trkpt lat="40.25364014798633" lon="9.419048723166"><ele>978.0</ele><time>2026-04-11T09:03:27.999Z</time></trkpt><trkpt lat="40.253561440750715" lon="9.418938618570671"><ele>978.0</ele><time>2026-04-11T09:03:30Z</time></trkpt><trkpt lat="40.25353225818142" lon="9.418849748829704"><ele>978.0</ele><time>2026-04-11T09:03:32Z</time></trkpt><trkpt lat="40.25360970480381" lon="9.418788782262812"><ele>978.0</ele><time>2026-04-11T09:03:34Z</time></trkpt><trkpt lat="40.2536771094937" lon="9.418839170607571"><ele>978.0</ele><time>2026-04-11T09:03:35Z</time></trkpt><trkpt lat="40.25373554847751" lon="9.41890252309464"><ele>978.0</ele><time>2026-04-11T09:03:36Z</time></trkpt><trkpt lat="40.25379425087768" lon="9.41895979553115"><ele>978.0</ele><time>2026-04-11T09:03:37Z</time></trkpt><trkpt lat="40.25383038516471" lon="9.419033510534778"><ele>978.0</ele><time>2026-04-11T09:03:38Z</time></trkpt><trkpt lat="40.253898537084424" lon="9.419080766574611"><ele>978.0</ele><time>2026-04-11T09:03:39Z</time></trkpt><trkpt lat="40.25396742755271" lon="9.419139636347783"><ele>978.0</ele><time>2026-04-11T09:03:40Z</time></trkpt><trkpt lat="40.25403830558303" lon="9.419201656421201"><ele>978.0</ele><time>2026-04-11T09:03:41Z</time></trkpt><trkpt lat="40.254121800184784" lon="9.41925344331826"><ele>978.0</ele><time>2026-04-11T09:03:42Z</time></trkpt><trkpt lat="40.254205699819764" lon="9.419274927054968"><ele>975.1666666666666</ele><time>2026-04-11T09:03:43Z</time></trkpt><trkpt lat="40.25430766236879" lon="9.419304168895264"><ele>972.3333333333333</ele><time>2026-04-11T09:03:44Z</time></trkpt><trkpt lat="40.254391521361775" lon="9.419333768852624"><ele>969.5</ele><time>2026-04-11T09:03:45Z</time></trkpt><trkpt lat="40.254464949299816" lon="9.419355728007526"><ele>966.6666666666666</ele><time>2026-04-11T09:03:46Z</time></trkpt><trkpt lat="40.25455940699088" lon="9.419379892571508"><ele>963.8333333333333</ele><time>2026-04-11T09:03:47Z</time></trkpt><trkpt lat="40.25463884505554" lon="9.41939711773126"><ele>961.0</ele><time>2026-04-11T09:03:48Z</time></trkpt><trkpt lat="40.254727985803655" lon="9.419409768740723"><ele>958.1666666666666</ele><time>2026-04-11T09:03:49Z</time></trkpt><trkpt lat="40.25479790242905" lon="9.419412741726434"><ele>955.3333333333333</ele><time>2026-04-11T09:03:50Z</time></trkpt><trkpt lat="40.25487003046258" lon="9.419415321294624"><ele>952.5</ele><time>2026-04-11T09:03:51Z</time></trkpt><trkpt lat="40.25493502642265" lon="9.41941057836955"><ele>949.6666666666667</ele><time>2026-04-11T09:03:52Z</time></trkpt><trkpt lat="40.25503466121466" lon="9.4193935109932"><ele>946.8333333333334</ele><time>2026-04-11T09:03:54Z</time></trkpt><trkpt lat="40.255097437961375" lon="9.419282337391909"><ele>944.0</ele><time>2026-04-11T09:03:56Z</time></trkpt><trkpt lat="40.255057665701834" lon="9.419184857916152"><ele>944.0</ele><time>2026-04-11T09:03:57Z</time></trkpt><trkpt lat="40.25494364576771" lon="9.41915050724452"><ele>944.0000000000001</ele><time>2026-04-11T09:03:58Z</time></trkpt><trkpt lat="40.25485831358824" lon="9.419172227804955"><ele>944.0000000000001</ele><time>2026-04-11T09:04:00Z</time></trkpt><trkpt lat="40.254756800062125" lon="9.41913840277831"><ele>944.0</ele><time>2026-04-11T09:04:02Z</time></trkpt><trkpt lat="40.25466723633297" lon="9.419107404156657"><ele>944.0</ele><time>2026-04-11T09:04:04Z</time></trkpt><trkpt lat="40.254633982302636" lon="9.419018789878626"><ele>944.0</ele><time>2026-04-11T09:04:06Z</time></trkpt><trkpt lat="40.25475291394932" lon="9.418956454152772"><ele>944.0000000000001</ele><time>2026-04-11T09:04:08Z</time></trkpt><trkpt lat="40.25483785174079" lon="9.41897055831006"><ele>944.0000000000001</ele><time>2026-04-11T09:04:09Z</time></trkpt><trkpt lat="40.25492432130086" lon="9.418959089928759"><ele>944.0</ele><time>2026-04-11T09:04:10Z</time></trkpt><trkpt lat="40.25502132984838" lon="9.418948955458346"><ele>944.0</ele><time>2026-04-11T09:04:11Z</time></trkpt><trkpt lat="40.25510952418499" lon="9.418939349598073"><ele>944.0000000000001</ele><time>2026-04-11T09:04:12Z</time></trkpt><trkpt lat="40.255191017838875" lon="9.418922217035805"><ele>944.0</ele><time>2026-04-11T09:04:12.999Z</time></trkpt><trkpt lat="40.25526108037267" lon="9.418898516155286"><ele>944.0</ele><time>2026-04-11T09:04:13.999Z</time></trkpt><trkpt lat="40.25535106472424" lon="9.418834845987211"><ele>944.0</ele><time>2026-04-11T09:04:15.999Z</time></trkpt><trkpt lat="40.25537282514318" lon="9.418703541375178"><ele>944.0000000000001</ele><time>2026-04-11T09:04:17.999Z</time></trkpt><trkpt lat="40.25531624699197" lon="9.418637847575864"><ele>944.0</ele><time>2026-04-11T09:04:18.999Z</time></trkpt><trkpt lat="40.255225135110436" lon="9.418645069289402"><ele>940.0000000000001</ele><time>2026-04-11T09:04:19.999Z</time></trkpt><trkpt lat="40.25515896781722" lon="9.41863671502161"><ele>936.0</ele><time>2026-04-11T09:04:20.999Z</time></trkpt><trkpt lat="40.255039148164336" lon="9.41862315198454"><ele>932.0</ele><time>2026-04-11T09:04:22.999Z</time></trkpt><trkpt lat="40.2549665974174" lon="9.418619318542165"><ele>928.0</ele><time>2026-04-11T09:04:23.999Z</time></trkpt><trkpt lat="40.254902411892445" lon="9.418606094731697"><ele>924.0000000000001</ele><time>2026-04-11T09:04:24.999Z</time></trkpt><trkpt lat="40.254838831717905" lon="9.418584468090614"><ele>920.0</ele><time>2026-04-11T09:04:25.999Z</time></trkpt><trkpt lat="40.25476066213379" lon="9.418564154076709"><ele>920.0000000000001</ele><time>2026-04-11T09:04:26.999Z</time></trkpt><trkpt lat="40.254695288345836" lon="9.418548530840107"><ele>920.0</ele><time>2026-04-11T09:04:27.999Z</time></trkpt><trkpt lat="40.25462623880585" lon="9.418503822495623"><ele>920.0</ele><time>2026-04-11T09:04:28.999Z</time></trkpt><trkpt lat="40.25456228968561" lon="9.418466768850058"><ele>920.0</ele><time>2026-04-11T09:04:29.999Z</time></trkpt><trkpt lat="40.2544908039544" lon="9.418424785737717"><ele>920.0000000000001</ele><time>2026-04-11T09:04:30.999Z</time></trkpt><trkpt lat="40.25441722048991" lon="9.418389406852068"><ele>920.0</ele><time>2026-04-11T09:04:31.999Z</time></trkpt><trkpt lat="40.2542928658371" lon="9.418315819690138"><ele>919.9999999999999</ele><time>2026-04-11T09:04:33.999Z</time></trkpt><trkpt lat="40.25422456153495" lon="9.41829540117517"><ele>920.0</ele><time>2026-04-11T09:04:34.999Z</time></trkpt><trkpt lat="40.25416560009955" lon="9.41825185748241"><ele>919.9999999999999</ele><time>2026-04-11T09:04:35.999Z</time></trkpt><trkpt lat="40.254105037951724" lon="9.418223065894653"><ele>919.9999999999999</ele><time>2026-04-11T09:04:36.999Z</time></trkpt><trkpt lat="40.25404811864671" lon="9.418181544624792"><ele>920.0</ele><time>2026-04-11T09:04:38.999Z</time></trkpt><trkpt lat="40.2541310993304" lon="9.41812587001015"><ele>919.9999999999999</ele><time>2026-04-11T09:04:41.999Z</time></trkpt><trkpt lat="40.25420873586557" lon="9.418144908032836"><ele>919.9999999999999</ele><time>2026-04-11T09:04:42.999Z</time></trkpt><trkpt lat="40.2542942997952" lon="9.418173804893975"><ele>920.0000000000001</ele><time>2026-04-11T09:04:43.999Z</time></trkpt><trkpt lat="40.2543860743434" lon="9.41818992697069"><ele>920.0</ele><time>2026-04-11T09:04:44.999Z</time></trkpt><trkpt lat="40.254454359070046" lon="9.41818044856537"><ele>920.0</ele><time>2026-04-11T09:04:45.999Z</time></trkpt><trkpt lat="40.25453309012944" lon="9.418167085026447"><ele>920.0</ele><time>2026-04-11T09:04:46.999Z</time></trkpt><trkpt lat="40.25460386805586" lon="9.418169617914332"><ele>920.0000000000001</ele><time>2026-04-11T09:04:47.999Z</time></trkpt><trkpt lat="40.25466775875658" lon="9.418189290353501"><ele>920.0</ele><time>2026-04-11T09:04:48.999Z</time></trkpt><trkpt lat="40.254787629269806" lon="9.418188387655855"><ele>918.8333333333334</ele><time>2026-04-11T09:04:50.999Z</time></trkpt><trkpt lat="40.254854990144025" lon="9.418183427644642"><ele>917.6666666666667</ele><time>2026-04-11T09:04:51.999Z</time></trkpt><trkpt lat="40.25496462235663" lon="9.418154078437018"><ele>916.5</ele><time>2026-04-11T09:04:53.999Z</time></trkpt><trkpt lat="40.25500346084875" lon="9.418086966803239"><ele>915.3333333333333</ele><time>2026-04-11T09:04:55.999Z</time></trkpt><trkpt lat="40.25499368630934" lon="9.417957356442736"><ele>914.1666666666666</ele><time>2026-04-11T09:04:57.999Z</time></trkpt><trkpt lat="40.254923521012394" lon="9.41790157834491"><ele>913.0</ele><time>2026-04-11T09:04:58.999Z</time></trkpt><trkpt lat="40.25485400095472" lon="9.41790189175624"><ele>908.9999999999999</ele><time>2026-04-11T09:04:59.999Z</time></trkpt><trkpt lat="40.25476247644158" lon="9.417892598845736"><ele>905.0</ele><time>2026-04-11T09:05:01.999Z</time></trkpt><trkpt lat="40.254677277576924" lon="9.417885400463708"><ele>901.0</ele><time>2026-04-11T09:05:03.999Z</time></trkpt><trkpt lat="40.2546035514072" lon="9.417874227473142"><ele>897.0</ele><time>2026-04-11T09:05:05.999Z</time></trkpt><trkpt lat="40.25455527501598" lon="9.417785183537053"><ele>892.9999999999999</ele><time>2026-04-11T09:05:08.999Z</time></trkpt><trkpt lat="40.25462749507989" lon="9.417735380268974"><ele>889.0</ele><time>2026-04-11T09:05:10.999Z</time></trkpt><trkpt lat="40.2547149104591" lon="9.417739950674166"><ele>887.4000000000001</ele><time>2026-04-11T09:05:12.999Z</time></trkpt><trkpt lat="40.25482590240341" lon="9.417701844702771"><ele>885.8000000000001</ele><time>2026-04-11T09:05:14.999Z</time></trkpt><trkpt lat="40.254932187904224" lon="9.417694993840778"><ele>884.1999999999999</ele><time>2026-04-11T09:05:16.999Z</time></trkpt><trkpt lat="40.25502117505827" lon="9.417669987192044"><ele>882.5999999999999</ele><time>2026-04-11T09:05:18.999Z</time></trkpt><trkpt lat="40.255107310283584" lon="9.417640964661278"><ele>881.0</ele><time>2026-04-11T09:05:20.999Z</time></trkpt><trkpt lat="40.25518749603434" lon="9.417597681985928"><ele>881.0000000000001</ele><time>2026-04-11T09:05:22.999Z</time></trkpt><trkpt lat="40.25523992935317" lon="9.417513890977103"><ele>881.0</ele><time>2026-04-11T09:05:24.999Z</time></trkpt><trkpt lat="40.25524419745234" lon="9.417430582545055"><ele>881.0</ele><time>2026-04-11T09:05:25.999Z</time></trkpt><trkpt lat="40.25521612839987" lon="9.417300460989187"><ele>881.0</ele><time>2026-04-11T09:05:27.999Z</time></trkpt><trkpt lat="40.25517285881198" lon="9.417224114479025"><ele>881.0000000000001</ele><time>2026-04-11T09:05:28.999Z</time></trkpt><trkpt lat="40.25511343892437" lon="9.417172885619323"><ele>881.0</ele><time>2026-04-11T09:05:30.999Z</time></trkpt><trkpt lat="40.25501504926885" lon="9.41710249821297"><ele>882.3333333333334</ele><time>2026-04-11T09:05:32.999Z</time></trkpt><trkpt lat="40.25495239151472" lon="9.417065111647755"><ele>883.6666666666667</ele><time>2026-04-11T09:05:35Z</time></trkpt><trkpt lat="40.25488919069296" lon="9.417065916432563"><ele>885.0</ele><time>2026-04-11T09:05:36Z</time></trkpt><trkpt lat="40.2548063325851" lon="9.417050327308596"><ele>886.3333333333333</ele><time>2026-04-11T09:05:38Z</time></trkpt><trkpt lat="40.25470045530146" lon="9.41708183734638"><ele>887.6666666666666</ele><time>2026-04-11T09:05:40Z</time></trkpt><trkpt lat="40.254604283019496" lon="9.417122958804669"><ele>889.0</ele><time>2026-04-11T09:05:42Z</time></trkpt><trkpt lat="40.25449840954487" lon="9.417159581043228"><ele>889.0</ele><time>2026-04-11T09:05:44Z</time></trkpt><trkpt lat="40.25439934573724" lon="9.417158628114615"><ele>889.0000000000001</ele><time>2026-04-11T09:05:46Z</time></trkpt><trkpt lat="40.25429018762586" lon="9.417144394656328"><ele>889.0000000000001</ele><time>2026-04-11T09:05:48Z</time></trkpt><trkpt lat="40.25420325025849" lon="9.417058529107667"><ele>889.0</ele><time>2026-04-11T09:05:50Z</time></trkpt><trkpt lat="40.25414117580523" lon="9.416956137053052"><ele>889.0</ele><time>2026-04-11T09:05:52Z</time></trkpt><trkpt lat="40.254121215953255" lon="9.416819046435943"><ele>887.0</ele><time>2026-04-11T09:05:54Z</time></trkpt><trkpt lat="40.25408896749095" lon="9.41669480527393"><ele>885.0000000000001</ele><time>2026-04-11T09:05:56Z</time></trkpt><trkpt lat="40.25405301490566" lon="9.416577612430105"><ele>883.0000000000001</ele><time>2026-04-11T09:05:58Z</time></trkpt><trkpt lat="40.25400704123293" lon="9.416518528658035"><ele>881.0</ele><time>2026-04-11T09:05:59Z</time></trkpt><trkpt lat="40.25394791151341" lon="9.416425597059291"><ele>879.0</ele><time>2026-04-11T09:06:01Z</time></trkpt><trkpt lat="40.25385755767616" lon="9.416381353378734"><ele>879.0</ele><time>2026-04-11T09:06:03Z</time></trkpt><trkpt lat="40.25378626943713" lon="9.416368421186286"><ele>879.0</ele><time>2026-04-11T09:06:04Z</time></trkpt><trkpt lat="40.25371995684626" lon="9.416368978568675"><ele>879.0</ele><time>2026-04-11T09:06:05Z</time></trkpt><trkpt lat="40.253628011414314" lon="9.41639280046652"><ele>879.0</ele><time>2026-04-11T09:06:07Z</time></trkpt><trkpt lat="40.25351812627775" lon="9.416385242936423"><ele>879.0</ele><time>2026-04-11T09:06:09Z</time></trkpt><trkpt lat="40.25343404472428" lon="9.416323495793824"><ele>879.0</ele><time>2026-04-11T09:06:11Z</time></trkpt><trkpt lat="40.253337100617166" lon="9.41625518138138"><ele>877.0</ele><time>2026-04-11T09:06:13Z</time></trkpt><trkpt lat="40.253232813948664" lon="9.416214710403917"><ele>875.0000000000001</ele><time>2026-04-11T09:06:15Z</time></trkpt><trkpt lat="40.253139514459896" lon="9.416171538196318"><ele>873.0000000000001</ele><time>2026-04-11T09:06:17Z</time></trkpt><trkpt lat="40.25304997385698" lon="9.416101496644439"><ele>871.0</ele><time>2026-04-11T09:06:19Z</time></trkpt><trkpt lat="40.252940886140436" lon="9.41604964912278"><ele>869.0</ele><time>2026-04-11T09:06:20.999Z</time></trkpt><trkpt lat="40.252860857374664" lon="9.41598744708031"><ele>869.0</ele><time>2026-04-11T09:06:22.999Z</time></trkpt><trkpt lat="40.25279110491219" lon="9.415924387470197"><ele>869.0000000000001</ele><time>2026-04-11T09:06:24.999Z</time></trkpt><trkpt lat="40.25272354177798" lon="9.415839867141786"><ele>869.0000000000001</ele><time>2026-04-11T09:06:26.999Z</time></trkpt><trkpt lat="40.252653794836085" lon="9.415760815508992"><ele>869.0</ele><time>2026-04-11T09:06:28.999Z</time></trkpt><trkpt lat="40.25256666359894" lon="9.415650422999581"><ele>869.0</ele><time>2026-04-11T09:06:30.999Z</time></trkpt><trkpt lat="40.25253003577655" lon="9.415577701179114"><ele>868.4285714285714</ele><time>2026-04-11T09:06:31.999Z</time></trkpt><trkpt lat="40.25249109079621" lon="9.415439600112533"><ele>867.8571428571428</ele><time>2026-04-11T09:06:33.999Z</time></trkpt><trkpt lat="40.252469516034715" lon="9.415358389817728"><ele>867.2857142857142</ele><time>2026-04-11T09:06:34.999Z</time></trkpt><trkpt lat="40.25244441925379" lon="9.415272037959099"><ele>866.7142857142858</ele><time>2026-04-11T09:06:35.999Z</time></trkpt><trkpt lat="40.25241737145199" lon="9.415196173792577"><ele>866.1428571428571</ele><time>2026-04-11T09:06:36.999Z</time></trkpt><trkpt lat="40.25237715881712" lon="9.415124901048246"><ele>865.5714285714286</ele><time>2026-04-11T09:06:37.999Z</time></trkpt><trkpt lat="40.25232640844587" lon="9.41506364075419"><ele>865.0</ele><time>2026-04-11T09:06:38.999Z</time></trkpt><trkpt lat="40.25221973935597" lon="9.414980699393269"><ele>864.9999999999999</ele><time>2026-04-11T09:06:40.999Z</time></trkpt><trkpt lat="40.252150171257526" lon="9.414874587902938"><ele>865.0</ele><time>2026-04-11T09:06:42.999Z</time></trkpt><trkpt lat="40.25208461262089" lon="9.414753909417126"><ele>865.0</ele><time>2026-04-11T09:06:44.999Z</time></trkpt><trkpt lat="40.25204373695798" lon="9.414684719163587"><ele>865.0</ele><time>2026-04-11T09:06:45.999Z</time></trkpt><trkpt lat="40.252009595743694" lon="9.414613886886018"><ele>864.9999999999999</ele><time>2026-04-11T09:06:46.999Z</time></trkpt><trkpt lat="40.25198056116791" lon="9.414512828212066"><ele>865.0</ele><time>2026-04-11T09:06:47.999Z</time></trkpt><trkpt lat="40.25192616966856" lon="9.414393817851327"><ele>858.6</ele><time>2026-04-11T09:06:49.999Z</time></trkpt><trkpt lat="40.251858708349204" lon="9.414255389087764"><ele>852.2</ele><time>2026-04-11T09:06:51.999Z</time></trkpt><trkpt lat="40.25178658466865" lon="9.414136761225933"><ele>845.8</ele><time>2026-04-11T09:06:53.999Z</time></trkpt><trkpt lat="40.2517232524297" lon="9.414059196943736"><ele>839.4</ele><time>2026-04-11T09:06:55.999Z</time></trkpt><trkpt lat="40.251613964357034" lon="9.414083838877522"><ele>833.0</ele><time>2026-04-11T09:06:57.999Z</time></trkpt><trkpt lat="40.25152316235562" lon="9.414100082160832"><ele>830.0000000000001</ele><time>2026-04-11T09:06:59.999Z</time></trkpt><trkpt lat="40.25143481590195" lon="9.414138088723915"><ele>827.0</ele><time>2026-04-11T09:07:01.999Z</time></trkpt><trkpt lat="40.25135736245502" lon="9.414170718132967"><ele>824.0</ele><time>2026-04-11T09:07:03.999Z</time></trkpt><trkpt lat="40.25129270962646" lon="9.41418259590539"><ele>821.0</ele><time>2026-04-11T09:07:05.999Z</time></trkpt><trkpt lat="40.251229445780815" lon="9.414191867692493"><ele>818.0000000000001</ele><time>2026-04-11T09:07:08.999Z</time></trkpt><trkpt lat="40.2511532885846" lon="9.414225018178467"><ele>815.0</ele><time>2026-04-11T09:07:12.999Z</time></trkpt><trkpt lat="40.25108656494933" lon="9.414281288279733"><ele>815.0</ele><time>2026-04-11T09:07:15.999Z</time></trkpt><trkpt lat="40.25107175644291" lon="9.41417533788772"><ele>815.0</ele><time>2026-04-11T09:07:18.999Z</time></trkpt><trkpt lat="40.25112805779728" lon="9.414111387689438"><ele>815.0</ele><time>2026-04-11T09:07:20.999Z</time></trkpt><trkpt lat="40.251240720191475" lon="9.414092540786058"><ele>815.0</ele><time>2026-04-11T09:07:22.999Z</time></trkpt><trkpt lat="40.251306786410744" lon="9.414049579775357"><ele>815.0</ele><time>2026-04-11T09:07:23.999Z</time></trkpt><trkpt lat="40.25138591374157" lon="9.413957358641508"><ele>815.0000000000001</ele><time>2026-04-11T09:07:24.999Z</time></trkpt><trkpt lat="40.25145341684686" lon="9.413888949662752"><ele>815.0</ele><time>2026-04-11T09:07:25.999Z</time></trkpt><trkpt lat="40.2515060418141" lon="9.413836455440688"><ele>815.0</ele><time>2026-04-11T09:07:26.999Z</time></trkpt><trkpt lat="40.25155232080798" lon="9.413772589381521"><ele>815.0</ele><time>2026-04-11T09:07:27.999Z</time></trkpt><trkpt lat="40.251617692779725" lon="9.413668544660714"><ele>815.0000000000001</ele><time>2026-04-11T09:07:29.999Z</time></trkpt><trkpt lat="40.251661363034" lon="9.413543972102875"><ele>815.0</ele><time>2026-04-11T09:07:31.999Z</time></trkpt><trkpt lat="40.25168874814994" lon="9.413379500177724"><ele>814.0</ele><time>2026-04-11T09:07:33.999Z</time></trkpt><trkpt lat="40.25169707438243" lon="9.413234310690308"><ele>813.0</ele><time>2026-04-11T09:07:35.999Z</time></trkpt><trkpt lat="40.25171229721858" lon="9.413151678201945"><ele>812.0</ele><time>2026-04-11T09:07:36.999Z</time></trkpt><trkpt lat="40.25174649544916" lon="9.413040039491166"><ele>811.0</ele><time>2026-04-11T09:07:38.999Z</time></trkpt><trkpt lat="40.251851714736404" lon="9.412990898902866"><ele>810.0</ele><time>2026-04-11T09:07:41Z</time></trkpt><trkpt lat="40.251954831201864" lon="9.412958829781754"><ele>807.0</ele><time>2026-04-11T09:07:43Z</time></trkpt><trkpt lat="40.252028112963295" lon="9.412929500962262"><ele>804.0</ele><time>2026-04-11T09:07:44Z</time></trkpt><trkpt lat="40.25208622756886" lon="9.41289730179623"><ele>801.0</ele><time>2026-04-11T09:07:45Z</time></trkpt><trkpt lat="40.252189399584" lon="9.41282574304069"><ele>798.0</ele><time>2026-04-11T09:07:47Z</time></trkpt><trkpt lat="40.252255884809045" lon="9.412800526776763"><ele>795.0</ele><time>2026-04-11T09:07:48Z</time></trkpt><trkpt lat="40.252318745787484" lon="9.41278080507315"><ele>792.0</ele><time>2026-04-11T09:07:49Z</time></trkpt><trkpt lat="40.25238493160848" lon="9.412811357667376"><ele>791.5</ele><time>2026-04-11T09:07:50Z</time></trkpt><trkpt lat="40.25249378318794" lon="9.412843403574161"><ele>791.0</ele><time>2026-04-11T09:07:52Z</time></trkpt><trkpt lat="40.252571494115095" lon="9.412921926817972"><ele>790.5</ele><time>2026-04-11T09:07:54Z</time></trkpt><trkpt lat="40.25260623702159" lon="9.412994146832162"><ele>790.0</ele><time>2026-04-11T09:07:55Z</time></trkpt><trkpt lat="40.25259751284479" lon="9.413100541432188"><ele>789.5</ele><time>2026-04-11T09:07:57Z</time></trkpt><trkpt lat="40.252593506727315" lon="9.41321166499001"><ele>789.0</ele><time>2026-04-11T09:07:59Z</time></trkpt><trkpt lat="40.25257704961064" lon="9.413327408669026"><ele>791.8000000000001</ele><time>2026-04-11T09:08:01Z</time></trkpt><trkpt lat="40.2525596677067" lon="9.413456628558896"><ele>794.6</ele><time>2026-04-11T09:08:03Z</time></trkpt><trkpt lat="40.25255344333919" lon="9.413599233656857"><ele>797.4</ele><time>2026-04-11T09:08:05Z</time></trkpt><trkpt lat="40.252568293568636" lon="9.413703445036155"><ele>800.2</ele><time>2026-04-11T09:08:06Z</time></trkpt><trkpt lat="40.252602090673015" lon="9.413807159141182"><ele>803.0</ele><time>2026-04-11T09:08:07Z</time></trkpt><trkpt lat="40.25264788712366" lon="9.41389747694952"><ele>805.4</ele><time>2026-04-11T09:08:08Z</time></trkpt><trkpt lat="40.252688419737545" lon="9.413968928952805"><ele>807.8</ele><time>2026-04-11T09:08:09Z</time></trkpt><trkpt lat="40.252769063385074" lon="9.414099372359695"><ele>810.2</ele><time>2026-04-11T09:08:11Z</time></trkpt><trkpt lat="40.25282064218571" lon="9.414179287000492"><ele>812.6</ele><time>2026-04-11T09:08:12Z</time></trkpt><trkpt lat="40.25290636111312" lon="9.414302085682786"><ele>815.0</ele><time>2026-04-11T09:08:14Z</time></trkpt><trkpt lat="40.25298014035986" lon="9.414383211946797"><ele>815.0</ele><time>2026-04-11T09:08:16Z</time></trkpt><trkpt lat="40.25309869061491" lon="9.414460098841603"><ele>815.0</ele><time>2026-04-11T09:08:18Z</time></trkpt><trkpt lat="40.25322695600577" lon="9.414479030596954"><ele>815.0</ele><time>2026-04-11T09:08:20Z</time></trkpt><trkpt lat="40.25332378212913" lon="9.414508804260677"><ele>815.0</ele><time>2026-04-11T09:08:22Z</time></trkpt><trkpt lat="40.25341886393075" lon="9.414533791914465"><ele>806.6</ele><time>2026-04-11T09:08:24Z</time></trkpt><trkpt lat="40.25351315365724" lon="9.414569740969775"><ele>798.2</ele><time>2026-04-11T09:08:25.999Z</time></trkpt><trkpt lat="40.25361010306516" lon="9.414524183391615"><ele>789.8</ele><time>2026-04-11T09:08:28.999Z</time></trkpt><trkpt lat="40.25357473564264" lon="9.414415350810104"><ele>781.4</ele><time>2026-04-11T09:08:30.999Z</time></trkpt><trkpt lat="40.25350093761978" lon="9.414341607747547"><ele>773.0</ele><time>2026-04-11T09:08:32.999Z</time></trkpt><trkpt lat="40.253392338399095" lon="9.414321640143712"><ele>773.0</ele><time>2026-04-11T09:08:34.999Z</time></trkpt><trkpt lat="40.2533158556039" lon="9.414246937535967"><ele>773.0</ele><time>2026-04-11T09:08:36.999Z</time></trkpt><trkpt lat="40.253241582338624" lon="9.414173488257655"><ele>773.0</ele><time>2026-04-11T09:08:38.999Z</time></trkpt><trkpt lat="40.25316261817734" lon="9.414090414716505"><ele>773.0</ele><time>2026-04-11T09:08:40.999Z</time></trkpt><trkpt lat="40.25309420800595" lon="9.414012121686175"><ele>773.0</ele><time>2026-04-11T09:08:42.999Z</time></trkpt><trkpt lat="40.25312957771687" lon="9.413902863172936"><ele>773.0000000000001</ele><time>2026-04-11T09:08:45.999Z</time></trkpt><trkpt lat="40.25320315256238" lon="9.413920413112626"><ele>773.0</ele><time>2026-04-11T09:08:47.999Z</time></trkpt><trkpt lat="40.25325078645298" lon="9.41399608031198"><ele>773.0</ele><time>2026-04-11T09:08:49.999Z</time></trkpt><trkpt lat="40.253307943408586" lon="9.414063687825376"><ele>773.0</ele><time>2026-04-11T09:08:51.999Z</time></trkpt><trkpt lat="40.25339670460063" lon="9.414100984423339"><ele>773.0000000000001</ele><time>2026-04-11T09:08:53.999Z</time></trkpt><trkpt lat="40.25347440901069" lon="9.414111559323153"><ele>773.0</ele><time>2026-04-11T09:08:54.999Z</time></trkpt><trkpt lat="40.25355454054253" lon="9.414144777674908"><ele>773.0</ele><time>2026-04-11T09:08:55.999Z</time></trkpt><trkpt lat="40.253633469281134" lon="9.414171543911259"><ele>773.0</ele><time>2026-04-11T09:08:56.999Z</time></trkpt><trkpt lat="40.25373251443297" lon="9.414203616710264"><ele>773.0</ele><time>2026-04-11T09:08:57.999Z</time></trkpt><trkpt lat="40.253830469720306" lon="9.414227848585567"><ele>773.0</ele><time>2026-04-11T09:08:58.999Z</time></trkpt><trkpt lat="40.253923792912296" lon="9.414268709432905"><ele>773.0</ele><time>2026-04-11T09:08:59.999Z</time></trkpt><trkpt lat="40.25401292451384" lon="9.414270296366215"><ele>768.5000000000001</ele><time>2026-04-11T09:09:00.999Z</time></trkpt><trkpt lat="40.25409902786944" lon="9.414290942300916"><ele>764.0</ele><time>2026-04-11T09:09:01.999Z</time></trkpt><trkpt lat="40.2541746703461" lon="9.414275163515903"><ele>759.5</ele><time>2026-04-11T09:09:02.999Z</time></trkpt><trkpt lat="40.25426192134504" lon="9.414245909063192"><ele>755.0</ele><time>2026-04-11T09:09:04.999Z</time></trkpt><trkpt lat="40.25435225154" lon="9.414243934408615"><ele>750.5</ele><time>2026-04-11T09:09:06.999Z</time></trkpt><trkpt lat="40.25444027543692" lon="9.414308378090707"><ele>746.0</ele><time>2026-04-11T09:09:08.999Z</time></trkpt><trkpt lat="40.254486556475875" lon="9.414370590119212"><ele>746.0</ele><time>2026-04-11T09:09:09.999Z</time></trkpt><trkpt lat="40.25453992528577" lon="9.414439694874908"><ele>746.0</ele><time>2026-04-11T09:09:10.999Z</time></trkpt><trkpt lat="40.254598713174815" lon="9.414504284567133"><ele>746.0</ele><time>2026-04-11T09:09:11.999Z</time></trkpt><trkpt lat="40.25466675685804" lon="9.414568421136067"><ele>746.0</ele><time>2026-04-11T09:09:12.999Z</time></trkpt><trkpt lat="40.25472439834791" lon="9.414622861086675"><ele>746.0</ele><time>2026-04-11T09:09:13.999Z</time></trkpt><trkpt lat="40.25478023835425" lon="9.414679241055344"><ele>746.0</ele><time>2026-04-11T09:09:14.999Z</time></trkpt><trkpt lat="40.25483242905704" lon="9.414737069229522"><ele>746.0</ele><time>2026-04-11T09:09:15.999Z</time></trkpt><trkpt lat="40.25492040608377" lon="9.414829972730997"><ele>749.0</ele><time>2026-04-11T09:09:17.999Z</time></trkpt><trkpt lat="40.25503858344184" lon="9.41490088588392"><ele>752.0</ele><time>2026-04-11T09:09:19.999Z</time></trkpt><trkpt lat="40.25511811819184" lon="9.414907156439083"><ele>755.0</ele><time>2026-04-11T09:09:20.999Z</time></trkpt><trkpt lat="40.25521032106531" lon="9.414864627058604"><ele>758.0</ele><time>2026-04-11T09:09:21.999Z</time></trkpt><trkpt lat="40.255299286522764" lon="9.414857319301836"><ele>761.0</ele><time>2026-04-11T09:09:22.999Z</time></trkpt><trkpt lat="40.25537970203828" lon="9.414846803939575"><ele>761.0</ele><time>2026-04-11T09:09:23.999Z</time></trkpt><trkpt lat="40.255448334853426" lon="9.414832868359738"><ele>761.0</ele><time>2026-04-11T09:09:24.999Z</time></trkpt><trkpt lat="40.2555677974393" lon="9.41481353867232"><ele>761.0</ele><time>2026-04-11T09:09:26.999Z</time></trkpt><trkpt lat="40.25567228024726" lon="9.414817348666787"><ele>761.0</ele><time>2026-04-11T09:09:28.999Z</time></trkpt><trkpt lat="40.25580087525064" lon="9.414765859532128"><ele>761.0</ele><time>2026-04-11T09:09:30.999Z</time></trkpt><trkpt lat="40.255856632024944" lon="9.41470517632879"><ele>758.8333333333333</ele><time>2026-04-11T09:09:31.999Z</time></trkpt><trkpt lat="40.25588184670939" lon="9.414594734435639"><ele>756.6666666666666</ele><time>2026-04-11T09:09:32.999Z</time></trkpt><trkpt lat="40.255918772345325" lon="9.41451229598157"><ele>754.5</ele><time>2026-04-11T09:09:33.999Z</time></trkpt><trkpt lat="40.25598782620264" lon="9.414455389590238"><ele>752.3333333333334</ele><time>2026-04-11T09:09:36.999Z</time></trkpt><trkpt lat="40.2560514080158" lon="9.414484509733926"><ele>750.1666666666667</ele><time>2026-04-11T09:09:37.999Z</time></trkpt><trkpt lat="40.25603916978273" lon="9.414567355458606"><ele>748.0</ele><time>2026-04-11T09:09:38.999Z</time></trkpt><trkpt lat="40.25610947155415" lon="9.414679972304414"><ele>748.0</ele><time>2026-04-11T09:09:40.999Z</time></trkpt><trkpt lat="40.25617695010048" lon="9.414740495126212"><ele>748.0</ele><time>2026-04-11T09:09:41.999Z</time></trkpt><trkpt lat="40.25625289402562" lon="9.414781067964071"><ele>748.0</ele><time>2026-04-11T09:09:42.999Z</time></trkpt><trkpt lat="40.25636030401102" lon="9.414762733863133"><ele>748.0</ele><time>2026-04-11T09:09:43.999Z</time></trkpt><trkpt lat="40.256444089315586" lon="9.414804030074931"><ele>748.0</ele><time>2026-04-11T09:09:44.999Z</time></trkpt><trkpt lat="40.256529810922714" lon="9.414844790343974"><ele>747.1666666666667</ele><time>2026-04-11T09:09:45.999Z</time></trkpt><trkpt lat="40.25660223165825" lon="9.414889861612204"><ele>746.3333333333334</ele><time>2026-04-11T09:09:47Z</time></trkpt><trkpt lat="40.25669366077227" lon="9.414948211581624"><ele>745.5</ele><time>2026-04-11T09:09:48Z</time></trkpt><trkpt lat="40.256788185388906" lon="9.415013056564991"><ele>744.6666666666666</ele><time>2026-04-11T09:09:49Z</time></trkpt><trkpt lat="40.25686308970057" lon="9.41506880105064"><ele>743.8333333333333</ele><time>2026-04-11T09:09:50Z</time></trkpt><trkpt lat="40.25692145050099" lon="9.415119057669491"><ele>743.0</ele><time>2026-04-11T09:09:51Z</time></trkpt><trkpt lat="40.25698096971495" lon="9.415175606584494"><ele>743.0</ele><time>2026-04-11T09:09:52Z</time></trkpt><trkpt lat="40.25705716081062" lon="9.415304802374745"><ele>743.0</ele><time>2026-04-11T09:09:54Z</time></trkpt><trkpt lat="40.257136262142666" lon="9.415460328358105"><ele>743.0</ele><time>2026-04-11T09:09:56Z</time></trkpt><trkpt lat="40.25717625534259" lon="9.415536543675241"><ele>743.0</ele><time>2026-04-11T09:09:57Z</time></trkpt><trkpt lat="40.25721672722409" lon="9.415602199439292"><ele>743.0</ele><time>2026-04-11T09:09:58Z</time></trkpt><trkpt lat="40.25733756495183" lon="9.415650848435625"><ele>744.5</ele><time>2026-04-11T09:10:00Z</time></trkpt><trkpt lat="40.257401517112214" lon="9.415659313897518"><ele>746.0</ele><time>2026-04-11T09:10:01Z</time></trkpt><trkpt lat="40.257486857098264" lon="9.41564284747525"><ele>747.5</ele><time>2026-04-11T09:10:02Z</time></trkpt><trkpt lat="40.25756719254362" lon="9.415640762958942"><ele>749.0</ele><time>2026-04-11T09:10:04Z</time></trkpt><trkpt lat="40.25766811702464" lon="9.415714427116447"><ele>750.5</ele><time>2026-04-11T09:10:06Z</time></trkpt><trkpt lat="40.257717754543634" lon="9.415778277347842"><ele>752.0</ele><time>2026-04-11T09:10:07Z</time></trkpt><trkpt lat="40.257784554348916" lon="9.415913272372874"><ele>752.0</ele><time>2026-04-11T09:10:09Z</time></trkpt><trkpt lat="40.257830068941345" lon="9.416036331030249"><ele>752.0</ele><time>2026-04-11T09:10:11Z</time></trkpt><trkpt lat="40.257860856708945" lon="9.416167167275919"><ele>752.0</ele><time>2026-04-11T09:10:13Z</time></trkpt><trkpt lat="40.25789371368903" lon="9.416322415096687"><ele>752.0</ele><time>2026-04-11T09:10:15Z</time></trkpt><trkpt lat="40.25791899591534" lon="9.416461128204721"><ele>752.0</ele><time>2026-04-11T09:10:17Z</time></trkpt><trkpt lat="40.257948287503694" lon="9.416604617841985"><ele>755.2</ele><time>2026-04-11T09:10:19Z</time></trkpt><trkpt lat="40.25793332211853" lon="9.416743471322386"><ele>758.4000000000001</ele><time>2026-04-11T09:10:21Z</time></trkpt><trkpt lat="40.25795173823769" lon="9.416881219636844"><ele>761.5999999999999</ele><time>2026-04-11T09:10:23Z</time></trkpt><trkpt lat="40.258032343452676" lon="9.41698063047729"><ele>764.8</ele><time>2026-04-11T09:10:25Z</time></trkpt><trkpt lat="40.25808210758315" lon="9.417061906028582"><ele>768.0</ele><time>2026-04-11T09:10:26Z</time></trkpt><trkpt lat="40.258165753674554" lon="9.417129189746136"><ele>766.1666666666666</ele><time>2026-04-11T09:10:27Z</time></trkpt><trkpt lat="40.258247989154604" lon="9.417174688951292"><ele>764.3333333333334</ele><time>2026-04-11T09:10:28Z</time></trkpt><trkpt lat="40.258320900898596" lon="9.417202760532835"><ele>762.5</ele><time>2026-04-11T09:10:29Z</time></trkpt><trkpt lat="40.25839610164736" lon="9.417208012174141"><ele>760.6666666666667</ele><time>2026-04-11T09:10:30Z</time></trkpt><trkpt lat="40.258469843874984" lon="9.417137531706874"><ele>758.8333333333334</ele><time>2026-04-11T09:10:31Z</time></trkpt><trkpt lat="40.25854929308034" lon="9.417132084854327"><ele>757.0</ele><time>2026-04-11T09:10:32Z</time></trkpt><trkpt lat="40.25861503730703" lon="9.41711288636352"><ele>757.0</ele><time>2026-04-11T09:10:33Z</time></trkpt><trkpt lat="40.258673629071154" lon="9.417168071430039"><ele>757.0</ele><time>2026-04-11T09:10:34Z</time></trkpt><trkpt lat="40.25874233659232" lon="9.417191481224267"><ele>757.0</ele><time>2026-04-11T09:10:35Z</time></trkpt><trkpt lat="40.2588083400713" lon="9.417202494322874"><ele>757.0</ele><time>2026-04-11T09:10:35.999Z</time></trkpt><trkpt lat="40.25887060874779" lon="9.417219733525414"><ele>757.0</ele><time>2026-04-11T09:10:36.999Z</time></trkpt><trkpt lat="40.25893715054051" lon="9.417254520408116"><ele>757.0</ele><time>2026-04-11T09:10:37.999Z</time></trkpt><trkpt lat="40.25902403255942" lon="9.41726433810458"><ele>757.0</ele><time>2026-04-11T09:10:38.999Z</time></trkpt><trkpt lat="40.25909346922208" lon="9.417262187326326"><ele>757.4000000000001</ele><time>2026-04-11T09:10:39.999Z</time></trkpt><trkpt lat="40.25916043277712" lon="9.41725677633658"><ele>757.8000000000001</ele><time>2026-04-11T09:10:40.999Z</time></trkpt><trkpt lat="40.25928502026174" lon="9.417226846750111"><ele>758.2</ele><time>2026-04-11T09:10:42.999Z</time></trkpt><trkpt lat="40.25932633132982" lon="9.41711711086974"><ele>758.6</ele><time>2026-04-11T09:10:43.999Z</time></trkpt><trkpt lat="40.259387012829656" lon="9.417021336298562"><ele>759.0</ele><time>2026-04-11T09:10:44.999Z</time></trkpt><trkpt lat="40.25945509069726" lon="9.416993321443906"><ele>756.1428571428571</ele><time>2026-04-11T09:10:45.999Z</time></trkpt><trkpt lat="40.25952177992423" lon="9.416936974890946"><ele>753.2857142857142</ele><time>2026-04-11T09:10:46.999Z</time></trkpt><trkpt lat="40.25958216455637" lon="9.416887719620236"><ele>750.4285714285714</ele><time>2026-04-11T09:10:47.999Z</time></trkpt><trkpt lat="40.259652034827674" lon="9.41683496309981"><ele>747.5714285714286</ele><time>2026-04-11T09:10:48.999Z</time></trkpt><trkpt lat="40.259714828962196" lon="9.4167908342061"><ele>744.7142857142858</ele><time>2026-04-11T09:10:49.999Z</time></trkpt><trkpt lat="40.25976645931975" lon="9.416737493732253"><ele>741.8571428571429</ele><time>2026-04-11T09:10:50.999Z</time></trkpt><trkpt lat="40.259833178312554" lon="9.41673234930612"><ele>739.0</ele><time>2026-04-11T09:10:51.999Z</time></trkpt><trkpt lat="40.25990934303064" lon="9.416856041695887"><ele>739.0</ele><time>2026-04-11T09:10:53.999Z</time></trkpt><trkpt lat="40.259976711005294" lon="9.416902778333275"><ele>739.0</ele><time>2026-04-11T09:10:54.999Z</time></trkpt><trkpt lat="40.260040681186766" lon="9.416936706970855"><ele>739.0</ele><time>2026-04-11T09:10:55.999Z</time></trkpt><trkpt lat="40.26014838207073" lon="9.417002651213851"><ele>739.0</ele><time>2026-04-11T09:10:57.999Z</time></trkpt><trkpt lat="40.260271769137" lon="9.417058799148428"><ele>739.0</ele><time>2026-04-11T09:10:59.999Z</time></trkpt><trkpt lat="40.26034432519338" lon="9.41704474260994"><ele>739.0</ele><time>2026-04-11T09:11:00.999Z</time></trkpt><trkpt lat="40.26041370684561" lon="9.416995415470431"><ele>739.0</ele><time>2026-04-11T09:11:01.999Z</time></trkpt><trkpt lat="40.260474557771786" lon="9.416931996762136"><ele>739.0</ele><time>2026-04-11T09:11:02.999Z</time></trkpt><trkpt lat="40.26053446794293" lon="9.416865238352937"><ele>739.0</ele><time>2026-04-11T09:11:03.999Z</time></trkpt><trkpt lat="40.260606644135514" lon="9.416774776304951"><ele>739.0</ele><time>2026-04-11T09:11:04.999Z</time></trkpt><trkpt lat="40.26067166862103" lon="9.416683169520693"><ele>739.0</ele><time>2026-04-11T09:11:05.999Z</time></trkpt><trkpt lat="40.26073195673365" lon="9.41658709273612"><ele>738.5</ele><time>2026-04-11T09:11:06.999Z</time></trkpt><trkpt lat="40.260784872420075" lon="9.416488353279007"><ele>738.0</ele><time>2026-04-11T09:11:07.999Z</time></trkpt><trkpt lat="40.26082392168582" lon="9.416375997193555"><ele>737.5</ele><time>2026-04-11T09:11:08.999Z</time></trkpt><trkpt lat="40.2608265586492" lon="9.416285942427978"><ele>737.0</ele><time>2026-04-11T09:11:09.999Z</time></trkpt><trkpt lat="40.26086897835884" lon="9.416170849613495"><ele>736.5</ele><time>2026-04-11T09:11:11.999Z</time></trkpt><trkpt lat="40.260953667611275" lon="9.416149493868176"><ele>736.0</ele><time>2026-04-11T09:11:13.999Z</time></trkpt><trkpt lat="40.26106434658074" lon="9.416250137405255"><ele>736.0</ele><time>2026-04-11T09:11:15.999Z</time></trkpt><trkpt lat="40.26112938191523" lon="9.41632014647486"><ele>736.0</ele><time>2026-04-11T09:11:16.999Z</time></trkpt><trkpt lat="40.261191983315584" lon="9.416398909750052"><ele>736.0</ele><time>2026-04-11T09:11:17.999Z</time></trkpt><trkpt lat="40.261269431549344" lon="9.416455699383588"><ele>736.0</ele><time>2026-04-11T09:11:18.999Z</time></trkpt><trkpt lat="40.261376114690776" lon="9.416491405417284"><ele>736.0</ele><time>2026-04-11T09:11:20.999Z</time></trkpt><trkpt lat="40.26145928422577" lon="9.416478168053358"><ele>734.6666666666667</ele><time>2026-04-11T09:11:21.999Z</time></trkpt><trkpt lat="40.26153692576897" lon="9.416411442140644"><ele>733.3333333333334</ele><time>2026-04-11T09:11:22.999Z</time></trkpt><trkpt lat="40.26159900773098" lon="9.416322284215257"><ele>732.0</ele><time>2026-04-11T09:11:23.999Z</time></trkpt><trkpt lat="40.26163697824745" lon="9.416205912336537"><ele>730.6666666666666</ele><time>2026-04-11T09:11:24.999Z</time></trkpt><trkpt lat="40.26170146774212" lon="9.41612529878079"><ele>729.3333333333333</ele><time>2026-04-11T09:11:25.999Z</time></trkpt><trkpt lat="40.261742796555446" lon="9.416038537094728"><ele>728.0</ele><time>2026-04-11T09:11:26.999Z</time></trkpt><trkpt lat="40.26177755524892" lon="9.415937584840748"><ele>722.4</ele><time>2026-04-11T09:11:31.999Z</time></trkpt><trkpt lat="40.26186627400546" lon="9.415909723070994"><ele>716.8</ele><time>2026-04-11T09:11:33.999Z</time></trkpt><trkpt lat="40.26195320558771" lon="9.415958762671755"><ele>711.2</ele><time>2026-04-11T09:11:34.999Z</time></trkpt><trkpt lat="40.262029001832076" lon="9.416059322566062"><ele>705.6</ele><time>2026-04-11T09:11:35.999Z</time></trkpt><trkpt lat="40.26210137252254" lon="9.416151832763783"><ele>700.0</ele><time>2026-04-11T09:11:36.999Z</time></trkpt><trkpt lat="40.262165749445806" lon="9.416235815059833"><ele>700.0</ele><time>2026-04-11T09:11:37.999Z</time></trkpt><trkpt lat="40.26224804477766" lon="9.4163188632756"><ele>700.0</ele><time>2026-04-11T09:11:38.999Z</time></trkpt><trkpt lat="40.26229766982301" lon="9.416419787375773"><ele>700.0</ele><time>2026-04-11T09:11:39.999Z</time></trkpt><trkpt lat="40.262364643935285" lon="9.416500242250855"><ele>700.0</ele><time>2026-04-11T09:11:40.999Z</time></trkpt><trkpt lat="40.26242789788272" lon="9.416573643660103"><ele>700.0</ele><time>2026-04-11T09:11:41.999Z</time></trkpt><trkpt lat="40.26248543432774" lon="9.416645298980505"><ele>700.6666666666667</ele><time>2026-04-11T09:11:42.999Z</time></trkpt><trkpt lat="40.262555578287504" lon="9.416710666882182"><ele>701.3333333333334</ele><time>2026-04-11T09:11:43.999Z</time></trkpt><trkpt lat="40.262619780954985" lon="9.416758901889022"><ele>702.0</ele><time>2026-04-11T09:11:44.999Z</time></trkpt><trkpt lat="40.26268255013833" lon="9.416809724902338"><ele>702.6666666666666</ele><time>2026-04-11T09:11:45.999Z</time></trkpt><trkpt lat="40.26275021006893" lon="9.416847532841814"><ele>703.3333333333333</ele><time>2026-04-11T09:11:46.999Z</time></trkpt><trkpt lat="40.26281634029253" lon="9.4168968647784"><ele>704.0</ele><time>2026-04-11T09:11:47.999Z</time></trkpt><trkpt lat="40.26289880951351" lon="9.416909993819926"><ele>704.0</ele><time>2026-04-11T09:11:48.999Z</time></trkpt><trkpt lat="40.26298270194632" lon="9.416886732560712"><ele>704.0</ele><time>2026-04-11T09:11:49.999Z</time></trkpt><trkpt lat="40.26304798977914" lon="9.416848818942924"><ele>704.0</ele><time>2026-04-11T09:11:50.999Z</time></trkpt><trkpt lat="40.26314500302282" lon="9.416805484558024"><ele>704.0</ele><time>2026-04-11T09:11:53Z</time></trkpt><trkpt lat="40.26324029936923" lon="9.416808783167683"><ele>704.0</ele><time>2026-04-11T09:11:55Z</time></trkpt><trkpt lat="40.26334091027658" lon="9.416877488293505"><ele>702.5</ele><time>2026-04-11T09:11:57Z</time></trkpt><trkpt lat="40.263402762794335" lon="9.416894950827041"><ele>701.0</ele><time>2026-04-11T09:11:58Z</time></trkpt><trkpt lat="40.26349607240496" lon="9.416913825368953"><ele>699.5</ele><time>2026-04-11T09:12:00Z</time></trkpt><trkpt lat="40.263573066439264" lon="9.416949275956014"><ele>698.0</ele><time>2026-04-11T09:12:04Z</time></trkpt><trkpt lat="40.26359674247253" lon="9.417040568471087"><ele>696.5</ele><time>2026-04-11T09:12:08Z</time></trkpt><trkpt lat="40.2636712899221" lon="9.417058625317942"><ele>695.0</ele><time>2026-04-11T09:12:12Z</time></trkpt><trkpt lat="40.263735647323045" lon="9.417107785518452"><ele>695.0</ele><time>2026-04-11T09:12:19Z</time></trkpt><trkpt lat="40.263790595827004" lon="9.417149915458731"><ele>695.0</ele><time>2026-04-11T09:14:04Z</time></trkpt><trkpt lat="40.26384841587907" lon="9.417199692851009"><ele>695.0</ele><time>2026-04-11T09:14:12Z</time></trkpt><trkpt lat="40.26391000533718" lon="9.417254826286461"><ele>695.0</ele><time>2026-04-11T09:14:17Z</time></trkpt><trkpt lat="40.26385988678185" lon="9.417395609664911"><ele>695.0</ele><time>2026-04-11T09:14:20Z</time></trkpt><trkpt lat="40.263918103991095" lon="9.417462893504329"><ele>695.0</ele><time>2026-04-11T09:14:27Z</time></trkpt><trkpt lat="40.26395916692409" lon="9.417532846612234"><ele>695.4285714285714</ele><time>2026-04-11T09:14:32Z</time></trkpt><trkpt lat="40.264005097701435" lon="9.417604938860672"><ele>695.8571428571429</ele><time>2026-04-11T09:14:40Z</time></trkpt><trkpt lat="40.263957811073354" lon="9.417549459184334"><ele>696.2857142857142</ele><time>2026-04-11T09:39:28Z</time></trkpt><trkpt lat="40.2639183868155" lon="9.4174710723157"><ele>696.7142857142858</ele><time>2026-04-11T09:39:33Z</time></trkpt><trkpt lat="40.26386873255223" lon="9.417405397623234"><ele>697.1428571428571</ele><time>2026-04-11T09:39:38Z</time></trkpt><trkpt lat="40.26381201258256" lon="9.417346561337983"><ele>697.5714285714286</ele><time>2026-04-11T09:39:44Z</time></trkpt><trkpt lat="40.263753846274135" lon="9.417280601481718"><ele>698.0</ele><time>2026-04-11T09:39:48.999Z</time></trkpt><trkpt lat="40.26368949495213" lon="9.417184779482193"><ele>697.5</ele><time>2026-04-11T09:43:00Z</time></trkpt><trkpt lat="40.26364847869636" lon="9.417116144274077"><ele>697.0</ele><time>2026-04-11T09:43:02Z</time></trkpt><trkpt lat="40.2636104054156" lon="9.4170356508865"><ele>696.5</ele><time>2026-04-11T09:43:04Z</time></trkpt><trkpt lat="40.26366271717951" lon="9.41692267578068"><ele>696.0</ele><time>2026-04-11T09:43:07Z</time></trkpt><trkpt lat="40.26373605956754" lon="9.416851595982438"><ele>695.5</ele><time>2026-04-11T09:43:10Z</time></trkpt><trkpt lat="40.26378866866379" lon="9.416783822267272"><ele>695.0</ele><time>2026-04-11T09:43:12Z</time></trkpt><trkpt lat="40.26385849902163" lon="9.416714957552179"><ele>695.0000000000001</ele><time>2026-04-11T09:43:15Z</time></trkpt><trkpt lat="40.26391760037442" lon="9.416659918575931"><ele>695.0</ele><time>2026-04-11T09:43:17Z</time></trkpt><trkpt lat="40.26397634983969" lon="9.416595848793332"><ele>695.0</ele><time>2026-04-11T09:43:19Z</time></trkpt><trkpt lat="40.26403373152665" lon="9.41654887655975"><ele>695.0</ele><time>2026-04-11T09:43:22Z</time></trkpt><trkpt lat="40.26408741642161" lon="9.416495929888509"><ele>695.0</ele><time>2026-04-11T09:43:50Z</time></trkpt><trkpt lat="40.26415312293798" lon="9.416465902276352"><ele>695.0000000000001</ele><time>2026-04-11T09:43:52Z</time></trkpt><trkpt lat="40.264240209874416" lon="9.41645126980356"><ele>695.0</ele><time>2026-04-11T09:43:54Z</time></trkpt><trkpt lat="40.26431983203632" lon="9.416480534443538"><ele>691.6</ele><time>2026-04-11T09:43:56Z</time></trkpt><trkpt lat="40.26439396239224" lon="9.416499246170611"><ele>688.2</ele><time>2026-04-11T09:43:58Z</time></trkpt><trkpt lat="40.264490584940084" lon="9.416537061301568"><ele>684.8</ele><time>2026-04-11T09:44:00Z</time></trkpt><trkpt lat="40.264590196914504" lon="9.416572541593387"><ele>681.4</ele><time>2026-04-11T09:44:02Z</time></trkpt><trkpt lat="40.264674530223964" lon="9.416660446213392"><ele>678.0</ele><time>2026-04-11T09:44:04Z</time></trkpt><trkpt lat="40.264740850794965" lon="9.416755748341796"><ele>678.0</ele><time>2026-04-11T09:44:06Z</time></trkpt><trkpt lat="40.264772167858425" lon="9.41688251944825"><ele>678.0</ele><time>2026-04-11T09:44:08Z</time></trkpt><trkpt lat="40.264812157112665" lon="9.417005711306992"><ele>678.0</ele><time>2026-04-11T09:44:10Z</time></trkpt><trkpt lat="40.26482909218864" lon="9.417112583757755"><ele>678.0</ele><time>2026-04-11T09:44:12Z</time></trkpt><trkpt lat="40.26481529789233" lon="9.417238623741516"><ele>678.0</ele><time>2026-04-11T09:44:14Z</time></trkpt><trkpt lat="40.26479587272447" lon="9.41735230260074"><ele>682.0</ele><time>2026-04-11T09:44:16Z</time></trkpt><trkpt lat="40.26477179376661" lon="9.417489383748947"><ele>686.0</ele><time>2026-04-11T09:44:18Z</time></trkpt><trkpt lat="40.264752961898594" lon="9.417593812103668"><ele>690.0</ele><time>2026-04-11T09:44:19.999Z</time></trkpt><trkpt lat="40.264725862988215" lon="9.417722792381488"><ele>694.0</ele><time>2026-04-11T09:44:21.999Z</time></trkpt><trkpt lat="40.26471346542323" lon="9.417841602651356"><ele>698.0</ele><time>2026-04-11T09:44:24Z</time></trkpt><trkpt lat="40.264721096206515" lon="9.417967860076791"><ele>699.8</ele><time>2026-04-11T09:44:26Z</time></trkpt><trkpt lat="40.26472165687502" lon="9.418085586024715"><ele>701.5999999999999</ele><time>2026-04-11T09:44:28Z</time></trkpt><trkpt lat="40.264775692305996" lon="9.418168700407627"><ele>703.4000000000001</ele><time>2026-04-11T09:44:29Z</time></trkpt><trkpt lat="40.264837418184946" lon="9.418288093165181"><ele>705.2</ele><time>2026-04-11T09:44:31Z</time></trkpt><trkpt lat="40.2648962977829" lon="9.418404220567334"><ele>707.0</ele><time>2026-04-11T09:44:33Z</time></trkpt><trkpt lat="40.264957490376524" lon="9.418534823834474"><ele>699.0</ele><time>2026-04-11T09:44:35Z</time></trkpt><trkpt lat="40.26499982750804" lon="9.41859989256913"><ele>691.0</ele><time>2026-04-11T09:44:36Z</time></trkpt><trkpt lat="40.265063125884716" lon="9.418641103530243"><ele>683.0</ele><time>2026-04-11T09:44:37Z</time></trkpt><trkpt lat="40.26518732315188" lon="9.418664924346036"><ele>675.0</ele><time>2026-04-11T09:44:39Z</time></trkpt><trkpt lat="40.2652532647804" lon="9.418670997753253"><ele>667.0</ele><time>2026-04-11T09:44:40Z</time></trkpt><trkpt lat="40.26537033276674" lon="9.418681378003617"><ele>659.0</ele><time>2026-04-11T09:44:42Z</time></trkpt><trkpt lat="40.26547991517791" lon="9.418693503806887"><ele>659.0</ele><time>2026-04-11T09:44:44Z</time></trkpt><trkpt lat="40.2655919624347" lon="9.418731660777555"><ele>659.0</ele><time>2026-04-11T09:44:46Z</time></trkpt><trkpt lat="40.26572093456289" lon="9.418776061056791"><ele>659.0</ele><time>2026-04-11T09:44:48Z</time></trkpt><trkpt lat="40.26582928872743" lon="9.418820018853223"><ele>659.0</ele><time>2026-04-11T09:44:50Z</time></trkpt><trkpt lat="40.26588885844582" lon="9.418851062579343"><ele>659.0</ele><time>2026-04-11T09:44:51Z</time></trkpt><trkpt lat="40.26597937078987" lon="9.418888310078632"><ele>654.4000000000001</ele><time>2026-04-11T09:44:53Z</time></trkpt><trkpt lat="40.266013278716684" lon="9.418757617735446"><ele>649.8000000000001</ele><time>2026-04-11T09:44:55Z</time></trkpt><trkpt lat="40.26595778446359" lon="9.418662844613143"><ele>645.2</ele><time>2026-04-11T09:44:57Z</time></trkpt><trkpt lat="40.26586363938318" lon="9.418598849612433"><ele>640.6</ele><time>2026-04-11T09:44:59Z</time></trkpt><trkpt lat="40.26575747503193" lon="9.41852744416106"><ele>636.0</ele><time>2026-04-11T09:45:01Z</time></trkpt><trkpt lat="40.26566746928085" lon="9.41842373877115"><ele>636.0</ele><time>2026-04-11T09:45:03Z</time></trkpt><trkpt lat="40.265589758433904" lon="9.41832818959879"><ele>636.0</ele><time>2026-04-11T09:45:05Z</time></trkpt><trkpt lat="40.265568291671" lon="9.41824839245252"><ele>636.0</ele><time>2026-04-11T09:45:07Z</time></trkpt><trkpt lat="40.26564596496805" lon="9.418174374630018"><ele>636.0</ele><time>2026-04-11T09:45:09Z</time></trkpt><trkpt lat="40.26570343623249" lon="9.418229986033365"><ele>636.0</ele><time>2026-04-11T09:45:10Z</time></trkpt><trkpt lat="40.265792439207246" lon="9.41831432488129"><ele>636.0</ele><time>2026-04-11T09:45:12Z</time></trkpt><trkpt lat="40.26591090550537" lon="9.418370767408355"><ele>636.0</ele><time>2026-04-11T09:45:14Z</time></trkpt><trkpt lat="40.266029179541206" lon="9.41838025721514"><ele>636.0</ele><time>2026-04-11T09:45:16Z</time></trkpt><trkpt lat="40.266140301321435" lon="9.418383642986683"><ele>636.0</ele><time>2026-04-11T09:45:18Z</time></trkpt><trkpt lat="40.266209690186066" lon="9.418266007198547"><ele>636.0</ele><time>2026-04-11T09:45:20Z</time></trkpt><trkpt lat="40.26615234790792" lon="9.418167953848066"><ele>636.0</ele><time>2026-04-11T09:45:21Z</time></trkpt><trkpt lat="40.26605132323527" lon="9.418130907165"><ele>636.0</ele><time>2026-04-11T09:45:23Z</time></trkpt><trkpt lat="40.265944195267004" lon="9.41809009182664"><ele>636.0</ele><time>2026-04-11T09:45:25Z</time></trkpt><trkpt lat="40.26584245798592" lon="9.418024159724673"><ele>636.0</ele><time>2026-04-11T09:45:27Z</time></trkpt><trkpt lat="40.265777847303134" lon="9.41793056486117"><ele>636.0</ele><time>2026-04-11T09:45:29Z</time></trkpt><trkpt lat="40.26577193430018" lon="9.417804142276626"><ele>636.0</ele><time>2026-04-11T09:45:31Z</time></trkpt><trkpt lat="40.26588186384914" lon="9.417772538168997"><ele>632.6</ele><time>2026-04-11T09:45:33Z</time></trkpt><trkpt lat="40.26593046337861" lon="9.41785450486192"><ele>629.2</ele><time>2026-04-11T09:45:34Z</time></trkpt><trkpt lat="40.26604178876686" lon="9.417886102822596"><ele>625.8</ele><time>2026-04-11T09:45:36Z</time></trkpt><trkpt lat="40.26616112333035" lon="9.417926545495508"><ele>622.4</ele><time>2026-04-11T09:45:38Z</time></trkpt><trkpt lat="40.26627870735685" lon="9.417922252963374"><ele>619.0</ele><time>2026-04-11T09:45:40Z</time></trkpt><trkpt lat="40.26636893119118" lon="9.417899793407196"><ele>619.0</ele><time>2026-04-11T09:45:42Z</time></trkpt><trkpt lat="40.26635013713765" lon="9.417740715391659"><ele>619.0</ele><time>2026-04-11T09:45:44Z</time></trkpt><trkpt lat="40.26626015651669" lon="9.417660345000376"><ele>619.0</ele><time>2026-04-11T09:45:46Z</time></trkpt><trkpt lat="40.26615077774535" lon="9.417601074994863"><ele>619.0</ele><time>2026-04-11T09:45:48Z</time></trkpt><trkpt lat="40.26609425524867" lon="9.417563879949533"><ele>619.0</ele><time>2026-04-11T09:45:49Z</time></trkpt><trkpt lat="40.26606151207355" lon="9.417439936643808"><ele>619.0</ele><time>2026-04-11T09:45:51Z</time></trkpt><trkpt lat="40.26617074380931" lon="9.417405412641118"><ele>619.0</ele><time>2026-04-11T09:45:53Z</time></trkpt><trkpt lat="40.266218910893286" lon="9.417467151277986"><ele>619.0</ele><time>2026-04-11T09:45:54Z</time></trkpt><trkpt lat="40.26632571418353" lon="9.417533725523446"><ele>619.0</ele><time>2026-04-11T09:45:56Z</time></trkpt><trkpt lat="40.26643709356611" lon="9.417572043994776"><ele>619.0</ele><time>2026-04-11T09:45:58Z</time></trkpt><trkpt lat="40.266545697702156" lon="9.417508133524253"><ele>619.0</ele><time>2026-04-11T09:46:00Z</time></trkpt><trkpt lat="40.266522069110344" lon="9.41734670570826"><ele>619.0</ele><time>2026-04-11T09:46:02Z</time></trkpt><trkpt lat="40.26645361521107" lon="9.41728924325139"><ele>619.0</ele><time>2026-04-11T09:46:03Z</time></trkpt><trkpt lat="40.26639683512306" lon="9.417230581418575"><ele>619.0</ele><time>2026-04-11T09:46:04Z</time></trkpt><trkpt lat="40.26634458898408" lon="9.417170696261735"><ele>619.0</ele><time>2026-04-11T09:46:05Z</time></trkpt><trkpt lat="40.266291557274265" lon="9.417092314126002"><ele>619.0</ele><time>2026-04-11T09:46:06Z</time></trkpt><trkpt lat="40.26620364002609" lon="9.416955861094516"><ele>616.0</ele><time>2026-04-11T09:46:08Z</time></trkpt><trkpt lat="40.266156010228556" lon="9.416840905394324"><ele>613.0</ele><time>2026-04-11T09:46:10Z</time></trkpt><trkpt lat="40.26614302911767" lon="9.416716383759379"><ele>610.0</ele><time>2026-04-11T09:46:12Z</time></trkpt><trkpt lat="40.26624912767323" lon="9.41663777698491"><ele>607.0</ele><time>2026-04-11T09:46:14Z</time></trkpt><trkpt lat="40.26631145143175" lon="9.416666740473497"><ele>604.0</ele><time>2026-04-11T09:46:15Z</time></trkpt><trkpt lat="40.26641567915831" lon="9.416745184841497"><ele>599.6</ele><time>2026-04-11T09:46:17Z</time></trkpt><trkpt lat="40.26650908869604" lon="9.416827065661176"><ele>595.2</ele><time>2026-04-11T09:46:19Z</time></trkpt><trkpt lat="40.266613048369564" lon="9.416858434125519"><ele>590.8000000000001</ele><time>2026-04-11T09:46:21Z</time></trkpt><trkpt lat="40.266717813622435" lon="9.416746949921942"><ele>586.4</ele><time>2026-04-11T09:46:23Z</time></trkpt><trkpt lat="40.26671681901549" lon="9.416638791169799"><ele>582.0</ele><time>2026-04-11T09:46:24Z</time></trkpt><trkpt lat="40.266646391887264" lon="9.416555623191442"><ele>582.0</ele><time>2026-04-11T09:46:25Z</time></trkpt><trkpt lat="40.266614966687854" lon="9.41647667321814"><ele>582.0</ele><time>2026-04-11T09:46:26Z</time></trkpt><trkpt lat="40.26659224083207" lon="9.41639304193365"><ele>582.0</ele><time>2026-04-11T09:46:27Z</time></trkpt><trkpt lat="40.266539776939254" lon="9.416330905478256"><ele>582.0</ele><time>2026-04-11T09:46:28Z</time></trkpt><trkpt lat="40.266450983142214" lon="9.416242324346698"><ele>582.0</ele><time>2026-04-11T09:46:30.001Z</time></trkpt><trkpt lat="40.266345254795375" lon="9.41621095402959"><ele>582.0</ele><time>2026-04-11T09:46:32.001Z</time></trkpt><trkpt lat="40.26626214884383" lon="9.416144783433312"><ele>584.0</ele><time>2026-04-11T09:46:34.001Z</time></trkpt><trkpt lat="40.266232891121504" lon="9.416048195338735"><ele>586.0</ele><time>2026-04-11T09:46:36.001Z</time></trkpt><trkpt lat="40.26631379459443" lon="9.415984691889255"><ele>588.0</ele><time>2026-04-11T09:46:38.001Z</time></trkpt><trkpt lat="40.26637833174177" lon="9.415979695656866"><ele>590.0</ele><time>2026-04-11T09:46:39.001Z</time></trkpt><trkpt lat="40.266496403112754" lon="9.416000196272785"><ele>592.0</ele><time>2026-04-11T09:46:41.001Z</time></trkpt><trkpt lat="40.26659828503648" lon="9.41602056822036"><ele>586.4</ele><time>2026-04-11T09:46:43.001Z</time></trkpt><trkpt lat="40.26670317574021" lon="9.416048972859688"><ele>580.8000000000001</ele><time>2026-04-11T09:46:45.001Z</time></trkpt><trkpt lat="40.266767015482515" lon="9.416056620926929"><ele>575.2</ele><time>2026-04-11T09:46:46.001Z</time></trkpt><trkpt lat="40.26684939889482" lon="9.416131538685454"><ele>569.6</ele><time>2026-04-11T09:46:48.001Z</time></trkpt><trkpt lat="40.26694809306541" lon="9.416131783799111"><ele>564.0</ele><time>2026-04-11T09:46:50.001Z</time></trkpt><trkpt lat="40.26703522598063" lon="9.416072508883985"><ele>564.0</ele><time>2026-04-11T09:46:52.001Z</time></trkpt><trkpt lat="40.267063817102546" lon="9.415918628116803"><ele>564.0</ele><time>2026-04-11T09:46:54Z</time></trkpt><trkpt lat="40.26703785201954" lon="9.415835444932661"><ele>564.0</ele><time>2026-04-11T09:46:55Z</time></trkpt><trkpt lat="40.26698497119222" lon="9.415702323440001"><ele>564.0</ele><time>2026-04-11T09:46:57Z</time></trkpt><trkpt lat="40.266932319228836" lon="9.41563797642114"><ele>564.0</ele><time>2026-04-11T09:46:58Z</time></trkpt><trkpt lat="40.26685415471176" lon="9.415566822538402"><ele>564.0</ele><time>2026-04-11T09:47:00Z</time></trkpt><trkpt lat="40.266759638563514" lon="9.415496574648436"><ele>564.0</ele><time>2026-04-11T09:47:02Z</time></trkpt><trkpt lat="40.266677869070186" lon="9.415452200314613"><ele>564.0</ele><time>2026-04-11T09:47:04Z</time></trkpt><trkpt lat="40.26659252360617" lon="9.415398731474788"><ele>564.0</ele><time>2026-04-11T09:47:06Z</time></trkpt><trkpt lat="40.26651756609872" lon="9.415361403339665"><ele>564.0</ele><time>2026-04-11T09:47:08Z</time></trkpt><trkpt lat="40.26651262359823" lon="9.415219512195955"><ele>561.0</ele><time>2026-04-11T09:47:10Z</time></trkpt><trkpt lat="40.266576087771355" lon="9.415166357513119"><ele>558.0</ele><time>2026-04-11T09:47:11Z</time></trkpt><trkpt lat="40.26667647272704" lon="9.415236906131307"><ele>555.0</ele><time>2026-04-11T09:47:13Z</time></trkpt><trkpt lat="40.26678448046047" lon="9.415256366067286"><ele>552.0</ele><time>2026-04-11T09:47:15Z</time></trkpt><trkpt lat="40.266864832465906" lon="9.41530503370793"><ele>549.0</ele><time>2026-04-11T09:47:17Z</time></trkpt><trkpt lat="40.26695033941529" lon="9.415314211396808"><ele>549.0</ele><time>2026-04-11T09:47:19Z</time></trkpt><trkpt lat="40.26704090290538" lon="9.415352846742872"><ele>549.0</ele><time>2026-04-11T09:47:21Z</time></trkpt><trkpt lat="40.26714724662246" lon="9.415407444436436"><ele>549.0</ele><time>2026-04-11T09:47:23Z</time></trkpt><trkpt lat="40.26721284226666" lon="9.415408865078904"><ele>549.0</ele><time>2026-04-11T09:47:24Z</time></trkpt><trkpt lat="40.26727379393312" lon="9.415381750331186"><ele>549.0</ele><time>2026-04-11T09:47:25Z</time></trkpt><trkpt lat="40.267323968871246" lon="9.41530899418415"><ele>549.0</ele><time>2026-04-11T09:47:26Z</time></trkpt><trkpt lat="40.2673285584272" lon="9.415199680455348"><ele>549.0</ele><time>2026-04-11T09:47:27Z</time></trkpt><trkpt lat="40.26729825501779" lon="9.415108873395923"><ele>549.0</ele><time>2026-04-11T09:47:28Z</time></trkpt><trkpt lat="40.26723690432604" lon="9.415051696807685"><ele>549.0</ele><time>2026-04-11T09:47:29Z</time></trkpt><trkpt lat="40.2671366062166" lon="9.414940205112677"><ele>549.0</ele><time>2026-04-11T09:47:31Z</time></trkpt><trkpt lat="40.26704622918986" lon="9.414838984341865"><ele>549.0</ele><time>2026-04-11T09:47:33Z</time></trkpt><trkpt lat="40.26698176866383" lon="9.4147557672121"><ele>549.0</ele><time>2026-04-11T09:47:35Z</time></trkpt><trkpt lat="40.2670255862801" lon="9.414625122653149"><ele>549.0</ele><time>2026-04-11T09:47:37Z</time></trkpt><trkpt lat="40.267128017883266" lon="9.414672767249556"><ele>549.0</ele><time>2026-04-11T09:47:39Z</time></trkpt><trkpt lat="40.26719045380743" lon="9.414703398221457"><ele>549.0</ele><time>2026-04-11T09:47:40Z</time></trkpt><trkpt lat="40.26725355777576" lon="9.414732965353343"><ele>549.0</ele><time>2026-04-11T09:47:41Z</time></trkpt><trkpt lat="40.26731958868622" lon="9.414750098843237"><ele>549.0</ele><time>2026-04-11T09:47:42Z</time></trkpt><trkpt lat="40.26743130471263" lon="9.41467891701637"><ele>546.1666666666666</ele><time>2026-04-11T09:47:44Z</time></trkpt><trkpt lat="40.26744656307346" lon="9.414586966506658"><ele>543.3333333333334</ele><time>2026-04-11T09:47:45Z</time></trkpt><trkpt lat="40.26739871017087" lon="9.414498981714663"><ele>540.5</ele><time>2026-04-11T09:47:46Z</time></trkpt><trkpt lat="40.26735323701597" lon="9.414437999932822"><ele>537.6666666666667</ele><time>2026-04-11T09:47:47Z</time></trkpt><trkpt lat="40.267265533145626" lon="9.41434726815877"><ele>534.8333333333334</ele><time>2026-04-11T09:47:49Z</time></trkpt><trkpt lat="40.26718483839945" lon="9.414240808445689"><ele>532.0</ele><time>2026-04-11T09:47:51Z</time></trkpt><trkpt lat="40.26713374427435" lon="9.41419193439427"><ele>532.0</ele><time>2026-04-11T09:47:52Z</time></trkpt><trkpt lat="40.26706676625459" lon="9.414143055002109"><ele>532.0</ele><time>2026-04-11T09:47:53Z</time></trkpt><trkpt lat="40.26699661448611" lon="9.414100726891126"><ele>532.0</ele><time>2026-04-11T09:47:54Z</time></trkpt><trkpt lat="40.26692609186498" lon="9.414082196087486"><ele>532.0</ele><time>2026-04-11T09:47:55Z</time></trkpt><trkpt lat="40.26683547481621" lon="9.414002212454701"><ele>532.0</ele><time>2026-04-11T09:47:57Z</time></trkpt><trkpt lat="40.26686663585046" lon="9.413860109404428"><ele>532.0</ele><time>2026-04-11T09:47:59Z</time></trkpt><trkpt lat="40.266943945474" lon="9.413842236729895"><ele>532.0</ele><time>2026-04-11T09:48:00Z</time></trkpt><trkpt lat="40.267024293389476" lon="9.413867406404396"><ele>532.0</ele><time>2026-04-11T09:48:01Z</time></trkpt><trkpt lat="40.26709642267104" lon="9.413843299822648"><ele>532.0</ele><time>2026-04-11T09:48:02Z</time></trkpt><trkpt lat="40.2671724224969" lon="9.413818223815086"><ele>532.0</ele><time>2026-04-11T09:48:03Z</time></trkpt><trkpt lat="40.2672459410028" lon="9.41380520933009"><ele>532.0</ele><time>2026-04-11T09:48:04Z</time></trkpt><trkpt lat="40.2673358287712" lon="9.413814722956653"><ele>532.0</ele><time>2026-04-11T09:48:05Z</time></trkpt><trkpt lat="40.267408716896306" lon="9.41383164864776"><ele>530.2</ele><time>2026-04-11T09:48:06Z</time></trkpt><trkpt lat="40.267472666882696" lon="9.413860620389817"><ele>528.4000000000001</ele><time>2026-04-11T09:48:07Z</time></trkpt><trkpt lat="40.26756624291161" lon="9.41388604285963"><ele>526.5999999999999</ele><time>2026-04-11T09:48:09Z</time></trkpt><trkpt lat="40.26764895521576" lon="9.413774092146662"><ele>524.8</ele><time>2026-04-11T09:48:11Z</time></trkpt><trkpt lat="40.267642002266165" lon="9.413660391586363"><ele>523.0</ele><time>2026-04-11T09:48:12Z</time></trkpt><trkpt lat="40.2675834424142" lon="9.413580217517223"><ele>521.8571428571428</ele><time>2026-04-11T09:48:13Z</time></trkpt><trkpt lat="40.26752676687823" lon="9.413535161806985"><ele>520.7142857142857</ele><time>2026-04-11T09:48:14Z</time></trkpt><trkpt lat="40.267475574394915" lon="9.413479697437898"><ele>519.5714285714286</ele><time>2026-04-11T09:48:15Z</time></trkpt><trkpt lat="40.267430212925014" lon="9.41341751896386"><ele>518.4285714285713</ele><time>2026-04-11T09:48:16Z</time></trkpt><trkpt lat="40.26738407117336" lon="9.413349802234892"><ele>517.2857142857142</ele><time>2026-04-11T09:48:17Z</time></trkpt><trkpt lat="40.26732557498152" lon="9.41327799202054"><ele>516.1428571428571</ele><time>2026-04-11T09:48:18Z</time></trkpt><trkpt lat="40.26727631803504" lon="9.413219296648418"><ele>515.0</ele><time>2026-04-11T09:48:19Z</time></trkpt><trkpt lat="40.26723008719623" lon="9.413157470683231"><ele>515.0</ele><time>2026-04-11T09:48:20Z</time></trkpt><trkpt lat="40.26718470930441" lon="9.413095546603648"><ele>515.0</ele><time>2026-04-11T09:48:21Z</time></trkpt><trkpt lat="40.26716881883621" lon="9.41296464941979"><ele>515.0</ele><time>2026-04-11T09:48:23Z</time></trkpt><trkpt lat="40.26720434469688" lon="9.412826809789891"><ele>515.0</ele><time>2026-04-11T09:48:25Z</time></trkpt><trkpt lat="40.26726966317489" lon="9.412787793297555"><ele>515.0</ele><time>2026-04-11T09:48:26Z</time></trkpt><trkpt lat="40.26739759206993" lon="9.412803825264145"><ele>509.75</ele><time>2026-04-11T09:48:28Z</time></trkpt><trkpt lat="40.26751073485518" lon="9.412785945691745"><ele>504.5</ele><time>2026-04-11T09:48:30Z</time></trkpt><trkpt lat="40.267628990914716" lon="9.41281876075616"><ele>499.25</ele><time>2026-04-11T09:48:32Z</time></trkpt><trkpt lat="40.267744545239175" lon="9.412804806294112"><ele>494.0</ele><time>2026-04-11T09:48:34Z</time></trkpt><trkpt lat="40.26787040686999" lon="9.412803462456614"><ele>494.0</ele><time>2026-04-11T09:48:36.001Z</time></trkpt><trkpt lat="40.267929756133256" lon="9.412756484516814"><ele>494.0</ele><time>2026-04-11T09:48:37.001Z</time></trkpt><trkpt lat="40.26799087226834" lon="9.412588687939232"><ele>494.0</ele><time>2026-04-11T09:48:39.001Z</time></trkpt><trkpt lat="40.267969021697304" lon="9.41249554521882"><ele>494.0</ele><time>2026-04-11T09:48:40.001Z</time></trkpt><trkpt lat="40.26794865404212" lon="9.412404803582849"><ele>494.0</ele><time>2026-04-11T09:48:41.001Z</time></trkpt><trkpt lat="40.26788758250952" lon="9.412262255836023"><ele>494.0</ele><time>2026-04-11T09:48:43.001Z</time></trkpt><trkpt lat="40.26785515272012" lon="9.412190883155791"><ele>494.0</ele><time>2026-04-11T09:48:44.001Z</time></trkpt><trkpt lat="40.267821822041014" lon="9.412117449290683"><ele>494.0</ele><time>2026-04-11T09:48:45.001Z</time></trkpt><trkpt lat="40.267744495634986" lon="9.411989774014637"><ele>494.0</ele><time>2026-04-11T09:48:47.001Z</time></trkpt><trkpt lat="40.26766036568875" lon="9.411870968555144"><ele>494.0</ele><time>2026-04-11T09:48:49.001Z</time></trkpt><trkpt lat="40.26756410544799" lon="9.411759359503254"><ele>492.49999999999994</ele><time>2026-04-11T09:48:51.001Z</time></trkpt><trkpt lat="40.26750581770683" lon="9.411701068702513"><ele>491.0</ele><time>2026-04-11T09:48:52.001Z</time></trkpt><trkpt lat="40.267456895595615" lon="9.411644412484511"><ele>489.5</ele><time>2026-04-11T09:48:53.001Z</time></trkpt><trkpt lat="40.267397945698434" lon="9.41158474928963"><ele>488.0</ele><time>2026-04-11T09:48:54.001Z</time></trkpt><trkpt lat="40.26734812463079" lon="9.411524752283013"><ele>486.49999999999994</ele><time>2026-04-11T09:48:55.001Z</time></trkpt><trkpt lat="40.26723069572059" lon="9.411417954109172"><ele>485.0</ele><time>2026-04-11T09:48:57.001Z</time></trkpt><trkpt lat="40.26717724934244" lon="9.411370385172813"><ele>482.4</ele><time>2026-04-11T09:48:58.001Z</time></trkpt><trkpt lat="40.26710116733024" lon="9.411290024300556"><ele>479.8</ele><time>2026-04-11T09:49:00.001Z</time></trkpt><trkpt lat="40.26711161939417" lon="9.41115841843643"><ele>477.20000000000005</ele><time>2026-04-11T09:49:02.001Z</time></trkpt><trkpt lat="40.267194354436725" lon="9.411102477733106"><ele>474.6</ele><time>2026-04-11T09:49:04Z</time></trkpt><trkpt lat="40.267318917621395" lon="9.411149654655098"><ele>472.0</ele><time>2026-04-11T09:49:06Z</time></trkpt><trkpt lat="40.26738984802153" lon="9.411174144334705"><ele>471.50000000000006</ele><time>2026-04-11T09:49:07Z</time></trkpt><trkpt lat="40.26745355464818" lon="9.411215045626694"><ele>471.0</ele><time>2026-04-11T09:49:08Z</time></trkpt><trkpt lat="40.26752246546313" lon="9.411261963243303"><ele>470.5</ele><time>2026-04-11T09:49:09Z</time></trkpt><trkpt lat="40.26759594387851" lon="9.41130161847631"><ele>470.0</ele><time>2026-04-11T09:49:10Z</time></trkpt><trkpt lat="40.26767313228676" lon="9.411352917640668"><ele>469.50000000000006</ele><time>2026-04-11T09:49:11Z</time></trkpt><trkpt lat="40.26772957944479" lon="9.411419932550103"><ele>469.0</ele><time>2026-04-11T09:49:12Z</time></trkpt><trkpt lat="40.26779749444319" lon="9.411477973083237"><ele>470.0</ele><time>2026-04-11T09:49:13Z</time></trkpt><trkpt lat="40.267869870612486" lon="9.411533094772805"><ele>471.0</ele><time>2026-04-11T09:49:14Z</time></trkpt><trkpt lat="40.26796116065923" lon="9.411594453082687"><ele>472.0</ele><time>2026-04-11T09:49:16Z</time></trkpt><trkpt lat="40.26805674270274" lon="9.411636018471851"><ele>473.0</ele><time>2026-04-11T09:49:18Z</time></trkpt><trkpt lat="40.268151521432486" lon="9.411590645257615"><ele>474.0</ele><time>2026-04-11T09:49:20Z</time></trkpt><trkpt lat="40.26815756453653" lon="9.41149470269518"><ele>474.0</ele><time>2026-04-11T09:49:21Z</time></trkpt><trkpt lat="40.26817836284592" lon="9.411344176644423"><ele>474.0</ele><time>2026-04-11T09:49:23Z</time></trkpt><trkpt lat="40.26820220899932" lon="9.411205468701807"><ele>474.0</ele><time>2026-04-11T09:49:25Z</time></trkpt><trkpt lat="40.268294550849625" lon="9.411114733789905"><ele>474.0</ele><time>2026-04-11T09:49:27Z</time></trkpt><trkpt lat="40.26836605254705" lon="9.411151626253703"><ele>474.0</ele><time>2026-04-11T09:49:28Z</time></trkpt><trkpt lat="40.26843933437009" lon="9.411183247891646"><ele>472.0</ele><time>2026-04-11T09:49:29Z</time></trkpt><trkpt lat="40.26851335706064" lon="9.411183247898029"><ele>470.0</ele><time>2026-04-11T09:49:30Z</time></trkpt><trkpt lat="40.2685764534062" lon="9.411124669301804"><ele>468.0</ele><time>2026-04-11T09:49:31Z</time></trkpt><trkpt lat="40.26863546054572" lon="9.411057011842523"><ele>466.0</ele><time>2026-04-11T09:49:32Z</time></trkpt><trkpt lat="40.268695104663564" lon="9.410980149409328"><ele>464.0</ele><time>2026-04-11T09:49:33Z</time></trkpt><trkpt lat="40.2687492455162" lon="9.410890569631604"><ele>462.0</ele><time>2026-04-11T09:49:34Z</time></trkpt><trkpt lat="40.26880553744298" lon="9.41080158998335"><ele>462.0</ele><time>2026-04-11T09:49:35Z</time></trkpt><trkpt lat="40.2688601444817" lon="9.410737451934867"><ele>462.0</ele><time>2026-04-11T09:49:36Z</time></trkpt><trkpt lat="40.268895197049716" lon="9.410667224734128"><ele>462.0</ele><time>2026-04-11T09:49:37Z</time></trkpt><trkpt lat="40.26894995803473" lon="9.410527667066587"><ele>462.0</ele><time>2026-04-11T09:49:39Z</time></trkpt><trkpt lat="40.268985328365865" lon="9.410451030860374"><ele>462.0</ele><time>2026-04-11T09:49:40Z</time></trkpt><trkpt lat="40.269011076901045" lon="9.410372655456342"><ele>462.0</ele><time>2026-04-11T09:49:41Z</time></trkpt><trkpt lat="40.269032693972136" lon="9.410292445496744"><ele>459.3333333333333</ele><time>2026-04-11T09:49:42Z</time></trkpt><trkpt lat="40.26906588927283" lon="9.41022030431342"><ele>456.66666666666663</ele><time>2026-04-11T09:49:43Z</time></trkpt><trkpt lat="40.269087564794944" lon="9.410135030856118"><ele>454.0</ele><time>2026-04-11T09:49:44Z</time></trkpt><trkpt lat="40.269098397116736" lon="9.410040676103689"><ele>451.3333333333333</ele><time>2026-04-11T09:49:45Z</time></trkpt><trkpt lat="40.26914538060089" lon="9.409982698874169"><ele>448.66666666666663</ele><time>2026-04-11T09:49:46Z</time></trkpt><trkpt lat="40.26922527183314" lon="9.409852991168604"><ele>446.0</ele><time>2026-04-11T09:49:48Z</time></trkpt><trkpt lat="40.269267619680704" lon="9.409786886719015"><ele>445.99999999999994</ele><time>2026-04-11T09:49:49Z</time></trkpt><trkpt lat="40.26930886292121" lon="9.409723366349333"><ele>446.0</ele><time>2026-04-11T09:49:51Z</time></trkpt><trkpt lat="40.26936163593718" lon="9.409644143979337"><ele>446.0</ele><time>2026-04-11T09:49:55Z</time></trkpt><trkpt lat="40.269288419572426" lon="9.409463986223122"><ele>446.0</ele><time>2026-04-11T09:49:58Z</time></trkpt><trkpt lat="40.26923209877934" lon="9.409407303247264"><ele>445.99999999999994</ele><time>2026-04-11T09:49:59Z</time></trkpt><trkpt lat="40.26917747967361" lon="9.409348489243984"><ele>446.0</ele><time>2026-04-11T09:50:00Z</time></trkpt><trkpt lat="40.26912164719521" lon="9.409280071161033"><ele>445.0</ele><time>2026-04-11T09:50:01Z</time></trkpt><trkpt lat="40.269056058584496" lon="9.409197524459023"><ele>444.0</ele><time>2026-04-11T09:50:02Z</time></trkpt><trkpt lat="40.26898137692856" lon="9.409108598490278"><ele>443.0</ele><time>2026-04-11T09:50:03Z</time></trkpt><trkpt lat="40.2688980625336" lon="9.409019051736372"><ele>442.0</ele><time>2026-04-11T09:50:04Z</time></trkpt><trkpt lat="40.2688074696248" lon="9.408929851460732"><ele>441.0</ele><time>2026-04-11T09:50:05Z</time></trkpt><trkpt lat="40.26871286009859" lon="9.408863035699783"><ele>438.25</ele><time>2026-04-11T09:50:06Z</time></trkpt><trkpt lat="40.26860279488446" lon="9.40881460020166"><ele>435.5</ele><time>2026-04-11T09:50:07Z</time></trkpt><trkpt lat="40.268473558418634" lon="9.408794396209581"><ele>432.75</ele><time>2026-04-11T09:50:08Z</time></trkpt><trkpt lat="40.268343988091274" lon="9.40879151051684"><ele>430.0</ele><time>2026-04-11T09:50:09Z</time></trkpt><trkpt lat="40.268208284122814" lon="9.408792900042377"><ele>429.75</ele><time>2026-04-11T09:50:10Z</time></trkpt><trkpt lat="40.26807052702655" lon="9.408785518281544"><ele>429.5</ele><time>2026-04-11T09:50:11Z</time></trkpt><trkpt lat="40.267933141651554" lon="9.408764862453946"><ele>429.25</ele><time>2026-04-11T09:50:12Z</time></trkpt><trkpt lat="40.267804499323674" lon="9.408731194164679"><ele>429.0</ele><time>2026-04-11T09:50:13Z</time></trkpt><trkpt lat="40.26768314302739" lon="9.408715149432002"><ele>429.0</ele><time>2026-04-11T09:50:14Z</time></trkpt><trkpt lat="40.2675614029496" lon="9.408701870556259"><ele>429.0</ele><time>2026-04-11T09:50:15Z</time></trkpt><trkpt lat="40.26744506093464" lon="9.40868378334082"><ele>429.0</ele><time>2026-04-11T09:50:16Z</time></trkpt><trkpt lat="40.26733163701854" lon="9.408658798017488"><ele>429.0</ele><time>2026-04-11T09:50:17Z</time></trkpt><trkpt lat="40.26722216340997" lon="9.408634877327412"><ele>430.0</ele><time>2026-04-11T09:50:18Z</time></trkpt><trkpt lat="40.267115099664444" lon="9.408601771311393"><ele>431.0</ele><time>2026-04-11T09:50:19Z</time></trkpt><trkpt lat="40.26701610642461" lon="9.40855454145401"><ele>432.0</ele><time>2026-04-11T09:50:20Z</time></trkpt><trkpt lat="40.26691884540382" lon="9.408496098101413"><ele>433.0</ele><time>2026-04-11T09:50:21Z</time></trkpt><trkpt lat="40.266827809889875" lon="9.40842362247168"><ele>434.0</ele><time>2026-04-11T09:50:22Z</time></trkpt><trkpt lat="40.266741397657256" lon="9.408356064914848"><ele>434.0</ele><time>2026-04-11T09:50:23Z</time></trkpt><trkpt lat="40.266650487030674" lon="9.408286168578114"><ele>434.0</ele><time>2026-04-11T09:50:24Z</time></trkpt><trkpt lat="40.266586308086524" lon="9.408203841511174"><ele>434.0</ele><time>2026-04-11T09:50:25Z</time></trkpt><trkpt lat="40.26655879733672" lon="9.40808477877963"><ele>434.0</ele><time>2026-04-11T09:50:26Z</time></trkpt><trkpt lat="40.266560120284204" lon="9.407939093122673"><ele>434.0</ele><time>2026-04-11T09:50:27Z</time></trkpt><trkpt lat="40.26658397800669" lon="9.40777649111115"><ele>433.5</ele><time>2026-04-11T09:50:28Z</time></trkpt><trkpt lat="40.26659616903266" lon="9.407605947128156"><ele>433.0</ele><time>2026-04-11T09:50:29Z</time></trkpt><trkpt lat="40.26660932641129" lon="9.407444423017491"><ele>432.5</ele><time>2026-04-11T09:50:30Z</time></trkpt><trkpt lat="40.26661464664027" lon="9.407286205364167"><ele>432.0</ele><time>2026-04-11T09:50:31Z</time></trkpt><trkpt lat="40.26658585311398" lon="9.407133173063903"><ele>430.75</ele><time>2026-04-11T09:50:32Z</time></trkpt><trkpt lat="40.266571362638224" lon="9.406977485382573"><ele>429.5</ele><time>2026-04-11T09:50:33Z</time></trkpt><trkpt lat="40.26654616057384" lon="9.406829456958253"><ele>428.25</ele><time>2026-04-11T09:50:34Z</time></trkpt><trkpt lat="40.266512775579635" lon="9.406682266989778"><ele>427.0</ele><time>2026-04-11T09:50:35Z</time></trkpt><trkpt lat="40.26647986650787" lon="9.40653433937832"><ele>427.0</ele><time>2026-04-11T09:50:36Z</time></trkpt><trkpt lat="40.26644877893011" lon="9.406394952211299"><ele>427.00000000000006</ele><time>2026-04-11T09:50:37Z</time></trkpt><trkpt lat="40.26641233200154" lon="9.406270846926112"><ele>427.00000000000006</ele><time>2026-04-11T09:50:38Z</time></trkpt><trkpt lat="40.26638605744597" lon="9.40615311453303"><ele>427.0</ele><time>2026-04-11T09:50:39Z</time></trkpt><trkpt lat="40.26638022225019" lon="9.406025024729312"><ele>427.0</ele><time>2026-04-11T09:50:40Z</time></trkpt><trkpt lat="40.266390628051845" lon="9.405884831404185"><ele>426.25</ele><time>2026-04-11T09:50:41Z</time></trkpt><trkpt lat="40.266423919061786" lon="9.405740958992393"><ele>425.5</ele><time>2026-04-11T09:50:42.001Z</time></trkpt><trkpt lat="40.26648189472707" lon="9.405589720414657"><ele>424.75</ele><time>2026-04-11T09:50:43.001Z</time></trkpt><trkpt lat="40.266578361424195" lon="9.405477563335685"><ele>424.0</ele><time>2026-04-11T09:50:44.001Z</time></trkpt><trkpt lat="40.266662413970316" lon="9.405348888016057"><ele>425.5</ele><time>2026-04-11T09:50:45.001Z</time></trkpt><trkpt lat="40.266771853085025" lon="9.405248391043145"><ele>427.0</ele><time>2026-04-11T09:50:46.001Z</time></trkpt><trkpt lat="40.26687190707907" lon="9.405125382879707"><ele>428.5</ele><time>2026-04-11T09:50:47.001Z</time></trkpt><trkpt lat="40.26697108305144" lon="9.405002433078087"><ele>430.0</ele><time>2026-04-11T09:50:48.001Z</time></trkpt><trkpt lat="40.26707512949071" lon="9.40487208001176"><ele>430.0</ele><time>2026-04-11T09:50:49.001Z</time></trkpt><trkpt lat="40.2671679479762" lon="9.404727254168503"><ele>430.0</ele><time>2026-04-11T09:50:50.001Z</time></trkpt><trkpt lat="40.267267906966865" lon="9.404605173906365"><ele>430.0</ele><time>2026-04-11T09:50:51.001Z</time></trkpt><trkpt lat="40.267348485034546" lon="9.404476947296128"><ele>430.0</ele><time>2026-04-11T09:50:52.001Z</time></trkpt><trkpt lat="40.26742668671105" lon="9.404364790039354"><ele>427.75</ele><time>2026-04-11T09:50:53.001Z</time></trkpt><trkpt lat="40.2675049463527" lon="9.404245052531289"><ele>425.5</ele><time>2026-04-11T09:50:54.001Z</time></trkpt><trkpt lat="40.26758449196122" lon="9.404123816052339"><ele>423.25</ele><time>2026-04-11T09:50:55.001Z</time></trkpt><trkpt lat="40.26765920437684" lon="9.404010611694998"><ele>421.0</ele><time>2026-04-11T09:50:56.001Z</time></trkpt><trkpt lat="40.26772566676976" lon="9.403897487960734"><ele>421.4</ele><time>2026-04-11T09:50:57.001Z</time></trkpt><trkpt lat="40.26776783904123" lon="9.403770308482803"><ele>421.8</ele><time>2026-04-11T09:50:58.001Z</time></trkpt><trkpt lat="40.26777902294756" lon="9.403631718363336"><ele>422.2</ele><time>2026-04-11T09:50:59.001Z</time></trkpt><trkpt lat="40.26775297550282" lon="9.403494030969535"><ele>422.59999999999997</ele><time>2026-04-11T09:51:00.001Z</time></trkpt><trkpt lat="40.26770310206442" lon="9.40336251727795"><ele>423.0</ele><time>2026-04-11T09:51:01.001Z</time></trkpt><trkpt lat="40.26765319450475" lon="9.403233966429294"><ele>423.0</ele><time>2026-04-11T09:51:02.001Z</time></trkpt><trkpt lat="40.26757998144004" lon="9.403072316929668"><ele>423.0</ele><time>2026-04-11T09:51:03.001Z</time></trkpt><trkpt lat="40.26749562576612" lon="9.402930540431537"><ele>423.0</ele><time>2026-04-11T09:51:04.001Z</time></trkpt><trkpt lat="40.26740723362399" lon="9.40281320808657"><ele>423.0</ele><time>2026-04-11T09:51:05Z</time></trkpt><trkpt lat="40.2673078717088" lon="9.402716913598729"><ele>420.75</ele><time>2026-04-11T09:51:06Z</time></trkpt><trkpt lat="40.2671916253796" lon="9.402637406228273"><ele>418.5</ele><time>2026-04-11T09:51:07Z</time></trkpt><trkpt lat="40.26705747030027" lon="9.402579774032224"><ele>416.25</ele><time>2026-04-11T09:51:08Z</time></trkpt><trkpt lat="40.266923349192474" lon="9.402521082450544"><ele>414.0</ele><time>2026-04-11T09:51:09Z</time></trkpt><trkpt lat="40.26679739902556" lon="9.402457722746858"><ele>414.0</ele><time>2026-04-11T09:51:10Z</time></trkpt><trkpt lat="40.266678174763456" lon="9.402393864605594"><ele>414.0</ele><time>2026-04-11T09:51:11Z</time></trkpt><trkpt lat="40.26656398308662" lon="9.402331600618915"><ele>414.0</ele><time>2026-04-11T09:51:12Z</time></trkpt><trkpt lat="40.26645020578235" lon="9.402271378693039"><ele>414.0</ele><time>2026-04-11T09:51:13Z</time></trkpt><trkpt lat="40.26633707777936" lon="9.402221062321479"><ele>412.2</ele><time>2026-04-11T09:51:14Z</time></trkpt><trkpt lat="40.266227304496645" lon="9.402164541308256"><ele>410.4</ele><time>2026-04-11T09:51:15Z</time></trkpt><trkpt lat="40.26612673809259" lon="9.402097157995582"><ele>408.6</ele><time>2026-04-11T09:51:16Z</time></trkpt><trkpt lat="40.26603142404476" lon="9.402036605657491"><ele>406.8</ele><time>2026-04-11T09:51:17Z</time></trkpt><trkpt lat="40.26593253219951" lon="9.401977202814308"><ele>405.0</ele><time>2026-04-11T09:51:18Z</time></trkpt><trkpt lat="40.26585385767381" lon="9.401862715220851"><ele>405.0</ele><time>2026-04-11T09:51:19Z</time></trkpt><trkpt lat="40.26579379138246" lon="9.401713950260808"><ele>405.0</ele><time>2026-04-11T09:51:20Z</time></trkpt><trkpt lat="40.2657301566209" lon="9.40157249873327"><ele>405.0</ele><time>2026-04-11T09:51:21Z</time></trkpt><trkpt lat="40.265664396370795" lon="9.401455164750855"><ele>405.0</ele><time>2026-04-11T09:51:22Z</time></trkpt><trkpt lat="40.26562621222682" lon="9.401357384876189"><ele>405.0</ele><time>2026-04-11T09:51:23Z</time></trkpt><trkpt lat="40.265600365982245" lon="9.401211804091187"><ele>403.5</ele><time>2026-04-11T09:51:25Z</time></trkpt><trkpt lat="40.26564211107647" lon="9.401147566322829"><ele>402.0</ele><time>2026-04-11T09:51:26Z</time></trkpt><trkpt lat="40.26567974934303" lon="9.40104305888021"><ele>400.5</ele><time>2026-04-11T09:51:28Z</time></trkpt><trkpt lat="40.26585007133127" lon="9.401202848119732"><ele>399.0</ele><time>2026-04-11T09:51:29Z</time></trkpt><trkpt lat="40.265940722688924" lon="9.401202848121306"><ele>399.0</ele><time>2026-04-11T09:51:30Z</time></trkpt><trkpt lat="40.26604343702958" lon="9.401178315862467"><ele>399.0</ele><time>2026-04-11T09:51:31Z</time></trkpt><trkpt lat="40.26615725255761" lon="9.40113724854881"><ele>399.0</ele><time>2026-04-11T09:51:32Z</time></trkpt><trkpt lat="40.26628138751992" lon="9.401125746096348"><ele>399.0</ele><time>2026-04-11T09:51:33Z</time></trkpt><trkpt lat="40.26638290788909" lon="9.401095595255299"><ele>398.0</ele><time>2026-04-11T09:51:34Z</time></trkpt><trkpt lat="40.266469632254214" lon="9.401023577176876"><ele>397.0</ele><time>2026-04-11T09:51:35Z</time></trkpt><trkpt lat="40.266551827891305" lon="9.400947504871723"><ele>396.0</ele><time>2026-04-11T09:51:36Z</time></trkpt><trkpt lat="40.266641354561706" lon="9.400880340998173"><ele>395.0</ele><time>2026-04-11T09:51:37Z</time></trkpt><trkpt lat="40.26671705799469" lon="9.400814188674937"><ele>394.0</ele><time>2026-04-11T09:51:38Z</time></trkpt><trkpt lat="40.266686094912394" lon="9.400655543776544"><ele>394.0</ele><time>2026-04-11T09:51:39Z</time></trkpt><trkpt lat="40.26668162036234" lon="9.400537066976788"><ele>394.0</ele><time>2026-04-11T09:51:40Z</time></trkpt><trkpt lat="40.26673483818882" lon="9.400460790585813"><ele>394.0</ele><time>2026-04-11T09:51:41Z</time></trkpt><trkpt lat="40.26683900211247" lon="9.40040940228483"><ele>394.0</ele><time>2026-04-11T09:51:42Z</time></trkpt><trkpt lat="40.266948957802235" lon="9.400354653079969"><ele>394.0</ele><time>2026-04-11T09:51:43Z</time></trkpt><trkpt lat="40.26705892342338" lon="9.400272607277088"><ele>391.25</ele><time>2026-04-11T09:51:44Z</time></trkpt><trkpt lat="40.26717427657769" lon="9.40018947141607"><ele>388.5</ele><time>2026-04-11T09:51:45Z</time></trkpt><trkpt lat="40.26731126980489" lon="9.400131714398999"><ele>385.75</ele><time>2026-04-11T09:51:46Z</time></trkpt><trkpt lat="40.267445896741066" lon="9.400039158000332"><ele>383.0</ele><time>2026-04-11T09:51:47Z</time></trkpt><trkpt lat="40.26757864527032" lon="9.399946960185957"><ele>383.0</ele><time>2026-04-11T09:51:48Z</time></trkpt><trkpt lat="40.26770835338514" lon="9.39986085729274"><ele>383.0</ele><time>2026-04-11T09:51:49Z</time></trkpt><trkpt lat="40.267847543532795" lon="9.399783681510126"><ele>383.0</ele><time>2026-04-11T09:51:50Z</time></trkpt><trkpt lat="40.26798370865523" lon="9.399725168387334"><ele>383.0</ele><time>2026-04-11T09:51:51Z</time></trkpt><trkpt lat="40.268132099618356" lon="9.399667432652816"><ele>380.0</ele><time>2026-04-11T09:51:52Z</time></trkpt><trkpt lat="40.268269238563335" lon="9.399591722056465"><ele>377.0</ele><time>2026-04-11T09:51:53Z</time></trkpt><trkpt lat="40.26841193513262" lon="9.399550610488426"><ele>374.0</ele><time>2026-04-11T09:51:54Z</time></trkpt><trkpt lat="40.26853881879275" lon="9.399447210784857"><ele>371.0</ele><time>2026-04-11T09:51:55Z</time></trkpt><trkpt lat="40.26864684860758" lon="9.399341075413599"><ele>371.0</ele><time>2026-04-11T09:51:56Z</time></trkpt><trkpt lat="40.2687422742663" lon="9.399211613637"><ele>371.0</ele><time>2026-04-11T09:51:57Z</time></trkpt><trkpt lat="40.268833385414794" lon="9.399089139699207"><ele>371.0</ele><time>2026-04-11T09:51:58Z</time></trkpt><trkpt lat="40.268920626353136" lon="9.398974022998244"><ele>371.0</ele><time>2026-04-11T09:51:59Z</time></trkpt><trkpt lat="40.26900974754653" lon="9.398861007509256"><ele>369.25</ele><time>2026-04-11T09:52:00Z</time></trkpt><trkpt lat="40.26910747913934" lon="9.39876014709071"><ele>367.5</ele><time>2026-04-11T09:52:01Z</time></trkpt><trkpt lat="40.26920446123292" lon="9.398646309611927"><ele>365.75</ele><time>2026-04-11T09:52:02Z</time></trkpt><trkpt lat="40.26930863371681" lon="9.398535365848344"><ele>364.0</ele><time>2026-04-11T09:52:03Z</time></trkpt><trkpt lat="40.26942319359933" lon="9.398471034593017"><ele>364.0</ele><time>2026-04-11T09:52:04Z</time></trkpt><trkpt lat="40.26954523868928" lon="9.398417128711758"><ele>364.0</ele><time>2026-04-11T09:52:05Z</time></trkpt><trkpt lat="40.26967452502271" lon="9.398372682170255"><ele>364.0</ele><time>2026-04-11T09:52:06Z</time></trkpt><trkpt lat="40.269802650568394" lon="9.39832983266653"><ele>364.0</ele><time>2026-04-11T09:52:07Z</time></trkpt><trkpt lat="40.26993275817599" lon="9.398268510102582"><ele>364.25</ele><time>2026-04-11T09:52:08Z</time></trkpt><trkpt lat="40.27005499933357" lon="9.398232362070573"><ele>364.5</ele><time>2026-04-11T09:52:09Z</time></trkpt><trkpt lat="40.27016575644668" lon="9.398186674963377"><ele>364.75</ele><time>2026-04-11T09:52:10Z</time></trkpt><trkpt lat="40.27028099284249" lon="9.398174097753527"><ele>365.0</ele><time>2026-04-11T09:52:11Z</time></trkpt><trkpt lat="40.270379912849045" lon="9.398149890339019"><ele>365.0</ele><time>2026-04-11T09:52:12Z</time></trkpt><trkpt lat="40.27047364943698" lon="9.398208402687487"><ele>365.0</ele><time>2026-04-11T09:52:13Z</time></trkpt><trkpt lat="40.27054952699271" lon="9.398275632866643"><ele>365.0</ele><time>2026-04-11T09:52:14Z</time></trkpt><trkpt lat="40.27061605112488" lon="9.398358547544879"><ele>365.0</ele><time>2026-04-11T09:52:15Z</time></trkpt><trkpt lat="40.27063689177285" lon="9.398503624636442"><ele>365.0</ele><time>2026-04-11T09:52:16Z</time></trkpt><trkpt lat="40.27066916571195" lon="9.39866414832634"><ele>363.6</ele><time>2026-04-11T09:52:17Z</time></trkpt><trkpt lat="40.27069997704525" lon="9.39882530657506"><ele>362.2</ele><time>2026-04-11T09:52:18Z</time></trkpt><trkpt lat="40.270743269966246" lon="9.398960335216028"><ele>360.79999999999995</ele><time>2026-04-11T09:52:19Z</time></trkpt><trkpt lat="40.27076200338848" lon="9.399086006718658"><ele>359.4</ele><time>2026-04-11T09:52:20Z</time></trkpt><trkpt lat="40.27079033985944" lon="9.399182729793562"><ele>358.0</ele><time>2026-04-11T09:52:21Z</time></trkpt><trkpt lat="40.270793109718895" lon="9.399268129092919"><ele>358.0</ele><time>2026-04-11T09:52:22Z</time></trkpt><trkpt lat="40.2708242804949" lon="9.399348930914892"><ele>358.0</ele><time>2026-04-11T09:52:23Z</time></trkpt><trkpt lat="40.27088123784128" lon="9.399421405157392"><ele>358.0</ele><time>2026-04-11T09:52:24Z</time></trkpt><trkpt lat="40.27095730610787" lon="9.399484342772274"><ele>358.0</ele><time>2026-04-11T09:52:25Z</time></trkpt><trkpt lat="40.271072754392755" lon="9.39949981544355"><ele>358.0</ele><time>2026-04-11T09:52:26Z</time></trkpt><trkpt lat="40.27117379872647" lon="9.399529538695527"><ele>358.0</ele><time>2026-04-11T09:52:27Z</time></trkpt><trkpt lat="40.271295382706356" lon="9.399550514346444"><ele>358.0</ele><time>2026-04-11T09:52:28Z</time></trkpt><trkpt lat="40.271414860605766" lon="9.399574945724908"><ele>358.0</ele><time>2026-04-11T09:52:29Z</time></trkpt><trkpt lat="40.27152042833958" lon="9.399645772271242"><ele>358.0</ele><time>2026-04-11T09:52:30Z</time></trkpt><trkpt lat="40.271626454030915" lon="9.399690142027355"><ele>356.4</ele><time>2026-04-11T09:52:31Z</time></trkpt><trkpt lat="40.271707722804194" lon="9.399769815135729"><ele>354.79999999999995</ele><time>2026-04-11T09:52:32Z</time></trkpt><trkpt lat="40.271763935127616" lon="9.399880666180449"><ele>353.2</ele><time>2026-04-11T09:52:33Z</time></trkpt><trkpt lat="40.27180177144964" lon="9.400007844515367"><ele>351.6</ele><time>2026-04-11T09:52:34Z</time></trkpt><trkpt lat="40.271837884712845" lon="9.400146391734854"><ele>350.0</ele><time>2026-04-11T09:52:35Z</time></trkpt><trkpt lat="40.27187188668143" lon="9.400288989709448"><ele>350.0</ele><time>2026-04-11T09:52:36Z</time></trkpt><trkpt lat="40.27190322529425" lon="9.40042617890146"><ele>350.0</ele><time>2026-04-11T09:52:37Z</time></trkpt><trkpt lat="40.27194363711023" lon="9.400564053200375"><ele>350.0</ele><time>2026-04-11T09:52:38Z</time></trkpt><trkpt lat="40.27194861679306" lon="9.400716210531828"><ele>350.0</ele><time>2026-04-11T09:52:39Z</time></trkpt><trkpt lat="40.27190738718827" lon="9.400860134899858"><ele>349.25</ele><time>2026-04-11T09:52:40Z</time></trkpt><trkpt lat="40.27188594783279" lon="9.401027248244906"><ele>348.5</ele><time>2026-04-11T09:52:41Z</time></trkpt><trkpt lat="40.271853871052016" lon="9.40116422681463"><ele>347.75</ele><time>2026-04-11T09:52:41.999Z</time></trkpt><trkpt lat="40.271864521992086" lon="9.40131480017037"><ele>347.0</ele><time>2026-04-11T09:52:42.999Z</time></trkpt><trkpt lat="40.27189144058888" lon="9.401468291447632"><ele>346.75</ele><time>2026-04-11T09:52:43.999Z</time></trkpt><trkpt lat="40.27200555027468" lon="9.40157753533069"><ele>346.5</ele><time>2026-04-11T09:52:44.999Z</time></trkpt><trkpt lat="40.27210662059258" lon="9.401664922636431"><ele>346.25</ele><time>2026-04-11T09:52:45.999Z</time></trkpt><trkpt lat="40.27221848320202" lon="9.40171244985055"><ele>346.0</ele><time>2026-04-11T09:52:46.999Z</time></trkpt><trkpt lat="40.27233646570821" lon="9.401726888831488"><ele>344.5</ele><time>2026-04-11T09:52:48.001Z</time></trkpt><trkpt lat="40.272448953538515" lon="9.401738427237943"><ele>343.0</ele><time>2026-04-11T09:52:49.001Z</time></trkpt><trkpt lat="40.27256074005153" lon="9.401776601716147"><ele>341.5</ele><time>2026-04-11T09:52:50.001Z</time></trkpt><trkpt lat="40.272678931732635" lon="9.401782235342479"><ele>340.0</ele><time>2026-04-11T09:52:51.001Z</time></trkpt><trkpt lat="40.27279125460273" lon="9.401755974500194"><ele>340.0</ele><time>2026-04-11T09:52:52.001Z</time></trkpt><trkpt lat="40.272903253640216" lon="9.401736886020066"><ele>340.0</ele><time>2026-04-11T09:52:53.001Z</time></trkpt><trkpt lat="40.27302209212998" lon="9.40170466921533"><ele>340.0</ele><time>2026-04-11T09:52:54.001Z</time></trkpt><trkpt lat="40.27313877508769" lon="9.401700290628062"><ele>340.0</ele><time>2026-04-11T09:52:55.001Z</time></trkpt><trkpt lat="40.273248457445256" lon="9.401676717033956"><ele>338.8</ele><time>2026-04-11T09:52:56.001Z</time></trkpt><trkpt lat="40.273364480819005" lon="9.401651780627153"><ele>337.6</ele><time>2026-04-11T09:52:57.001Z</time></trkpt><trkpt lat="40.27347577876868" lon="9.401627859806233"><ele>336.4</ele><time>2026-04-11T09:52:58.001Z</time></trkpt><trkpt lat="40.27358647265582" lon="9.401604068830702"><ele>335.2</ele><time>2026-04-11T09:52:59.001Z</time></trkpt><trkpt lat="40.273688188201554" lon="9.401578672911356"><ele>334.0</ele><time>2026-04-11T09:53:00.001Z</time></trkpt><trkpt lat="40.27379280333164" lon="9.401547690910323"><ele>334.0</ele><time>2026-04-11T09:53:01.001Z</time></trkpt><trkpt lat="40.27390307713069" lon="9.401485691458198"><ele>334.0</ele><time>2026-04-11T09:53:02.001Z</time></trkpt><trkpt lat="40.27401932252411" lon="9.401425754289138"><ele>334.0</ele><time>2026-04-11T09:53:03.001Z</time></trkpt><trkpt lat="40.2741359697241" lon="9.401358178374316"><ele>334.0</ele><time>2026-04-11T09:53:04.001Z</time></trkpt><trkpt lat="40.27424886793971" lon="9.401284011938273"><ele>332.5</ele><time>2026-04-11T09:53:05Z</time></trkpt><trkpt lat="40.27436468836777" lon="9.401234613794601"><ele>331.0</ele><time>2026-04-11T09:53:06Z</time></trkpt><trkpt lat="40.274470358795284" lon="9.401169980064477"><ele>329.5</ele><time>2026-04-11T09:53:07Z</time></trkpt><trkpt lat="40.27456399104365" lon="9.401088868067022"><ele>328.0</ele><time>2026-04-11T09:53:08Z</time></trkpt><trkpt lat="40.27466880334567" lon="9.401047219039796"><ele>328.0</ele><time>2026-04-11T09:53:09Z</time></trkpt><trkpt lat="40.27476317607191" lon="9.40098883503088"><ele>328.0</ele><time>2026-04-11T09:53:10Z</time></trkpt><trkpt lat="40.27485060062782" lon="9.400936736785246"><ele>328.0</ele><time>2026-04-11T09:53:11Z</time></trkpt><trkpt lat="40.27492655638716" lon="9.400891472992814"><ele>328.0</ele><time>2026-04-11T09:53:12Z</time></trkpt><trkpt lat="40.274996895078175" lon="9.400832419924882"><ele>328.0</ele><time>2026-04-11T09:53:13Z</time></trkpt><trkpt lat="40.27508354395448" lon="9.40084101867117"><ele>326.5</ele><time>2026-04-11T09:53:14Z</time></trkpt><trkpt lat="40.27518293469439" lon="9.400839349909662"><ele>325.0</ele><time>2026-04-11T09:53:15Z</time></trkpt><trkpt lat="40.27529822259878" lon="9.400882792007454"><ele>323.5</ele><time>2026-04-11T09:53:16Z</time></trkpt><trkpt lat="40.275408620183235" lon="9.40094036460848"><ele>322.0</ele><time>2026-04-11T09:53:17Z</time></trkpt><trkpt lat="40.275521150016424" lon="9.401003702725044"><ele>320.25</ele><time>2026-04-11T09:53:18Z</time></trkpt><trkpt lat="40.27564655362855" lon="9.401054020598998"><ele>318.5</ele><time>2026-04-11T09:53:19Z</time></trkpt><trkpt lat="40.27574535614091" lon="9.401119085245904"><ele>316.75</ele><time>2026-04-11T09:53:20Z</time></trkpt><trkpt lat="40.27584407483777" lon="9.401168226039408"><ele>315.0</ele><time>2026-04-11T09:53:21Z</time></trkpt><trkpt lat="40.27594061439623" lon="9.401227151363868"><ele>315.0</ele><time>2026-04-11T09:53:22Z</time></trkpt><trkpt lat="40.27603895678816" lon="9.401310250669543"><ele>315.0</ele><time>2026-04-11T09:53:23Z</time></trkpt><trkpt lat="40.2761326845811" lon="9.40140569393401"><ele>315.0</ele><time>2026-04-11T09:53:24Z</time></trkpt><trkpt lat="40.27622357109441" lon="9.401502301301994"><ele>315.0</ele><time>2026-04-11T09:53:25Z</time></trkpt><trkpt lat="40.276317502145716" lon="9.40157744478424"><ele>315.4</ele><time>2026-04-11T09:53:26Z</time></trkpt><trkpt lat="40.27638732153333" lon="9.401665629428006"><ele>315.8</ele><time>2026-04-11T09:53:27Z</time></trkpt><trkpt lat="40.276448254833085" lon="9.401729784823848"><ele>316.2</ele><time>2026-04-11T09:53:28Z</time></trkpt><trkpt lat="40.27648155358562" lon="9.40185717184533"><ele>316.6</ele><time>2026-04-11T09:53:30Z</time></trkpt><trkpt lat="40.27654568068362" lon="9.401925212671939"><ele>317.0</ele><time>2026-04-11T09:53:34Z</time></trkpt><trkpt lat="40.27669609412322" lon="9.401904396318765"><ele>315.83333333333337</ele><time>2026-04-11T09:53:36Z</time></trkpt><trkpt lat="40.27676108070184" lon="9.401857215025753"><ele>314.6666666666667</ele><time>2026-04-11T09:53:37Z</time></trkpt><trkpt lat="40.27683120284369" lon="9.401809312843682"><ele>313.5</ele><time>2026-04-11T09:53:38Z</time></trkpt><trkpt lat="40.27690868387791" lon="9.401788291713546"><ele>312.3333333333333</ele><time>2026-04-11T09:53:39Z</time></trkpt><trkpt lat="40.27698406739793" lon="9.40174877649499"><ele>311.16666666666663</ele><time>2026-04-11T09:53:40Z</time></trkpt><trkpt lat="40.27707373482838" lon="9.40169901469314"><ele>310.0</ele><time>2026-04-11T09:53:41Z</time></trkpt><trkpt lat="40.27715982963126" lon="9.401650291660234"><ele>310.0</ele><time>2026-04-11T09:53:42Z</time></trkpt><trkpt lat="40.27724346212968" lon="9.401603725614844"><ele>310.0</ele><time>2026-04-11T09:53:43Z</time></trkpt><trkpt lat="40.27733119363251" lon="9.401556651815234"><ele>310.0</ele><time>2026-04-11T09:53:44Z</time></trkpt><trkpt lat="40.277421825336255" lon="9.401508319693182"><ele>310.0</ele><time>2026-04-11T09:53:45Z</time></trkpt><trkpt lat="40.27750251054972" lon="9.401442206137594"><ele>310.0</ele><time>2026-04-11T09:53:46Z</time></trkpt><trkpt lat="40.277588701883936" lon="9.401397983122783"><ele>308.8333333333333</ele><time>2026-04-11T09:53:47Z</time></trkpt><trkpt lat="40.27768823307234" lon="9.401364127387014"><ele>307.66666666666663</ele><time>2026-04-11T09:53:48Z</time></trkpt><trkpt lat="40.277754943078165" lon="9.40132187252457"><ele>306.5</ele><time>2026-04-11T09:53:49Z</time></trkpt><trkpt lat="40.277820534066" lon="9.401260135011405"><ele>305.3333333333333</ele><time>2026-04-11T09:53:50Z</time></trkpt><trkpt lat="40.27789361224484" lon="9.40119390597267"><ele>304.1666666666667</ele><time>2026-04-11T09:53:51Z</time></trkpt><trkpt lat="40.27796062732886" lon="9.401132234303553"><ele>303.0</ele><time>2026-04-11T09:53:52Z</time></trkpt><trkpt lat="40.27803918636919" lon="9.40108043455039"><ele>303.0</ele><time>2026-04-11T09:53:53Z</time></trkpt><trkpt lat="40.278100696419784" lon="9.401024540889773"><ele>303.0</ele><time>2026-04-11T09:53:54Z</time></trkpt><trkpt lat="40.27816676508153" lon="9.40096604560288"><ele>303.0</ele><time>2026-04-11T09:53:55Z</time></trkpt><trkpt lat="40.278223484343926" lon="9.400887403539853"><ele>303.0</ele><time>2026-04-11T09:53:56Z</time></trkpt><trkpt lat="40.27830715633606" lon="9.400835752305904"><ele>303.0</ele><time>2026-04-11T09:53:57Z</time></trkpt><trkpt lat="40.27837271609854" lon="9.400754034761187"><ele>303.0</ele><time>2026-04-11T09:53:58Z</time></trkpt><trkpt lat="40.27844655442347" lon="9.400691011483262"><ele>301.8333333333333</ele><time>2026-04-11T09:53:59Z</time></trkpt><trkpt lat="40.27852569925653" lon="9.400651944812711"><ele>300.6666666666667</ele><time>2026-04-11T09:54:00Z</time></trkpt><trkpt lat="40.27858488939467" lon="9.400607079245873"><ele>299.5</ele><time>2026-04-11T09:54:01Z</time></trkpt><trkpt lat="40.278669307427606" lon="9.400549690826558"><ele>298.33333333333337</ele><time>2026-04-11T09:54:02Z</time></trkpt><trkpt lat="40.27874732933846" lon="9.400498948151789"><ele>297.1666666666667</ele><time>2026-04-11T09:54:03Z</time></trkpt><trkpt lat="40.278813912162484" lon="9.400432195401478"><ele>296.0</ele><time>2026-04-11T09:54:04Z</time></trkpt><trkpt lat="40.27890415981778" lon="9.400397297656207"><ele>294.6</ele><time>2026-04-11T09:54:05Z</time></trkpt><trkpt lat="40.27898255116572" lon="9.4003464875192"><ele>293.20000000000005</ele><time>2026-04-11T09:54:06Z</time></trkpt><trkpt lat="40.279062985171976" lon="9.400295972469372"><ele>291.79999999999995</ele><time>2026-04-11T09:54:07Z</time></trkpt><trkpt lat="40.2791486978857" lon="9.400241522073433"><ele>290.4</ele><time>2026-04-11T09:54:08Z</time></trkpt><trkpt lat="40.27923612885853" lon="9.40018354452014"><ele>289.0</ele><time>2026-04-11T09:54:09Z</time></trkpt><trkpt lat="40.27931640429235" lon="9.400128986282319"><ele>289.0</ele><time>2026-04-11T09:54:10Z</time></trkpt><trkpt lat="40.279406397378914" lon="9.40005992751479"><ele>289.0</ele><time>2026-04-11T09:54:11Z</time></trkpt><trkpt lat="40.27948820063468" lon="9.39999169709002"><ele>289.0</ele><time>2026-04-11T09:54:12Z</time></trkpt><trkpt lat="40.279575158200096" lon="9.39991081218918"><ele>289.0</ele><time>2026-04-11T09:54:13Z</time></trkpt><trkpt lat="40.27966016812972" lon="9.399824899364038"><ele>289.0</ele><time>2026-04-11T09:54:14Z</time></trkpt><trkpt lat="40.279728832819146" lon="9.399725661452287"><ele>287.8</ele><time>2026-04-11T09:54:15Z</time></trkpt><trkpt lat="40.27980376855822" lon="9.3996435088761"><ele>286.59999999999997</ele><time>2026-04-11T09:54:16Z</time></trkpt><trkpt lat="40.279881777952646" lon="9.399580907649893"><ele>285.4</ele><time>2026-04-11T09:54:17Z</time></trkpt><trkpt lat="40.27993669416918" lon="9.399496930135609"><ele>284.2</ele><time>2026-04-11T09:54:18Z</time></trkpt><trkpt lat="40.28001227269907" lon="9.399412179576627"><ele>283.0</ele><time>2026-04-11T09:54:19Z</time></trkpt><trkpt lat="40.28008686718457" lon="9.399333280300334"><ele>283.0</ele><time>2026-04-11T09:54:20Z</time></trkpt><trkpt lat="40.280155373174885" lon="9.399268600725588"><ele>283.0</ele><time>2026-04-11T09:54:21Z</time></trkpt><trkpt lat="40.28023500182536" lon="9.399205724563933"><ele>283.0</ele><time>2026-04-11T09:54:22Z</time></trkpt><trkpt lat="40.2803152660223" lon="9.399153924257387"><ele>283.0</ele><time>2026-04-11T09:54:23Z</time></trkpt><trkpt lat="40.280400076579326" lon="9.399090025696633"><ele>283.0</ele><time>2026-04-11T09:54:24Z</time></trkpt><trkpt lat="40.28048111994018" lon="9.399033616483317"><ele>283.0</ele><time>2026-04-11T09:54:25Z</time></trkpt><trkpt lat="40.28057356993137" lon="9.398997975020524"><ele>283.0</ele><time>2026-04-11T09:54:26Z</time></trkpt><trkpt lat="40.28064688456204" lon="9.3989458339579"><ele>283.0</ele><time>2026-04-11T09:54:27Z</time></trkpt><trkpt lat="40.28073038986287" lon="9.398910850260394"><ele>283.0</ele><time>2026-04-11T09:54:28Z</time></trkpt><trkpt lat="40.28081963135981" lon="9.398861589030899"><ele>283.0</ele><time>2026-04-11T09:54:29Z</time></trkpt><trkpt lat="40.280917314962636" lon="9.398818946762024"><ele>281.66666666666663</ele><time>2026-04-11T09:54:30Z</time></trkpt><trkpt lat="40.280988966222985" lon="9.398798080440045"><ele>280.3333333333333</ele><time>2026-04-11T09:54:31Z</time></trkpt><trkpt lat="40.2810723623182" lon="9.398756927089906"><ele>279.0</ele><time>2026-04-11T09:54:32Z</time></trkpt><trkpt lat="40.28115413830646" lon="9.398714582503288"><ele>277.6666666666667</ele><time>2026-04-11T09:54:33Z</time></trkpt><trkpt lat="40.28123606970969" lon="9.39867262232939"><ele>276.33333333333337</ele><time>2026-04-11T09:54:33.999Z</time></trkpt><trkpt lat="40.281320567288375" lon="9.398622434589267"><ele>275.0</ele><time>2026-04-11T09:54:34.999Z</time></trkpt><trkpt lat="40.28141048874465" lon="9.398576922763493"><ele>275.2</ele><time>2026-04-11T09:54:35.999Z</time></trkpt><trkpt lat="40.28150206919802" lon="9.398538313105853"><ele>275.4</ele><time>2026-04-11T09:54:36.999Z</time></trkpt><trkpt lat="40.281589151942036" lon="9.398485828902023"><ele>275.6</ele><time>2026-04-11T09:54:37.999Z</time></trkpt><trkpt lat="40.28168619136974" lon="9.39843202449889"><ele>275.8</ele><time>2026-04-11T09:54:38.999Z</time></trkpt><trkpt lat="40.281780576557026" lon="9.398380012271245"><ele>276.0</ele><time>2026-04-11T09:54:39.999Z</time></trkpt><trkpt lat="40.28187639419347" lon="9.398320017433239"><ele>276.0</ele><time>2026-04-11T09:54:40.999Z</time></trkpt><trkpt lat="40.281972498349106" lon="9.398255530777465"><ele>276.0</ele><time>2026-04-11T09:54:41.999Z</time></trkpt><trkpt lat="40.28207090822739" lon="9.398188651201858"><ele>276.0</ele><time>2026-04-11T09:54:42.999Z</time></trkpt><trkpt lat="40.28217321916876" lon="9.398119537700524"><ele>276.0</ele><time>2026-04-11T09:54:43.999Z</time></trkpt><trkpt lat="40.28227331832971" lon="9.398053272183496"><ele>276.0</ele><time>2026-04-11T09:54:44.999Z</time></trkpt><trkpt lat="40.28237294598225" lon="9.397981396134316"><ele>276.2</ele><time>2026-04-11T09:54:45.999Z</time></trkpt><trkpt lat="40.28246343419774" lon="9.397915127928801"><ele>276.40000000000003</ele><time>2026-04-11T09:54:46.999Z</time></trkpt><trkpt lat="40.282547988110956" lon="9.397853548262423"><ele>276.6</ele><time>2026-04-11T09:54:47.999Z</time></trkpt><trkpt lat="40.28263807555023" lon="9.397826456482099"><ele>276.8</ele><time>2026-04-11T09:54:48.999Z</time></trkpt><trkpt lat="40.282715211231704" lon="9.397774796367763"><ele>277.0</ele><time>2026-04-11T09:54:49.999Z</time></trkpt><trkpt lat="40.28278790052602" lon="9.39772360261348"><ele>277.0</ele><time>2026-04-11T09:54:50.999Z</time></trkpt><trkpt lat="40.28286721657141" lon="9.397666203684041"><ele>277.0</ele><time>2026-04-11T09:54:51.999Z</time></trkpt><trkpt lat="40.28294536816913" lon="9.397605237433774"><ele>277.0</ele><time>2026-04-11T09:54:53Z</time></trkpt><trkpt lat="40.283021233285275" lon="9.397511047391934"><ele>277.0</ele><time>2026-04-11T09:54:54Z</time></trkpt><trkpt lat="40.28310377462938" lon="9.397430191995744"><ele>277.0</ele><time>2026-04-11T09:54:55Z</time></trkpt><trkpt lat="40.28318493035174" lon="9.397347381210912"><ele>276.2</ele><time>2026-04-11T09:54:56Z</time></trkpt><trkpt lat="40.28326395854751" lon="9.397259568872359"><ele>275.4</ele><time>2026-04-11T09:54:57Z</time></trkpt><trkpt lat="40.28334247694716" lon="9.397162258473623"><ele>274.6</ele><time>2026-04-11T09:54:58Z</time></trkpt><trkpt lat="40.28342242075489" lon="9.397060761760002"><ele>273.8</ele><time>2026-04-11T09:54:59Z</time></trkpt><trkpt lat="40.283502802716264" lon="9.396954508030245"><ele>273.0</ele><time>2026-04-11T09:55:00Z</time></trkpt><trkpt lat="40.28358471380847" lon="9.396845766908818"><ele>273.0</ele><time>2026-04-11T09:55:01Z</time></trkpt><trkpt lat="40.28366866030905" lon="9.396732675934466"><ele>273.0</ele><time>2026-04-11T09:55:02Z</time></trkpt><trkpt lat="40.28375226734554" lon="9.396617800928391"><ele>273.0</ele><time>2026-04-11T09:55:03Z</time></trkpt><trkpt lat="40.283833847104695" lon="9.396502547042834"><ele>273.0</ele><time>2026-04-11T09:55:04Z</time></trkpt><trkpt lat="40.28392105960841" lon="9.396371909281234"><ele>271.75</ele><time>2026-04-11T09:55:05Z</time></trkpt><trkpt lat="40.284010882687845" lon="9.396242870686612"><ele>270.5</ele><time>2026-04-11T09:55:06Z</time></trkpt><trkpt lat="40.284096976460546" lon="9.39611348611439"><ele>269.25</ele><time>2026-04-11T09:55:07Z</time></trkpt><trkpt lat="40.2841874729123" lon="9.39597826720168"><ele>268.0</ele><time>2026-04-11T09:55:08Z</time></trkpt><trkpt lat="40.28428049743502" lon="9.395827928417585"><ele>268.0</ele><time>2026-04-11T09:55:09Z</time></trkpt><trkpt lat="40.284373265177464" lon="9.395666625100516"><ele>268.0</ele><time>2026-04-11T09:55:10Z</time></trkpt><trkpt lat="40.28447656166502" lon="9.395508952697156"><ele>268.0</ele><time>2026-04-11T09:55:11Z</time></trkpt><trkpt lat="40.284563086886344" lon="9.395323545825956"><ele>268.0</ele><time>2026-04-11T09:55:12Z</time></trkpt><trkpt lat="40.2846232349944" lon="9.395131265352665"><ele>268.0</ele><time>2026-04-11T09:55:13Z</time></trkpt><trkpt lat="40.28468843587025" lon="9.394954217416398"><ele>268.0</ele><time>2026-04-11T09:55:14Z</time></trkpt><trkpt lat="40.284749462951694" lon="9.394768036156545"><ele>266.3333333333333</ele><time>2026-04-11T09:55:15Z</time></trkpt><trkpt lat="40.28480522241245" lon="9.394571333599433"><ele>264.6666666666667</ele><time>2026-04-11T09:55:16Z</time></trkpt><trkpt lat="40.28486097533029" lon="9.394362294578272"><ele>263.0</ele><time>2026-04-11T09:55:17Z</time></trkpt><trkpt lat="40.284931575793394" lon="9.394153782105654"><ele>263.0</ele><time>2026-04-11T09:55:18Z</time></trkpt><trkpt lat="40.284984028282665" lon="9.393932672623807"><ele>263.0</ele><time>2026-04-11T09:55:19Z</time></trkpt><trkpt lat="40.28502953298973" lon="9.393698481686403"><ele>263.0</ele><time>2026-04-11T09:55:20Z</time></trkpt><trkpt lat="40.28506995996196" lon="9.393452739657176"><ele>260.6666666666667</ele><time>2026-04-11T09:55:21Z</time></trkpt><trkpt lat="40.28510490826422" lon="9.393195825984511"><ele>258.3333333333333</ele><time>2026-04-11T09:55:22Z</time></trkpt><trkpt lat="40.28512810728711" lon="9.39299354734846"><ele>256.0</ele><time>2026-04-11T09:55:23Z</time></trkpt><trkpt lat="40.28515476670646" lon="9.392747452664162"><ele>254.33333333333331</ele><time>2026-04-11T09:55:24Z</time></trkpt><trkpt lat="40.2851941675507" lon="9.392500250220362"><ele>252.66666666666669</ele><time>2026-04-11T09:55:25Z</time></trkpt><trkpt lat="40.28528284362824" lon="9.392274019411792"><ele>251.0</ele><time>2026-04-11T09:55:26Z</time></trkpt><trkpt lat="40.285372124103596" lon="9.392046115346957"><ele>251.33333333333334</ele><time>2026-04-11T09:55:27Z</time></trkpt><trkpt lat="40.2854714936697" lon="9.391827899427271"><ele>251.66666666666669</ele><time>2026-04-11T09:55:28Z</time></trkpt><trkpt lat="40.28557615714653" lon="9.391607014240904"><ele>252.0</ele><time>2026-04-11T09:55:29Z</time></trkpt><trkpt lat="40.28568060798185" lon="9.391386577814712"><ele>250.0</ele><time>2026-04-11T09:55:30Z</time></trkpt><trkpt lat="40.28578552285682" lon="9.391165162061299"><ele>248.0</ele><time>2026-04-11T09:55:31Z</time></trkpt><trkpt lat="40.2858832308412" lon="9.39095931764675"><ele>246.0</ele><time>2026-04-11T09:55:32Z</time></trkpt><trkpt lat="40.285976883658435" lon="9.390770736330557"><ele>246.0</ele><time>2026-04-11T09:55:33Z</time></trkpt><trkpt lat="40.286055816148696" lon="9.390580227588787"><ele>246.0</ele><time>2026-04-11T09:55:34Z</time></trkpt><trkpt lat="40.28616509937273" lon="9.390426750734733"><ele>246.0</ele><time>2026-04-11T09:55:35Z</time></trkpt><trkpt lat="40.286296225417225" lon="9.390309690463297"><ele>244.66666666666669</ele><time>2026-04-11T09:55:36Z</time></trkpt><trkpt lat="40.28643184366322" lon="9.390202422478334"><ele>243.33333333333334</ele><time>2026-04-11T09:55:37Z</time></trkpt><trkpt lat="40.28655416405113" lon="9.390089399892382"><ele>242.0</ele><time>2026-04-11T09:55:38Z</time></trkpt><trkpt lat="40.28666789746744" lon="9.38995836378197"><ele>242.0</ele><time>2026-04-11T09:55:39Z</time></trkpt><trkpt lat="40.2867750225181" lon="9.389819471766609"><ele>242.0</ele><time>2026-04-11T09:55:40Z</time></trkpt><trkpt lat="40.286879237232895" lon="9.389675979971667"><ele>242.0</ele><time>2026-04-11T09:55:41Z</time></trkpt><trkpt lat="40.28697221395945" lon="9.389523373167682"><ele>240.66666666666669</ele><time>2026-04-11T09:55:42Z</time></trkpt><trkpt lat="40.28706471835493" lon="9.389364193776347"><ele>239.33333333333331</ele><time>2026-04-11T09:55:43Z</time></trkpt><trkpt lat="40.287143275099005" lon="9.389193117087752"><ele>238.0</ele><time>2026-04-11T09:55:44Z</time></trkpt><trkpt lat="40.28720147271931" lon="9.388998314813788"><ele>237.0</ele><time>2026-04-11T09:55:45Z</time></trkpt><trkpt lat="40.28726425470142" lon="9.388803570423725"><ele>236.0</ele><time>2026-04-11T09:55:46Z</time></trkpt><trkpt lat="40.28732316703599" lon="9.388602765553182"><ele>235.0</ele><time>2026-04-11T09:55:47Z</time></trkpt><trkpt lat="40.287379143015876" lon="9.388399017388595"><ele>235.0</ele><time>2026-04-11T09:55:48Z</time></trkpt><trkpt lat="40.287418265228325" lon="9.388182790765743"><ele>235.0</ele><time>2026-04-11T09:55:49Z</time></trkpt><trkpt lat="40.287444976215504" lon="9.387969526764918"><ele>235.0</ele><time>2026-04-11T09:55:50Z</time></trkpt><trkpt lat="40.28746098401497" lon="9.38774953645384"><ele>234.33333333333331</ele><time>2026-04-11T09:55:51Z</time></trkpt><trkpt lat="40.287463629663634" lon="9.387526005944986"><ele>233.66666666666669</ele><time>2026-04-11T09:55:52Z</time></trkpt><trkpt lat="40.28745283366282" lon="9.387299001102104"><ele>233.0</ele><time>2026-04-11T09:55:53Z</time></trkpt><trkpt lat="40.287433128425974" lon="9.387078381929461"><ele>232.66666666666669</ele><time>2026-04-11T09:55:54Z</time></trkpt><trkpt lat="40.2874115653848" lon="9.386854388304549"><ele>232.33333333333331</ele><time>2026-04-11T09:55:55Z</time></trkpt><trkpt lat="40.28738932052994" lon="9.386627555489788"><ele>232.0</ele><time>2026-04-11T09:55:56Z</time></trkpt><trkpt lat="40.28737015054555" lon="9.386398645888217"><ele>231.33333333333331</ele><time>2026-04-11T09:55:57Z</time></trkpt><trkpt lat="40.28734258550735" lon="9.386165069251973"><ele>230.66666666666669</ele><time>2026-04-11T09:55:58Z</time></trkpt><trkpt lat="40.28732592985991" lon="9.385934749029504"><ele>230.0</ele><time>2026-04-11T09:55:59Z</time></trkpt><trkpt lat="40.287301726557885" lon="9.385704853995822"><ele>229.66666666666669</ele><time>2026-04-11T09:56:00Z</time></trkpt><trkpt lat="40.287276617730996" lon="9.385474082332522"><ele>229.33333333333331</ele><time>2026-04-11T09:56:01Z</time></trkpt><trkpt lat="40.28725166786917" lon="9.385245596606312"><ele>229.0</ele><time>2026-04-11T09:56:02Z</time></trkpt><trkpt lat="40.28722961743903" lon="9.385018185465519"><ele>228.66666666666666</ele><time>2026-04-11T09:56:03Z</time></trkpt><trkpt lat="40.28720655579105" lon="9.38478823717903"><ele>228.33333333333331</ele><time>2026-04-11T09:56:04Z</time></trkpt><trkpt lat="40.28718991252441" lon="9.384561907997643"><ele>228.0</ele><time>2026-04-11T09:56:05Z</time></trkpt><trkpt lat="40.28717324252611" lon="9.384336991190043"><ele>227.66666666666669</ele><time>2026-04-11T09:56:06Z</time></trkpt><trkpt lat="40.28716224388998" lon="9.38412029513058"><ele>227.33333333333334</ele><time>2026-04-11T09:56:07Z</time></trkpt><trkpt lat="40.28715885424578" lon="9.383909242385322"><ele>227.0</ele><time>2026-04-11T09:56:08Z</time></trkpt><trkpt lat="40.28715106358324" lon="9.383680489929562"><ele>226.0</ele><time>2026-04-11T09:56:09Z</time></trkpt><trkpt lat="40.287147161726125" lon="9.383459711314604"><ele>225.0</ele><time>2026-04-11T09:56:10Z</time></trkpt><trkpt lat="40.287156149504725" lon="9.383244450776543"><ele>224.0</ele><time>2026-04-11T09:56:11Z</time></trkpt><trkpt lat="40.2871545289239" lon="9.383017264208505"><ele>224.0</ele><time>2026-04-11T09:56:12Z</time></trkpt><trkpt lat="40.287158863607196" lon="9.382790614252134"><ele>224.0</ele><time>2026-04-11T09:56:13Z</time></trkpt><trkpt lat="40.287174384751594" lon="9.382564739662694"><ele>224.0</ele><time>2026-04-11T09:56:14Z</time></trkpt><trkpt lat="40.287190436603474" lon="9.382337786055892"><ele>223.66666666666669</ele><time>2026-04-11T09:56:15Z</time></trkpt><trkpt lat="40.28720889242034" lon="9.382105307925409"><ele>223.33333333333331</ele><time>2026-04-11T09:56:16Z</time></trkpt><trkpt lat="40.2872368197492" lon="9.381872418061736"><ele>223.0</ele><time>2026-04-11T09:56:17Z</time></trkpt><trkpt lat="40.28726155318482" lon="9.381639067867495"><ele>223.0</ele><time>2026-04-11T09:56:18Z</time></trkpt><trkpt lat="40.287290954457035" lon="9.381402683547954"><ele>223.0</ele><time>2026-04-11T09:56:19Z</time></trkpt><trkpt lat="40.28731582849705" lon="9.381160714520423"><ele>223.0</ele><time>2026-04-11T09:56:20Z</time></trkpt><trkpt lat="40.28735231829354" lon="9.380918786533092"><ele>221.33333333333331</ele><time>2026-04-11T09:56:21Z</time></trkpt><trkpt lat="40.28738084851581" lon="9.380700562904938"><ele>219.66666666666669</ele><time>2026-04-11T09:56:22Z</time></trkpt><trkpt lat="40.28742084237092" lon="9.380483160372936"><ele>218.0</ele><time>2026-04-11T09:56:23Z</time></trkpt><trkpt lat="40.28746752370488" lon="9.380258077842878"><ele>216.66666666666669</ele><time>2026-04-11T09:56:24Z</time></trkpt><trkpt lat="40.28751714224297" lon="9.38002894452031"><ele>215.33333333333331</ele><time>2026-04-11T09:56:25Z</time></trkpt><trkpt lat="40.28756200523384" lon="9.379796346158134"><ele>214.0</ele><time>2026-04-11T09:56:26Z</time></trkpt><trkpt lat="40.28761432124813" lon="9.379574290050638"><ele>213.0</ele><time>2026-04-11T09:56:27Z</time></trkpt><trkpt lat="40.28766588986711" lon="9.379347223935012"><ele>212.0</ele><time>2026-04-11T09:56:28Z</time></trkpt><trkpt lat="40.28771556637971" lon="9.379113315909745"><ele>211.0</ele><time>2026-04-11T09:56:29Z</time></trkpt><trkpt lat="40.28776184832775" lon="9.37888300867229"><ele>210.0</ele><time>2026-04-11T09:56:30Z</time></trkpt><trkpt lat="40.287798763893086" lon="9.37864575696317"><ele>209.0</ele><time>2026-04-11T09:56:31Z</time></trkpt><trkpt lat="40.28781530206069" lon="9.3784022000595"><ele>208.0</ele><time>2026-04-11T09:56:32Z</time></trkpt><trkpt lat="40.28781568107079" lon="9.378159074270812"><ele>207.0</ele><time>2026-04-11T09:56:32.999Z</time></trkpt><trkpt lat="40.28780329762682" lon="9.377917259383997"><ele>206.0</ele><time>2026-04-11T09:56:33.999Z</time></trkpt><trkpt lat="40.287783914421176" lon="9.377682966057263"><ele>205.0</ele><time>2026-04-11T09:56:34.999Z</time></trkpt><trkpt lat="40.28775350036827" lon="9.37744919713192"><ele>205.0</ele><time>2026-04-11T09:56:35.999Z</time></trkpt><trkpt lat="40.28772678397595" lon="9.377225002572844"><ele>205.0</ele><time>2026-04-11T09:56:36.999Z</time></trkpt><trkpt lat="40.287703080651035" lon="9.377003756113945"><ele>205.0</ele><time>2026-04-11T09:56:37.999Z</time></trkpt><trkpt lat="40.28768421971168" lon="9.376786942537125"><ele>205.66666666666666</ele><time>2026-04-11T09:56:38.999Z</time></trkpt><trkpt lat="40.28766538245921" lon="9.376576918822304"><ele>206.33333333333331</ele><time>2026-04-11T09:56:39.999Z</time></trkpt><trkpt lat="40.287643099206925" lon="9.376356793321609"><ele>207.0</ele><time>2026-04-11T09:56:40.999Z</time></trkpt><trkpt lat="40.28762153178957" lon="9.376145481366567"><ele>208.33333333333331</ele><time>2026-04-11T09:56:41.999Z</time></trkpt><trkpt lat="40.28760389584321" lon="9.375927328967062"><ele>209.66666666666666</ele><time>2026-04-11T09:56:42.999Z</time></trkpt><trkpt lat="40.28759828140723" lon="9.375714639085516"><ele>211.0</ele><time>2026-04-11T09:56:43.999Z</time></trkpt><trkpt lat="40.287619924468245" lon="9.37550100830845"><ele>211.66666666666666</ele><time>2026-04-11T09:56:44.999Z</time></trkpt><trkpt lat="40.28765211732114" lon="9.375284722569047"><ele>212.33333333333331</ele><time>2026-04-11T09:56:45.999Z</time></trkpt><trkpt lat="40.28768018143801" lon="9.375068132392007"><ele>213.0</ele><time>2026-04-11T09:56:46.999Z</time></trkpt><trkpt lat="40.28770719390479" lon="9.374849886746029"><ele>214.0</ele><time>2026-04-11T09:56:47.999Z</time></trkpt><trkpt lat="40.28773149247257" lon="9.374635408177154"><ele>215.0</ele><time>2026-04-11T09:56:48.999Z</time></trkpt><trkpt lat="40.28775796995895" lon="9.374410707965762"><ele>216.0</ele><time>2026-04-11T09:56:49.999Z</time></trkpt><trkpt lat="40.287793536298466" lon="9.374192431121708"><ele>216.0</ele><time>2026-04-11T09:56:50.999Z</time></trkpt><trkpt lat="40.28784366038034" lon="9.373989123607481"><ele>216.0</ele><time>2026-04-11T09:56:51.999Z</time></trkpt><trkpt lat="40.28790136503935" lon="9.373782769115552"><ele>216.0</ele><time>2026-04-11T09:56:52.999Z</time></trkpt><trkpt lat="40.28797383190144" lon="9.37357829699936"><ele>217.33333333333331</ele><time>2026-04-11T09:56:53.999Z</time></trkpt><trkpt lat="40.288052504793114" lon="9.373383501226636"><ele>218.66666666666666</ele><time>2026-04-11T09:56:54.999Z</time></trkpt><trkpt lat="40.28814239737102" lon="9.373197516229222"><ele>220.0</ele><time>2026-04-11T09:56:55.999Z</time></trkpt><trkpt lat="40.288244119160375" lon="9.373021617363547"><ele>221.66666666666666</ele><time>2026-04-11T09:56:56.999Z</time></trkpt><trkpt lat="40.288347508148554" lon="9.372852534222769"><ele>223.33333333333331</ele><time>2026-04-11T09:56:57.999Z</time></trkpt><trkpt lat="40.28846519379188" lon="9.37269133276548"><ele>225.0</ele><time>2026-04-11T09:56:59Z</time></trkpt><trkpt lat="40.28858904162796" lon="9.372548952858716"><ele>225.0</ele><time>2026-04-11T09:57:00Z</time></trkpt><trkpt lat="40.28871691185562" lon="9.372410517130593"><ele>225.0</ele><time>2026-04-11T09:57:01Z</time></trkpt><trkpt lat="40.288848646632204" lon="9.372270833649106"><ele>225.0</ele><time>2026-04-11T09:57:02Z</time></trkpt><trkpt lat="40.28897528923315" lon="9.372128347020306"><ele>227.33333333333331</ele><time>2026-04-11T09:57:03Z</time></trkpt><trkpt lat="40.28909237536638" lon="9.37197954144866"><ele>229.66666666666666</ele><time>2026-04-11T09:57:04Z</time></trkpt><trkpt lat="40.289203066848195" lon="9.371812976147261"><ele>232.0</ele><time>2026-04-11T09:57:05Z</time></trkpt><trkpt lat="40.28930245532465" lon="9.371635757963354"><ele>232.0</ele><time>2026-04-11T09:57:06Z</time></trkpt><trkpt lat="40.289396702783" lon="9.371454534129752"><ele>232.0</ele><time>2026-04-11T09:57:07Z</time></trkpt><trkpt lat="40.28948380525838" lon="9.371264997544454"><ele>232.0</ele><time>2026-04-11T09:57:08Z</time></trkpt><trkpt lat="40.28955224033581" lon="9.371064563513865"><ele>233.33333333333331</ele><time>2026-04-11T09:57:09Z</time></trkpt><trkpt lat="40.28961709228332" lon="9.370858252398882"><ele>234.66666666666669</ele><time>2026-04-11T09:57:10Z</time></trkpt><trkpt lat="40.289673452724074" lon="9.370649427415852"><ele>236.0</ele><time>2026-04-11T09:57:11Z</time></trkpt><trkpt lat="40.28972778580241" lon="9.37044448903951"><ele>237.0</ele><time>2026-04-11T09:57:12Z</time></trkpt><trkpt lat="40.28978379855729" lon="9.370228487712435"><ele>238.0</ele><time>2026-04-11T09:57:13Z</time></trkpt><trkpt lat="40.28984018067119" lon="9.370016157155904"><ele>239.0</ele><time>2026-04-11T09:57:14Z</time></trkpt><trkpt lat="40.28989466953652" lon="9.369797848948556"><ele>239.33333333333334</ele><time>2026-04-11T09:57:15Z</time></trkpt><trkpt lat="40.28995005955771" lon="9.369581784504799"><ele>239.66666666666669</ele><time>2026-04-11T09:57:16Z</time></trkpt><trkpt lat="40.290007129784925" lon="9.369362183069777"><ele>240.0</ele><time>2026-04-11T09:57:17Z</time></trkpt><trkpt lat="40.29006321110116" lon="9.369139206636758"><ele>240.0</ele><time>2026-04-11T09:57:18Z</time></trkpt><trkpt lat="40.290121331906924" lon="9.368913218989968"><ele>240.0</ele><time>2026-04-11T09:57:19Z</time></trkpt><trkpt lat="40.29018069527723" lon="9.368687514692452"><ele>240.0</ele><time>2026-04-11T09:57:20Z</time></trkpt><trkpt lat="40.29024153082992" lon="9.368458220108867"><ele>239.33333333333331</ele><time>2026-04-11T09:57:21Z</time></trkpt><trkpt lat="40.290301975591596" lon="9.368227842764103"><ele>238.66666666666666</ele><time>2026-04-11T09:57:22Z</time></trkpt><trkpt lat="40.29035770269308" lon="9.367993243428623"><ele>238.0</ele><time>2026-04-11T09:57:23Z</time></trkpt><trkpt lat="40.29042155889456" lon="9.367761964128064"><ele>237.33333333333331</ele><time>2026-04-11T09:57:24Z</time></trkpt><trkpt lat="40.29048399788827" lon="9.367536689542657"><ele>236.66666666666669</ele><time>2026-04-11T09:57:25Z</time></trkpt><trkpt lat="40.29055201173194" lon="9.367316270009637"><ele>236.0</ele><time>2026-04-11T09:57:26Z</time></trkpt><trkpt lat="40.290629861198475" lon="9.367101721460083"><ele>234.66666666666669</ele><time>2026-04-11T09:57:27Z</time></trkpt><trkpt lat="40.29071713847573" lon="9.366892751421963"><ele>233.33333333333331</ele><time>2026-04-11T09:57:28Z</time></trkpt><trkpt lat="40.29081352144313" lon="9.36668943828831"><ele>232.0</ele><time>2026-04-11T09:57:29Z</time></trkpt><trkpt lat="40.29091513235972" lon="9.366485504139579"><ele>231.0</ele><time>2026-04-11T09:57:30Z</time></trkpt><trkpt lat="40.29103055094289" lon="9.366292855058836"><ele>230.0</ele><time>2026-04-11T09:57:31Z</time></trkpt><trkpt lat="40.2911468630859" lon="9.366098044928824"><ele>229.0</ele><time>2026-04-11T09:57:32Z</time></trkpt><trkpt lat="40.29127543365627" lon="9.365908796545945"><ele>229.0</ele><time>2026-04-11T09:57:33Z</time></trkpt><trkpt lat="40.29140618135839" lon="9.365717547837562"><ele>229.0</ele><time>2026-04-11T09:57:34Z</time></trkpt><trkpt lat="40.291548030036765" lon="9.365552326519012"><ele>229.0</ele><time>2026-04-11T09:57:35Z</time></trkpt><trkpt lat="40.291691556759936" lon="9.365395554456901"><ele>227.33333333333331</ele><time>2026-04-11T09:57:36Z</time></trkpt><trkpt lat="40.29184801010205" lon="9.36524939121128"><ele>225.66666666666669</ele><time>2026-04-11T09:57:37Z</time></trkpt><trkpt lat="40.29200844542149" lon="9.365104011149684"><ele>224.0</ele><time>2026-04-11T09:57:38Z</time></trkpt><trkpt lat="40.29217021798886" lon="9.364977985593935"><ele>221.66666666666669</ele><time>2026-04-11T09:57:39Z</time></trkpt><trkpt lat="40.29233621524496" lon="9.364850845931576"><ele>219.33333333333331</ele><time>2026-04-11T09:57:40Z</time></trkpt><trkpt lat="40.29249923842108" lon="9.364743104403773"><ele>217.0</ele><time>2026-04-11T09:57:41Z</time></trkpt><trkpt lat="40.29267280106647" lon="9.36466036042546"><ele>217.0</ele><time>2026-04-11T09:57:42Z</time></trkpt><trkpt lat="40.29281482445566" lon="9.364510600411522"><ele>217.0</ele><time>2026-04-11T09:57:43Z</time></trkpt><trkpt lat="40.292945423117004" lon="9.364344224434877"><ele>217.0</ele><time>2026-04-11T09:57:44Z</time></trkpt><trkpt lat="40.293044958623504" lon="9.364151529324696"><ele>213.33333333333331</ele><time>2026-04-11T09:57:45Z</time></trkpt><trkpt lat="40.29311334429632" lon="9.363938008468963"><ele>209.66666666666669</ele><time>2026-04-11T09:57:46Z</time></trkpt><trkpt lat="40.29314334687756" lon="9.363718550894118"><ele>206.0</ele><time>2026-04-11T09:57:47Z</time></trkpt><trkpt lat="40.293163188177566" lon="9.363498500784441"><ele>206.0</ele><time>2026-04-11T09:57:48Z</time></trkpt><trkpt lat="40.293187458448536" lon="9.363288541374628"><ele>206.0</ele><time>2026-04-11T09:57:49Z</time></trkpt><trkpt lat="40.293250871321746" lon="9.36309545215661"><ele>206.0</ele><time>2026-04-11T09:57:50Z</time></trkpt><trkpt lat="40.293340718378964" lon="9.362930063792804"><ele>207.66666666666669</ele><time>2026-04-11T09:57:51Z</time></trkpt><trkpt lat="40.29344962109732" lon="9.362790121584677"><ele>209.33333333333331</ele><time>2026-04-11T09:57:52Z</time></trkpt><trkpt lat="40.29357936436583" lon="9.36270563207559"><ele>211.0</ele><time>2026-04-11T09:57:53Z</time></trkpt><trkpt lat="40.29372740482046" lon="9.362758056634833"><ele>211.0</ele><time>2026-04-11T09:57:54Z</time></trkpt><trkpt lat="40.29389414970832" lon="9.3627552753108"><ele>211.0</ele><time>2026-04-11T09:57:55Z</time></trkpt><trkpt lat="40.294079126075026" lon="9.362738187480744"><ele>211.0</ele><time>2026-04-11T09:57:56Z</time></trkpt><trkpt lat="40.29425845460338" lon="9.362746271208312"><ele>212.0</ele><time>2026-04-11T09:57:57Z</time></trkpt><trkpt lat="40.294433543746095" lon="9.362724169655538"><ele>213.0</ele><time>2026-04-11T09:57:58Z</time></trkpt><trkpt lat="40.29460647309286" lon="9.362714702698948"><ele>214.0</ele><time>2026-04-11T09:57:59Z</time></trkpt><trkpt lat="40.294779030952164" lon="9.362688380402943"><ele>214.0</ele><time>2026-04-11T09:58:00Z</time></trkpt><trkpt lat="40.29493702217203" lon="9.362634633652101"><ele>214.0</ele><time>2026-04-11T09:58:01Z</time></trkpt><trkpt lat="40.295096439258465" lon="9.362570872491073"><ele>214.0</ele><time>2026-04-11T09:58:02Z</time></trkpt><trkpt lat="40.29525731833625" lon="9.362493306548732"><ele>214.0</ele><time>2026-04-11T09:58:03Z</time></trkpt><trkpt lat="40.295412660092275" lon="9.362400743516213"><ele>214.0</ele><time>2026-04-11T09:58:04Z</time></trkpt><trkpt lat="40.29556200699398" lon="9.362291213547756"><ele>214.0</ele><time>2026-04-11T09:58:05Z</time></trkpt><trkpt lat="40.29570420582996" lon="9.362170818175443"><ele>216.0</ele><time>2026-04-11T09:58:06Z</time></trkpt><trkpt lat="40.29584880083513" lon="9.362051778302572"><ele>218.0</ele><time>2026-04-11T09:58:07Z</time></trkpt><trkpt lat="40.29599642406793" lon="9.361945224387528"><ele>220.0</ele><time>2026-04-11T09:58:08Z</time></trkpt><trkpt lat="40.296148700001346" lon="9.361847542400463"><ele>220.0</ele><time>2026-04-11T09:58:09Z</time></trkpt><trkpt lat="40.296301040605606" lon="9.361760464391228"><ele>220.0</ele><time>2026-04-11T09:58:10Z</time></trkpt><trkpt lat="40.29645651258539" lon="9.361680993582247"><ele>220.0</ele><time>2026-04-11T09:58:11Z</time></trkpt><trkpt lat="40.29661357985644" lon="9.361602140568236"><ele>222.33333333333331</ele><time>2026-04-11T09:58:12Z</time></trkpt><trkpt lat="40.29676546916857" lon="9.361530595381396"><ele>224.66666666666669</ele><time>2026-04-11T09:58:13Z</time></trkpt><trkpt lat="40.29692235459569" lon="9.36145889054233"><ele>227.0</ele><time>2026-04-11T09:58:14Z</time></trkpt><trkpt lat="40.297076245068425" lon="9.361399538685331"><ele>227.33333333333334</ele><time>2026-04-11T09:58:15Z</time></trkpt><trkpt lat="40.297230641502225" lon="9.361350225887872"><ele>227.66666666666669</ele><time>2026-04-11T09:58:16Z</time></trkpt><trkpt lat="40.29738580203515" lon="9.361308375402228"><ele>228.0</ele><time>2026-04-11T09:58:17Z</time></trkpt><trkpt lat="40.2975455278207" lon="9.361274572576056"><ele>229.66666666666669</ele><time>2026-04-11T09:58:18Z</time></trkpt><trkpt lat="40.29770402904142" lon="9.361253582741789"><ele>231.33333333333334</ele><time>2026-04-11T09:58:19Z</time></trkpt><trkpt lat="40.29786070860582" lon="9.36122965774551"><ele>233.0</ele><time>2026-04-11T09:58:20Z</time></trkpt><trkpt lat="40.29802117555588" lon="9.361192054030003"><ele>236.33333333333334</ele><time>2026-04-11T09:58:21Z</time></trkpt><trkpt lat="40.29818025482993" lon="9.36113597656782"><ele>239.66666666666669</ele><time>2026-04-11T09:58:22Z</time></trkpt><trkpt lat="40.29833440988113" lon="9.361064711930021"><ele>243.0</ele><time>2026-04-11T09:58:23Z</time></trkpt><trkpt lat="40.29849085964901" lon="9.360992500117913"><ele>243.0</ele><time>2026-04-11T09:58:24Z</time></trkpt><trkpt lat="40.29865133419853" lon="9.360940918580893"><ele>243.0</ele><time>2026-04-11T09:58:25Z</time></trkpt><trkpt lat="40.298798783894625" lon="9.360850580719816"><ele>243.0</ele><time>2026-04-11T09:58:26Z</time></trkpt><trkpt lat="40.298952059912196" lon="9.36078237188787"><ele>246.66666666666669</ele><time>2026-04-11T09:58:27Z</time></trkpt><trkpt lat="40.29909806961469" lon="9.360717633687466"><ele>250.33333333333334</ele><time>2026-04-11T09:58:28Z</time></trkpt><trkpt lat="40.299242971864025" lon="9.36065196294198"><ele>254.0</ele><time>2026-04-11T09:58:29Z</time></trkpt><trkpt lat="40.29938540790649" lon="9.360585486923487"><ele>254.25</ele><time>2026-04-11T09:58:30Z</time></trkpt><trkpt lat="40.29952217586135" lon="9.360518952328427"><ele>254.5</ele><time>2026-04-11T09:58:31Z</time></trkpt><trkpt lat="40.299651524802414" lon="9.36046235803147"><ele>254.75</ele><time>2026-04-11T09:58:32Z</time></trkpt><trkpt lat="40.29976992641869" lon="9.360403236735161"><ele>255.0</ele><time>2026-04-11T09:58:33Z</time></trkpt><trkpt lat="40.29986948533176" lon="9.360355117512203"><ele>256.8333333333333</ele><time>2026-04-11T09:58:34Z</time></trkpt><trkpt lat="40.2999553583057" lon="9.360319855961704"><ele>258.6666666666667</ele><time>2026-04-11T09:58:35Z</time></trkpt><trkpt lat="40.3000276192405" lon="9.360323904427974"><ele>260.5</ele><time>2026-04-11T09:58:35.999Z</time></trkpt><trkpt lat="40.30011740910041" lon="9.360419243840175"><ele>262.33333333333337</ele><time>2026-04-11T09:58:37.999Z</time></trkpt><trkpt lat="40.30009719024091" lon="9.360536589450312"><ele>264.1666666666667</ele><time>2026-04-11T09:58:39.999Z</time></trkpt><trkpt lat="40.30007556411141" lon="9.360630256737165"><ele>266.0</ele><time>2026-04-11T09:58:40.999Z</time></trkpt><trkpt lat="40.30002545523137" lon="9.360729899940416"><ele>266.0</ele><time>2026-04-11T09:58:41.999Z</time></trkpt><trkpt lat="40.29999132690533" lon="9.360866001614106"><ele>266.0</ele><time>2026-04-11T09:58:42.999Z</time></trkpt><trkpt lat="40.299987706439985" lon="9.361015926812868"><ele>266.0</ele><time>2026-04-11T09:58:43.999Z</time></trkpt><trkpt lat="40.300000675679414" lon="9.361153494512228"><ele>266.0</ele><time>2026-04-11T09:58:44.999Z</time></trkpt><trkpt lat="40.300030401962765" lon="9.361304226578154"><ele>266.0</ele><time>2026-04-11T09:58:45.999Z</time></trkpt><trkpt lat="40.300077698743635" lon="9.361457443724886"><ele>265.5</ele><time>2026-04-11T09:58:46.999Z</time></trkpt><trkpt lat="40.30015168016022" lon="9.36158263672434"><ele>265.0</ele><time>2026-04-11T09:58:47.999Z</time></trkpt><trkpt lat="40.30026675183156" lon="9.361684750517998"><ele>264.5</ele><time>2026-04-11T09:58:48.999Z</time></trkpt><trkpt lat="40.30040765531188" lon="9.361768897878438"><ele>264.0</ele><time>2026-04-11T09:58:49.999Z</time></trkpt><trkpt lat="40.30056515254513" lon="9.361838790119185"><ele>267.5</ele><time>2026-04-11T09:58:50.999Z</time></trkpt><trkpt lat="40.30071220900539" lon="9.361893936590574"><ele>271.0</ele><time>2026-04-11T09:58:51.999Z</time></trkpt><trkpt lat="40.30082481816547" lon="9.361933278214018"><ele>274.5</ele><time>2026-04-11T09:58:52.999Z</time></trkpt><trkpt lat="40.300951743051336" lon="9.361926746262787"><ele>278.0</ele><time>2026-04-11T09:58:53.999Z</time></trkpt><trkpt lat="40.30108681410527" lon="9.361847115351418"><ele>278.0</ele><time>2026-04-11T09:58:54.999Z</time></trkpt><trkpt lat="40.30122119987219" lon="9.361763981397024"><ele>278.0</ele><time>2026-04-11T09:58:55.999Z</time></trkpt><trkpt lat="40.30133869648984" lon="9.361670407221538"><ele>278.0</ele><time>2026-04-11T09:58:56.999Z</time></trkpt><trkpt lat="40.301444115738626" lon="9.361587360613058"><ele>278.0</ele><time>2026-04-11T09:58:57.999Z</time></trkpt><trkpt lat="40.3015647244445" lon="9.361571425352441"><ele>279.0</ele><time>2026-04-11T09:58:58.999Z</time></trkpt><trkpt lat="40.30168797308263" lon="9.361581868214406"><ele>280.0</ele><time>2026-04-11T09:58:59.999Z</time></trkpt><trkpt lat="40.30181670364892" lon="9.361602817230096"><ele>281.0</ele><time>2026-04-11T09:59:00.999Z</time></trkpt><trkpt lat="40.30193451556517" lon="9.361621895923403"><ele>282.0</ele><time>2026-04-11T09:59:01.999Z</time></trkpt><trkpt lat="40.30204183056869" lon="9.361640787859312"><ele>282.0</ele><time>2026-04-11T09:59:02.999Z</time></trkpt><trkpt lat="40.30212232447892" lon="9.361679992814613"><ele>282.0</ele><time>2026-04-11T09:59:04Z</time></trkpt><trkpt lat="40.30217790945567" lon="9.361745882629368"><ele>282.0</ele><time>2026-04-11T09:59:05Z</time></trkpt><trkpt lat="40.30218252276981" lon="9.361850400322567"><ele>282.0</ele><time>2026-04-11T09:59:06Z</time></trkpt><trkpt lat="40.30214346582669" lon="9.361976857670221"><ele>282.0</ele><time>2026-04-11T09:59:07Z</time></trkpt><trkpt lat="40.30210229875515" lon="9.362126701922667"><ele>281.2</ele><time>2026-04-11T09:59:08Z</time></trkpt><trkpt lat="40.302082905903106" lon="9.36227001462193"><ele>280.4</ele><time>2026-04-11T09:59:09Z</time></trkpt><trkpt lat="40.30208995577" lon="9.362394037090024"><ele>279.6</ele><time>2026-04-11T09:59:10Z</time></trkpt><trkpt lat="40.30210160678134" lon="9.362500596225374"><ele>278.8</ele><time>2026-04-11T09:59:11Z</time></trkpt><trkpt lat="40.302174040191545" lon="9.362569916467116"><ele>278.0</ele><time>2026-04-11T09:59:12Z</time></trkpt><trkpt lat="40.302265712408264" lon="9.362580576270297"><ele>282.75</ele><time>2026-04-11T09:59:13Z</time></trkpt><trkpt lat="40.302353588685776" lon="9.362433134601003"><ele>287.5</ele><time>2026-04-11T09:59:14Z</time></trkpt><trkpt lat="40.3024130613502" lon="9.362284414787199"><ele>292.25</ele><time>2026-04-11T09:59:15Z</time></trkpt><trkpt lat="40.302507346863166" lon="9.362171420889297"><ele>297.0</ele><time>2026-04-11T09:59:16Z</time></trkpt><trkpt lat="40.30262054931634" lon="9.3621488817817"><ele>297.0</ele><time>2026-04-11T09:59:17Z</time></trkpt><trkpt lat="40.30273553841075" lon="9.36210580002351"><ele>297.0</ele><time>2026-04-11T09:59:18Z</time></trkpt><trkpt lat="40.30282617598562" lon="9.36206051573341"><ele>297.0</ele><time>2026-04-11T09:59:19Z</time></trkpt><trkpt lat="40.30287400685681" lon="9.361943247755557"><ele>297.0</ele><time>2026-04-11T09:59:20Z</time></trkpt><trkpt lat="40.302877911775795" lon="9.361791500623355"><ele>297.0</ele><time>2026-04-11T09:59:21Z</time></trkpt><trkpt lat="40.302835760581026" lon="9.361619616316444"><ele>297.0</ele><time>2026-04-11T09:59:22Z</time></trkpt><trkpt lat="40.30279123176113" lon="9.361411574768143"><ele>297.0</ele><time>2026-04-11T09:59:23Z</time></trkpt><trkpt lat="40.30275326607786" lon="9.361212678069574"><ele>297.0</ele><time>2026-04-11T09:59:24Z</time></trkpt><trkpt lat="40.3027057086424" lon="9.361042208109286"><ele>299.25</ele><time>2026-04-11T09:59:25Z</time></trkpt><trkpt lat="40.30268200024938" lon="9.360890584258044"><ele>301.5</ele><time>2026-04-11T09:59:26Z</time></trkpt><trkpt lat="40.302648160005745" lon="9.360747673776052"><ele>303.75</ele><time>2026-04-11T09:59:27Z</time></trkpt><trkpt lat="40.302593275845155" lon="9.360630765321453"><ele>306.0</ele><time>2026-04-11T09:59:28Z</time></trkpt><trkpt lat="40.302477488955" lon="9.36053479576706"><ele>306.75</ele><time>2026-04-11T09:59:29Z</time></trkpt><trkpt lat="40.3023287513345" lon="9.360487100343114"><ele>307.5</ele><time>2026-04-11T09:59:30Z</time></trkpt><trkpt lat="40.30219545700225" lon="9.360472778067146"><ele>308.25</ele><time>2026-04-11T09:59:31Z</time></trkpt><trkpt lat="40.30210267686621" lon="9.360413057332408"><ele>309.0</ele><time>2026-04-11T09:59:32Z</time></trkpt><trkpt lat="40.30205174663151" lon="9.360295092103362"><ele>309.0</ele><time>2026-04-11T09:59:33Z</time></trkpt><trkpt lat="40.302039510756195" lon="9.36016050383475"><ele>309.0</ele><time>2026-04-11T09:59:34Z</time></trkpt><trkpt lat="40.3020783720387" lon="9.360027027450295"><ele>309.0</ele><time>2026-04-11T09:59:35Z</time></trkpt><trkpt lat="40.30216404799592" lon="9.359949163887107"><ele>309.0</ele><time>2026-04-11T09:59:36Z</time></trkpt><trkpt lat="40.30227260733092" lon="9.359911854569704"><ele>309.0</ele><time>2026-04-11T09:59:37Z</time></trkpt><trkpt lat="40.30241241293533" lon="9.35994935345074"><ele>309.0</ele><time>2026-04-11T09:59:38Z</time></trkpt><trkpt lat="40.302563741808505" lon="9.359972758512377"><ele>309.0</ele><time>2026-04-11T09:59:39Z</time></trkpt><trkpt lat="40.302690329246936" lon="9.35997220506494"><ele>309.0</ele><time>2026-04-11T09:59:40Z</time></trkpt><trkpt lat="40.30278868836375" lon="9.35998953415014"><ele>309.0</ele><time>2026-04-11T09:59:41Z</time></trkpt><trkpt lat="40.30287393069467" lon="9.360009791414464"><ele>309.0</ele><time>2026-04-11T09:59:43Z</time></trkpt><trkpt lat="40.30294623173393" lon="9.360037481678152"><ele>309.0</ele><time>2026-04-11T09:59:46Z</time></trkpt><trkpt lat="40.302979604599464" lon="9.359836487022665"><ele>309.0</ele><time>2026-04-11T09:59:47Z</time></trkpt><trkpt lat="40.303014334207575" lon="9.359735400796026"><ele>309.0</ele><time>2026-04-11T09:59:48Z</time></trkpt><trkpt lat="40.30307120629357" lon="9.359606285099137"><ele>309.0</ele><time>2026-04-11T09:59:49Z</time></trkpt><trkpt lat="40.303147329544835" lon="9.359502805526084"><ele>310.5</ele><time>2026-04-11T09:59:50Z</time></trkpt><trkpt lat="40.303256833132004" lon="9.359417422854014"><ele>312.0</ele><time>2026-04-11T09:59:51Z</time></trkpt><trkpt lat="40.30340371274957" lon="9.359362124852451"><ele>313.5</ele><time>2026-04-11T09:59:52Z</time></trkpt><trkpt lat="40.30354289273681" lon="9.359314054624402"><ele>315.0</ele><time>2026-04-11T09:59:53Z</time></trkpt><trkpt lat="40.303686443642285" lon="9.359251262866838"><ele>315.0</ele><time>2026-04-11T09:59:54Z</time></trkpt><trkpt lat="40.303811546866584" lon="9.35920340075738"><ele>315.0</ele><time>2026-04-11T09:59:55Z</time></trkpt><trkpt lat="40.303918033363274" lon="9.359129604714916"><ele>315.0</ele><time>2026-04-11T09:59:56Z</time></trkpt><trkpt lat="40.303991695606626" lon="9.359003309689125"><ele>315.0</ele><time>2026-04-11T09:59:57Z</time></trkpt><trkpt lat="40.30401225304033" lon="9.358839663491306"><ele>314.25</ele><time>2026-04-11T09:59:58Z</time></trkpt><trkpt lat="40.30398377519959" lon="9.358663371966152"><ele>313.5</ele><time>2026-04-11T09:59:59Z</time></trkpt><trkpt lat="40.30391495483495" lon="9.358510586761694"><ele>312.75</ele><time>2026-04-11T10:00:00Z</time></trkpt><trkpt lat="40.30388777486445" lon="9.358354229350496"><ele>312.0</ele><time>2026-04-11T10:00:01Z</time></trkpt><trkpt lat="40.30392054081421" lon="9.358186996762893"><ele>319.3333333333333</ele><time>2026-04-11T10:00:02Z</time></trkpt><trkpt lat="40.304011351293646" lon="9.358034939065746"><ele>326.66666666666663</ele><time>2026-04-11T10:00:03Z</time></trkpt><trkpt lat="40.30408419097668" lon="9.357852520758962"><ele>334.0</ele><time>2026-04-11T10:00:04Z</time></trkpt><trkpt lat="40.3041255032365" lon="9.357659238982405"><ele>334.0</ele><time>2026-04-11T10:00:05Z</time></trkpt><trkpt lat="40.30409883059273" lon="9.35745028345868"><ele>334.0</ele><time>2026-04-11T10:00:06Z</time></trkpt><trkpt lat="40.30401633469395" lon="9.357237076923388"><ele>334.0</ele><time>2026-04-11T10:00:07Z</time></trkpt><trkpt lat="40.30393827489592" lon="9.357040525448525"><ele>334.5</ele><time>2026-04-11T10:00:08Z</time></trkpt><trkpt lat="40.30389647025678" lon="9.35685291315441"><ele>335.0</ele><time>2026-04-11T10:00:09Z</time></trkpt><trkpt lat="40.303928587150175" lon="9.356658902195916"><ele>335.5</ele><time>2026-04-11T10:00:10Z</time></trkpt><trkpt lat="40.30400410991602" lon="9.356491129776371"><ele>336.0</ele><time>2026-04-11T10:00:11Z</time></trkpt><trkpt lat="40.30411959641632" lon="9.35631073940664"><ele>334.75</ele><time>2026-04-11T10:00:12Z</time></trkpt><trkpt lat="40.304242266281946" lon="9.356159261618627"><ele>333.5</ele><time>2026-04-11T10:00:13Z</time></trkpt><trkpt lat="40.30434491520932" lon="9.356034201751143"><ele>332.25</ele><time>2026-04-11T10:00:14Z</time></trkpt><trkpt lat="40.30443917330985" lon="9.355908611702608"><ele>331.0</ele><time>2026-04-11T10:00:15Z</time></trkpt><trkpt lat="40.30450646250676" lon="9.355770481206074"><ele>331.0</ele><time>2026-04-11T10:00:16Z</time></trkpt><trkpt lat="40.30452189304961" lon="9.355629525675754"><ele>331.0</ele><time>2026-04-11T10:00:17Z</time></trkpt><trkpt lat="40.30452895482172" lon="9.355499167410455"><ele>331.0</ele><time>2026-04-11T10:00:18Z</time></trkpt><trkpt lat="40.30451750472389" lon="9.355351513196847"><ele>331.0</ele><time>2026-04-11T10:00:19Z</time></trkpt><trkpt lat="40.30449494886437" lon="9.355192950428"><ele>331.0</ele><time>2026-04-11T10:00:20Z</time></trkpt><trkpt lat="40.30449088482813" lon="9.355021391872459"><ele>329.0</ele><time>2026-04-11T10:00:21Z</time></trkpt><trkpt lat="40.30455843641485" lon="9.354842314045424"><ele>327.0</ele><time>2026-04-11T10:00:22Z</time></trkpt><trkpt lat="40.30463742610042" lon="9.354656979844483"><ele>325.0</ele><time>2026-04-11T10:00:23Z</time></trkpt><trkpt lat="40.30473061436915" lon="9.354468827754241"><ele>330.66666666666663</ele><time>2026-04-11T10:00:24Z</time></trkpt><trkpt lat="40.30485929828535" lon="9.35430797614559"><ele>336.3333333333333</ele><time>2026-04-11T10:00:25Z</time></trkpt><trkpt lat="40.3050180483138" lon="9.354167209073827"><ele>342.0</ele><time>2026-04-11T10:00:26Z</time></trkpt><trkpt lat="40.3051882364766" lon="9.354013044507344"><ele>346.0</ele><time>2026-04-11T10:00:27Z</time></trkpt><trkpt lat="40.305336365020366" lon="9.35382433280119"><ele>350.0</ele><time>2026-04-11T10:00:28Z</time></trkpt><trkpt lat="40.305464334606285" lon="9.353618782852713"><ele>354.0</ele><time>2026-04-11T10:00:29Z</time></trkpt><trkpt lat="40.305599327354244" lon="9.35341946055811"><ele>354.0</ele><time>2026-04-11T10:00:30Z</time></trkpt><trkpt lat="40.3057520249696" lon="9.353244224235508"><ele>354.0</ele><time>2026-04-11T10:00:31Z</time></trkpt><trkpt lat="40.30593324885501" lon="9.353115853750888"><ele>354.0</ele><time>2026-04-11T10:00:32Z</time></trkpt><trkpt lat="40.30612748180785" lon="9.35303363467124"><ele>352.0</ele><time>2026-04-11T10:00:32.999Z</time></trkpt><trkpt lat="40.3063268862196" lon="9.352972225278902"><ele>350.0</ele><time>2026-04-11T10:00:33.999Z</time></trkpt><trkpt lat="40.30650148939983" lon="9.352899891261481"><ele>348.0</ele><time>2026-04-11T10:00:34.999Z</time></trkpt><trkpt lat="40.30666763351026" lon="9.352885995259397"><ele>348.0</ele><time>2026-04-11T10:00:35.999Z</time></trkpt><trkpt lat="40.306830410233175" lon="9.352834627466407"><ele>348.0</ele><time>2026-04-11T10:00:36.999Z</time></trkpt><trkpt lat="40.30695652995712" lon="9.352719244795477"><ele>348.0</ele><time>2026-04-11T10:00:37.999Z</time></trkpt><trkpt lat="40.30708021168258" lon="9.352570721733976"><ele>348.0</ele><time>2026-04-11T10:00:38.999Z</time></trkpt><trkpt lat="40.3071926383851" lon="9.35239224299782"><ele>348.0</ele><time>2026-04-11T10:00:39.999Z</time></trkpt><trkpt lat="40.3073342874205" lon="9.352209773332678"><ele>348.0</ele><time>2026-04-11T10:00:40.999Z</time></trkpt><trkpt lat="40.30748726581388" lon="9.352027197386164"><ele>350.0</ele><time>2026-04-11T10:00:41.999Z</time></trkpt><trkpt lat="40.30765197359638" lon="9.351840275412405"><ele>352.0</ele><time>2026-04-11T10:00:42.999Z</time></trkpt><trkpt lat="40.30782153290759" lon="9.351649687930536"><ele>354.0</ele><time>2026-04-11T10:00:43.999Z</time></trkpt><trkpt lat="40.30799720832427" lon="9.351452433316995"><ele>358.5</ele><time>2026-04-11T10:00:44.999Z</time></trkpt><trkpt lat="40.30816498048901" lon="9.351239114928607"><ele>363.0</ele><time>2026-04-11T10:00:45.999Z</time></trkpt><trkpt lat="40.30833147197655" lon="9.351024569234598"><ele>363.0</ele><time>2026-04-11T10:00:46.999Z</time></trkpt><trkpt lat="40.3085139376081" lon="9.350845990488837"><ele>363.0</ele><time>2026-04-11T10:00:47.999Z</time></trkpt><trkpt lat="40.30870149793371" lon="9.35067032930855"><ele>366.0</ele><time>2026-04-11T10:00:48.999Z</time></trkpt><trkpt lat="40.308892526164385" lon="9.350497298888673"><ele>369.0</ele><time>2026-04-11T10:00:49.999Z</time></trkpt><trkpt lat="40.30908447966811" lon="9.35034916571412"><ele>369.0</ele><time>2026-04-11T10:00:50.999Z</time></trkpt><trkpt lat="40.309273360344" lon="9.350228951752577"><ele>369.0</ele><time>2026-04-11T10:00:51.999Z</time></trkpt><trkpt lat="40.30945177934703" lon="9.350101806895992"><ele>369.0</ele><time>2026-04-11T10:00:52.999Z</time></trkpt><trkpt lat="40.30959814867044" lon="9.349928809338309"><ele>369.0</ele><time>2026-04-11T10:00:53.999Z</time></trkpt><trkpt lat="40.3097295782633" lon="9.349711423103221"><ele>369.0</ele><time>2026-04-11T10:00:54.999Z</time></trkpt><trkpt lat="40.30991564385102" lon="9.349562748964868"><ele>369.0</ele><time>2026-04-11T10:00:55.999Z</time></trkpt><trkpt lat="40.310110114293714" lon="9.34941344660645"><ele>370.0</ele><time>2026-04-11T10:00:56.999Z</time></trkpt><trkpt lat="40.310308079405985" lon="9.349257119210781"><ele>371.0</ele><time>2026-04-11T10:00:57.999Z</time></trkpt><trkpt lat="40.31048400242719" lon="9.34911776393005"><ele>372.0</ele><time>2026-04-11T10:00:58.999Z</time></trkpt><trkpt lat="40.310640384987934" lon="9.349001006717497"><ele>371.6666666666667</ele><time>2026-04-11T10:00:59.999Z</time></trkpt><trkpt lat="40.31078514088302" lon="9.348907166938552"><ele>371.33333333333337</ele><time>2026-04-11T10:01:00.999Z</time></trkpt><trkpt lat="40.310923745991936" lon="9.34889646040696"><ele>371.0</ele><time>2026-04-11T10:01:01.999Z</time></trkpt><trkpt lat="40.31108735302445" lon="9.348863933646275"><ele>371.0</ele><time>2026-04-11T10:01:02.999Z</time></trkpt><trkpt lat="40.31121104976082" lon="9.348767040287026"><ele>371.0</ele><time>2026-04-11T10:01:03.999Z</time></trkpt><trkpt lat="40.311329260473784" lon="9.34870639369808"><ele>371.0</ele><time>2026-04-11T10:01:04.999Z</time></trkpt><trkpt lat="40.31144154979223" lon="9.348632417055107"><ele>371.0</ele><time>2026-04-11T10:01:05.999Z</time></trkpt><trkpt lat="40.31155087076091" lon="9.348579790524406"><ele>373.8</ele><time>2026-04-11T10:01:06.999Z</time></trkpt><trkpt lat="40.31165348243557" lon="9.348570971795935"><ele>376.6</ele><time>2026-04-11T10:01:07.999Z</time></trkpt><trkpt lat="40.31175278142256" lon="9.348592992600432"><ele>379.4</ele><time>2026-04-11T10:01:08.999Z</time></trkpt><trkpt lat="40.31183549423571" lon="9.348641593060183"><ele>382.2</ele><time>2026-04-11T10:01:10Z</time></trkpt><trkpt lat="40.31189944359242" lon="9.348706380970128"><ele>385.0</ele><time>2026-04-11T10:01:11Z</time></trkpt><trkpt lat="40.31198818130372" lon="9.348778705457276"><ele>385.0</ele><time>2026-04-11T10:01:12Z</time></trkpt><trkpt lat="40.312072740227094" lon="9.348858936643998"><ele>385.0</ele><time>2026-04-11T10:01:13Z</time></trkpt><trkpt lat="40.31215778970756" lon="9.348908807749432"><ele>385.0</ele><time>2026-04-11T10:01:14Z</time></trkpt><trkpt lat="40.312242352911085" lon="9.348920691338733"><ele>385.0</ele><time>2026-04-11T10:01:15Z</time></trkpt><trkpt lat="40.312336687079814" lon="9.348915115374728"><ele>385.0</ele><time>2026-04-11T10:01:16Z</time></trkpt><trkpt lat="40.312423621197695" lon="9.348810860109772"><ele>389.0</ele><time>2026-04-11T10:01:17Z</time></trkpt><trkpt lat="40.31249476143846" lon="9.348663049424541"><ele>393.0</ele><time>2026-04-11T10:01:18Z</time></trkpt><trkpt lat="40.31257013778699" lon="9.34845936828112"><ele>397.0</ele><time>2026-04-11T10:01:19Z</time></trkpt><trkpt lat="40.31266335718701" lon="9.348193658010272"><ele>393.33333333333337</ele><time>2026-04-11T10:01:20Z</time></trkpt><trkpt lat="40.31274525197224" lon="9.34796008116546"><ele>389.66666666666663</ele><time>2026-04-11T10:01:21Z</time></trkpt><trkpt lat="40.31282819840628" lon="9.347725697316793"><ele>386.0</ele><time>2026-04-11T10:01:22Z</time></trkpt><trkpt lat="40.31291232187584" lon="9.3474879875544"><ele>386.0</ele><time>2026-04-11T10:01:23Z</time></trkpt><trkpt lat="40.31300633331191" lon="9.347222337084336"><ele>386.0</ele><time>2026-04-11T10:01:24Z</time></trkpt><trkpt lat="40.31309310745105" lon="9.346977485892394"><ele>386.0</ele><time>2026-04-11T10:01:25Z</time></trkpt><trkpt lat="40.3131793495488" lon="9.346766231297071"><ele>382.3333333333333</ele><time>2026-04-11T10:01:26Z</time></trkpt><trkpt lat="40.313296631457" lon="9.346596249023237"><ele>378.66666666666663</ele><time>2026-04-11T10:01:27Z</time></trkpt><trkpt lat="40.31345368404467" lon="9.346456972031227"><ele>375.0</ele><time>2026-04-11T10:01:28Z</time></trkpt><trkpt lat="40.31365446109562" lon="9.346291106931323"><ele>375.0</ele><time>2026-04-11T10:01:29Z</time></trkpt><trkpt lat="40.31383074437823" lon="9.346130354849072"><ele>375.0</ele><time>2026-04-11T10:01:30Z</time></trkpt><trkpt lat="40.31397525784143" lon="9.345996185410927"><ele>375.0</ele><time>2026-04-11T10:01:31Z</time></trkpt><trkpt lat="40.31409974282337" lon="9.345889399255991"><ele>381.75</ele><time>2026-04-11T10:01:32Z</time></trkpt><trkpt lat="40.31420832696527" lon="9.345839261452406"><ele>388.5</ele><time>2026-04-11T10:01:33Z</time></trkpt><trkpt lat="40.31431039287037" lon="9.345863756146045"><ele>395.25</ele><time>2026-04-11T10:01:34Z</time></trkpt><trkpt lat="40.31442468489861" lon="9.345953123460838"><ele>402.0</ele><time>2026-04-11T10:01:35Z</time></trkpt><trkpt lat="40.31455556510626" lon="9.345997414771674"><ele>402.0</ele><time>2026-04-11T10:01:36Z</time></trkpt><trkpt lat="40.31469011201495" lon="9.345943846357347"><ele>402.0</ele><time>2026-04-11T10:01:37Z</time></trkpt><trkpt lat="40.31486392890629" lon="9.34574800579754"><ele>402.0</ele><time>2026-04-11T10:01:38Z</time></trkpt><trkpt lat="40.31505461086679" lon="9.34554088605046"><ele>398.5</ele><time>2026-04-11T10:01:39Z</time></trkpt><trkpt lat="40.31525178831824" lon="9.345317694865102"><ele>395.0</ele><time>2026-04-11T10:01:40Z</time></trkpt><trkpt lat="40.3154421747203" lon="9.345102709322953"><ele>397.0</ele><time>2026-04-11T10:01:41Z</time></trkpt><trkpt lat="40.31564680697149" lon="9.344877162152407"><ele>399.0</ele><time>2026-04-11T10:01:42Z</time></trkpt><trkpt lat="40.31584480104132" lon="9.344657088064562"><ele>399.0</ele><time>2026-04-11T10:01:43Z</time></trkpt><trkpt lat="40.3160502549054" lon="9.344456685407717"><ele>399.0</ele><time>2026-04-11T10:01:44Z</time></trkpt><trkpt lat="40.3162781873607" lon="9.344285942424145"><ele>407.33333333333337</ele><time>2026-04-11T10:01:45Z</time></trkpt><trkpt lat="40.31648113429639" lon="9.34416637583022"><ele>415.6666666666667</ele><time>2026-04-11T10:01:46Z</time></trkpt><trkpt lat="40.316691703510536" lon="9.344114762904564"><ele>424.0</ele><time>2026-04-11T10:01:47Z</time></trkpt><trkpt lat="40.31692187718723" lon="9.34406529199834"><ele>424.0</ele><time>2026-04-11T10:01:48Z</time></trkpt><trkpt lat="40.31714982131915" lon="9.344020499756434"><ele>424.0</ele><time>2026-04-11T10:01:49Z</time></trkpt><trkpt lat="40.31730703062715" lon="9.34394604134314"><ele>424.0</ele><time>2026-04-11T10:01:50Z</time></trkpt><trkpt lat="40.31744918576978" lon="9.343891250782592"><ele>426.0</ele><time>2026-04-11T10:01:51Z</time></trkpt><trkpt lat="40.317560084865185" lon="9.343865183351882"><ele>428.0</ele><time>2026-04-11T10:01:52Z</time></trkpt><trkpt lat="40.317680015023754" lon="9.343912609716812"><ele>430.0</ele><time>2026-04-11T10:01:53Z</time></trkpt><trkpt lat="40.317810009933524" lon="9.344038613597585"><ele>432.0</ele><time>2026-04-11T10:01:54Z</time></trkpt><trkpt lat="40.317998921589776" lon="9.344170403239339"><ele>428.0</ele><time>2026-04-11T10:01:55Z</time></trkpt><trkpt lat="40.318201670661544" lon="9.344312594952546"><ele>424.0</ele><time>2026-04-11T10:01:56Z</time></trkpt><trkpt lat="40.31842696781145" lon="9.344419196548424"><ele>424.0</ele><time>2026-04-11T10:01:57Z</time></trkpt><trkpt lat="40.318661097606444" lon="9.344460992926145"><ele>424.0</ele><time>2026-04-11T10:01:58Z</time></trkpt><trkpt lat="40.31889006821905" lon="9.34448458393668"><ele>425.0</ele><time>2026-04-11T10:01:59Z</time></trkpt><trkpt lat="40.31917157039618" lon="9.344415223970387"><ele>426.0</ele><time>2026-04-11T10:02:00Z</time></trkpt><trkpt lat="40.31945839216389" lon="9.344376129622225"><ele>426.0</ele><time>2026-04-11T10:02:01Z</time></trkpt><trkpt lat="40.319733511097986" lon="9.34430128335163"><ele>426.0</ele><time>2026-04-11T10:02:02Z</time></trkpt><trkpt lat="40.319980274646255" lon="9.344173969407432"><ele>434.5</ele><time>2026-04-11T10:02:03Z</time></trkpt><trkpt lat="40.32024033518128" lon="9.344014696653119"><ele>443.0</ele><time>2026-04-11T10:02:04Z</time></trkpt><trkpt lat="40.320498341467456" lon="9.343922655909868"><ele>449.5</ele><time>2026-04-11T10:02:05Z</time></trkpt><trkpt lat="40.320747651766325" lon="9.343897818416037"><ele>456.0</ele><time>2026-04-11T10:02:06Z</time></trkpt><trkpt lat="40.32102153005707" lon="9.343894878425166"><ele>456.0</ele><time>2026-04-11T10:02:07Z</time></trkpt><trkpt lat="40.321309522116245" lon="9.343896564059603"><ele>456.0</ele><time>2026-04-11T10:02:08Z</time></trkpt><trkpt lat="40.3215856557332" lon="9.343927461753843"><ele>456.33333333333337</ele><time>2026-04-11T10:02:09Z</time></trkpt><trkpt lat="40.3218241575007" lon="9.343976804810723"><ele>456.6666666666667</ele><time>2026-04-11T10:02:10Z</time></trkpt><trkpt lat="40.32202712001089" lon="9.344028810829867"><ele>457.0</ele><time>2026-04-11T10:02:11Z</time></trkpt><trkpt lat="40.32217059519397" lon="9.344082231448626"><ele>452.6666666666667</ele><time>2026-04-11T10:02:12Z</time></trkpt><trkpt lat="40.32228411482644" lon="9.344182438730668"><ele>448.33333333333337</ele><time>2026-04-11T10:02:13Z</time></trkpt><trkpt lat="40.32237446256165" lon="9.344357984507221"><ele>444.0</ele><time>2026-04-11T10:02:14Z</time></trkpt><trkpt lat="40.32247316299981" lon="9.344598895086996"><ele>451.0</ele><time>2026-04-11T10:02:15Z</time></trkpt><trkpt lat="40.32257634942277" lon="9.344852317218692"><ele>458.0</ele><time>2026-04-11T10:02:16Z</time></trkpt><trkpt lat="40.32266984144942" lon="9.345070431760684"><ele>465.0</ele><time>2026-04-11T10:02:17Z</time></trkpt><trkpt lat="40.32274518766543" lon="9.345198152067647"><ele>465.0</ele><time>2026-04-11T10:02:18Z</time></trkpt><trkpt lat="40.322857439118366" lon="9.345267335372307"><ele>465.0</ele><time>2026-04-11T10:02:19Z</time></trkpt><trkpt lat="40.323003317545805" lon="9.345262913448853"><ele>465.0</ele><time>2026-04-11T10:02:20Z</time></trkpt><trkpt lat="40.32319633115719" lon="9.345202876276629"><ele>461.66666666666663</ele><time>2026-04-11T10:02:21Z</time></trkpt><trkpt lat="40.32340153810571" lon="9.345120414890323"><ele>458.3333333333333</ele><time>2026-04-11T10:02:22Z</time></trkpt><trkpt lat="40.32360925349526" lon="9.345052767063653"><ele>455.0</ele><time>2026-04-11T10:02:23Z</time></trkpt><trkpt lat="40.323769055862215" lon="9.344883774930588"><ele>460.5</ele><time>2026-04-11T10:02:24Z</time></trkpt><trkpt lat="40.323923190555135" lon="9.344668945733453"><ele>466.0</ele><time>2026-04-11T10:02:25Z</time></trkpt><trkpt lat="40.32408520100746" lon="9.344406496286032"><ele>466.0</ele><time>2026-04-11T10:02:26Z</time></trkpt><trkpt lat="40.3242443575299" lon="9.344133531438878"><ele>466.0</ele><time>2026-04-11T10:02:27Z</time></trkpt><trkpt lat="40.324391633269656" lon="9.343846351566155"><ele>461.5</ele><time>2026-04-11T10:02:28Z</time></trkpt><trkpt lat="40.324483724410435" lon="9.343523335385463"><ele>457.0</ele><time>2026-04-11T10:02:29Z</time></trkpt><trkpt lat="40.32459732519087" lon="9.343270598505518"><ele>457.6666666666667</ele><time>2026-04-11T10:02:30Z</time></trkpt><trkpt lat="40.32475638930502" lon="9.3431008274873"><ele>458.33333333333337</ele><time>2026-04-11T10:02:31Z</time></trkpt><trkpt lat="40.32495297395085" lon="9.342992981235245"><ele>459.0</ele><time>2026-04-11T10:02:32Z</time></trkpt><trkpt lat="40.32519282104322" lon="9.342891054030552"><ele>459.0</ele><time>2026-04-11T10:02:33Z</time></trkpt><trkpt lat="40.32545226688782" lon="9.34278575719622"><ele>459.0</ele><time>2026-04-11T10:02:34Z</time></trkpt><trkpt lat="40.32569400570411" lon="9.342669440491537"><ele>460.5</ele><time>2026-04-11T10:02:35Z</time></trkpt><trkpt lat="40.32587582491543" lon="9.342461763808153"><ele>462.0</ele><time>2026-04-11T10:02:36Z</time></trkpt><trkpt lat="40.32603868428373" lon="9.34220200851051"><ele>462.0</ele><time>2026-04-11T10:02:36.999Z</time></trkpt><trkpt lat="40.32627989135152" lon="9.342012107810737"><ele>462.0</ele><time>2026-04-11T10:02:37.999Z</time></trkpt><trkpt lat="40.3264533368895" lon="9.34174039454935"><ele>472.5</ele><time>2026-04-11T10:02:38.999Z</time></trkpt><trkpt lat="40.326596512809516" lon="9.341467479149197"><ele>483.0</ele><time>2026-04-11T10:02:39.999Z</time></trkpt><trkpt lat="40.32678328161192" lon="9.341258024264166"><ele>483.0</ele><time>2026-04-11T10:02:40.999Z</time></trkpt><trkpt lat="40.32698142184899" lon="9.341126398024821"><ele>483.0</ele><time>2026-04-11T10:02:41.999Z</time></trkpt><trkpt lat="40.327144992091746" lon="9.341006088816442"><ele>483.0</ele><time>2026-04-11T10:02:42.999Z</time></trkpt><trkpt lat="40.327270272062805" lon="9.340951404996263"><ele>494.66666666666663</ele><time>2026-04-11T10:02:43.999Z</time></trkpt><trkpt lat="40.32737971285478" lon="9.340795671101947"><ele>506.3333333333333</ele><time>2026-04-11T10:02:44.999Z</time></trkpt><trkpt lat="40.32738460157259" lon="9.340626462402707"><ele>518.0</ele><time>2026-04-11T10:02:45.999Z</time></trkpt><trkpt lat="40.32734181025613" lon="9.34042544708508"><ele>519.3333333333333</ele><time>2026-04-11T10:02:46.999Z</time></trkpt><trkpt lat="40.32724225637314" lon="9.340237468199364"><ele>520.6666666666666</ele><time>2026-04-11T10:02:47.999Z</time></trkpt><trkpt lat="40.3270649576661" lon="9.33999778444803"><ele>522.0</ele><time>2026-04-11T10:02:48.999Z</time></trkpt><trkpt lat="40.32687879892417" lon="9.339827141919335"><ele>526.0</ele><time>2026-04-11T10:02:49.999Z</time></trkpt><trkpt lat="40.32666868194511" lon="9.339728549091882"><ele>530.0</ele><time>2026-04-11T10:02:50.999Z</time></trkpt><trkpt lat="40.326463091655384" lon="9.339579466909814"><ele>522.0</ele><time>2026-04-11T10:02:51.999Z</time></trkpt><trkpt lat="40.326294827435845" lon="9.339318573771225"><ele>514.0</ele><time>2026-04-11T10:02:52.999Z</time></trkpt><trkpt lat="40.326104638880885" lon="9.339058013361635"><ele>514.0</ele><time>2026-04-11T10:02:53.999Z</time></trkpt><trkpt lat="40.32590664544973" lon="9.3389022541274"><ele>514.0</ele><time>2026-04-11T10:02:54.999Z</time></trkpt><trkpt lat="40.32575210800878" lon="9.338850690140514"><ele>514.0</ele><time>2026-04-11T10:02:55.999Z</time></trkpt><trkpt lat="40.325604411877755" lon="9.338865373021864"><ele>514.0</ele><time>2026-04-11T10:02:56.999Z</time></trkpt><trkpt lat="40.32544972517382" lon="9.338938645036823"><ele>514.0</ele><time>2026-04-11T10:02:57.999Z</time></trkpt><trkpt lat="40.32527012879577" lon="9.339041833525732"><ele>514.0</ele><time>2026-04-11T10:02:58.999Z</time></trkpt><trkpt lat="40.32506780991272" lon="9.33902861947495"><ele>514.0</ele><time>2026-04-11T10:02:59.999Z</time></trkpt><trkpt lat="40.324889142664844" lon="9.338978918897883"><ele>514.0</ele><time>2026-04-11T10:03:00.999Z</time></trkpt><trkpt lat="40.32475312373116" lon="9.33890879381833"><ele>514.0</ele><time>2026-04-11T10:03:01.999Z</time></trkpt><trkpt lat="40.32465637180341" lon="9.33878966322211"><ele>519.3333333333334</ele><time>2026-04-11T10:03:02.999Z</time></trkpt><trkpt lat="40.324605927612964" lon="9.338650558783412"><ele>524.6666666666666</ele><time>2026-04-11T10:03:03.999Z</time></trkpt><trkpt lat="40.324556364402646" lon="9.338434711733132"><ele>530.0</ele><time>2026-04-11T10:03:04.999Z</time></trkpt><trkpt lat="40.32452117401806" lon="9.33820964551069"><ele>534.25</ele><time>2026-04-11T10:03:05.999Z</time></trkpt><trkpt lat="40.32443885676998" lon="9.338002881586313"><ele>538.5</ele><time>2026-04-11T10:03:06.999Z</time></trkpt><trkpt lat="40.32435285506856" lon="9.337887272406336"><ele>542.75</ele><time>2026-04-11T10:03:07.999Z</time></trkpt><trkpt lat="40.32422254689391" lon="9.337844341752293"><ele>547.0</ele><time>2026-04-11T10:03:08.999Z</time></trkpt><trkpt lat="40.32407412279987" lon="9.337896167655643"><ele>547.0</ele><time>2026-04-11T10:03:09.999Z</time></trkpt><trkpt lat="40.32391826014397" lon="9.33803840323242"><ele>547.0</ele><time>2026-04-11T10:03:10.999Z</time></trkpt><trkpt lat="40.32379038660859" lon="9.338182653563265"><ele>547.0</ele><time>2026-04-11T10:03:11.999Z</time></trkpt><trkpt lat="40.323701671831294" lon="9.338271039482951"><ele>543.8333333333334</ele><time>2026-04-11T10:03:12.999Z</time></trkpt><trkpt lat="40.32364564668956" lon="9.3383135436163"><ele>540.6666666666667</ele><time>2026-04-11T10:03:13.999Z</time></trkpt><trkpt lat="40.32357504023804" lon="9.338319153443804"><ele>537.5</ele><time>2026-04-11T10:03:17Z</time></trkpt><trkpt lat="40.32349821539144" lon="9.338237542018518"><ele>534.3333333333334</ele><time>2026-04-11T10:03:20Z</time></trkpt><trkpt lat="40.32340380710612" lon="9.338258667521087"><ele>531.1666666666666</ele><time>2026-04-11T10:03:21Z</time></trkpt><trkpt lat="40.32332830600315" lon="9.338227720979507"><ele>528.0</ele><time>2026-04-11T10:03:22Z</time></trkpt><trkpt lat="40.32325195797119" lon="9.338196922154886"><ele>528.0</ele><time>2026-04-11T10:03:23Z</time></trkpt><trkpt lat="40.32317342397843" lon="9.33812641189934"><ele>528.0</ele><time>2026-04-11T10:03:24Z</time></trkpt><trkpt lat="40.32308786143917" lon="9.338060515739107"><ele>528.0</ele><time>2026-04-11T10:03:25Z</time></trkpt><trkpt lat="40.323011226724624" lon="9.337930163917514"><ele>528.0</ele><time>2026-04-11T10:03:26Z</time></trkpt><trkpt lat="40.32293691251356" lon="9.337808807109758"><ele>528.0</ele><time>2026-04-11T10:03:27Z</time></trkpt><trkpt lat="40.32288871052588" lon="9.337635369187034"><ele>530.0</ele><time>2026-04-11T10:03:28Z</time></trkpt><trkpt lat="40.32283534182491" lon="9.337472522708579"><ele>532.0</ele><time>2026-04-11T10:03:29Z</time></trkpt><trkpt lat="40.3228056207124" lon="9.337343477515859"><ele>534.0</ele><time>2026-04-11T10:03:30Z</time></trkpt><trkpt lat="40.32276632315863" lon="9.337244451865011"><ele>536.0</ele><time>2026-04-11T10:03:31Z</time></trkpt><trkpt lat="40.322725800422965" lon="9.337167123310467"><ele>538.0</ele><time>2026-04-11T10:03:32Z</time></trkpt><trkpt lat="40.32267919867929" lon="9.337106906898729"><ele>539.3333333333334</ele><time>2026-04-11T10:03:33Z</time></trkpt><trkpt lat="40.32261898814686" lon="9.337056812734179"><ele>540.6666666666667</ele><time>2026-04-11T10:03:34Z</time></trkpt><trkpt lat="40.32254010717835" lon="9.337028572254004"><ele>542.0</ele><time>2026-04-11T10:03:35Z</time></trkpt><trkpt lat="40.32245096959625" lon="9.3370288321015"><ele>543.3333333333334</ele><time>2026-04-11T10:03:36Z</time></trkpt><trkpt lat="40.32235844110759" lon="9.33704415501084"><ele>544.6666666666666</ele><time>2026-04-11T10:03:37Z</time></trkpt><trkpt lat="40.32226692182206" lon="9.337062618824445"><ele>546.0</ele><time>2026-04-11T10:03:38Z</time></trkpt><trkpt lat="40.32217610447088" lon="9.337079502788159"><ele>546.2</ele><time>2026-04-11T10:03:39Z</time></trkpt><trkpt lat="40.32210022562083" lon="9.33705255619742"><ele>546.4000000000001</ele><time>2026-04-11T10:03:41Z</time></trkpt><trkpt lat="40.322055458689036" lon="9.336991395535547"><ele>546.6</ele><time>2026-04-11T10:03:44Z</time></trkpt><trkpt lat="40.321998052983425" lon="9.336865939110542"><ele>546.8000000000001</ele><time>2026-04-11T10:03:46Z</time></trkpt><trkpt lat="40.3219690799773" lon="9.336705722898392"><ele>547.0</ele><time>2026-04-11T10:03:48Z</time></trkpt><trkpt lat="40.32197587772706" lon="9.336597801231097"><ele>547.0</ele><time>2026-04-11T10:03:49Z</time></trkpt><trkpt lat="40.32198681861338" lon="9.336490467299662"><ele>547.0</ele><time>2026-04-11T10:03:50Z</time></trkpt><trkpt lat="40.32199839846947" lon="9.336405158558934"><ele>547.0</ele><time>2026-04-11T10:03:51Z</time></trkpt><trkpt lat="40.322014021018376" lon="9.336288643326998"><ele>547.0</ele><time>2026-04-11T10:03:53Z</time></trkpt><trkpt lat="40.32201149111691" lon="9.336138911092005"><ele>547.0</ele><time>2026-04-11T10:03:55Z</time></trkpt><trkpt lat="40.32201239813064" lon="9.335997427050637"><ele>547.0</ele><time>2026-04-11T10:03:57Z</time></trkpt><trkpt lat="40.32205041355261" lon="9.335856165711961"><ele>547.0</ele><time>2026-04-11T10:03:59Z</time></trkpt><trkpt lat="40.32214555913795" lon="9.335773438336323"><ele>547.0</ele><time>2026-04-11T10:04:01Z</time></trkpt><trkpt lat="40.322236352186046" lon="9.33565625412389"><ele>547.0</ele><time>2026-04-11T10:04:03Z</time></trkpt><trkpt lat="40.32228518645171" lon="9.33560281096194"><ele>547.0</ele><time>2026-04-11T10:04:04Z</time></trkpt><trkpt lat="40.32233995223517" lon="9.33554302349553"><ele>547.6666666666667</ele><time>2026-04-11T10:04:05Z</time></trkpt><trkpt lat="40.322399291117634" lon="9.335483828271895"><ele>548.3333333333334</ele><time>2026-04-11T10:04:06Z</time></trkpt><trkpt lat="40.32247436187357" lon="9.335460026726283"><ele>549.0</ele><time>2026-04-11T10:04:07Z</time></trkpt><trkpt lat="40.32258489267707" lon="9.335378048190723"><ele>549.6666666666666</ele><time>2026-04-11T10:04:09Z</time></trkpt><trkpt lat="40.322656109091334" lon="9.33532605311412"><ele>550.3333333333333</ele><time>2026-04-11T10:04:10Z</time></trkpt><trkpt lat="40.32271460141451" lon="9.33525964906944"><ele>551.0</ele><time>2026-04-11T10:04:11Z</time></trkpt><trkpt lat="40.322790397239444" lon="9.335127654055771"><ele>551.0</ele><time>2026-04-11T10:04:13Z</time></trkpt><trkpt lat="40.32281979718257" lon="9.335052502247539"><ele>551.0</ele><time>2026-04-11T10:04:14Z</time></trkpt><trkpt lat="40.322841952479045" lon="9.33493552419771"><ele>551.0</ele><time>2026-04-11T10:04:16Z</time></trkpt><trkpt lat="40.32286249684676" lon="9.334825294860964"><ele>551.0</ele><time>2026-04-11T10:04:19Z</time></trkpt><trkpt lat="40.322896792299495" lon="9.334722205196664"><ele>551.0</ele><time>2026-04-11T10:04:27Z</time></trkpt><trkpt lat="40.322909274511865" lon="9.334566237615903"><ele>551.0</ele><time>2026-04-11T10:04:29Z</time></trkpt><trkpt lat="40.32291821467216" lon="9.33443257468905"><ele>550.8</ele><time>2026-04-11T10:04:31Z</time></trkpt><trkpt lat="40.32292494444091" lon="9.334286644405434"><ele>550.6</ele><time>2026-04-11T10:04:33Z</time></trkpt><trkpt lat="40.322951399787165" lon="9.33412439799062"><ele>550.4</ele><time>2026-04-11T10:04:35Z</time></trkpt><trkpt lat="40.32298384717948" lon="9.333951067360411"><ele>550.2</ele><time>2026-04-11T10:04:37Z</time></trkpt><trkpt lat="40.3229881582853" lon="9.333863623558027"><ele>550.0</ele><time>2026-04-11T10:04:38Z</time></trkpt><trkpt lat="40.32299439127268" lon="9.333759674305828"><ele>550.8333333333334</ele><time>2026-04-11T10:04:39Z</time></trkpt><trkpt lat="40.32300058459058" lon="9.33367321411717"><ele>551.6666666666667</ele><time>2026-04-11T10:04:40Z</time></trkpt><trkpt lat="40.32301274767003" lon="9.333580105150732"><ele>552.5</ele><time>2026-04-11T10:04:41Z</time></trkpt><trkpt lat="40.32304814048353" lon="9.333505996936772"><ele>553.3333333333334</ele><time>2026-04-11T10:04:42Z</time></trkpt><trkpt lat="40.32308217878058" lon="9.333373183921395"><ele>554.1666666666666</ele><time>2026-04-11T10:04:44Z</time></trkpt><trkpt lat="40.32309990729119" lon="9.333284285372716"><ele>555.0</ele><time>2026-04-11T10:04:45Z</time></trkpt><trkpt lat="40.323148580804066" lon="9.333144848197884"><ele>553.6</ele><time>2026-04-11T10:04:47Z</time></trkpt><trkpt lat="40.323201850332175" lon="9.333004836692236"><ele>552.2</ele><time>2026-04-11T10:04:49Z</time></trkpt><trkpt lat="40.323247080521114" lon="9.332902233937002"><ele>550.8</ele><time>2026-04-11T10:04:50.999Z</time></trkpt><trkpt lat="40.32328080882996" lon="9.332773507689675"><ele>549.4</ele><time>2026-04-11T10:04:52.999Z</time></trkpt><trkpt lat="40.323298571201576" lon="9.332687734699093"><ele>548.0</ele><time>2026-04-11T10:04:53.999Z</time></trkpt><trkpt lat="40.32333010084043" lon="9.332596462588986"><ele>548.0</ele><time>2026-04-11T10:04:54.999Z</time></trkpt><trkpt lat="40.32335954626517" lon="9.33250297693426"><ele>548.0</ele><time>2026-04-11T10:04:55.999Z</time></trkpt><trkpt lat="40.32339814747931" lon="9.332411357392015"><ele>548.0</ele><time>2026-04-11T10:04:56.999Z</time></trkpt><trkpt lat="40.32343008847808" lon="9.332317521317641"><ele>548.0</ele><time>2026-04-11T10:04:57.999Z</time></trkpt><trkpt lat="40.32345756226622" lon="9.332236954385886"><ele>548.0</ele><time>2026-04-11T10:04:58.999Z</time></trkpt><trkpt lat="40.32348327299108" lon="9.33215210218189"><ele>548.0</ele><time>2026-04-11T10:04:59.999Z</time></trkpt><trkpt lat="40.32353577986911" lon="9.332023316839694"><ele>547.6</ele><time>2026-04-11T10:05:01.999Z</time></trkpt><trkpt lat="40.323559319560914" lon="9.331945440426312"><ele>547.1999999999999</ele><time>2026-04-11T10:05:02.999Z</time></trkpt><trkpt lat="40.32361261824214" lon="9.331796221337742"><ele>546.8</ele><time>2026-04-11T10:05:04.999Z</time></trkpt><trkpt lat="40.323658340190335" lon="9.331665238571935"><ele>546.4</ele><time>2026-04-11T10:05:06.999Z</time></trkpt><trkpt lat="40.32370054127417" lon="9.331546576788874"><ele>546.0</ele><time>2026-04-11T10:05:08.999Z</time></trkpt><trkpt lat="40.32372205997701" lon="9.33144715098009"><ele>546.1666666666666</ele><time>2026-04-11T10:05:10.999Z</time></trkpt><trkpt lat="40.32374197433772" lon="9.331364918931973"><ele>546.3333333333334</ele><time>2026-04-11T10:05:13.999Z</time></trkpt><trkpt lat="40.323710132473416" lon="9.33126272081245"><ele>546.5</ele><time>2026-04-11T10:05:16.999Z</time></trkpt><trkpt lat="40.323669335066754" lon="9.331169114891267"><ele>546.6666666666667</ele><time>2026-04-11T10:05:18.999Z</time></trkpt><trkpt lat="40.32361662902296" lon="9.33107083392339"><ele>546.8333333333334</ele><time>2026-04-11T10:05:22Z</time></trkpt><trkpt lat="40.323561554803646" lon="9.330993822236403"><ele>547.0</ele><time>2026-04-11T10:05:24Z</time></trkpt><trkpt lat="40.323531568331525" lon="9.330911010367693"><ele>547.0</ele><time>2026-04-11T10:05:26Z</time></trkpt><trkpt lat="40.32347677287616" lon="9.330844836047469"><ele>547.0</ele><time>2026-04-11T10:05:28Z</time></trkpt><trkpt lat="40.32344305872135" lon="9.330742884226085"><ele>547.0</ele><time>2026-04-11T10:05:31Z</time></trkpt><trkpt lat="40.32339051126573" lon="9.3306389343037"><ele>547.0</ele><time>2026-04-11T10:05:33Z</time></trkpt><trkpt lat="40.323344615606615" lon="9.330577479180073"><ele>547.0</ele><time>2026-04-11T10:05:35Z</time></trkpt><trkpt lat="40.323293919558985" lon="9.3304903160688"><ele>547.0</ele><time>2026-04-11T10:05:38Z</time></trkpt><trkpt lat="40.32323258380279" lon="9.330405287667178"><ele>547.3333333333334</ele><time>2026-04-11T10:05:41Z</time></trkpt><trkpt lat="40.32319424483606" lon="9.330333784206708"><ele>547.6666666666667</ele><time>2026-04-11T10:05:43Z</time></trkpt><trkpt lat="40.32314559431854" lon="9.33019627061657"><ele>548.0</ele><time>2026-04-11T10:05:45Z</time></trkpt><trkpt lat="40.3230814433267" lon="9.330084002641373"><ele>548.3333333333334</ele><time>2026-04-11T10:05:47Z</time></trkpt><trkpt lat="40.32304289115867" lon="9.330012092641134"><ele>548.6666666666666</ele><time>2026-04-11T10:05:48Z</time></trkpt><trkpt lat="40.323004702085626" lon="9.329935264700776"><ele>549.0</ele><time>2026-04-11T10:05:49Z</time></trkpt><trkpt lat="40.32297056459103" lon="9.329848973226637"><ele>548.3333333333334</ele><time>2026-04-11T10:05:50Z</time></trkpt><trkpt lat="40.322934744816266" lon="9.329760924900185"><ele>547.6666666666666</ele><time>2026-04-11T10:05:51Z</time></trkpt><trkpt lat="40.32289953388633" lon="9.329672053456177"><ele>547.0</ele><time>2026-04-11T10:05:52Z</time></trkpt><trkpt lat="40.322858176004765" lon="9.329575391060489"><ele>546.3333333333333</ele><time>2026-04-11T10:05:53Z</time></trkpt><trkpt lat="40.322796560226315" lon="9.329470720649333"><ele>545.6666666666666</ele><time>2026-04-11T10:05:54Z</time></trkpt><trkpt lat="40.32273427774387" lon="9.329364298737408"><ele>545.0</ele><time>2026-04-11T10:05:55Z</time></trkpt><trkpt lat="40.322665396867926" lon="9.329269348878864"><ele>545.0</ele><time>2026-04-11T10:05:56Z</time></trkpt><trkpt lat="40.322590566813794" lon="9.329173975986775"><ele>545.0</ele><time>2026-04-11T10:05:57Z</time></trkpt><trkpt lat="40.32251975438548" lon="9.329101365797625"><ele>545.0</ele><time>2026-04-11T10:05:58Z</time></trkpt><trkpt lat="40.32244691590238" lon="9.329026418085409"><ele>545.0</ele><time>2026-04-11T10:05:59Z</time></trkpt><trkpt lat="40.32237046546147" lon="9.328947910469845"><ele>545.0</ele><time>2026-04-11T10:06:00Z</time></trkpt><trkpt lat="40.32228850415712" lon="9.328860955437348"><ele>544.8</ele><time>2026-04-11T10:06:01Z</time></trkpt><trkpt lat="40.32220233217459" lon="9.328770989367037"><ele>544.6</ele><time>2026-04-11T10:06:02Z</time></trkpt><trkpt lat="40.32211637931364" lon="9.328683879453514"><ele>544.4</ele><time>2026-04-11T10:06:03Z</time></trkpt><trkpt lat="40.32203246071811" lon="9.32860656911943"><ele>544.2</ele><time>2026-04-11T10:06:04Z</time></trkpt><trkpt lat="40.321946507389846" lon="9.32853089613955"><ele>544.0</ele><time>2026-04-11T10:06:05Z</time></trkpt><trkpt lat="40.32186037342401" lon="9.328458594116785"><ele>544.0</ele><time>2026-04-11T10:06:06Z</time></trkpt><trkpt lat="40.3217735242778" lon="9.328384553127735"><ele>544.0</ele><time>2026-04-11T10:06:07Z</time></trkpt><trkpt lat="40.321688338044545" lon="9.328306011217744"><ele>544.0</ele><time>2026-04-11T10:06:08Z</time></trkpt><trkpt lat="40.32160489336517" lon="9.328218540976435"><ele>544.0</ele><time>2026-04-11T10:06:09Z</time></trkpt><trkpt lat="40.32152507505933" lon="9.328123712064334"><ele>544.0</ele><time>2026-04-11T10:06:10Z</time></trkpt><trkpt lat="40.321450981296444" lon="9.32801419249074"><ele>543.25</ele><time>2026-04-11T10:06:11Z</time></trkpt><trkpt lat="40.3213858492214" lon="9.327895036583147"><ele>542.5</ele><time>2026-04-11T10:06:12Z</time></trkpt><trkpt lat="40.32133363802719" lon="9.327762309787236"><ele>541.75</ele><time>2026-04-11T10:06:13Z</time></trkpt><trkpt lat="40.32129835896884" lon="9.327617023082174"><ele>541.0</ele><time>2026-04-11T10:06:14Z</time></trkpt><trkpt lat="40.321294281464354" lon="9.327451507002788"><ele>541.0</ele><time>2026-04-11T10:06:15Z</time></trkpt><trkpt lat="40.321276951361384" lon="9.327307633981164"><ele>541.0</ele><time>2026-04-11T10:06:16Z</time></trkpt><trkpt lat="40.321265357154076" lon="9.3271685531384"><ele>541.0</ele><time>2026-04-11T10:06:17Z</time></trkpt><trkpt lat="40.321254558353274" lon="9.327054593946405"><ele>541.0</ele><time>2026-04-11T10:06:18Z</time></trkpt><trkpt lat="40.32124565888104" lon="9.326943942003739"><ele>541.0</ele><time>2026-04-11T10:06:19Z</time></trkpt><trkpt lat="40.321237663764144" lon="9.326835194887238"><ele>541.2</ele><time>2026-04-11T10:06:20Z</time></trkpt><trkpt lat="40.32122838983245" lon="9.326723930578098"><ele>541.4000000000001</ele><time>2026-04-11T10:06:21Z</time></trkpt><trkpt lat="40.32121973535869" lon="9.326589455704303"><ele>541.6</ele><time>2026-04-11T10:06:22Z</time></trkpt><trkpt lat="40.321197832895386" lon="9.326434158431246"><ele>541.8000000000001</ele><time>2026-04-11T10:06:23Z</time></trkpt><trkpt lat="40.32117829904437" lon="9.32627557606257"><ele>542.0</ele><time>2026-04-11T10:06:24Z</time></trkpt><trkpt lat="40.32116525574347" lon="9.326123652422668"><ele>542.25</ele><time>2026-04-11T10:06:25Z</time></trkpt><trkpt lat="40.3211524406047" lon="9.32598193706464"><ele>542.5</ele><time>2026-04-11T10:06:26Z</time></trkpt><trkpt lat="40.321139539982546" lon="9.325844237372177"><ele>542.75</ele><time>2026-04-11T10:06:27Z</time></trkpt><trkpt lat="40.32112341188133" lon="9.325696259701239"><ele>543.0</ele><time>2026-04-11T10:06:28Z</time></trkpt><trkpt lat="40.32110767551176" lon="9.325526353689254"><ele>543.25</ele><time>2026-04-11T10:06:29Z</time></trkpt><trkpt lat="40.32110145035643" lon="9.325343994210348"><ele>543.5</ele><time>2026-04-11T10:06:30Z</time></trkpt><trkpt lat="40.321087826854274" lon="9.325166162851035"><ele>543.75</ele><time>2026-04-11T10:06:31Z</time></trkpt><trkpt lat="40.32107467494569" lon="9.325005721768527"><ele>544.0</ele><time>2026-04-11T10:06:32Z</time></trkpt><trkpt lat="40.321058959186075" lon="9.32485565122518"><ele>544.4</ele><time>2026-04-11T10:06:33Z</time></trkpt><trkpt lat="40.32105062109455" lon="9.324713147875194"><ele>544.8</ele><time>2026-04-11T10:06:34Z</time></trkpt><trkpt lat="40.321043600319115" lon="9.32456969815801"><ele>545.2</ele><time>2026-04-11T10:06:35Z</time></trkpt><trkpt lat="40.321027530832616" lon="9.324435912775307"><ele>545.6</ele><time>2026-04-11T10:06:36Z</time></trkpt><trkpt lat="40.32099899625276" lon="9.324304624081464"><ele>546.0</ele><time>2026-04-11T10:06:37Z</time></trkpt><trkpt lat="40.32099627495863" lon="9.324167889229393"><ele>546.0</ele><time>2026-04-11T10:06:38Z</time></trkpt><trkpt lat="40.321013224342494" lon="9.324031220128418"><ele>546.0</ele><time>2026-04-11T10:06:39Z</time></trkpt><trkpt lat="40.32108000391468" lon="9.323913831069328"><ele>546.0</ele><time>2026-04-11T10:06:40Z</time></trkpt><trkpt lat="40.321098024349205" lon="9.323807470505725"><ele>546.0</ele><time>2026-04-11T10:06:41Z</time></trkpt><trkpt lat="40.3211153038046" lon="9.323710747727107"><ele>546.0</ele><time>2026-04-11T10:06:43Z</time></trkpt><trkpt lat="40.32113128609006" lon="9.323629770855996"><ele>546.0</ele><time>2026-04-11T10:06:47Z</time></trkpt><trkpt lat="40.32114526074374" lon="9.323502521791077"><ele>546.2</ele><time>2026-04-11T10:07:43Z</time></trkpt><trkpt lat="40.32115902061963" lon="9.323419736396744"><ele>546.4000000000001</ele><time>2026-04-11T10:07:44Z</time></trkpt><trkpt lat="40.32120200486628" lon="9.323280462130931"><ele>546.6</ele><time>2026-04-11T10:07:46Z</time></trkpt><trkpt lat="40.32113929482536" lon="9.323166843623826"><ele>546.8000000000001</ele><time>2026-04-11T10:07:47Z</time></trkpt><trkpt lat="40.32109963946998" lon="9.32306855164558"><ele>547.0</ele><time>2026-04-11T10:07:48Z</time></trkpt><trkpt lat="40.321039437597726" lon="9.322975839725519"><ele>547.6666666666667</ele><time>2026-04-11T10:07:49Z</time></trkpt><trkpt lat="40.32098177776179" lon="9.322881267937202"><ele>548.3333333333334</ele><time>2026-04-11T10:07:50Z</time></trkpt><trkpt lat="40.32093251827611" lon="9.322791993758553"><ele>549.0</ele><time>2026-04-11T10:07:51Z</time></trkpt><trkpt lat="40.32088959105587" lon="9.322699958035585"><ele>549.6666666666666</ele><time>2026-04-11T10:07:52Z</time></trkpt><trkpt lat="40.320847595243066" lon="9.322613130964834"><ele>550.3333333333333</ele><time>2026-04-11T10:07:53Z</time></trkpt><trkpt lat="40.32080771065281" lon="9.32252658897918"><ele>551.0</ele><time>2026-04-11T10:07:54Z</time></trkpt><trkpt lat="40.32076602435347" lon="9.322444053082627"><ele>551.0</ele><time>2026-04-11T10:07:55Z</time></trkpt><trkpt lat="40.320722218801315" lon="9.322357735048259"><ele>551.0</ele><time>2026-04-11T10:07:56Z</time></trkpt><trkpt lat="40.32067921472166" lon="9.322273046707167"><ele>551.0</ele><time>2026-04-11T10:07:57Z</time></trkpt><trkpt lat="40.32064731755109" lon="9.322178745829397"><ele>551.0</ele><time>2026-04-11T10:07:58Z</time></trkpt><trkpt lat="40.32062412434417" lon="9.322073696594407"><ele>551.0</ele><time>2026-04-11T10:07:59Z</time></trkpt><trkpt lat="40.32060672738271" lon="9.321973295132569"><ele>551.0</ele><time>2026-04-11T10:08:00Z</time></trkpt><trkpt lat="40.32058946393614" lon="9.32186657979457"><ele>550.5</ele><time>2026-04-11T10:08:01Z</time></trkpt><trkpt lat="40.320573579884794" lon="9.32176511187509"><ele>550.0</ele><time>2026-04-11T10:08:02Z</time></trkpt><trkpt lat="40.32055964442843" lon="9.321663244700114"><ele>549.5</ele><time>2026-04-11T10:08:03Z</time></trkpt><trkpt lat="40.32054503130866" lon="9.32158185697356"><ele>549.0</ele><time>2026-04-11T10:08:04Z</time></trkpt><trkpt lat="40.320532666110665" lon="9.321454197880163"><ele>548.5</ele><time>2026-04-11T10:08:06Z</time></trkpt><trkpt lat="40.32052957753132" lon="9.32134986045374"><ele>548.0</ele><time>2026-04-11T10:08:07Z</time></trkpt><trkpt lat="40.320527362592074" lon="9.32123687950107"><ele>547.8333333333333</ele><time>2026-04-11T10:08:08Z</time></trkpt><trkpt lat="40.320527349076634" lon="9.321122534108635"><ele>547.6666666666666</ele><time>2026-04-11T10:08:09Z</time></trkpt><trkpt lat="40.320533220869436" lon="9.321001718129352"><ele>547.5</ele><time>2026-04-11T10:08:10Z</time></trkpt><trkpt lat="40.32053038134582" lon="9.32089082172634"><ele>547.3333333333334</ele><time>2026-04-11T10:08:11Z</time></trkpt><trkpt lat="40.32052373129409" lon="9.320773382900049"><ele>547.1666666666667</ele><time>2026-04-11T10:08:12Z</time></trkpt><trkpt lat="40.320514059973064" lon="9.320674257099473"><ele>547.0</ele><time>2026-04-11T10:08:13Z</time></trkpt><trkpt lat="40.32051285704811" lon="9.320556636386355"><ele>547.0</ele><time>2026-04-11T10:08:14Z</time></trkpt><trkpt lat="40.32051751219002" lon="9.320442950055742"><ele>547.0</ele><time>2026-04-11T10:08:15Z</time></trkpt><trkpt lat="40.32052415363885" lon="9.320327310414914"><ele>547.0</ele><time>2026-04-11T10:08:16Z</time></trkpt><trkpt lat="40.32054338518069" lon="9.320215925850519"><ele>547.0</ele><time>2026-04-11T10:08:17Z</time></trkpt><trkpt lat="40.3205765994002" lon="9.320097970759353"><ele>547.0</ele><time>2026-04-11T10:08:18Z</time></trkpt><trkpt lat="40.3206150172452" lon="9.319987441075803"><ele>546.75</ele><time>2026-04-11T10:08:19Z</time></trkpt><trkpt lat="40.32073276176256" lon="9.319800997918652"><ele>546.5</ele><time>2026-04-11T10:08:21Z</time></trkpt><trkpt lat="40.32079625687183" lon="9.319701017784755"><ele>546.25</ele><time>2026-04-11T10:08:22Z</time></trkpt><trkpt lat="40.320860388440785" lon="9.319598099057954"><ele>546.0</ele><time>2026-04-11T10:08:23Z</time></trkpt><trkpt lat="40.32092032221484" lon="9.319511024657587"><ele>547.8</ele><time>2026-04-11T10:08:24Z</time></trkpt><trkpt lat="40.32098992536879" lon="9.31942646112186"><ele>549.6</ele><time>2026-04-11T10:08:25Z</time></trkpt><trkpt lat="40.32106992643063" lon="9.319359440396095"><ele>551.4</ele><time>2026-04-11T10:08:26Z</time></trkpt><trkpt lat="40.32117125133239" lon="9.319332711756125"><ele>553.2</ele><time>2026-04-11T10:08:27Z</time></trkpt><trkpt lat="40.32127353413781" lon="9.319317581876764"><ele>555.0</ele><time>2026-04-11T10:08:28Z</time></trkpt><trkpt lat="40.32138478634735" lon="9.31931485479844"><ele>555.5</ele><time>2026-04-11T10:08:29Z</time></trkpt><trkpt lat="40.32150837121479" lon="9.319314464750153"><ele>556.0</ele><time>2026-04-11T10:08:30Z</time></trkpt><trkpt lat="40.32163630288838" lon="9.3193068970827"><ele>556.5</ele><time>2026-04-11T10:08:31Z</time></trkpt><trkpt lat="40.32175593375677" lon="9.31928578643922"><ele>557.0</ele><time>2026-04-11T10:08:32Z</time></trkpt><trkpt lat="40.32186576861815" lon="9.319276246487293"><ele>557.0</ele><time>2026-04-11T10:08:33Z</time></trkpt><trkpt lat="40.32195635489926" lon="9.319298602065409"><ele>557.0</ele><time>2026-04-11T10:08:34Z</time></trkpt><trkpt lat="40.322045920275826" lon="9.31930940763946"><ele>557.0</ele><time>2026-04-11T10:08:35Z</time></trkpt><trkpt lat="40.32211085483569" lon="9.319400040148931"><ele>557.0</ele><time>2026-04-11T10:08:36Z</time></trkpt><trkpt lat="40.322202490318794" lon="9.319449350006611"><ele>557.0</ele><time>2026-04-11T10:08:37Z</time></trkpt><trkpt lat="40.322282389258866" lon="9.319474123389869"><ele>558.0</ele><time>2026-04-11T10:08:38Z</time></trkpt><trkpt lat="40.322362093910954" lon="9.319445662929606"><ele>559.0</ele><time>2026-04-11T10:08:39Z</time></trkpt><trkpt lat="40.32243108700913" lon="9.319378315187027"><ele>560.0</ele><time>2026-04-11T10:08:40Z</time></trkpt><trkpt lat="40.3224815111524" lon="9.319283863783204"><ele>561.0</ele><time>2026-04-11T10:08:41Z</time></trkpt><trkpt lat="40.32251770116524" lon="9.319172972543964"><ele>562.0</ele><time>2026-04-11T10:08:42Z</time></trkpt><trkpt lat="40.32252903463268" lon="9.31905602354365"><ele>563.0</ele><time>2026-04-11T10:08:43Z</time></trkpt><trkpt lat="40.32253070395496" lon="9.318949464566904"><ele>564.1666666666666</ele><time>2026-04-11T10:08:44Z</time></trkpt><trkpt lat="40.32255194914287" lon="9.318839641891818"><ele>565.3333333333333</ele><time>2026-04-11T10:08:45Z</time></trkpt><trkpt lat="40.32260851634108" lon="9.31875925000603"><ele>566.5</ele><time>2026-04-11T10:08:46Z</time></trkpt><trkpt lat="40.32267699362447" lon="9.318691044675038"><ele>567.6666666666666</ele><time>2026-04-11T10:08:47Z</time></trkpt><trkpt lat="40.32274469670281" lon="9.318605704196832"><ele>568.8333333333334</ele><time>2026-04-11T10:08:48Z</time></trkpt><trkpt lat="40.32281032246062" lon="9.318526291474534"><ele>570.0</ele><time>2026-04-11T10:08:49Z</time></trkpt><trkpt lat="40.32288007348727" lon="9.318429991063576"><ele>570.0</ele><time>2026-04-11T10:08:50Z</time></trkpt><trkpt lat="40.322962140493196" lon="9.318307968335757"><ele>570.0</ele><time>2026-04-11T10:08:51Z</time></trkpt><trkpt lat="40.32305489635174" lon="9.318177215120807"><ele>570.0</ele><time>2026-04-11T10:08:52Z</time></trkpt><trkpt lat="40.32315688253279" lon="9.318049773597906"><ele>570.0</ele><time>2026-04-11T10:08:53Z</time></trkpt><trkpt lat="40.3232640123487" lon="9.31791985491955"><ele>572.0</ele><time>2026-04-11T10:08:54Z</time></trkpt><trkpt lat="40.3233578010866" lon="9.317776479024612"><ele>574.0</ele><time>2026-04-11T10:08:55Z</time></trkpt><trkpt lat="40.3234486629942" lon="9.317612999423856"><ele>576.0</ele><time>2026-04-11T10:08:56Z</time></trkpt><trkpt lat="40.3235211394183" lon="9.31745839991201"><ele>578.0</ele><time>2026-04-11T10:08:57Z</time></trkpt><trkpt lat="40.323582978796765" lon="9.317283420466412"><ele>579.6666666666666</ele><time>2026-04-11T10:08:58Z</time></trkpt><trkpt lat="40.32364904295198" lon="9.317088640339627"><ele>581.3333333333334</ele><time>2026-04-11T10:08:59Z</time></trkpt><trkpt lat="40.323713243297846" lon="9.316881865045596"><ele>583.0</ele><time>2026-04-11T10:09:00Z</time></trkpt><trkpt lat="40.32378704292475" lon="9.316684878579347"><ele>583.0</ele><time>2026-04-11T10:09:01Z</time></trkpt><trkpt lat="40.323871456480504" lon="9.316472550284427"><ele>583.0</ele><time>2026-04-11T10:09:02Z</time></trkpt><trkpt lat="40.32395776256169" lon="9.316254921219826"><ele>583.0</ele><time>2026-04-11T10:09:03Z</time></trkpt><trkpt lat="40.324045361142616" lon="9.316049754533314"><ele>582.6666666666667</ele><time>2026-04-11T10:09:04Z</time></trkpt><trkpt lat="40.324128363671406" lon="9.315823663314669"><ele>582.3333333333334</ele><time>2026-04-11T10:09:05Z</time></trkpt><trkpt lat="40.324208817807644" lon="9.31560984430378"><ele>582.0</ele><time>2026-04-11T10:09:06Z</time></trkpt><trkpt lat="40.3242843771438" lon="9.315399711392235"><ele>582.0</ele><time>2026-04-11T10:09:07Z</time></trkpt><trkpt lat="40.3243578474892" lon="9.31518777921573"><ele>582.0</ele><time>2026-04-11T10:09:08Z</time></trkpt><trkpt lat="40.324435860213214" lon="9.314989107625237"><ele>582.0</ele><time>2026-04-11T10:09:09Z</time></trkpt><trkpt lat="40.324514618895606" lon="9.314784459847324"><ele>581.3333333333334</ele><time>2026-04-11T10:09:10Z</time></trkpt><trkpt lat="40.32459353138415" lon="9.314589698736478"><ele>580.6666666666667</ele><time>2026-04-11T10:09:10.999Z</time></trkpt><trkpt lat="40.324671349243815" lon="9.314411064328736"><ele>580.0</ele><time>2026-04-11T10:09:11.999Z</time></trkpt><trkpt lat="40.32475287312051" lon="9.314205948621739"><ele>580.0</ele><time>2026-04-11T10:09:12.999Z</time></trkpt><trkpt lat="40.324821533797156" lon="9.314014098004268"><ele>580.0</ele><time>2026-04-11T10:09:13.999Z</time></trkpt><trkpt lat="40.32490478935209" lon="9.313835905774093"><ele>580.0</ele><time>2026-04-11T10:09:14.999Z</time></trkpt><trkpt lat="40.32498940191002" lon="9.31364689009428"><ele>578.6666666666667</ele><time>2026-04-11T10:09:15.999Z</time></trkpt><trkpt lat="40.32506423270353" lon="9.31345804332463"><ele>577.3333333333334</ele><time>2026-04-11T10:09:16.999Z</time></trkpt><trkpt lat="40.32514016716918" lon="9.313262896306501"><ele>576.0</ele><time>2026-04-11T10:09:17.999Z</time></trkpt><trkpt lat="40.32521213809385" lon="9.313073706611005"><ele>574.0</ele><time>2026-04-11T10:09:18.999Z</time></trkpt><trkpt lat="40.32529072521135" lon="9.312877168071468"><ele>572.0</ele><time>2026-04-11T10:09:19.999Z</time></trkpt><trkpt lat="40.32536687970822" lon="9.312688299654306"><ele>570.0</ele><time>2026-04-11T10:09:20.999Z</time></trkpt><trkpt lat="40.32544454985882" lon="9.312499296942642"><ele>570.0</ele><time>2026-04-11T10:09:21.999Z</time></trkpt><trkpt lat="40.325524495157914" lon="9.312307675689896"><ele>570.0</ele><time>2026-04-11T10:09:22.999Z</time></trkpt><trkpt lat="40.32560075914977" lon="9.312118346771745"><ele>570.0</ele><time>2026-04-11T10:09:23.999Z</time></trkpt><trkpt lat="40.325678959616674" lon="9.311923366368518"><ele>570.0</ele><time>2026-04-11T10:09:24.999Z</time></trkpt><trkpt lat="40.3257571215424" lon="9.311729899109993"><ele>570.0</ele><time>2026-04-11T10:09:25.999Z</time></trkpt><trkpt lat="40.32583616370472" lon="9.311534374877919"><ele>570.0</ele><time>2026-04-11T10:09:26.999Z</time></trkpt><trkpt lat="40.32591552076048" lon="9.311334445514452"><ele>569.0</ele><time>2026-04-11T10:09:27.999Z</time></trkpt><trkpt lat="40.32599967313309" lon="9.311129145014037"><ele>568.0</ele><time>2026-04-11T10:09:28.999Z</time></trkpt><trkpt lat="40.326082456248265" lon="9.310925541616577"><ele>567.0</ele><time>2026-04-11T10:09:29.999Z</time></trkpt><trkpt lat="40.326165483415735" lon="9.310714767068028"><ele>567.3333333333334</ele><time>2026-04-11T10:09:30.999Z</time></trkpt><trkpt lat="40.32624662768378" lon="9.310509677730568"><ele>567.6666666666667</ele><time>2026-04-11T10:09:31.999Z</time></trkpt><trkpt lat="40.32632704439478" lon="9.310308333383867"><ele>568.0</ele><time>2026-04-11T10:09:33Z</time></trkpt><trkpt lat="40.32640604723747" lon="9.310108174636005"><ele>568.0</ele><time>2026-04-11T10:09:34Z</time></trkpt><trkpt lat="40.32648219423424" lon="9.309909812492743"><ele>568.0</ele><time>2026-04-11T10:09:35Z</time></trkpt><trkpt lat="40.32656397170126" lon="9.309707723744793"><ele>568.0</ele><time>2026-04-11T10:09:36Z</time></trkpt><trkpt lat="40.32664333506296" lon="9.30950960343986"><ele>569.0</ele><time>2026-04-11T10:09:37Z</time></trkpt><trkpt lat="40.326727272208686" lon="9.309310155999736"><ele>570.0</ele><time>2026-04-11T10:09:38Z</time></trkpt><trkpt lat="40.326810951662175" lon="9.309111241162217"><ele>571.0</ele><time>2026-04-11T10:09:39Z</time></trkpt><trkpt lat="40.3268938450901" lon="9.308907558048642"><ele>571.6666666666667</ele><time>2026-04-11T10:09:40Z</time></trkpt><trkpt lat="40.32697246259828" lon="9.308703281735951"><ele>572.3333333333334</ele><time>2026-04-11T10:09:41Z</time></trkpt><trkpt lat="40.32704969298347" lon="9.308500084077615"><ele>573.0</ele><time>2026-04-11T10:09:42Z</time></trkpt><trkpt lat="40.32713063478663" lon="9.308298684115048"><ele>573.0</ele><time>2026-04-11T10:09:43Z</time></trkpt><trkpt lat="40.32721047868123" lon="9.308104882365768"><ele>573.0</ele><time>2026-04-11T10:09:44Z</time></trkpt><trkpt lat="40.327281459980604" lon="9.3079172699324"><ele>573.0</ele><time>2026-04-11T10:09:45Z</time></trkpt><trkpt lat="40.327342259634506" lon="9.30774335951925"><ele>574.75</ele><time>2026-04-11T10:09:46Z</time></trkpt><trkpt lat="40.32739316965677" lon="9.3075838501053"><ele>576.5</ele><time>2026-04-11T10:09:47Z</time></trkpt><trkpt lat="40.32744806066211" lon="9.307424276184669"><ele>578.25</ele><time>2026-04-11T10:09:48Z</time></trkpt><trkpt lat="40.3274911755729" lon="9.307289599277935"><ele>580.0</ele><time>2026-04-11T10:09:49Z</time></trkpt><trkpt lat="40.32752465508841" lon="9.307184073573724"><ele>580.0</ele><time>2026-04-11T10:09:50Z</time></trkpt><trkpt lat="40.32755427564058" lon="9.30709064634397"><ele>580.0</ele><time>2026-04-11T10:09:51Z</time></trkpt><trkpt lat="40.32764787687378" lon="9.307047817928858"><ele>580.0</ele><time>2026-04-11T10:09:53Z</time></trkpt><trkpt lat="40.32768902451379" lon="9.307196141291664"><ele>580.0</ele><time>2026-04-11T10:09:55Z</time></trkpt><trkpt lat="40.32769118711648" lon="9.307303765280038"><ele>580.0</ele><time>2026-04-11T10:09:56Z</time></trkpt><trkpt lat="40.3276750441892" lon="9.307426236053452"><ele>580.0</ele><time>2026-04-11T10:09:57Z</time></trkpt><trkpt lat="40.32766791001925" lon="9.30754835682154"><ele>580.0</ele><time>2026-04-11T10:09:58Z</time></trkpt><trkpt lat="40.32767804197697" lon="9.30768300855998"><ele>580.0</ele><time>2026-04-11T10:09:59Z</time></trkpt><trkpt lat="40.32768980330581" lon="9.30782444180814"><ele>580.0</ele><time>2026-04-11T10:10:00Z</time></trkpt><trkpt lat="40.32770741277392" lon="9.30796091988575"><ele>580.0</ele><time>2026-04-11T10:10:01Z</time></trkpt><trkpt lat="40.327727415451484" lon="9.308092806176601"><ele>579.3333333333334</ele><time>2026-04-11T10:10:02Z</time></trkpt><trkpt lat="40.32775015751042" lon="9.30821428704095"><ele>578.6666666666667</ele><time>2026-04-11T10:10:03Z</time></trkpt><trkpt lat="40.32777394452308" lon="9.308312829787546"><ele>578.0</ele><time>2026-04-11T10:10:04Z</time></trkpt><trkpt lat="40.3278054145838" lon="9.308390829169713"><ele>577.3333333333334</ele><time>2026-04-11T10:10:05Z</time></trkpt><trkpt lat="40.32780204018722" lon="9.308507560301493"><ele>576.6666666666666</ele><time>2026-04-11T10:10:07Z</time></trkpt><trkpt lat="40.327687880042724" lon="9.308505827766302"><ele>576.0</ele><time>2026-04-11T10:10:09Z</time></trkpt><trkpt lat="40.32761963111544" lon="9.308447942160118"><ele>576.0</ele><time>2026-04-11T10:10:10Z</time></trkpt><trkpt lat="40.3275190453365" lon="9.30837673317581"><ele>576.0</ele><time>2026-04-11T10:10:11Z</time></trkpt><trkpt lat="40.327413003156344" lon="9.308298185792095"><ele>576.0</ele><time>2026-04-11T10:10:12Z</time></trkpt><trkpt lat="40.32730328700648" lon="9.308225593724591"><ele>576.0</ele><time>2026-04-11T10:10:13Z</time></trkpt><trkpt lat="40.327200748543596" lon="9.308158748020526"><ele>576.2</ele><time>2026-04-11T10:10:14Z</time></trkpt><trkpt lat="40.3271085890227" lon="9.308098015399079"><ele>576.4000000000001</ele><time>2026-04-11T10:10:15Z</time></trkpt><trkpt lat="40.32701555108478" lon="9.308045844644038"><ele>576.6</ele><time>2026-04-11T10:10:16Z</time></trkpt><trkpt lat="40.326960336572824" lon="9.307944354852197"><ele>576.8000000000001</ele><time>2026-04-11T10:10:17Z</time></trkpt><trkpt lat="40.3269372450532" lon="9.30783361404141"><ele>577.0</ele><time>2026-04-11T10:10:18Z</time></trkpt><trkpt lat="40.3269301493137" lon="9.307724058891447"><ele>577.0</ele><time>2026-04-11T10:10:19Z</time></trkpt><trkpt lat="40.3269376761453" lon="9.307629071670936"><ele>577.0</ele><time>2026-04-11T10:10:20Z</time></trkpt><trkpt lat="40.32696815086715" lon="9.307494821950046"><ele>577.0</ele><time>2026-04-11T10:10:21Z</time></trkpt><trkpt lat="40.3270051515583" lon="9.307357845211982"><ele>577.0</ele><time>2026-04-11T10:10:22Z</time></trkpt><trkpt lat="40.32706289088069" lon="9.307224600656943"><ele>577.0</ele><time>2026-04-11T10:10:23Z</time></trkpt><trkpt lat="40.32717469588991" lon="9.307142013736227"><ele>578.25</ele><time>2026-04-11T10:10:24Z</time></trkpt><trkpt lat="40.32725792692054" lon="9.307017110564551"><ele>579.5</ele><time>2026-04-11T10:10:25Z</time></trkpt><trkpt lat="40.32735535149177" lon="9.306907338433735"><ele>580.75</ele><time>2026-04-11T10:10:26Z</time></trkpt><trkpt lat="40.32741750690744" lon="9.30675813787286"><ele>582.0</ele><time>2026-04-11T10:10:27Z</time></trkpt><trkpt lat="40.3274335342458" lon="9.306595909418485"><ele>582.0</ele><time>2026-04-11T10:10:28Z</time></trkpt><trkpt lat="40.327397155309754" lon="9.306452867005849"><ele>582.0</ele><time>2026-04-11T10:10:29Z</time></trkpt><trkpt lat="40.32732641653926" lon="9.306334333103626"><ele>582.0</ele><time>2026-04-11T10:10:30Z</time></trkpt><trkpt lat="40.32722909569766" lon="9.306240075141407"><ele>582.0</ele><time>2026-04-11T10:10:31Z</time></trkpt><trkpt lat="40.327110570879874" lon="9.306174833938437"><ele>582.25</ele><time>2026-04-11T10:10:32Z</time></trkpt><trkpt lat="40.32698571865751" lon="9.306117777125564"><ele>582.5</ele><time>2026-04-11T10:10:33Z</time></trkpt><trkpt lat="40.32685909148646" lon="9.30605391193662"><ele>582.75</ele><time>2026-04-11T10:10:34Z</time></trkpt><trkpt lat="40.326734258263706" lon="9.30598521647815"><ele>583.0</ele><time>2026-04-11T10:10:35Z</time></trkpt><trkpt lat="40.32660164629986" lon="9.305914526441375"><ele>583.0</ele><time>2026-04-11T10:10:36Z</time></trkpt><trkpt lat="40.32647114407187" lon="9.305842207540085"><ele>583.0</ele><time>2026-04-11T10:10:37Z</time></trkpt><trkpt lat="40.32633098433504" lon="9.305771942088345"><ele>583.0</ele><time>2026-04-11T10:10:38Z</time></trkpt><trkpt lat="40.32618913731804" lon="9.305704464693632"><ele>583.0</ele><time>2026-04-11T10:10:39Z</time></trkpt><trkpt lat="40.326061976927186" lon="9.30563775622399"><ele>583.0</ele><time>2026-04-11T10:10:40Z</time></trkpt><trkpt lat="40.325934882151174" lon="9.305565572513904"><ele>583.0</ele><time>2026-04-11T10:10:41Z</time></trkpt><trkpt lat="40.32583121413975" lon="9.305452821761923"><ele>583.0</ele><time>2026-04-11T10:10:42Z</time></trkpt><trkpt lat="40.32573252197521" lon="9.305332955846623"><ele>583.0</ele><time>2026-04-11T10:10:43Z</time></trkpt><trkpt lat="40.32563519406126" lon="9.30520987583546"><ele>581.75</ele><time>2026-04-11T10:10:44Z</time></trkpt><trkpt lat="40.32554430528419" lon="9.30508985749861"><ele>580.5</ele><time>2026-04-11T10:10:45Z</time></trkpt><trkpt lat="40.32545007012981" lon="9.304962915089499"><ele>579.25</ele><time>2026-04-11T10:10:46Z</time></trkpt><trkpt lat="40.325351731215825" lon="9.304842431342871"><ele>578.0</ele><time>2026-04-11T10:10:47Z</time></trkpt><trkpt lat="40.32525558970254" lon="9.304718800812088"><ele>578.0</ele><time>2026-04-11T10:10:48Z</time></trkpt><trkpt lat="40.325170335398404" lon="9.304609881282571"><ele>578.0</ele><time>2026-04-11T10:10:49Z</time></trkpt><trkpt lat="40.325095225495176" lon="9.304504572916382"><ele>578.0</ele><time>2026-04-11T10:10:50Z</time></trkpt><trkpt lat="40.32501728446247" lon="9.304395134151635"><ele>578.0</ele><time>2026-04-11T10:10:51Z</time></trkpt><trkpt lat="40.324927976821634" lon="9.304282477790089"><ele>578.0</ele><time>2026-04-11T10:10:52Z</time></trkpt><trkpt lat="40.32482442087609" lon="9.304176991162901"><ele>578.0</ele><time>2026-04-11T10:10:53Z</time></trkpt><trkpt lat="40.324707838017304" lon="9.304080495271569"><ele>578.0</ele><time>2026-04-11T10:10:54Z</time></trkpt><trkpt lat="40.32458461963404" lon="9.303984646081778"><ele>578.0</ele><time>2026-04-11T10:10:55Z</time></trkpt><trkpt lat="40.32446602430727" lon="9.303888801177212"><ele>578.0</ele><time>2026-04-11T10:10:56Z</time></trkpt><trkpt lat="40.32435887385731" lon="9.303797692580561"><ele>578.0</ele><time>2026-04-11T10:10:57Z</time></trkpt><trkpt lat="40.324262470733814" lon="9.303707751093977"><ele>578.0</ele><time>2026-04-11T10:10:58Z</time></trkpt><trkpt lat="40.324170157711144" lon="9.303627330515123"><ele>578.0</ele><time>2026-04-11T10:10:59Z</time></trkpt><trkpt lat="40.32407251569281" lon="9.303544773873409"><ele>578.0</ele><time>2026-04-11T10:11:00Z</time></trkpt><trkpt lat="40.323981950443226" lon="9.303449772294444"><ele>578.0</ele><time>2026-04-11T10:11:01Z</time></trkpt><trkpt lat="40.32387927929029" lon="9.303351430337141"><ele>578.0</ele><time>2026-04-11T10:11:02Z</time></trkpt><trkpt lat="40.32377317447683" lon="9.303246393769538"><ele>578.0</ele><time>2026-04-11T10:11:03Z</time></trkpt><trkpt lat="40.323661635454826" lon="9.303134335871357"><ele>578.0</ele><time>2026-04-11T10:11:04Z</time></trkpt><trkpt lat="40.32354674434797" lon="9.30302394970385"><ele>578.0</ele><time>2026-04-11T10:11:05Z</time></trkpt><trkpt lat="40.323430167772585" lon="9.302902012323724"><ele>578.0</ele><time>2026-04-11T10:11:06Z</time></trkpt><trkpt lat="40.323317047473665" lon="9.30277609178331"><ele>578.0</ele><time>2026-04-11T10:11:07Z</time></trkpt><trkpt lat="40.323211611318584" lon="9.30263056207371"><ele>578.0</ele><time>2026-04-11T10:11:08Z</time></trkpt><trkpt lat="40.323106006546986" lon="9.302478443686624"><ele>578.0</ele><time>2026-04-11T10:11:09Z</time></trkpt><trkpt lat="40.32300262708747" lon="9.302326395958803"><ele>578.0</ele><time>2026-04-11T10:11:10Z</time></trkpt><trkpt lat="40.3229001124246" lon="9.302168977152828"><ele>578.6666666666666</ele><time>2026-04-11T10:11:11Z</time></trkpt><trkpt lat="40.322794146942165" lon="9.302008999854873"><ele>579.3333333333334</ele><time>2026-04-11T10:11:12Z</time></trkpt><trkpt lat="40.32268719680292" lon="9.3018491349838"><ele>580.0</ele><time>2026-04-11T10:11:13Z</time></trkpt><trkpt lat="40.32258256295068" lon="9.301701092706885"><ele>580.0</ele><time>2026-04-11T10:11:14Z</time></trkpt><trkpt lat="40.32248130876697" lon="9.301556729499325"><ele>580.0</ele><time>2026-04-11T10:11:15Z</time></trkpt><trkpt lat="40.3223871418489" lon="9.301421349212406"><ele>580.0</ele><time>2026-04-11T10:11:15.999Z</time></trkpt><trkpt lat="40.32229601238904" lon="9.30129593985561"><ele>580.0</ele><time>2026-04-11T10:11:16.999Z</time></trkpt><trkpt lat="40.322211919589826" lon="9.301169564419881"><ele>579.5</ele><time>2026-04-11T10:11:17.999Z</time></trkpt><trkpt lat="40.32213493921649" lon="9.301037893052118"><ele>579.0</ele><time>2026-04-11T10:11:18.999Z</time></trkpt><trkpt lat="40.322061128162545" lon="9.300885668763042"><ele>578.5</ele><time>2026-04-11T10:11:19.999Z</time></trkpt><trkpt lat="40.322026744021855" lon="9.300713926285534"><ele>578.0</ele><time>2026-04-11T10:11:20.999Z</time></trkpt><trkpt lat="40.32199772423266" lon="9.300551121951589"><ele>578.0</ele><time>2026-04-11T10:11:21.999Z</time></trkpt><trkpt lat="40.321966452697644" lon="9.300420543833148"><ele>578.0</ele><time>2026-04-11T10:11:22.999Z</time></trkpt><trkpt lat="40.321953614594854" lon="9.300314562467092"><ele>578.0</ele><time>2026-04-11T10:11:23.999Z</time></trkpt><trkpt lat="40.321933302236715" lon="9.300215271426636"><ele>578.0</ele><time>2026-04-11T10:11:24.999Z</time></trkpt><trkpt lat="40.32191178270583" lon="9.30010270445781"><ele>578.0</ele><time>2026-04-11T10:11:25.999Z</time></trkpt><trkpt lat="40.321889110659626" lon="9.29996560793361"><ele>578.0</ele><time>2026-04-11T10:11:26.999Z</time></trkpt><trkpt lat="40.321870094746" lon="9.29982155850862"><ele>578.0</ele><time>2026-04-11T10:11:27.999Z</time></trkpt><trkpt lat="40.3218452769141" lon="9.299668055885702"><ele>578.0</ele><time>2026-04-11T10:11:28.999Z</time></trkpt><trkpt lat="40.321818312743794" lon="9.299512476262969"><ele>578.0</ele><time>2026-04-11T10:11:29.999Z</time></trkpt><trkpt lat="40.32179039125107" lon="9.299347924593707"><ele>578.5</ele><time>2026-04-11T10:11:30.999Z</time></trkpt><trkpt lat="40.32176617113896" lon="9.299177520179038"><ele>579.0</ele><time>2026-04-11T10:11:31.999Z</time></trkpt><trkpt lat="40.32174246119638" lon="9.299002186129972"><ele>579.5</ele><time>2026-04-11T10:11:32.999Z</time></trkpt><trkpt lat="40.32172118302075" lon="9.298828983449383"><ele>580.0</ele><time>2026-04-11T10:11:33.999Z</time></trkpt><trkpt lat="40.32169995489452" lon="9.29864595320412"><ele>580.5</ele><time>2026-04-11T10:11:34.999Z</time></trkpt><trkpt lat="40.321680462393594" lon="9.298460730355185"><ele>581.0</ele><time>2026-04-11T10:11:35.999Z</time></trkpt><trkpt lat="40.32165546941898" lon="9.29828433755038"><ele>581.5</ele><time>2026-04-11T10:11:36.999Z</time></trkpt><trkpt lat="40.321624369603796" lon="9.298099180329817"><ele>582.0</ele><time>2026-04-11T10:11:37.999Z</time></trkpt><trkpt lat="40.321595772053044" lon="9.29791403598143"><ele>582.3333333333334</ele><time>2026-04-11T10:11:39Z</time></trkpt><trkpt lat="40.32157084997374" lon="9.297721356084306"><ele>582.6666666666667</ele><time>2026-04-11T10:11:40Z</time></trkpt><trkpt lat="40.32154602671221" lon="9.297523619783814"><ele>583.0</ele><time>2026-04-11T10:11:41Z</time></trkpt><trkpt lat="40.32151700684628" lon="9.297323833493385"><ele>582.5</ele><time>2026-04-11T10:11:42Z</time></trkpt><trkpt lat="40.32148544475846" lon="9.297134683033892"><ele>582.0</ele><time>2026-04-11T10:11:43Z</time></trkpt><trkpt lat="40.321458027500206" lon="9.296961931581864"><ele>581.5</ele><time>2026-04-11T10:11:44Z</time></trkpt><trkpt lat="40.32143662661873" lon="9.296796093616916"><ele>581.0</ele><time>2026-04-11T10:11:45Z</time></trkpt><trkpt lat="40.32141437865036" lon="9.296643205288431"><ele>580.6</ele><time>2026-04-11T10:11:46Z</time></trkpt><trkpt lat="40.32139323800899" lon="9.296504631040344"><ele>580.2</ele><time>2026-04-11T10:11:47Z</time></trkpt><trkpt lat="40.32137525547374" lon="9.296368614152753"><ele>579.8</ele><time>2026-04-11T10:11:48Z</time></trkpt><trkpt lat="40.32135821744888" lon="9.296231421120156"><ele>579.4</ele><time>2026-04-11T10:11:49Z</time></trkpt><trkpt lat="40.32133909659623" lon="9.296093598033465"><ele>579.0</ele><time>2026-04-11T10:11:50Z</time></trkpt><trkpt lat="40.32132152651941" lon="9.295978009012284"><ele>579.0</ele><time>2026-04-11T10:11:51Z</time></trkpt><trkpt lat="40.321297433538064" lon="9.295846029989274"><ele>579.0</ele><time>2026-04-11T10:11:52Z</time></trkpt><trkpt lat="40.32127216254942" lon="9.29571668884096"><ele>579.0</ele><time>2026-04-11T10:11:53Z</time></trkpt><trkpt lat="40.32124359985411" lon="9.295569792574126"><ele>579.0</ele><time>2026-04-11T10:11:54Z</time></trkpt><trkpt lat="40.321232879901956" lon="9.295414043077743"><ele>579.0</ele><time>2026-04-11T10:11:55Z</time></trkpt><trkpt lat="40.321216398738585" lon="9.295262151116024"><ele>579.0</ele><time>2026-04-11T10:11:56Z</time></trkpt><trkpt lat="40.32119316868985" lon="9.295092694003424"><ele>579.0</ele><time>2026-04-11T10:11:57Z</time></trkpt><trkpt lat="40.32116558104439" lon="9.2949122979095"><ele>579.0</ele><time>2026-04-11T10:11:58Z</time></trkpt><trkpt lat="40.321147425596365" lon="9.294722966440496"><ele>579.0</ele><time>2026-04-11T10:11:59Z</time></trkpt><trkpt lat="40.3211337576658" lon="9.294523727496182"><ele>578.3333333333334</ele><time>2026-04-11T10:12:00Z</time></trkpt><trkpt lat="40.32112683964242" lon="9.294310186225264"><ele>577.6666666666667</ele><time>2026-04-11T10:12:01Z</time></trkpt><trkpt lat="40.3211207096498" lon="9.294107377298074"><ele>577.0</ele><time>2026-04-11T10:12:02Z</time></trkpt><trkpt lat="40.32111219946411" lon="9.293920843987356"><ele>576.75</ele><time>2026-04-11T10:12:03Z</time></trkpt><trkpt lat="40.321106288490924" lon="9.293747151929006"><ele>576.5</ele><time>2026-04-11T10:12:04Z</time></trkpt><trkpt lat="40.32110571484542" lon="9.293580897344574"><ele>576.25</ele><time>2026-04-11T10:12:05Z</time></trkpt><trkpt lat="40.32113630530163" lon="9.293424829279962"><ele>576.0</ele><time>2026-04-11T10:12:06Z</time></trkpt><trkpt lat="40.32114367665845" lon="9.2932748230289"><ele>576.0</ele><time>2026-04-11T10:12:07Z</time></trkpt><trkpt lat="40.32118955537538" lon="9.293133129956347"><ele>576.0</ele><time>2026-04-11T10:12:08Z</time></trkpt><trkpt lat="40.32124938986201" lon="9.293016728602039"><ele>576.0</ele><time>2026-04-11T10:12:09Z</time></trkpt><trkpt lat="40.32133253036199" lon="9.292924292880256"><ele>576.0</ele><time>2026-04-11T10:12:10Z</time></trkpt><trkpt lat="40.321425210888115" lon="9.292868904262301"><ele>576.0</ele><time>2026-04-11T10:12:11Z</time></trkpt><trkpt lat="40.32151924507588" lon="9.292840815084187"><ele>575.0</ele><time>2026-04-11T10:12:12Z</time></trkpt><trkpt lat="40.32160954496356" lon="9.292829803665699"><ele>575.0</ele><time>2026-04-11T10:12:13Z</time></trkpt><trkpt lat="40.3216984493686" lon="9.292797158862106"><ele>575.0</ele><time>2026-04-11T10:12:15Z</time></trkpt></trkseg></trk></gpx>